<?xml version="1.0" encoding="UTF-8" standalone="no" ?>
<gpx xmlns="http://www.topografix.com/GPX/1/1" xmlns:xsi="http://www.w3.org/2001/XMLSchema-instance" xsi:schemaLocation="http://www.topografix.com/GPX/1/1 http://www.topografix.com/GPX/1/1/gpx.xsd" version="1.1" creator="VisuGPX - https://www.visugpx.com">
  <metadata>
    <name>PONTOISE</name>
    <desc><![CDATA[Rando BPM - Pontoise]]></desc>
  </metadata>
  <trk>
    <name><![CDATA[PONTOISE_1]]></name>
    <trkseg>
      <trkpt lat="49.07622" lon="2.10523">
        <ele>94.5</ele>
        <time>2016-02-21T08:41:44Z</time>
      </trkpt>
      <trkpt lat="49.07621" lon="2.10522">
        <ele>94.2</ele>
        <time>2016-02-21T08:41:45Z</time>
      </trkpt>
      <trkpt lat="49.07611" lon="2.10513">
        <ele>89</ele>
        <time>2016-02-21T08:41:54Z</time>
      </trkpt>
      <trkpt lat="49.07608" lon="2.1051">
        <ele>87.9</ele>
        <time>2016-02-21T08:41:58Z</time>
      </trkpt>
      <trkpt lat="49.07606" lon="2.10499">
        <ele>85.9</ele>
        <time>2016-02-21T08:42:05Z</time>
      </trkpt>
      <trkpt lat="49.076" lon="2.10493">
        <ele>85.1</ele>
        <time>2016-02-21T08:42:11Z</time>
      </trkpt>
      <trkpt lat="49.07595" lon="2.10486">
        <ele>84.4</ele>
        <time>2016-02-21T08:42:15Z</time>
      </trkpt>
      <trkpt lat="49.07587" lon="2.10479">
        <ele>84.3</ele>
        <time>2016-02-21T08:42:20Z</time>
      </trkpt>
      <trkpt lat="49.07581" lon="2.10476">
        <ele>84.8</ele>
        <time>2016-02-21T08:42:27Z</time>
      </trkpt>
      <trkpt lat="49.07574" lon="2.10469">
        <ele>84.7</ele>
        <time>2016-02-21T08:42:33Z</time>
      </trkpt>
      <trkpt lat="49.07567" lon="2.10468">
        <ele>84</ele>
        <time>2016-02-21T08:42:38Z</time>
      </trkpt>
      <trkpt lat="49.07565" lon="2.10479">
        <ele>83.8</ele>
        <time>2016-02-21T08:42:45Z</time>
      </trkpt>
      <trkpt lat="49.0756" lon="2.10489">
        <ele>83.6</ele>
        <time>2016-02-21T08:42:52Z</time>
      </trkpt>
      <trkpt lat="49.07562" lon="2.10502">
        <ele>83.1</ele>
        <time>2016-02-21T08:42:54Z</time>
      </trkpt>
      <trkpt lat="49.07553" lon="2.10504">
        <ele>82.8</ele>
        <time>2016-02-21T08:43:00Z</time>
      </trkpt>
      <trkpt lat="49.07546" lon="2.105">
        <ele>83.2</ele>
        <time>2016-02-21T08:43:04Z</time>
      </trkpt>
      <trkpt lat="49.0754" lon="2.10499">
        <ele>85.2</ele>
        <time>2016-02-21T08:43:11Z</time>
      </trkpt>
      <trkpt lat="49.07533" lon="2.10497">
        <ele>87.1</ele>
        <time>2016-02-21T08:43:17Z</time>
      </trkpt>
      <trkpt lat="49.07524" lon="2.10497">
        <ele>86.9</ele>
        <time>2016-02-21T08:43:23Z</time>
      </trkpt>
      <trkpt lat="49.07515" lon="2.10497">
        <ele>86.8</ele>
        <time>2016-02-21T08:43:28Z</time>
      </trkpt>
      <trkpt lat="49.07508" lon="2.10494">
        <ele>87.2</ele>
        <time>2016-02-21T08:43:31Z</time>
      </trkpt>
      <trkpt lat="49.07501" lon="2.10489">
        <ele>87.8</ele>
        <time>2016-02-21T08:43:36Z</time>
      </trkpt>
      <trkpt lat="49.07497" lon="2.10501">
        <ele>85.7</ele>
        <time>2016-02-21T08:43:42Z</time>
      </trkpt>
      <trkpt lat="49.07491" lon="2.10504">
        <ele>83.6</ele>
        <time>2016-02-21T08:43:49Z</time>
      </trkpt>
      <trkpt lat="49.07482" lon="2.10504">
        <ele>82.1</ele>
        <time>2016-02-21T08:43:55Z</time>
      </trkpt>
      <trkpt lat="49.07475" lon="2.10507">
        <ele>81.7</ele>
        <time>2016-02-21T08:44:02Z</time>
      </trkpt>
      <trkpt lat="49.07468" lon="2.10511">
        <ele>81.4</ele>
        <time>2016-02-21T08:44:08Z</time>
      </trkpt>
      <trkpt lat="49.0746" lon="2.10511">
        <ele>81.3</ele>
        <time>2016-02-21T08:44:15Z</time>
      </trkpt>
      <trkpt lat="49.07453" lon="2.10519">
        <ele>81.7</ele>
        <time>2016-02-21T08:44:20Z</time>
      </trkpt>
      <trkpt lat="49.07449" lon="2.10528">
        <ele>81.4</ele>
        <time>2016-02-21T08:44:27Z</time>
      </trkpt>
      <trkpt lat="49.07443" lon="2.10537">
        <ele>82</ele>
        <time>2016-02-21T08:44:33Z</time>
      </trkpt>
      <trkpt lat="49.07436" lon="2.10545">
        <ele>82.2</ele>
        <time>2016-02-21T08:44:40Z</time>
      </trkpt>
      <trkpt lat="49.07432" lon="2.10556">
        <ele>82.2</ele>
        <time>2016-02-21T08:44:46Z</time>
      </trkpt>
      <trkpt lat="49.07427" lon="2.10564">
        <ele>82.2</ele>
        <time>2016-02-21T08:44:52Z</time>
      </trkpt>
      <trkpt lat="49.07422" lon="2.10572">
        <ele>82.1</ele>
        <time>2016-02-21T08:44:57Z</time>
      </trkpt>
      <trkpt lat="49.07422" lon="2.10581">
        <ele>81.8</ele>
        <time>2016-02-21T08:45:04Z</time>
      </trkpt>
      <trkpt lat="49.07428" lon="2.1059">
        <ele>81.3</ele>
        <time>2016-02-21T08:45:11Z</time>
      </trkpt>
      <trkpt lat="49.07431" lon="2.10595">
        <ele>81.9</ele>
        <time>2016-02-21T08:45:18Z</time>
      </trkpt>
      <trkpt lat="49.07437" lon="2.10604">
        <ele>81.5</ele>
        <time>2016-02-21T08:45:23Z</time>
      </trkpt>
      <trkpt lat="49.07444" lon="2.10601">
        <ele>81.3</ele>
        <time>2016-02-21T08:45:27Z</time>
      </trkpt>
      <trkpt lat="49.07449" lon="2.10605">
        <ele>80.2</ele>
        <time>2016-02-21T08:45:34Z</time>
      </trkpt>
      <trkpt lat="49.07453" lon="2.10614">
        <ele>80.2</ele>
        <time>2016-02-21T08:45:40Z</time>
      </trkpt>
      <trkpt lat="49.0746" lon="2.10622">
        <ele>80.2</ele>
        <time>2016-02-21T08:45:44Z</time>
      </trkpt>
      <trkpt lat="49.07467" lon="2.10629">
        <ele>79.9</ele>
        <time>2016-02-21T08:45:48Z</time>
      </trkpt>
      <trkpt lat="49.07474" lon="2.10637">
        <ele>79.9</ele>
        <time>2016-02-21T08:45:54Z</time>
      </trkpt>
      <trkpt lat="49.07481" lon="2.10643">
        <ele>80</ele>
        <time>2016-02-21T08:45:57Z</time>
      </trkpt>
      <trkpt lat="49.07482" lon="2.10654">
        <ele>81.4</ele>
        <time>2016-02-21T08:46:04Z</time>
      </trkpt>
      <trkpt lat="49.07485" lon="2.10666">
        <ele>82.6</ele>
        <time>2016-02-21T08:46:10Z</time>
      </trkpt>
      <trkpt lat="49.0749" lon="2.10674">
        <ele>83.5</ele>
        <time>2016-02-21T08:46:15Z</time>
      </trkpt>
      <trkpt lat="49.07493" lon="2.10685">
        <ele>84.2</ele>
        <time>2016-02-21T08:46:22Z</time>
      </trkpt>
      <trkpt lat="49.07495" lon="2.10694">
        <ele>85.8</ele>
        <time>2016-02-21T08:46:29Z</time>
      </trkpt>
      <trkpt lat="49.075" lon="2.10703">
        <ele>86.3</ele>
        <time>2016-02-21T08:46:36Z</time>
      </trkpt>
      <trkpt lat="49.07503" lon="2.10714">
        <ele>86.4</ele>
        <time>2016-02-21T08:46:42Z</time>
      </trkpt>
      <trkpt lat="49.07507" lon="2.10724">
        <ele>86.9</ele>
        <time>2016-02-21T08:46:49Z</time>
      </trkpt>
      <trkpt lat="49.07512" lon="2.10734">
        <ele>86.9</ele>
        <time>2016-02-21T08:46:55Z</time>
      </trkpt>
      <trkpt lat="49.07518" lon="2.10742">
        <ele>86.8</ele>
        <time>2016-02-21T08:47:01Z</time>
      </trkpt>
      <trkpt lat="49.07522" lon="2.1075">
        <ele>87.2</ele>
        <time>2016-02-21T08:47:08Z</time>
      </trkpt>
      <trkpt lat="49.07522" lon="2.10755">
        <ele>87.6</ele>
        <time>2016-02-21T08:47:15Z</time>
      </trkpt>
      <trkpt lat="49.07519" lon="2.10766">
        <ele>87.7</ele>
        <time>2016-02-21T08:47:20Z</time>
      </trkpt>
      <trkpt lat="49.07519" lon="2.10777">
        <ele>87.7</ele>
        <time>2016-02-21T08:47:25Z</time>
      </trkpt>
      <trkpt lat="49.07521" lon="2.1079">
        <ele>87.9</ele>
        <time>2016-02-21T08:47:31Z</time>
      </trkpt>
      <trkpt lat="49.07523" lon="2.10802">
        <ele>88.8</ele>
        <time>2016-02-21T08:47:38Z</time>
      </trkpt>
      <trkpt lat="49.07526" lon="2.10812">
        <ele>89.1</ele>
        <time>2016-02-21T08:47:45Z</time>
      </trkpt>
      <trkpt lat="49.07524" lon="2.10824">
        <ele>89</ele>
        <time>2016-02-21T08:47:52Z</time>
      </trkpt>
      <trkpt lat="49.07522" lon="2.10835">
        <ele>88.6</ele>
        <time>2016-02-21T08:47:58Z</time>
      </trkpt>
      <trkpt lat="49.07518" lon="2.10846">
        <ele>88.3</ele>
        <time>2016-02-21T08:48:04Z</time>
      </trkpt>
      <trkpt lat="49.07517" lon="2.10857">
        <ele>88.2</ele>
        <time>2016-02-21T08:48:10Z</time>
      </trkpt>
      <trkpt lat="49.07513" lon="2.10867">
        <ele>88.5</ele>
        <time>2016-02-21T08:48:16Z</time>
      </trkpt>
      <trkpt lat="49.07511" lon="2.10879">
        <ele>87.3</ele>
        <time>2016-02-21T08:48:22Z</time>
      </trkpt>
      <trkpt lat="49.07505" lon="2.10885">
        <ele>85.8</ele>
        <time>2016-02-21T08:48:28Z</time>
      </trkpt>
      <trkpt lat="49.07497" lon="2.10888">
        <ele>85.2</ele>
        <time>2016-02-21T08:48:34Z</time>
      </trkpt>
      <trkpt lat="49.07489" lon="2.10888">
        <ele>84.8</ele>
        <time>2016-02-21T08:48:38Z</time>
      </trkpt>
      <trkpt lat="49.0748" lon="2.10889">
        <ele>84</ele>
        <time>2016-02-21T08:48:44Z</time>
      </trkpt>
      <trkpt lat="49.07473" lon="2.10888">
        <ele>83.5</ele>
        <time>2016-02-21T08:48:48Z</time>
      </trkpt>
      <trkpt lat="49.07467" lon="2.10891">
        <ele>82.4</ele>
        <time>2016-02-21T08:48:55Z</time>
      </trkpt>
      <trkpt lat="49.07458" lon="2.10891">
        <ele>81.7</ele>
        <time>2016-02-21T08:49:01Z</time>
      </trkpt>
      <trkpt lat="49.07451" lon="2.10889">
        <ele>81.1</ele>
        <time>2016-02-21T08:49:07Z</time>
      </trkpt>
      <trkpt lat="49.07444" lon="2.10898">
        <ele>80.8</ele>
        <time>2016-02-21T08:49:12Z</time>
      </trkpt>
      <trkpt lat="49.07437" lon="2.10904">
        <ele>80.9</ele>
        <time>2016-02-21T08:49:18Z</time>
      </trkpt>
      <trkpt lat="49.07431" lon="2.10908">
        <ele>80.1</ele>
        <time>2016-02-21T08:49:25Z</time>
      </trkpt>
      <trkpt lat="49.07424" lon="2.10909">
        <ele>78.9</ele>
        <time>2016-02-21T08:49:31Z</time>
      </trkpt>
      <trkpt lat="49.07415" lon="2.10915">
        <ele>77.8</ele>
        <time>2016-02-21T08:49:38Z</time>
      </trkpt>
      <trkpt lat="49.07408" lon="2.10917">
        <ele>77.5</ele>
        <time>2016-02-21T08:49:44Z</time>
      </trkpt>
      <trkpt lat="49.074" lon="2.10917">
        <ele>77.2</ele>
        <time>2016-02-21T08:49:50Z</time>
      </trkpt>
      <trkpt lat="49.07391" lon="2.10919">
        <ele>77.4</ele>
        <time>2016-02-21T08:49:56Z</time>
      </trkpt>
      <trkpt lat="49.07383" lon="2.10923">
        <ele>77.6</ele>
        <time>2016-02-21T08:50:03Z</time>
      </trkpt>
      <trkpt lat="49.07375" lon="2.10922">
        <ele>77.7</ele>
        <time>2016-02-21T08:50:08Z</time>
      </trkpt>
      <trkpt lat="49.07367" lon="2.10923">
        <ele>77.7</ele>
        <time>2016-02-21T08:50:14Z</time>
      </trkpt>
      <trkpt lat="49.0736" lon="2.10927">
        <ele>78.2</ele>
        <time>2016-02-21T08:50:20Z</time>
      </trkpt>
      <trkpt lat="49.07353" lon="2.10929">
        <ele>78</ele>
        <time>2016-02-21T08:50:25Z</time>
      </trkpt>
      <trkpt lat="49.07345" lon="2.10932">
        <ele>77.3</ele>
        <time>2016-02-21T08:50:32Z</time>
      </trkpt>
      <trkpt lat="49.07337" lon="2.10936">
        <ele>77.1</ele>
        <time>2016-02-21T08:50:38Z</time>
      </trkpt>
      <trkpt lat="49.07331" lon="2.1094">
        <ele>77.2</ele>
        <time>2016-02-21T08:50:42Z</time>
      </trkpt>
      <trkpt lat="49.07323" lon="2.10941">
        <ele>77.4</ele>
        <time>2016-02-21T08:50:49Z</time>
      </trkpt>
      <trkpt lat="49.07315" lon="2.10944">
        <ele>77.2</ele>
        <time>2016-02-21T08:50:55Z</time>
      </trkpt>
      <trkpt lat="49.07307" lon="2.10946">
        <ele>77</ele>
        <time>2016-02-21T08:51:00Z</time>
      </trkpt>
      <trkpt lat="49.073" lon="2.10952">
        <ele>76.1</ele>
        <time>2016-02-21T08:51:07Z</time>
      </trkpt>
      <trkpt lat="49.07294" lon="2.1096">
        <ele>75.5</ele>
        <time>2016-02-21T08:51:12Z</time>
      </trkpt>
      <trkpt lat="49.07286" lon="2.10962">
        <ele>74.9</ele>
        <time>2016-02-21T08:51:17Z</time>
      </trkpt>
      <trkpt lat="49.07278" lon="2.10965">
        <ele>74.2</ele>
        <time>2016-02-21T08:51:24Z</time>
      </trkpt>
      <trkpt lat="49.07271" lon="2.10971">
        <ele>73.6</ele>
        <time>2016-02-21T08:51:30Z</time>
      </trkpt>
      <trkpt lat="49.07264" lon="2.10977">
        <ele>72.7</ele>
        <time>2016-02-21T08:51:36Z</time>
      </trkpt>
      <trkpt lat="49.07256" lon="2.10982">
        <ele>71.7</ele>
        <time>2016-02-21T08:51:43Z</time>
      </trkpt>
      <trkpt lat="49.07249" lon="2.10986">
        <ele>71.1</ele>
        <time>2016-02-21T08:51:50Z</time>
      </trkpt>
      <trkpt lat="49.07242" lon="2.10985">
        <ele>70.6</ele>
        <time>2016-02-21T08:51:57Z</time>
      </trkpt>
      <trkpt lat="49.07237" lon="2.10978">
        <ele>70.4</ele>
        <time>2016-02-21T08:52:04Z</time>
      </trkpt>
      <trkpt lat="49.07231" lon="2.10971">
        <ele>70</ele>
        <time>2016-02-21T08:52:10Z</time>
      </trkpt>
      <trkpt lat="49.07225" lon="2.10964">
        <ele>69.4</ele>
        <time>2016-02-21T08:52:17Z</time>
      </trkpt>
      <trkpt lat="49.07222" lon="2.10958">
        <ele>68.8</ele>
        <time>2016-02-21T08:52:24Z</time>
      </trkpt>
      <trkpt lat="49.07217" lon="2.10947">
        <ele>68.2</ele>
        <time>2016-02-21T08:52:30Z</time>
      </trkpt>
      <trkpt lat="49.07211" lon="2.1094">
        <ele>67.5</ele>
        <time>2016-02-21T08:52:35Z</time>
      </trkpt>
      <trkpt lat="49.07205" lon="2.10935">
        <ele>67</ele>
        <time>2016-02-21T08:52:40Z</time>
      </trkpt>
      <trkpt lat="49.07198" lon="2.10931">
        <ele>66.6</ele>
        <time>2016-02-21T08:52:47Z</time>
      </trkpt>
      <trkpt lat="49.0719" lon="2.10925">
        <ele>65.8</ele>
        <time>2016-02-21T08:52:54Z</time>
      </trkpt>
      <trkpt lat="49.07184" lon="2.10918">
        <ele>65.3</ele>
        <time>2016-02-21T08:53:00Z</time>
      </trkpt>
      <trkpt lat="49.07178" lon="2.10912">
        <ele>64.9</ele>
        <time>2016-02-21T08:53:05Z</time>
      </trkpt>
      <trkpt lat="49.07171" lon="2.10907">
        <ele>64.5</ele>
        <time>2016-02-21T08:53:12Z</time>
      </trkpt>
      <trkpt lat="49.07163" lon="2.10901">
        <ele>63.5</ele>
        <time>2016-02-21T08:53:19Z</time>
      </trkpt>
      <trkpt lat="49.07156" lon="2.10898">
        <ele>63.3</ele>
        <time>2016-02-21T08:53:25Z</time>
      </trkpt>
      <trkpt lat="49.0715" lon="2.10894">
        <ele>63.2</ele>
        <time>2016-02-21T08:53:32Z</time>
      </trkpt>
      <trkpt lat="49.07142" lon="2.10892">
        <ele>63</ele>
        <time>2016-02-21T08:53:38Z</time>
      </trkpt>
      <trkpt lat="49.07134" lon="2.10888">
        <ele>63.2</ele>
        <time>2016-02-21T08:53:44Z</time>
      </trkpt>
      <trkpt lat="49.07128" lon="2.10883">
        <ele>62.9</ele>
        <time>2016-02-21T08:53:50Z</time>
      </trkpt>
      <trkpt lat="49.0712" lon="2.10878">
        <ele>62.8</ele>
        <time>2016-02-21T08:53:56Z</time>
      </trkpt>
      <trkpt lat="49.07113" lon="2.10875">
        <ele>63.2</ele>
        <time>2016-02-21T08:54:01Z</time>
      </trkpt>
      <trkpt lat="49.07105" lon="2.10871">
        <ele>63.8</ele>
        <time>2016-02-21T08:54:07Z</time>
      </trkpt>
      <trkpt lat="49.07097" lon="2.10866">
        <ele>63.8</ele>
        <time>2016-02-21T08:54:13Z</time>
      </trkpt>
      <trkpt lat="49.0709" lon="2.10863">
        <ele>63.2</ele>
        <time>2016-02-21T08:54:19Z</time>
      </trkpt>
      <trkpt lat="49.07083" lon="2.10862">
        <ele>63.3</ele>
        <time>2016-02-21T08:54:26Z</time>
      </trkpt>
      <trkpt lat="49.07074" lon="2.10859">
        <ele>63.3</ele>
        <time>2016-02-21T08:54:32Z</time>
      </trkpt>
      <trkpt lat="49.07067" lon="2.10856">
        <ele>63.6</ele>
        <time>2016-02-21T08:54:38Z</time>
      </trkpt>
      <trkpt lat="49.07059" lon="2.10855">
        <ele>63</ele>
        <time>2016-02-21T08:54:43Z</time>
      </trkpt>
      <trkpt lat="49.07053" lon="2.10854">
        <ele>62.5</ele>
        <time>2016-02-21T08:54:50Z</time>
      </trkpt>
      <trkpt lat="49.07046" lon="2.10847">
        <ele>62</ele>
        <time>2016-02-21T08:54:56Z</time>
      </trkpt>
      <trkpt lat="49.07038" lon="2.10847">
        <ele>61.7</ele>
        <time>2016-02-21T08:55:03Z</time>
      </trkpt>
      <trkpt lat="49.07031" lon="2.10847">
        <ele>61.6</ele>
        <time>2016-02-21T08:55:10Z</time>
      </trkpt>
      <trkpt lat="49.07024" lon="2.10844">
        <ele>61.8</ele>
        <time>2016-02-21T08:55:15Z</time>
      </trkpt>
      <trkpt lat="49.0702" lon="2.10846">
        <ele>62</ele>
        <time>2016-02-21T08:55:22Z</time>
      </trkpt>
      <trkpt lat="49.07013" lon="2.10844">
        <ele>62</ele>
        <time>2016-02-21T08:55:39Z</time>
      </trkpt>
      <trkpt lat="49.07006" lon="2.10842">
        <ele>62.4</ele>
        <time>2016-02-21T08:55:45Z</time>
      </trkpt>
      <trkpt lat="49.06998" lon="2.10841">
        <ele>62.6</ele>
        <time>2016-02-21T08:55:51Z</time>
      </trkpt>
      <trkpt lat="49.0699" lon="2.10838">
        <ele>62.7</ele>
        <time>2016-02-21T08:55:56Z</time>
      </trkpt>
      <trkpt lat="49.06982" lon="2.10837">
        <ele>63.3</ele>
        <time>2016-02-21T08:56:02Z</time>
      </trkpt>
      <trkpt lat="49.06974" lon="2.10837">
        <ele>63.6</ele>
        <time>2016-02-21T08:56:09Z</time>
      </trkpt>
      <trkpt lat="49.06967" lon="2.10832">
        <ele>63.1</ele>
        <time>2016-02-21T08:56:14Z</time>
      </trkpt>
      <trkpt lat="49.0696" lon="2.10829">
        <ele>62.6</ele>
        <time>2016-02-21T08:56:19Z</time>
      </trkpt>
      <trkpt lat="49.06952" lon="2.10827">
        <ele>62</ele>
        <time>2016-02-21T08:56:24Z</time>
      </trkpt>
      <trkpt lat="49.06944" lon="2.10826">
        <ele>61.5</ele>
        <time>2016-02-21T08:56:30Z</time>
      </trkpt>
      <trkpt lat="49.06936" lon="2.10824">
        <ele>61.1</ele>
        <time>2016-02-21T08:56:37Z</time>
      </trkpt>
      <trkpt lat="49.06929" lon="2.1082">
        <ele>61.2</ele>
        <time>2016-02-21T08:56:42Z</time>
      </trkpt>
      <trkpt lat="49.06921" lon="2.1082">
        <ele>61.3</ele>
        <time>2016-02-21T08:56:46Z</time>
      </trkpt>
      <trkpt lat="49.06914" lon="2.1082">
        <ele>61.5</ele>
        <time>2016-02-21T08:56:51Z</time>
      </trkpt>
      <trkpt lat="49.06907" lon="2.10823">
        <ele>61.2</ele>
        <time>2016-02-21T08:56:56Z</time>
      </trkpt>
      <trkpt lat="49.06899" lon="2.10828">
        <ele>60.7</ele>
        <time>2016-02-21T08:57:02Z</time>
      </trkpt>
      <trkpt lat="49.06893" lon="2.10829">
        <ele>60</ele>
        <time>2016-02-21T08:57:09Z</time>
      </trkpt>
      <trkpt lat="49.06886" lon="2.10832">
        <ele>59.5</ele>
        <time>2016-02-21T08:57:13Z</time>
      </trkpt>
      <trkpt lat="49.06878" lon="2.10835">
        <ele>58.8</ele>
        <time>2016-02-21T08:57:19Z</time>
      </trkpt>
      <trkpt lat="49.0687" lon="2.10838">
        <ele>57.9</ele>
        <time>2016-02-21T08:57:25Z</time>
      </trkpt>
      <trkpt lat="49.06862" lon="2.10842">
        <ele>57.5</ele>
        <time>2016-02-21T08:57:32Z</time>
      </trkpt>
      <trkpt lat="49.06855" lon="2.10845">
        <ele>57.2</ele>
        <time>2016-02-21T08:57:37Z</time>
      </trkpt>
      <trkpt lat="49.06847" lon="2.10847">
        <ele>57.4</ele>
        <time>2016-02-21T08:57:43Z</time>
      </trkpt>
      <trkpt lat="49.0684" lon="2.10856">
        <ele>57.6</ele>
        <time>2016-02-21T08:57:49Z</time>
      </trkpt>
      <trkpt lat="49.06833" lon="2.10858">
        <ele>57.8</ele>
        <time>2016-02-21T08:57:54Z</time>
      </trkpt>
      <trkpt lat="49.06825" lon="2.10859">
        <ele>58</ele>
        <time>2016-02-21T08:58:00Z</time>
      </trkpt>
      <trkpt lat="49.06817" lon="2.10863">
        <ele>57.9</ele>
        <time>2016-02-21T08:58:05Z</time>
      </trkpt>
      <trkpt lat="49.0681" lon="2.10866">
        <ele>57.6</ele>
        <time>2016-02-21T08:58:10Z</time>
      </trkpt>
      <trkpt lat="49.06803" lon="2.10872">
        <ele>57.4</ele>
        <time>2016-02-21T08:58:17Z</time>
      </trkpt>
      <trkpt lat="49.06795" lon="2.10875">
        <ele>57.1</ele>
        <time>2016-02-21T08:58:24Z</time>
      </trkpt>
      <trkpt lat="49.06788" lon="2.10879">
        <ele>56.8</ele>
        <time>2016-02-21T08:58:29Z</time>
      </trkpt>
      <trkpt lat="49.0678" lon="2.10881">
        <ele>55.9</ele>
        <time>2016-02-21T08:58:34Z</time>
      </trkpt>
      <trkpt lat="49.06773" lon="2.10885">
        <ele>55.4</ele>
        <time>2016-02-21T08:58:40Z</time>
      </trkpt>
      <trkpt lat="49.06766" lon="2.10891">
        <ele>54.8</ele>
        <time>2016-02-21T08:58:46Z</time>
      </trkpt>
      <trkpt lat="49.06758" lon="2.10894">
        <ele>55</ele>
        <time>2016-02-21T08:58:52Z</time>
      </trkpt>
      <trkpt lat="49.06751" lon="2.10898">
        <ele>55</ele>
        <time>2016-02-21T08:58:58Z</time>
      </trkpt>
      <trkpt lat="49.06743" lon="2.10901">
        <ele>54.1</ele>
        <time>2016-02-21T08:59:03Z</time>
      </trkpt>
      <trkpt lat="49.06736" lon="2.10903">
        <ele>53</ele>
        <time>2016-02-21T08:59:10Z</time>
      </trkpt>
      <trkpt lat="49.06728" lon="2.10904">
        <ele>52.7</ele>
        <time>2016-02-21T08:59:16Z</time>
      </trkpt>
      <trkpt lat="49.0672" lon="2.10904">
        <ele>52.5</ele>
        <time>2016-02-21T08:59:20Z</time>
      </trkpt>
      <trkpt lat="49.06714" lon="2.10909">
        <ele>52.8</ele>
        <time>2016-02-21T08:59:27Z</time>
      </trkpt>
      <trkpt lat="49.06707" lon="2.10915">
        <ele>53.8</ele>
        <time>2016-02-21T08:59:33Z</time>
      </trkpt>
      <trkpt lat="49.067" lon="2.10917">
        <ele>53.7</ele>
        <time>2016-02-21T08:59:39Z</time>
      </trkpt>
      <trkpt lat="49.06696" lon="2.10916">
        <ele>54.1</ele>
        <time>2016-02-21T08:59:46Z</time>
      </trkpt>
      <trkpt lat="49.06692" lon="2.10912">
        <ele>53.5</ele>
        <time>2016-02-21T08:59:53Z</time>
      </trkpt>
      <trkpt lat="49.06685" lon="2.10918">
        <ele>53.6</ele>
        <time>2016-02-21T08:59:58Z</time>
      </trkpt>
      <trkpt lat="49.06678" lon="2.10921">
        <ele>54</ele>
        <time>2016-02-21T09:00:05Z</time>
      </trkpt>
      <trkpt lat="49.06672" lon="2.10912">
        <ele>54</ele>
        <time>2016-02-21T09:00:12Z</time>
      </trkpt>
      <trkpt lat="49.06668" lon="2.109">
        <ele>55.2</ele>
        <time>2016-02-21T09:00:19Z</time>
      </trkpt>
      <trkpt lat="49.06663" lon="2.10893">
        <ele>54.7</ele>
        <time>2016-02-21T09:00:24Z</time>
      </trkpt>
      <trkpt lat="49.0666" lon="2.10882">
        <ele>55</ele>
        <time>2016-02-21T09:00:30Z</time>
      </trkpt>
      <trkpt lat="49.06657" lon="2.10873">
        <ele>54.5</ele>
        <time>2016-02-21T09:00:37Z</time>
      </trkpt>
      <trkpt lat="49.0665" lon="2.10873">
        <ele>54</ele>
        <time>2016-02-21T09:00:44Z</time>
      </trkpt>
      <trkpt lat="49.06642" lon="2.10873">
        <ele>52.8</ele>
        <time>2016-02-21T09:00:51Z</time>
      </trkpt>
      <trkpt lat="49.06634" lon="2.10869">
        <ele>53</ele>
        <time>2016-02-21T09:00:58Z</time>
      </trkpt>
      <trkpt lat="49.06629" lon="2.10863">
        <ele>53.4</ele>
        <time>2016-02-21T09:01:05Z</time>
      </trkpt>
      <trkpt lat="49.06624" lon="2.10857">
        <ele>53.9</ele>
        <time>2016-02-21T09:01:12Z</time>
      </trkpt>
      <trkpt lat="49.06619" lon="2.1085">
        <ele>54</ele>
        <time>2016-02-21T09:01:19Z</time>
      </trkpt>
      <trkpt lat="49.06613" lon="2.10842">
        <ele>54.3</ele>
        <time>2016-02-21T09:01:25Z</time>
      </trkpt>
      <trkpt lat="49.06606" lon="2.10836">
        <ele>54.2</ele>
        <time>2016-02-21T09:01:32Z</time>
      </trkpt>
      <trkpt lat="49.066" lon="2.10831">
        <ele>54</ele>
        <time>2016-02-21T09:01:39Z</time>
      </trkpt>
      <trkpt lat="49.06593" lon="2.10827">
        <ele>53.8</ele>
        <time>2016-02-21T09:01:45Z</time>
      </trkpt>
      <trkpt lat="49.06586" lon="2.10823">
        <ele>53.3</ele>
        <time>2016-02-21T09:01:51Z</time>
      </trkpt>
      <trkpt lat="49.06579" lon="2.10818">
        <ele>53.4</ele>
        <time>2016-02-21T09:01:58Z</time>
      </trkpt>
      <trkpt lat="49.06571" lon="2.10819">
        <ele>53.7</ele>
        <time>2016-02-21T09:02:04Z</time>
      </trkpt>
      <trkpt lat="49.06564" lon="2.1082">
        <ele>53.7</ele>
        <time>2016-02-21T09:02:11Z</time>
      </trkpt>
      <trkpt lat="49.06556" lon="2.10818">
        <ele>53.8</ele>
        <time>2016-02-21T09:02:15Z</time>
      </trkpt>
      <trkpt lat="49.06549" lon="2.10819">
        <ele>53.8</ele>
        <time>2016-02-21T09:02:21Z</time>
      </trkpt>
      <trkpt lat="49.0654" lon="2.10822">
        <ele>53.7</ele>
        <time>2016-02-21T09:02:25Z</time>
      </trkpt>
      <trkpt lat="49.06536" lon="2.10819">
        <ele>54.2</ele>
        <time>2016-02-21T09:02:32Z</time>
      </trkpt>
      <trkpt lat="49.0653" lon="2.10819">
        <ele>54.7</ele>
        <time>2016-02-21T09:02:39Z</time>
      </trkpt>
      <trkpt lat="49.06524" lon="2.1082">
        <ele>55.6</ele>
        <time>2016-02-21T09:02:46Z</time>
      </trkpt>
      <trkpt lat="49.06516" lon="2.10818">
        <ele>56</ele>
        <time>2016-02-21T09:02:52Z</time>
      </trkpt>
      <trkpt lat="49.06509" lon="2.10812">
        <ele>56</ele>
        <time>2016-02-21T09:02:57Z</time>
      </trkpt>
      <trkpt lat="49.06502" lon="2.10807">
        <ele>56.2</ele>
        <time>2016-02-21T09:03:02Z</time>
      </trkpt>
      <trkpt lat="49.06495" lon="2.10804">
        <ele>56</ele>
        <time>2016-02-21T09:03:09Z</time>
      </trkpt>
      <trkpt lat="49.06487" lon="2.108">
        <ele>55.8</ele>
        <time>2016-02-21T09:03:15Z</time>
      </trkpt>
      <trkpt lat="49.0648" lon="2.10794">
        <ele>55.6</ele>
        <time>2016-02-21T09:03:22Z</time>
      </trkpt>
      <trkpt lat="49.06473" lon="2.10792">
        <ele>55.7</ele>
        <time>2016-02-21T09:03:29Z</time>
      </trkpt>
      <trkpt lat="49.06463" lon="2.10786">
        <ele>55.3</ele>
        <time>2016-02-21T09:03:35Z</time>
      </trkpt>
      <trkpt lat="49.06457" lon="2.10783">
        <ele>54.9</ele>
        <time>2016-02-21T09:03:42Z</time>
      </trkpt>
      <trkpt lat="49.06456" lon="2.10783">
        <ele>55.1</ele>
        <time>2016-02-21T09:03:49Z</time>
      </trkpt>
      <trkpt lat="49.06449" lon="2.10781">
        <ele>55.4</ele>
        <time>2016-02-21T09:03:56Z</time>
      </trkpt>
      <trkpt lat="49.0644" lon="2.10778">
        <ele>55.8</ele>
        <time>2016-02-21T09:04:02Z</time>
      </trkpt>
      <trkpt lat="49.06433" lon="2.10777">
        <ele>56.6</ele>
        <time>2016-02-21T09:04:09Z</time>
      </trkpt>
      <trkpt lat="49.06426" lon="2.10772">
        <ele>57.2</ele>
        <time>2016-02-21T09:04:15Z</time>
      </trkpt>
      <trkpt lat="49.06419" lon="2.10768">
        <ele>58</ele>
        <time>2016-02-21T09:04:21Z</time>
      </trkpt>
      <trkpt lat="49.06412" lon="2.10765">
        <ele>59.1</ele>
        <time>2016-02-21T09:04:27Z</time>
      </trkpt>
      <trkpt lat="49.06404" lon="2.10761">
        <ele>59.6</ele>
        <time>2016-02-21T09:04:33Z</time>
      </trkpt>
      <trkpt lat="49.06396" lon="2.10757">
        <ele>59.4</ele>
        <time>2016-02-21T09:04:37Z</time>
      </trkpt>
      <trkpt lat="49.06388" lon="2.1075">
        <ele>59.2</ele>
        <time>2016-02-21T09:04:40Z</time>
      </trkpt>
      <trkpt lat="49.06382" lon="2.10744">
        <ele>59</ele>
        <time>2016-02-21T09:04:45Z</time>
      </trkpt>
      <trkpt lat="49.06375" lon="2.1074">
        <ele>59.2</ele>
        <time>2016-02-21T09:04:52Z</time>
      </trkpt>
      <trkpt lat="49.06368" lon="2.10734">
        <ele>58.8</ele>
        <time>2016-02-21T09:04:58Z</time>
      </trkpt>
      <trkpt lat="49.06362" lon="2.1073">
        <ele>58.3</ele>
        <time>2016-02-21T09:05:02Z</time>
      </trkpt>
      <trkpt lat="49.06354" lon="2.10728">
        <ele>58.4</ele>
        <time>2016-02-21T09:05:09Z</time>
      </trkpt>
      <trkpt lat="49.06346" lon="2.10727">
        <ele>58.8</ele>
        <time>2016-02-21T09:05:14Z</time>
      </trkpt>
      <trkpt lat="49.06338" lon="2.10726">
        <ele>59.3</ele>
        <time>2016-02-21T09:05:21Z</time>
      </trkpt>
      <trkpt lat="49.06328" lon="2.10722">
        <ele>59.3</ele>
        <time>2016-02-21T09:05:24Z</time>
      </trkpt>
      <trkpt lat="49.06322" lon="2.10713">
        <ele>59</ele>
        <time>2016-02-21T09:05:30Z</time>
      </trkpt>
      <trkpt lat="49.06315" lon="2.10708">
        <ele>57.6</ele>
        <time>2016-02-21T09:05:37Z</time>
      </trkpt>
      <trkpt lat="49.06308" lon="2.10703">
        <ele>57.1</ele>
        <time>2016-02-21T09:05:44Z</time>
      </trkpt>
      <trkpt lat="49.06302" lon="2.10697">
        <ele>57.2</ele>
        <time>2016-02-21T09:05:51Z</time>
      </trkpt>
      <trkpt lat="49.06293" lon="2.10694">
        <ele>57.4</ele>
        <time>2016-02-21T09:05:57Z</time>
      </trkpt>
      <trkpt lat="49.06286" lon="2.10689">
        <ele>57.3</ele>
        <time>2016-02-21T09:06:03Z</time>
      </trkpt>
      <trkpt lat="49.06284" lon="2.10683">
        <ele>57.1</ele>
        <time>2016-02-21T09:06:10Z</time>
      </trkpt>
      <trkpt lat="49.0628" lon="2.10676">
        <ele>56.4</ele>
        <time>2016-02-21T09:06:17Z</time>
      </trkpt>
      <trkpt lat="49.06274" lon="2.1067">
        <ele>56.4</ele>
        <time>2016-02-21T09:06:24Z</time>
      </trkpt>
      <trkpt lat="49.06267" lon="2.10665">
        <ele>56.6</ele>
        <time>2016-02-21T09:06:30Z</time>
      </trkpt>
      <trkpt lat="49.06261" lon="2.10667">
        <ele>56.7</ele>
        <time>2016-02-21T09:06:37Z</time>
      </trkpt>
      <trkpt lat="49.06254" lon="2.10665">
        <ele>57.1</ele>
        <time>2016-02-21T09:06:43Z</time>
      </trkpt>
      <trkpt lat="49.06246" lon="2.10664">
        <ele>57.3</ele>
        <time>2016-02-21T09:06:49Z</time>
      </trkpt>
      <trkpt lat="49.0624" lon="2.1066">
        <ele>57.4</ele>
        <time>2016-02-21T09:06:56Z</time>
      </trkpt>
      <trkpt lat="49.06234" lon="2.10655">
        <ele>57.4</ele>
        <time>2016-02-21T09:07:02Z</time>
      </trkpt>
      <trkpt lat="49.06228" lon="2.10648">
        <ele>57.6</ele>
        <time>2016-02-21T09:07:08Z</time>
      </trkpt>
      <trkpt lat="49.06222" lon="2.10647">
        <ele>56.9</ele>
        <time>2016-02-21T09:07:15Z</time>
      </trkpt>
      <trkpt lat="49.06214" lon="2.10648">
        <ele>55.8</ele>
        <time>2016-02-21T09:07:20Z</time>
      </trkpt>
      <trkpt lat="49.06205" lon="2.10647">
        <ele>55</ele>
        <time>2016-02-21T09:07:25Z</time>
      </trkpt>
      <trkpt lat="49.06197" lon="2.10649">
        <ele>54.4</ele>
        <time>2016-02-21T09:07:28Z</time>
      </trkpt>
      <trkpt lat="49.0619" lon="2.10658">
        <ele>53.5</ele>
        <time>2016-02-21T09:07:32Z</time>
      </trkpt>
      <trkpt lat="49.06183" lon="2.10662">
        <ele>52.6</ele>
        <time>2016-02-21T09:07:37Z</time>
      </trkpt>
      <trkpt lat="49.06176" lon="2.10665">
        <ele>51.7</ele>
        <time>2016-02-21T09:07:43Z</time>
      </trkpt>
      <trkpt lat="49.06171" lon="2.10672">
        <ele>51.1</ele>
        <time>2016-02-21T09:07:50Z</time>
      </trkpt>
      <trkpt lat="49.06169" lon="2.10683">
        <ele>50.8</ele>
        <time>2016-02-21T09:07:57Z</time>
      </trkpt>
      <trkpt lat="49.06164" lon="2.10692">
        <ele>49.9</ele>
        <time>2016-02-21T09:08:03Z</time>
      </trkpt>
      <trkpt lat="49.06156" lon="2.10697">
        <ele>49.3</ele>
        <time>2016-02-21T09:08:07Z</time>
      </trkpt>
      <trkpt lat="49.06149" lon="2.10703">
        <ele>47.9</ele>
        <time>2016-02-21T09:08:14Z</time>
      </trkpt>
      <trkpt lat="49.06143" lon="2.10712">
        <ele>47.1</ele>
        <time>2016-02-21T09:08:21Z</time>
      </trkpt>
      <trkpt lat="49.06136" lon="2.10718">
        <ele>46.2</ele>
        <time>2016-02-21T09:08:27Z</time>
      </trkpt>
      <trkpt lat="49.0613" lon="2.10725">
        <ele>45.9</ele>
        <time>2016-02-21T09:08:34Z</time>
      </trkpt>
      <trkpt lat="49.06125" lon="2.10733">
        <ele>45.3</ele>
        <time>2016-02-21T09:08:40Z</time>
      </trkpt>
      <trkpt lat="49.06119" lon="2.10741">
        <ele>45.1</ele>
        <time>2016-02-21T09:08:46Z</time>
      </trkpt>
      <trkpt lat="49.06115" lon="2.10749">
        <ele>44.5</ele>
        <time>2016-02-21T09:08:53Z</time>
      </trkpt>
      <trkpt lat="49.06107" lon="2.10755">
        <ele>44</ele>
        <time>2016-02-21T09:08:59Z</time>
      </trkpt>
      <trkpt lat="49.06101" lon="2.10761">
        <ele>43.6</ele>
        <time>2016-02-21T09:09:04Z</time>
      </trkpt>
      <trkpt lat="49.06093" lon="2.10766">
        <ele>42.8</ele>
        <time>2016-02-21T09:09:10Z</time>
      </trkpt>
      <trkpt lat="49.06087" lon="2.10775">
        <ele>41.9</ele>
        <time>2016-02-21T09:09:17Z</time>
      </trkpt>
      <trkpt lat="49.0608" lon="2.10781">
        <ele>40.5</ele>
        <time>2016-02-21T09:09:24Z</time>
      </trkpt>
      <trkpt lat="49.06076" lon="2.1079">
        <ele>39.6</ele>
        <time>2016-02-21T09:09:31Z</time>
      </trkpt>
      <trkpt lat="49.0607" lon="2.10799">
        <ele>39</ele>
        <time>2016-02-21T09:09:37Z</time>
      </trkpt>
      <trkpt lat="49.06063" lon="2.10804">
        <ele>38.5</ele>
        <time>2016-02-21T09:09:44Z</time>
      </trkpt>
      <trkpt lat="49.06057" lon="2.10812">
        <ele>37.9</ele>
        <time>2016-02-21T09:09:51Z</time>
      </trkpt>
      <trkpt lat="49.06052" lon="2.10816">
        <ele>37.3</ele>
        <time>2016-02-21T09:09:58Z</time>
      </trkpt>
      <trkpt lat="49.06045" lon="2.10823">
        <ele>36.9</ele>
        <time>2016-02-21T09:10:03Z</time>
      </trkpt>
      <trkpt lat="49.06037" lon="2.10828">
        <ele>36.4</ele>
        <time>2016-02-21T09:10:09Z</time>
      </trkpt>
      <trkpt lat="49.06031" lon="2.10834">
        <ele>36.2</ele>
        <time>2016-02-21T09:10:15Z</time>
      </trkpt>
      <trkpt lat="49.06026" lon="2.10838">
        <ele>36.3</ele>
        <time>2016-02-21T09:10:22Z</time>
      </trkpt>
      <trkpt lat="49.06019" lon="2.10838">
        <ele>36.1</ele>
        <time>2016-02-21T09:10:29Z</time>
      </trkpt>
      <trkpt lat="49.06011" lon="2.10839">
        <ele>35.8</ele>
        <time>2016-02-21T09:10:35Z</time>
      </trkpt>
      <trkpt lat="49.06003" lon="2.1084">
        <ele>35.1</ele>
        <time>2016-02-21T09:10:40Z</time>
      </trkpt>
      <trkpt lat="49.05996" lon="2.10843">
        <ele>34.9</ele>
        <time>2016-02-21T09:10:45Z</time>
      </trkpt>
      <trkpt lat="49.05995" lon="2.10846">
        <ele>34.8</ele>
        <time>2016-02-21T09:10:52Z</time>
      </trkpt>
      <trkpt lat="49.05997" lon="2.10856">
        <ele>34.8</ele>
        <time>2016-02-21T09:10:57Z</time>
      </trkpt>
      <trkpt lat="49.06" lon="2.10865">
        <ele>34.7</ele>
        <time>2016-02-21T09:11:04Z</time>
      </trkpt>
      <trkpt lat="49.06004" lon="2.10873">
        <ele>35.2</ele>
        <time>2016-02-21T09:11:11Z</time>
      </trkpt>
      <trkpt lat="49.06005" lon="2.10878">
        <ele>35.9</ele>
        <time>2016-02-21T09:11:18Z</time>
      </trkpt>
      <trkpt lat="49.06005" lon="2.10877">
        <ele>36.8</ele>
        <time>2016-02-21T09:11:25Z</time>
      </trkpt>
      <trkpt lat="49.06004" lon="2.10891">
        <ele>38.8</ele>
        <time>2016-02-21T09:11:46Z</time>
      </trkpt>
      <trkpt lat="49.06004" lon="2.10897">
        <ele>39.4</ele>
        <time>2016-02-21T09:11:53Z</time>
      </trkpt>
      <trkpt lat="49.05999" lon="2.10902">
        <ele>40</ele>
        <time>2016-02-21T09:12:00Z</time>
      </trkpt>
      <trkpt lat="49.05994" lon="2.10904">
        <ele>40.3</ele>
        <time>2016-02-21T09:12:07Z</time>
      </trkpt>
      <trkpt lat="49.05993" lon="2.1092">
        <ele>42.2</ele>
        <time>2016-02-21T09:12:42Z</time>
      </trkpt>
      <trkpt lat="49.05996" lon="2.10927">
        <ele>44.7</ele>
        <time>2016-02-21T09:15:41Z</time>
      </trkpt>
      <trkpt lat="49.05997" lon="2.10935">
        <ele>45.1</ele>
        <time>2016-02-21T09:15:48Z</time>
      </trkpt>
      <trkpt lat="49.05995" lon="2.1094">
        <ele>45.2</ele>
        <time>2016-02-21T09:15:55Z</time>
      </trkpt>
      <trkpt lat="49.05994" lon="2.10954">
        <ele>45.5</ele>
        <time>2016-02-21T09:16:02Z</time>
      </trkpt>
      <trkpt lat="49.05993" lon="2.10965">
        <ele>46.1</ele>
        <time>2016-02-21T09:16:08Z</time>
      </trkpt>
      <trkpt lat="49.05991" lon="2.10974">
        <ele>46.6</ele>
        <time>2016-02-21T09:16:15Z</time>
      </trkpt>
      <trkpt lat="49.05991" lon="2.10981">
        <ele>46.9</ele>
        <time>2016-02-21T09:16:22Z</time>
      </trkpt>
      <trkpt lat="49.05991" lon="2.10991">
        <ele>47.4</ele>
        <time>2016-02-21T09:16:29Z</time>
      </trkpt>
      <trkpt lat="49.0599" lon="2.11002">
        <ele>47.9</ele>
        <time>2016-02-21T09:16:35Z</time>
      </trkpt>
      <trkpt lat="49.05988" lon="2.11014">
        <ele>48.2</ele>
        <time>2016-02-21T09:16:41Z</time>
      </trkpt>
      <trkpt lat="49.05989" lon="2.11022">
        <ele>48.6</ele>
        <time>2016-02-21T09:16:48Z</time>
      </trkpt>
      <trkpt lat="49.05987" lon="2.11034">
        <ele>49.2</ele>
        <time>2016-02-21T09:16:55Z</time>
      </trkpt>
      <trkpt lat="49.05985" lon="2.11042">
        <ele>49.6</ele>
        <time>2016-02-21T09:17:02Z</time>
      </trkpt>
      <trkpt lat="49.05985" lon="2.11053">
        <ele>50.8</ele>
        <time>2016-02-21T09:17:08Z</time>
      </trkpt>
      <trkpt lat="49.05989" lon="2.11063">
        <ele>51.9</ele>
        <time>2016-02-21T09:17:11Z</time>
      </trkpt>
      <trkpt lat="49.05985" lon="2.11072">
        <ele>53.3</ele>
        <time>2016-02-21T09:17:18Z</time>
      </trkpt>
      <trkpt lat="49.05982" lon="2.11076">
        <ele>53.8</ele>
        <time>2016-02-21T09:17:25Z</time>
      </trkpt>
      <trkpt lat="49.05981" lon="2.11086">
        <ele>54.7</ele>
        <time>2016-02-21T09:17:32Z</time>
      </trkpt>
      <trkpt lat="49.05979" lon="2.11095">
        <ele>55.5</ele>
        <time>2016-02-21T09:17:39Z</time>
      </trkpt>
      <trkpt lat="49.05972" lon="2.11095">
        <ele>56.1</ele>
        <time>2016-02-21T09:17:46Z</time>
      </trkpt>
      <trkpt lat="49.05964" lon="2.11094">
        <ele>57.3</ele>
        <time>2016-02-21T09:17:52Z</time>
      </trkpt>
      <trkpt lat="49.05956" lon="2.1109">
        <ele>57.7</ele>
        <time>2016-02-21T09:17:58Z</time>
      </trkpt>
      <trkpt lat="49.05949" lon="2.11087">
        <ele>58.2</ele>
        <time>2016-02-21T09:18:04Z</time>
      </trkpt>
      <trkpt lat="49.05942" lon="2.11082">
        <ele>58.6</ele>
        <time>2016-02-21T09:18:10Z</time>
      </trkpt>
      <trkpt lat="49.05935" lon="2.11078">
        <ele>59.2</ele>
        <time>2016-02-21T09:18:17Z</time>
      </trkpt>
      <trkpt lat="49.05927" lon="2.11073">
        <ele>59.5</ele>
        <time>2016-02-21T09:18:23Z</time>
      </trkpt>
      <trkpt lat="49.0592" lon="2.11069">
        <ele>59.8</ele>
        <time>2016-02-21T09:18:29Z</time>
      </trkpt>
      <trkpt lat="49.05912" lon="2.11067">
        <ele>60.4</ele>
        <time>2016-02-21T09:18:34Z</time>
      </trkpt>
      <trkpt lat="49.05905" lon="2.11061">
        <ele>60.9</ele>
        <time>2016-02-21T09:18:40Z</time>
      </trkpt>
      <trkpt lat="49.05898" lon="2.11056">
        <ele>61.4</ele>
        <time>2016-02-21T09:18:47Z</time>
      </trkpt>
      <trkpt lat="49.0589" lon="2.1105">
        <ele>61.9</ele>
        <time>2016-02-21T09:18:52Z</time>
      </trkpt>
      <trkpt lat="49.05883" lon="2.11044">
        <ele>62.1</ele>
        <time>2016-02-21T09:18:58Z</time>
      </trkpt>
      <trkpt lat="49.05877" lon="2.11035">
        <ele>62.5</ele>
        <time>2016-02-21T09:19:05Z</time>
      </trkpt>
      <trkpt lat="49.0587" lon="2.11031">
        <ele>63</ele>
        <time>2016-02-21T09:19:12Z</time>
      </trkpt>
      <trkpt lat="49.05864" lon="2.11023">
        <ele>62.9</ele>
        <time>2016-02-21T09:19:17Z</time>
      </trkpt>
      <trkpt lat="49.0586" lon="2.11013">
        <ele>62.8</ele>
        <time>2016-02-21T09:19:23Z</time>
      </trkpt>
      <trkpt lat="49.05856" lon="2.11003">
        <ele>62.3</ele>
        <time>2016-02-21T09:19:30Z</time>
      </trkpt>
      <trkpt lat="49.0585" lon="2.10996">
        <ele>61.4</ele>
        <time>2016-02-21T09:19:36Z</time>
      </trkpt>
      <trkpt lat="49.05845" lon="2.10989">
        <ele>60.2</ele>
        <time>2016-02-21T09:19:43Z</time>
      </trkpt>
      <trkpt lat="49.05839" lon="2.10981">
        <ele>58.9</ele>
        <time>2016-02-21T09:19:49Z</time>
      </trkpt>
      <trkpt lat="49.05833" lon="2.10973">
        <ele>59.3</ele>
        <time>2016-02-21T09:19:55Z</time>
      </trkpt>
      <trkpt lat="49.05825" lon="2.1097">
        <ele>59.2</ele>
        <time>2016-02-21T09:20:00Z</time>
      </trkpt>
      <trkpt lat="49.05818" lon="2.10963">
        <ele>58.1</ele>
        <time>2016-02-21T09:20:07Z</time>
      </trkpt>
      <trkpt lat="49.05812" lon="2.10959">
        <ele>57.2</ele>
        <time>2016-02-21T09:20:13Z</time>
      </trkpt>
      <trkpt lat="49.05805" lon="2.10952">
        <ele>56.8</ele>
        <time>2016-02-21T09:20:19Z</time>
      </trkpt>
      <trkpt lat="49.05798" lon="2.10951">
        <ele>56.5</ele>
        <time>2016-02-21T09:20:25Z</time>
      </trkpt>
      <trkpt lat="49.05794" lon="2.10962">
        <ele>55.9</ele>
        <time>2016-02-21T09:20:31Z</time>
      </trkpt>
      <trkpt lat="49.05794" lon="2.10973">
        <ele>55.4</ele>
        <time>2016-02-21T09:20:37Z</time>
      </trkpt>
      <trkpt lat="49.05794" lon="2.10986">
        <ele>54.5</ele>
        <time>2016-02-21T09:20:42Z</time>
      </trkpt>
      <trkpt lat="49.05793" lon="2.10997">
        <ele>54.3</ele>
        <time>2016-02-21T09:20:47Z</time>
      </trkpt>
      <trkpt lat="49.05793" lon="2.11009">
        <ele>54.6</ele>
        <time>2016-02-21T09:20:52Z</time>
      </trkpt>
      <trkpt lat="49.05798" lon="2.11018">
        <ele>54.7</ele>
        <time>2016-02-21T09:20:58Z</time>
      </trkpt>
      <trkpt lat="49.05802" lon="2.11028">
        <ele>54.8</ele>
        <time>2016-02-21T09:21:04Z</time>
      </trkpt>
      <trkpt lat="49.05807" lon="2.11037">
        <ele>54.9</ele>
        <time>2016-02-21T09:21:09Z</time>
      </trkpt>
      <trkpt lat="49.05812" lon="2.11048">
        <ele>54.5</ele>
        <time>2016-02-21T09:21:15Z</time>
      </trkpt>
      <trkpt lat="49.05815" lon="2.11059">
        <ele>54.3</ele>
        <time>2016-02-21T09:21:20Z</time>
      </trkpt>
      <trkpt lat="49.05819" lon="2.11067">
        <ele>55.2</ele>
        <time>2016-02-21T09:21:27Z</time>
      </trkpt>
      <trkpt lat="49.05822" lon="2.11077">
        <ele>55.4</ele>
        <time>2016-02-21T09:21:34Z</time>
      </trkpt>
      <trkpt lat="49.05825" lon="2.11088">
        <ele>55.7</ele>
        <time>2016-02-21T09:21:39Z</time>
      </trkpt>
      <trkpt lat="49.05827" lon="2.11098">
        <ele>56.4</ele>
        <time>2016-02-21T09:21:44Z</time>
      </trkpt>
      <trkpt lat="49.05831" lon="2.11107">
        <ele>56.7</ele>
        <time>2016-02-21T09:21:50Z</time>
      </trkpt>
      <trkpt lat="49.0584" lon="2.11118">
        <ele>57.3</ele>
        <time>2016-02-21T09:21:59Z</time>
      </trkpt>
      <trkpt lat="49.05845" lon="2.11129">
        <ele>57.3</ele>
        <time>2016-02-21T09:22:06Z</time>
      </trkpt>
      <trkpt lat="49.0585" lon="2.11138">
        <ele>56.6</ele>
        <time>2016-02-21T09:22:12Z</time>
      </trkpt>
      <trkpt lat="49.05852" lon="2.11149">
        <ele>55.8</ele>
        <time>2016-02-21T09:22:17Z</time>
      </trkpt>
      <trkpt lat="49.05857" lon="2.1116">
        <ele>55.7</ele>
        <time>2016-02-21T09:22:23Z</time>
      </trkpt>
      <trkpt lat="49.05863" lon="2.11168">
        <ele>56.5</ele>
        <time>2016-02-21T09:22:29Z</time>
      </trkpt>
      <trkpt lat="49.0587" lon="2.11174">
        <ele>56.6</ele>
        <time>2016-02-21T09:22:35Z</time>
      </trkpt>
      <trkpt lat="49.05876" lon="2.11179">
        <ele>56.7</ele>
        <time>2016-02-21T09:22:42Z</time>
      </trkpt>
      <trkpt lat="49.05881" lon="2.11188">
        <ele>57.2</ele>
        <time>2016-02-21T09:22:48Z</time>
      </trkpt>
      <trkpt lat="49.05887" lon="2.11199">
        <ele>58.7</ele>
        <time>2016-02-21T09:22:56Z</time>
      </trkpt>
      <trkpt lat="49.05892" lon="2.11207">
        <ele>59.6</ele>
        <time>2016-02-21T09:23:02Z</time>
      </trkpt>
      <trkpt lat="49.05898" lon="2.11215">
        <ele>60.9</ele>
        <time>2016-02-21T09:23:09Z</time>
      </trkpt>
      <trkpt lat="49.05901" lon="2.11225">
        <ele>61.7</ele>
        <time>2016-02-21T09:23:16Z</time>
      </trkpt>
      <trkpt lat="49.05906" lon="2.11236">
        <ele>62.9</ele>
        <time>2016-02-21T09:23:22Z</time>
      </trkpt>
      <trkpt lat="49.0591" lon="2.11246">
        <ele>64.1</ele>
        <time>2016-02-21T09:23:26Z</time>
      </trkpt>
      <trkpt lat="49.05913" lon="2.11256">
        <ele>64.5</ele>
        <time>2016-02-21T09:23:32Z</time>
      </trkpt>
      <trkpt lat="49.05918" lon="2.11264">
        <ele>64.6</ele>
        <time>2016-02-21T09:23:39Z</time>
      </trkpt>
      <trkpt lat="49.05926" lon="2.1127">
        <ele>64.9</ele>
        <time>2016-02-21T09:23:46Z</time>
      </trkpt>
      <trkpt lat="49.05932" lon="2.11278">
        <ele>65.5</ele>
        <time>2016-02-21T09:23:51Z</time>
      </trkpt>
      <trkpt lat="49.05938" lon="2.11287">
        <ele>65.9</ele>
        <time>2016-02-21T09:23:56Z</time>
      </trkpt>
      <trkpt lat="49.05945" lon="2.11293">
        <ele>66.5</ele>
        <time>2016-02-21T09:24:02Z</time>
      </trkpt>
      <trkpt lat="49.0595" lon="2.11302">
        <ele>67.5</ele>
        <time>2016-02-21T09:24:09Z</time>
      </trkpt>
      <trkpt lat="49.05957" lon="2.11309">
        <ele>68.1</ele>
        <time>2016-02-21T09:24:14Z</time>
      </trkpt>
      <trkpt lat="49.05963" lon="2.11314">
        <ele>68.1</ele>
        <time>2016-02-21T09:24:19Z</time>
      </trkpt>
      <trkpt lat="49.05968" lon="2.11322">
        <ele>67.9</ele>
        <time>2016-02-21T09:24:26Z</time>
      </trkpt>
      <trkpt lat="49.05971" lon="2.11331">
        <ele>67.2</ele>
        <time>2016-02-21T09:24:33Z</time>
      </trkpt>
      <trkpt lat="49.05975" lon="2.11341">
        <ele>67.2</ele>
        <time>2016-02-21T09:24:38Z</time>
      </trkpt>
      <trkpt lat="49.05981" lon="2.11349">
        <ele>66.5</ele>
        <time>2016-02-21T09:24:44Z</time>
      </trkpt>
      <trkpt lat="49.05987" lon="2.11358">
        <ele>66.2</ele>
        <time>2016-02-21T09:24:50Z</time>
      </trkpt>
      <trkpt lat="49.05991" lon="2.11366">
        <ele>65.5</ele>
        <time>2016-02-21T09:24:56Z</time>
      </trkpt>
      <trkpt lat="49.05997" lon="2.11376">
        <ele>64.9</ele>
        <time>2016-02-21T09:25:03Z</time>
      </trkpt>
      <trkpt lat="49.05998" lon="2.11388">
        <ele>64</ele>
        <time>2016-02-21T09:25:09Z</time>
      </trkpt>
      <trkpt lat="49.06005" lon="2.11397">
        <ele>62.9</ele>
        <time>2016-02-21T09:25:16Z</time>
      </trkpt>
      <trkpt lat="49.0601" lon="2.11406">
        <ele>61.8</ele>
        <time>2016-02-21T09:25:23Z</time>
      </trkpt>
      <trkpt lat="49.06017" lon="2.1141">
        <ele>61.9</ele>
        <time>2016-02-21T09:25:29Z</time>
      </trkpt>
      <trkpt lat="49.06023" lon="2.11416">
        <ele>61.3</ele>
        <time>2016-02-21T09:25:36Z</time>
      </trkpt>
      <trkpt lat="49.06029" lon="2.11425">
        <ele>60.8</ele>
        <time>2016-02-21T09:25:43Z</time>
      </trkpt>
      <trkpt lat="49.06033" lon="2.11433">
        <ele>60.7</ele>
        <time>2016-02-21T09:25:50Z</time>
      </trkpt>
      <trkpt lat="49.06038" lon="2.11441">
        <ele>60</ele>
        <time>2016-02-21T09:25:54Z</time>
      </trkpt>
      <trkpt lat="49.06041" lon="2.11452">
        <ele>58.6</ele>
        <time>2016-02-21T09:26:01Z</time>
      </trkpt>
      <trkpt lat="49.06047" lon="2.11461">
        <ele>58.1</ele>
        <time>2016-02-21T09:26:08Z</time>
      </trkpt>
      <trkpt lat="49.06054" lon="2.11467">
        <ele>58.4</ele>
        <time>2016-02-21T09:26:14Z</time>
      </trkpt>
      <trkpt lat="49.06059" lon="2.11475">
        <ele>57.9</ele>
        <time>2016-02-21T09:26:20Z</time>
      </trkpt>
      <trkpt lat="49.06063" lon="2.11483">
        <ele>57.3</ele>
        <time>2016-02-21T09:26:27Z</time>
      </trkpt>
      <trkpt lat="49.06067" lon="2.11491">
        <ele>57.3</ele>
        <time>2016-02-21T09:26:34Z</time>
      </trkpt>
      <trkpt lat="49.06072" lon="2.11501">
        <ele>57.8</ele>
        <time>2016-02-21T09:26:41Z</time>
      </trkpt>
      <trkpt lat="49.06077" lon="2.1151">
        <ele>57.7</ele>
        <time>2016-02-21T09:26:46Z</time>
      </trkpt>
      <trkpt lat="49.06083" lon="2.1152">
        <ele>57.6</ele>
        <time>2016-02-21T09:26:52Z</time>
      </trkpt>
      <trkpt lat="49.06088" lon="2.11529">
        <ele>57.6</ele>
        <time>2016-02-21T09:26:57Z</time>
      </trkpt>
      <trkpt lat="49.06093" lon="2.11537">
        <ele>57.6</ele>
        <time>2016-02-21T09:27:04Z</time>
      </trkpt>
      <trkpt lat="49.06093" lon="2.11542">
        <ele>57.5</ele>
        <time>2016-02-21T09:27:11Z</time>
      </trkpt>
      <trkpt lat="49.06089" lon="2.11549">
        <ele>56.5</ele>
        <time>2016-02-21T09:27:18Z</time>
      </trkpt>
      <trkpt lat="49.06084" lon="2.11558">
        <ele>56</ele>
        <time>2016-02-21T09:27:25Z</time>
      </trkpt>
      <trkpt lat="49.06077" lon="2.11561">
        <ele>54.6</ele>
        <time>2016-02-21T09:27:32Z</time>
      </trkpt>
      <trkpt lat="49.06075" lon="2.11561">
        <ele>54.2</ele>
        <time>2016-02-21T09:27:39Z</time>
      </trkpt>
      <trkpt lat="49.0607" lon="2.11564">
        <ele>53.2</ele>
        <time>2016-02-21T09:28:16Z</time>
      </trkpt>
      <trkpt lat="49.06062" lon="2.11562">
        <ele>52.8</ele>
        <time>2016-02-21T09:28:23Z</time>
      </trkpt>
      <trkpt lat="49.06055" lon="2.11557">
        <ele>52.4</ele>
        <time>2016-02-21T09:28:29Z</time>
      </trkpt>
      <trkpt lat="49.06052" lon="2.11553">
        <ele>51.7</ele>
        <time>2016-02-21T09:28:36Z</time>
      </trkpt>
      <trkpt lat="49.06048" lon="2.11548">
        <ele>51.1</ele>
        <time>2016-02-21T09:28:43Z</time>
      </trkpt>
      <trkpt lat="49.06041" lon="2.11543">
        <ele>50.5</ele>
        <time>2016-02-21T09:28:50Z</time>
      </trkpt>
      <trkpt lat="49.06035" lon="2.11535">
        <ele>50.2</ele>
        <time>2016-02-21T09:28:56Z</time>
      </trkpt>
      <trkpt lat="49.0603" lon="2.11526">
        <ele>50</ele>
        <time>2016-02-21T09:29:01Z</time>
      </trkpt>
      <trkpt lat="49.06025" lon="2.11522">
        <ele>49.8</ele>
        <time>2016-02-21T09:29:08Z</time>
      </trkpt>
      <trkpt lat="49.0602" lon="2.11517">
        <ele>49.8</ele>
        <time>2016-02-21T09:29:15Z</time>
      </trkpt>
      <trkpt lat="49.06014" lon="2.11512">
        <ele>49.8</ele>
        <time>2016-02-21T09:29:22Z</time>
      </trkpt>
      <trkpt lat="49.06008" lon="2.11506">
        <ele>49.6</ele>
        <time>2016-02-21T09:29:29Z</time>
      </trkpt>
      <trkpt lat="49.06003" lon="2.11499">
        <ele>49.5</ele>
        <time>2016-02-21T09:29:36Z</time>
      </trkpt>
      <trkpt lat="49.05997" lon="2.11492">
        <ele>49.3</ele>
        <time>2016-02-21T09:29:41Z</time>
      </trkpt>
      <trkpt lat="49.05993" lon="2.11487">
        <ele>49.3</ele>
        <time>2016-02-21T09:29:48Z</time>
      </trkpt>
      <trkpt lat="49.05986" lon="2.11481">
        <ele>48.8</ele>
        <time>2016-02-21T09:29:54Z</time>
      </trkpt>
      <trkpt lat="49.05982" lon="2.11473">
        <ele>48.5</ele>
        <time>2016-02-21T09:30:01Z</time>
      </trkpt>
      <trkpt lat="49.0598" lon="2.11471">
        <ele>48.5</ele>
        <time>2016-02-21T09:30:08Z</time>
      </trkpt>
      <trkpt lat="49.05975" lon="2.11463">
        <ele>48.1</ele>
        <time>2016-02-21T09:30:23Z</time>
      </trkpt>
      <trkpt lat="49.05971" lon="2.11458">
        <ele>48</ele>
        <time>2016-02-21T09:30:30Z</time>
      </trkpt>
      <trkpt lat="49.05968" lon="2.11456">
        <ele>48.1</ele>
        <time>2016-02-21T09:30:37Z</time>
      </trkpt>
      <trkpt lat="49.05967" lon="2.11455">
        <ele>48.2</ele>
        <time>2016-02-21T09:30:44Z</time>
      </trkpt>
      <trkpt lat="49.05962" lon="2.11448">
        <ele>48.1</ele>
        <time>2016-02-21T09:30:51Z</time>
      </trkpt>
      <trkpt lat="49.05955" lon="2.11441">
        <ele>48</ele>
        <time>2016-02-21T09:30:58Z</time>
      </trkpt>
      <trkpt lat="49.05951" lon="2.11431">
        <ele>47.7</ele>
        <time>2016-02-21T09:31:05Z</time>
      </trkpt>
      <trkpt lat="49.05947" lon="2.11423">
        <ele>47.3</ele>
        <time>2016-02-21T09:31:12Z</time>
      </trkpt>
      <trkpt lat="49.05943" lon="2.11417">
        <ele>47.3</ele>
        <time>2016-02-21T09:31:19Z</time>
      </trkpt>
      <trkpt lat="49.05939" lon="2.11413">
        <ele>47.3</ele>
        <time>2016-02-21T09:31:26Z</time>
      </trkpt>
      <trkpt lat="49.05935" lon="2.11404">
        <ele>47.2</ele>
        <time>2016-02-21T09:31:33Z</time>
      </trkpt>
      <trkpt lat="49.0593" lon="2.11398">
        <ele>47.3</ele>
        <time>2016-02-21T09:31:40Z</time>
      </trkpt>
      <trkpt lat="49.05924" lon="2.11392">
        <ele>47.3</ele>
        <time>2016-02-21T09:31:45Z</time>
      </trkpt>
      <trkpt lat="49.05919" lon="2.11385">
        <ele>47</ele>
        <time>2016-02-21T09:31:52Z</time>
      </trkpt>
      <trkpt lat="49.05913" lon="2.1138">
        <ele>46.8</ele>
        <time>2016-02-21T09:31:59Z</time>
      </trkpt>
      <trkpt lat="49.05908" lon="2.11374">
        <ele>46.4</ele>
        <time>2016-02-21T09:32:06Z</time>
      </trkpt>
      <trkpt lat="49.05903" lon="2.11371">
        <ele>46.1</ele>
        <time>2016-02-21T09:32:13Z</time>
      </trkpt>
      <trkpt lat="49.05899" lon="2.11371">
        <ele>45.4</ele>
        <time>2016-02-21T09:32:20Z</time>
      </trkpt>
      <trkpt lat="49.05894" lon="2.11369">
        <ele>45.1</ele>
        <time>2016-02-21T09:32:27Z</time>
      </trkpt>
      <trkpt lat="49.05888" lon="2.11371">
        <ele>44.6</ele>
        <time>2016-02-21T09:32:34Z</time>
      </trkpt>
      <trkpt lat="49.05884" lon="2.11373">
        <ele>44.1</ele>
        <time>2016-02-21T09:32:41Z</time>
      </trkpt>
      <trkpt lat="49.05882" lon="2.11374">
        <ele>43.9</ele>
        <time>2016-02-21T09:32:48Z</time>
      </trkpt>
      <trkpt lat="49.05877" lon="2.11376">
        <ele>43.7</ele>
        <time>2016-02-21T09:32:58Z</time>
      </trkpt>
      <trkpt lat="49.05872" lon="2.1138">
        <ele>43.5</ele>
        <time>2016-02-21T09:33:05Z</time>
      </trkpt>
      <trkpt lat="49.0587" lon="2.11379">
        <ele>43.3</ele>
        <time>2016-02-21T09:33:13Z</time>
      </trkpt>
      <trkpt lat="49.05865" lon="2.11378">
        <ele>43</ele>
        <time>2016-02-21T09:33:20Z</time>
      </trkpt>
      <trkpt lat="49.05864" lon="2.11373">
        <ele>42.7</ele>
        <time>2016-02-21T09:33:27Z</time>
      </trkpt>
      <trkpt lat="49.05865" lon="2.11363">
        <ele>41.5</ele>
        <time>2016-02-21T09:33:34Z</time>
      </trkpt>
      <trkpt lat="49.05862" lon="2.11354">
        <ele>40.9</ele>
        <time>2016-02-21T09:33:41Z</time>
      </trkpt>
      <trkpt lat="49.05857" lon="2.11346">
        <ele>40.6</ele>
        <time>2016-02-21T09:33:48Z</time>
      </trkpt>
      <trkpt lat="49.05852" lon="2.11337">
        <ele>40.4</ele>
        <time>2016-02-21T09:33:54Z</time>
      </trkpt>
      <trkpt lat="49.05849" lon="2.11326">
        <ele>39.2</ele>
        <time>2016-02-21T09:34:00Z</time>
      </trkpt>
      <trkpt lat="49.05843" lon="2.11318">
        <ele>38.9</ele>
        <time>2016-02-21T09:34:07Z</time>
      </trkpt>
      <trkpt lat="49.05838" lon="2.11312">
        <ele>38.6</ele>
        <time>2016-02-21T09:34:14Z</time>
      </trkpt>
      <trkpt lat="49.05831" lon="2.11303">
        <ele>38.5</ele>
        <time>2016-02-21T09:34:19Z</time>
      </trkpt>
      <trkpt lat="49.05823" lon="2.11294">
        <ele>38.1</ele>
        <time>2016-02-21T09:34:29Z</time>
      </trkpt>
      <trkpt lat="49.05816" lon="2.11288">
        <ele>37.7</ele>
        <time>2016-02-21T09:34:36Z</time>
      </trkpt>
      <trkpt lat="49.05808" lon="2.11284">
        <ele>37.5</ele>
        <time>2016-02-21T09:34:41Z</time>
      </trkpt>
      <trkpt lat="49.05801" lon="2.11278">
        <ele>37.3</ele>
        <time>2016-02-21T09:34:47Z</time>
      </trkpt>
      <trkpt lat="49.05794" lon="2.11274">
        <ele>36.8</ele>
        <time>2016-02-21T09:34:53Z</time>
      </trkpt>
      <trkpt lat="49.05789" lon="2.11263">
        <ele>36.5</ele>
        <time>2016-02-21T09:34:59Z</time>
      </trkpt>
      <trkpt lat="49.05783" lon="2.11257">
        <ele>35.9</ele>
        <time>2016-02-21T09:35:06Z</time>
      </trkpt>
      <trkpt lat="49.05777" lon="2.1125">
        <ele>35.4</ele>
        <time>2016-02-21T09:35:11Z</time>
      </trkpt>
      <trkpt lat="49.05771" lon="2.11242">
        <ele>35</ele>
        <time>2016-02-21T09:35:17Z</time>
      </trkpt>
      <trkpt lat="49.05765" lon="2.11236">
        <ele>34.9</ele>
        <time>2016-02-21T09:35:23Z</time>
      </trkpt>
      <trkpt lat="49.05761" lon="2.11226">
        <ele>34.6</ele>
        <time>2016-02-21T09:35:29Z</time>
      </trkpt>
      <trkpt lat="49.05756" lon="2.11217">
        <ele>34</ele>
        <time>2016-02-21T09:35:34Z</time>
      </trkpt>
      <trkpt lat="49.05753" lon="2.11209">
        <ele>33.4</ele>
        <time>2016-02-21T09:35:41Z</time>
      </trkpt>
      <trkpt lat="49.05747" lon="2.112">
        <ele>32.9</ele>
        <time>2016-02-21T09:35:48Z</time>
      </trkpt>
      <trkpt lat="49.05744" lon="2.11189">
        <ele>32.7</ele>
        <time>2016-02-21T09:35:55Z</time>
      </trkpt>
      <trkpt lat="49.0574" lon="2.11179">
        <ele>32.2</ele>
        <time>2016-02-21T09:36:00Z</time>
      </trkpt>
      <trkpt lat="49.05733" lon="2.11172">
        <ele>31.6</ele>
        <time>2016-02-21T09:36:06Z</time>
      </trkpt>
      <trkpt lat="49.05727" lon="2.11166">
        <ele>30.8</ele>
        <time>2016-02-21T09:36:13Z</time>
      </trkpt>
      <trkpt lat="49.05722" lon="2.11156">
        <ele>30.7</ele>
        <time>2016-02-21T09:36:19Z</time>
      </trkpt>
      <trkpt lat="49.05718" lon="2.11147">
        <ele>30.7</ele>
        <time>2016-02-21T09:36:25Z</time>
      </trkpt>
      <trkpt lat="49.0571" lon="2.11145">
        <ele>30.2</ele>
        <time>2016-02-21T09:36:31Z</time>
      </trkpt>
      <trkpt lat="49.05702" lon="2.11143">
        <ele>29.9</ele>
        <time>2016-02-21T09:36:38Z</time>
      </trkpt>
      <trkpt lat="49.05699" lon="2.11135">
        <ele>29.7</ele>
        <time>2016-02-21T09:36:45Z</time>
      </trkpt>
      <trkpt lat="49.05694" lon="2.11125">
        <ele>29.4</ele>
        <time>2016-02-21T09:36:51Z</time>
      </trkpt>
      <trkpt lat="49.0569" lon="2.11116">
        <ele>29.1</ele>
        <time>2016-02-21T09:36:56Z</time>
      </trkpt>
      <trkpt lat="49.05682" lon="2.11107">
        <ele>28.7</ele>
        <time>2016-02-21T09:37:03Z</time>
      </trkpt>
      <trkpt lat="49.05678" lon="2.11097">
        <ele>27.8</ele>
        <time>2016-02-21T09:37:09Z</time>
      </trkpt>
      <trkpt lat="49.05672" lon="2.11089">
        <ele>27.2</ele>
        <time>2016-02-21T09:37:15Z</time>
      </trkpt>
      <trkpt lat="49.05667" lon="2.11079">
        <ele>26.7</ele>
        <time>2016-02-21T09:37:21Z</time>
      </trkpt>
      <trkpt lat="49.05664" lon="2.11068">
        <ele>26.5</ele>
        <time>2016-02-21T09:37:26Z</time>
      </trkpt>
      <trkpt lat="49.05657" lon="2.1106">
        <ele>26.1</ele>
        <time>2016-02-21T09:37:33Z</time>
      </trkpt>
      <trkpt lat="49.05652" lon="2.11053">
        <ele>25.2</ele>
        <time>2016-02-21T09:37:40Z</time>
      </trkpt>
      <trkpt lat="49.05649" lon="2.11043">
        <ele>24.6</ele>
        <time>2016-02-21T09:37:45Z</time>
      </trkpt>
      <trkpt lat="49.05646" lon="2.11032">
        <ele>23.9</ele>
        <time>2016-02-21T09:37:51Z</time>
      </trkpt>
      <trkpt lat="49.05638" lon="2.11026">
        <ele>23.1</ele>
        <time>2016-02-21T09:37:57Z</time>
      </trkpt>
      <trkpt lat="49.05632" lon="2.1102">
        <ele>23</ele>
        <time>2016-02-21T09:38:04Z</time>
      </trkpt>
      <trkpt lat="49.05629" lon="2.11015">
        <ele>23</ele>
        <time>2016-02-21T09:38:11Z</time>
      </trkpt>
      <trkpt lat="49.05622" lon="2.11009">
        <ele>23.1</ele>
        <time>2016-02-21T09:38:16Z</time>
      </trkpt>
      <trkpt lat="49.05616" lon="2.11003">
        <ele>23.3</ele>
        <time>2016-02-21T09:38:22Z</time>
      </trkpt>
      <trkpt lat="49.05612" lon="2.10993">
        <ele>23.1</ele>
        <time>2016-02-21T09:38:29Z</time>
      </trkpt>
      <trkpt lat="49.05607" lon="2.10983">
        <ele>22.6</ele>
        <time>2016-02-21T09:38:36Z</time>
      </trkpt>
      <trkpt lat="49.05601" lon="2.10972">
        <ele>21.3</ele>
        <time>2016-02-21T09:38:42Z</time>
      </trkpt>
      <trkpt lat="49.05596" lon="2.10965">
        <ele>20.8</ele>
        <time>2016-02-21T09:38:48Z</time>
      </trkpt>
      <trkpt lat="49.05591" lon="2.10956">
        <ele>19.9</ele>
        <time>2016-02-21T09:38:55Z</time>
      </trkpt>
      <trkpt lat="49.05584" lon="2.1095">
        <ele>19.5</ele>
        <time>2016-02-21T09:39:01Z</time>
      </trkpt>
      <trkpt lat="49.05578" lon="2.10943">
        <ele>19</ele>
        <time>2016-02-21T09:39:06Z</time>
      </trkpt>
      <trkpt lat="49.05572" lon="2.10935">
        <ele>18.4</ele>
        <time>2016-02-21T09:39:12Z</time>
      </trkpt>
      <trkpt lat="49.05566" lon="2.10929">
        <ele>17.7</ele>
        <time>2016-02-21T09:39:18Z</time>
      </trkpt>
      <trkpt lat="49.05561" lon="2.1092">
        <ele>16.9</ele>
        <time>2016-02-21T09:39:24Z</time>
      </trkpt>
      <trkpt lat="49.05556" lon="2.10912">
        <ele>16.3</ele>
        <time>2016-02-21T09:39:29Z</time>
      </trkpt>
      <trkpt lat="49.0555" lon="2.10905">
        <ele>15.9</ele>
        <time>2016-02-21T09:39:35Z</time>
      </trkpt>
      <trkpt lat="49.05544" lon="2.10899">
        <ele>15.4</ele>
        <time>2016-02-21T09:39:42Z</time>
      </trkpt>
      <trkpt lat="49.0554" lon="2.10891">
        <ele>14.6</ele>
        <time>2016-02-21T09:39:49Z</time>
      </trkpt>
      <trkpt lat="49.05534" lon="2.10885">
        <ele>14</ele>
        <time>2016-02-21T09:39:56Z</time>
      </trkpt>
      <trkpt lat="49.05528" lon="2.10878">
        <ele>13</ele>
        <time>2016-02-21T09:40:03Z</time>
      </trkpt>
      <trkpt lat="49.05521" lon="2.10873">
        <ele>12.3</ele>
        <time>2016-02-21T09:40:09Z</time>
      </trkpt>
      <trkpt lat="49.05514" lon="2.10866">
        <ele>11.3</ele>
        <time>2016-02-21T09:40:16Z</time>
      </trkpt>
      <trkpt lat="49.05507" lon="2.10861">
        <ele>10.3</ele>
        <time>2016-02-21T09:40:23Z</time>
      </trkpt>
      <trkpt lat="49.05501" lon="2.10855">
        <ele>9.4</ele>
        <time>2016-02-21T09:40:30Z</time>
      </trkpt>
      <trkpt lat="49.05497" lon="2.10846">
        <ele>8.8</ele>
        <time>2016-02-21T09:40:36Z</time>
      </trkpt>
      <trkpt lat="49.0549" lon="2.10839">
        <ele>8.1</ele>
        <time>2016-02-21T09:40:42Z</time>
      </trkpt>
      <trkpt lat="49.05484" lon="2.10832">
        <ele>7.4</ele>
        <time>2016-02-21T09:40:46Z</time>
      </trkpt>
      <trkpt lat="49.05476" lon="2.10828">
        <ele>7.1</ele>
        <time>2016-02-21T09:40:51Z</time>
      </trkpt>
      <trkpt lat="49.05471" lon="2.10821">
        <ele>7.1</ele>
        <time>2016-02-21T09:40:57Z</time>
      </trkpt>
      <trkpt lat="49.05464" lon="2.10813">
        <ele>6.9</ele>
        <time>2016-02-21T09:41:04Z</time>
      </trkpt>
      <trkpt lat="49.05461" lon="2.10802">
        <ele>6.9</ele>
        <time>2016-02-21T09:41:10Z</time>
      </trkpt>
      <trkpt lat="49.05456" lon="2.10794">
        <ele>6.6</ele>
        <time>2016-02-21T09:41:17Z</time>
      </trkpt>
      <trkpt lat="49.05451" lon="2.10786">
        <ele>6.3</ele>
        <time>2016-02-21T09:41:24Z</time>
      </trkpt>
      <trkpt lat="49.05445" lon="2.10781">
        <ele>6.5</ele>
        <time>2016-02-21T09:41:29Z</time>
      </trkpt>
      <trkpt lat="49.05439" lon="2.10773">
        <ele>6.6</ele>
        <time>2016-02-21T09:41:35Z</time>
      </trkpt>
      <trkpt lat="49.05432" lon="2.10768">
        <ele>6.4</ele>
        <time>2016-02-21T09:41:41Z</time>
      </trkpt>
      <trkpt lat="49.05426" lon="2.10762">
        <ele>6.8</ele>
        <time>2016-02-21T09:41:48Z</time>
      </trkpt>
      <trkpt lat="49.0542" lon="2.10754">
        <ele>6.6</ele>
        <time>2016-02-21T09:41:55Z</time>
      </trkpt>
      <trkpt lat="49.05415" lon="2.10746">
        <ele>6.6</ele>
        <time>2016-02-21T09:42:02Z</time>
      </trkpt>
      <trkpt lat="49.0541" lon="2.10738">
        <ele>6.9</ele>
        <time>2016-02-21T09:42:08Z</time>
      </trkpt>
      <trkpt lat="49.05405" lon="2.1073">
        <ele>7.2</ele>
        <time>2016-02-21T09:42:12Z</time>
      </trkpt>
      <trkpt lat="49.054" lon="2.10721">
        <ele>7.6</ele>
        <time>2016-02-21T09:42:19Z</time>
      </trkpt>
      <trkpt lat="49.05395" lon="2.10715">
        <ele>7.6</ele>
        <time>2016-02-21T09:42:26Z</time>
      </trkpt>
      <trkpt lat="49.05394" lon="2.10711">
        <ele>8.1</ele>
        <time>2016-02-21T09:42:33Z</time>
      </trkpt>
      <trkpt lat="49.05394" lon="2.10708">
        <ele>7.6</ele>
        <time>2016-02-21T09:42:40Z</time>
      </trkpt>
      <trkpt lat="49.05394" lon="2.10702">
        <ele>7.1</ele>
        <time>2016-02-21T09:42:47Z</time>
      </trkpt>
      <trkpt lat="49.054" lon="2.10702">
        <ele>9.3</ele>
        <time>2016-02-21T09:43:35Z</time>
      </trkpt>
      <trkpt lat="49.05398" lon="2.10699">
        <ele>10.7</ele>
        <time>2016-02-21T09:43:42Z</time>
      </trkpt>
      <trkpt lat="49.05399" lon="2.10696">
        <ele>11.6</ele>
        <time>2016-02-21T09:43:49Z</time>
      </trkpt>
      <trkpt lat="49.05397" lon="2.10689">
        <ele>14.6</ele>
        <time>2016-02-21T09:43:36Z</time>
      </trkpt>
      <trkpt lat="49.05395" lon="2.10689">
        <ele>15.6</ele>
        <time>2016-02-21T09:44:53Z</time>
      </trkpt>
      <trkpt lat="49.05398" lon="2.10687">
        <ele>17.2</ele>
        <time>2016-02-21T09:45:17Z</time>
      </trkpt>
      <trkpt lat="49.05399" lon="2.10689">
        <ele>18.1</ele>
        <time>2016-02-21T09:45:24Z</time>
      </trkpt>
      <trkpt lat="49.05396" lon="2.10696">
        <ele>18.9</ele>
        <time>2016-02-21T09:45:41Z</time>
      </trkpt>
      <trkpt lat="49.05396" lon="2.10704">
        <ele>19.5</ele>
        <time>2016-02-21T09:46:38Z</time>
      </trkpt>
      <trkpt lat="49.05396" lon="2.10703">
        <ele>19.7</ele>
        <time>2016-02-21T09:46:45Z</time>
      </trkpt>
      <trkpt lat="49.05403" lon="2.10694">
        <ele>20.1</ele>
        <time>2016-02-21T09:46:52Z</time>
      </trkpt>
      <trkpt lat="49.05397" lon="2.10689">
        <ele>21.2</ele>
        <time>2016-02-21T09:48:45Z</time>
      </trkpt>
      <trkpt lat="49.05392" lon="2.10687">
        <ele>21.5</ele>
        <time>2016-02-21T09:48:52Z</time>
      </trkpt>
      <trkpt lat="49.05389" lon="2.10686">
        <ele>21.7</ele>
        <time>2016-02-21T09:48:59Z</time>
      </trkpt>
      <trkpt lat="49.05385" lon="2.10683">
        <ele>21.9</ele>
        <time>2016-02-21T09:49:06Z</time>
      </trkpt>
      <trkpt lat="49.05384" lon="2.10672">
        <ele>21.9</ele>
        <time>2016-02-21T09:49:13Z</time>
      </trkpt>
      <trkpt lat="49.05382" lon="2.10659">
        <ele>21.9</ele>
        <time>2016-02-21T09:49:20Z</time>
      </trkpt>
      <trkpt lat="49.05379" lon="2.10653">
        <ele>21.9</ele>
        <time>2016-02-21T09:49:27Z</time>
      </trkpt>
      <trkpt lat="49.05377" lon="2.10643">
        <ele>21.8</ele>
        <time>2016-02-21T09:49:34Z</time>
      </trkpt>
      <trkpt lat="49.05379" lon="2.10632">
        <ele>21.7</ele>
        <time>2016-02-21T09:49:41Z</time>
      </trkpt>
      <trkpt lat="49.05382" lon="2.10621">
        <ele>21.7</ele>
        <time>2016-02-21T09:49:47Z</time>
      </trkpt>
      <trkpt lat="49.05388" lon="2.10613">
        <ele>21.6</ele>
        <time>2016-02-21T09:49:54Z</time>
      </trkpt>
      <trkpt lat="49.05395" lon="2.10607">
        <ele>21.6</ele>
        <time>2016-02-21T09:49:59Z</time>
      </trkpt>
      <trkpt lat="49.05403" lon="2.10605">
        <ele>21.6</ele>
        <time>2016-02-21T09:50:04Z</time>
      </trkpt>
      <trkpt lat="49.0541" lon="2.10603">
        <ele>21.6</ele>
        <time>2016-02-21T09:50:11Z</time>
      </trkpt>
      <trkpt lat="49.05414" lon="2.10597">
        <ele>21.5</ele>
        <time>2016-02-21T09:50:18Z</time>
      </trkpt>
      <trkpt lat="49.05419" lon="2.10594">
        <ele>21.4</ele>
        <time>2016-02-21T09:50:25Z</time>
      </trkpt>
      <trkpt lat="49.05422" lon="2.10591">
        <ele>21.4</ele>
        <time>2016-02-21T09:50:32Z</time>
      </trkpt>
      <trkpt lat="49.05426" lon="2.10588">
        <ele>21.4</ele>
        <time>2016-02-21T09:50:39Z</time>
      </trkpt>
      <trkpt lat="49.05429" lon="2.10586">
        <ele>21.3</ele>
        <time>2016-02-21T09:50:46Z</time>
      </trkpt>
      <trkpt lat="49.05433" lon="2.10588">
        <ele>21.3</ele>
        <time>2016-02-21T09:50:53Z</time>
      </trkpt>
      <trkpt lat="49.05436" lon="2.106">
        <ele>21.2</ele>
        <time>2016-02-21T09:50:58Z</time>
      </trkpt>
      <trkpt lat="49.05439" lon="2.10612">
        <ele>21.1</ele>
        <time>2016-02-21T09:51:05Z</time>
      </trkpt>
      <trkpt lat="49.05444" lon="2.10622">
        <ele>21</ele>
        <time>2016-02-21T09:51:10Z</time>
      </trkpt>
      <trkpt lat="49.05448" lon="2.10631">
        <ele>20.7</ele>
        <time>2016-02-21T09:51:16Z</time>
      </trkpt>
      <trkpt lat="49.05453" lon="2.10641">
        <ele>20.4</ele>
        <time>2016-02-21T09:51:22Z</time>
      </trkpt>
      <trkpt lat="49.05458" lon="2.10652">
        <ele>20.1</ele>
        <time>2016-02-21T09:51:28Z</time>
      </trkpt>
      <trkpt lat="49.05461" lon="2.10662">
        <ele>19.7</ele>
        <time>2016-02-21T09:51:34Z</time>
      </trkpt>
      <trkpt lat="49.05464" lon="2.10674">
        <ele>19.5</ele>
        <time>2016-02-21T09:51:39Z</time>
      </trkpt>
      <trkpt lat="49.05469" lon="2.10685">
        <ele>19.5</ele>
        <time>2016-02-21T09:51:44Z</time>
      </trkpt>
      <trkpt lat="49.05474" lon="2.10693">
        <ele>19.3</ele>
        <time>2016-02-21T09:51:51Z</time>
      </trkpt>
      <trkpt lat="49.05478" lon="2.10703">
        <ele>19.4</ele>
        <time>2016-02-21T09:51:57Z</time>
      </trkpt>
      <trkpt lat="49.05483" lon="2.1071">
        <ele>19.3</ele>
        <time>2016-02-21T09:52:04Z</time>
      </trkpt>
      <trkpt lat="49.05489" lon="2.10716">
        <ele>19</ele>
        <time>2016-02-21T09:52:09Z</time>
      </trkpt>
      <trkpt lat="49.05497" lon="2.10718">
        <ele>18.6</ele>
        <time>2016-02-21T09:52:15Z</time>
      </trkpt>
      <trkpt lat="49.05501" lon="2.10721">
        <ele>17.7</ele>
        <time>2016-02-21T09:52:22Z</time>
      </trkpt>
      <trkpt lat="49.05506" lon="2.10718">
        <ele>16.8</ele>
        <time>2016-02-21T09:52:29Z</time>
      </trkpt>
      <trkpt lat="49.05511" lon="2.10714">
        <ele>15.7</ele>
        <time>2016-02-21T09:52:36Z</time>
      </trkpt>
      <trkpt lat="49.05517" lon="2.1071">
        <ele>15.3</ele>
        <time>2016-02-21T09:52:43Z</time>
      </trkpt>
      <trkpt lat="49.05524" lon="2.10704">
        <ele>14.8</ele>
        <time>2016-02-21T09:52:50Z</time>
      </trkpt>
      <trkpt lat="49.05531" lon="2.10697">
        <ele>14.4</ele>
        <time>2016-02-21T09:52:56Z</time>
      </trkpt>
      <trkpt lat="49.05538" lon="2.10695">
        <ele>14.2</ele>
        <time>2016-02-21T09:53:03Z</time>
      </trkpt>
      <trkpt lat="49.05547" lon="2.10699">
        <ele>14.4</ele>
        <time>2016-02-21T09:53:09Z</time>
      </trkpt>
      <trkpt lat="49.05554" lon="2.10698">
        <ele>14.6</ele>
        <time>2016-02-21T09:53:14Z</time>
      </trkpt>
      <trkpt lat="49.05562" lon="2.10693">
        <ele>14.5</ele>
        <time>2016-02-21T09:53:19Z</time>
      </trkpt>
      <trkpt lat="49.05566" lon="2.10683">
        <ele>14.4</ele>
        <time>2016-02-21T09:53:23Z</time>
      </trkpt>
      <trkpt lat="49.05574" lon="2.10683">
        <ele>13.9</ele>
        <time>2016-02-21T09:53:27Z</time>
      </trkpt>
      <trkpt lat="49.05581" lon="2.1068">
        <ele>13.4</ele>
        <time>2016-02-21T09:53:31Z</time>
      </trkpt>
      <trkpt lat="49.05589" lon="2.10676">
        <ele>13</ele>
        <time>2016-02-21T09:53:35Z</time>
      </trkpt>
      <trkpt lat="49.05596" lon="2.10672">
        <ele>12.8</ele>
        <time>2016-02-21T09:53:40Z</time>
      </trkpt>
      <trkpt lat="49.05604" lon="2.10667">
        <ele>12.6</ele>
        <time>2016-02-21T09:53:45Z</time>
      </trkpt>
      <trkpt lat="49.0561" lon="2.10658">
        <ele>12.6</ele>
        <time>2016-02-21T09:53:51Z</time>
      </trkpt>
      <trkpt lat="49.05616" lon="2.10654">
        <ele>12.5</ele>
        <time>2016-02-21T09:53:56Z</time>
      </trkpt>
      <trkpt lat="49.05624" lon="2.10647">
        <ele>12.2</ele>
        <time>2016-02-21T09:54:02Z</time>
      </trkpt>
      <trkpt lat="49.05628" lon="2.10638">
        <ele>11.8</ele>
        <time>2016-02-21T09:54:08Z</time>
      </trkpt>
      <trkpt lat="49.05635" lon="2.10632">
        <ele>11.6</ele>
        <time>2016-02-21T09:54:14Z</time>
      </trkpt>
      <trkpt lat="49.05642" lon="2.10629">
        <ele>11.6</ele>
        <time>2016-02-21T09:54:20Z</time>
      </trkpt>
      <trkpt lat="49.05649" lon="2.10623">
        <ele>11.7</ele>
        <time>2016-02-21T09:54:26Z</time>
      </trkpt>
      <trkpt lat="49.05651" lon="2.10613">
        <ele>11.8</ele>
        <time>2016-02-21T09:54:31Z</time>
      </trkpt>
      <trkpt lat="49.05653" lon="2.10602">
        <ele>11.9</ele>
        <time>2016-02-21T09:54:37Z</time>
      </trkpt>
      <trkpt lat="49.05657" lon="2.10595">
        <ele>11.3</ele>
        <time>2016-02-21T09:54:44Z</time>
      </trkpt>
      <trkpt lat="49.05662" lon="2.10594">
        <ele>10.9</ele>
        <time>2016-02-21T09:54:51Z</time>
      </trkpt>
      <trkpt lat="49.05665" lon="2.10588">
        <ele>11.5</ele>
        <time>2016-02-21T09:54:58Z</time>
      </trkpt>
      <trkpt lat="49.0567" lon="2.1058">
        <ele>11.4</ele>
        <time>2016-02-21T09:55:03Z</time>
      </trkpt>
      <trkpt lat="49.05675" lon="2.1057">
        <ele>11.3</ele>
        <time>2016-02-21T09:55:08Z</time>
      </trkpt>
      <trkpt lat="49.05678" lon="2.10559">
        <ele>11.5</ele>
        <time>2016-02-21T09:55:13Z</time>
      </trkpt>
      <trkpt lat="49.05682" lon="2.10549">
        <ele>11.5</ele>
        <time>2016-02-21T09:55:19Z</time>
      </trkpt>
      <trkpt lat="49.05689" lon="2.10545">
        <ele>11.4</ele>
        <time>2016-02-21T09:55:24Z</time>
      </trkpt>
      <trkpt lat="49.05693" lon="2.10534">
        <ele>11.2</ele>
        <time>2016-02-21T09:55:31Z</time>
      </trkpt>
      <trkpt lat="49.05697" lon="2.10526">
        <ele>10</ele>
        <time>2016-02-21T09:55:38Z</time>
      </trkpt>
      <trkpt lat="49.05702" lon="2.10516">
        <ele>10.1</ele>
        <time>2016-02-21T09:55:42Z</time>
      </trkpt>
      <trkpt lat="49.05707" lon="2.10506">
        <ele>10.1</ele>
        <time>2016-02-21T09:55:47Z</time>
      </trkpt>
      <trkpt lat="49.05707" lon="2.10494">
        <ele>9.8</ele>
        <time>2016-02-21T09:55:52Z</time>
      </trkpt>
      <trkpt lat="49.05709" lon="2.10483">
        <ele>9.5</ele>
        <time>2016-02-21T09:55:59Z</time>
      </trkpt>
      <trkpt lat="49.05714" lon="2.10474">
        <ele>9.8</ele>
        <time>2016-02-21T09:56:05Z</time>
      </trkpt>
      <trkpt lat="49.05722" lon="2.10472">
        <ele>10.6</ele>
        <time>2016-02-21T09:56:11Z</time>
      </trkpt>
      <trkpt lat="49.05727" lon="2.10464">
        <ele>10.7</ele>
        <time>2016-02-21T09:56:18Z</time>
      </trkpt>
      <trkpt lat="49.05731" lon="2.10462">
        <ele>9.9</ele>
        <time>2016-02-21T09:56:25Z</time>
      </trkpt>
      <trkpt lat="49.05735" lon="2.10451">
        <ele>9.2</ele>
        <time>2016-02-21T09:56:31Z</time>
      </trkpt>
      <trkpt lat="49.05738" lon="2.10438">
        <ele>8.6</ele>
        <time>2016-02-21T09:56:36Z</time>
      </trkpt>
      <trkpt lat="49.05742" lon="2.1043">
        <ele>7.8</ele>
        <time>2016-02-21T09:56:43Z</time>
      </trkpt>
      <trkpt lat="49.05743" lon="2.10422">
        <ele>6.7</ele>
        <time>2016-02-21T09:56:50Z</time>
      </trkpt>
      <trkpt lat="49.05742" lon="2.10416">
        <ele>6.2</ele>
        <time>2016-02-21T09:56:57Z</time>
      </trkpt>
      <trkpt lat="49.05739" lon="2.10409">
        <ele>5.8</ele>
        <time>2016-02-21T09:57:04Z</time>
      </trkpt>
      <trkpt lat="49.05739" lon="2.10397">
        <ele>6.7</ele>
        <time>2016-02-21T09:57:10Z</time>
      </trkpt>
      <trkpt lat="49.05742" lon="2.10389">
        <ele>7.2</ele>
        <time>2016-02-21T09:57:17Z</time>
      </trkpt>
      <trkpt lat="49.05748" lon="2.1038">
        <ele>7.8</ele>
        <time>2016-02-21T09:57:24Z</time>
      </trkpt>
      <trkpt lat="49.05752" lon="2.1037">
        <ele>7.7</ele>
        <time>2016-02-21T09:57:29Z</time>
      </trkpt>
      <trkpt lat="49.05756" lon="2.1036">
        <ele>7.6</ele>
        <time>2016-02-21T09:57:36Z</time>
      </trkpt>
      <trkpt lat="49.0576" lon="2.10353">
        <ele>7.5</ele>
        <time>2016-02-21T09:57:43Z</time>
      </trkpt>
      <trkpt lat="49.05763" lon="2.10342">
        <ele>7.7</ele>
        <time>2016-02-21T09:57:50Z</time>
      </trkpt>
      <trkpt lat="49.05768" lon="2.10332">
        <ele>8.5</ele>
        <time>2016-02-21T09:57:57Z</time>
      </trkpt>
      <trkpt lat="49.05774" lon="2.10327">
        <ele>9.2</ele>
        <time>2016-02-21T09:58:04Z</time>
      </trkpt>
      <trkpt lat="49.0578" lon="2.10324">
        <ele>8.9</ele>
        <time>2016-02-21T09:58:11Z</time>
      </trkpt>
      <trkpt lat="49.05787" lon="2.10316">
        <ele>9.1</ele>
        <time>2016-02-21T09:58:16Z</time>
      </trkpt>
      <trkpt lat="49.05793" lon="2.10309">
        <ele>9.3</ele>
        <time>2016-02-21T09:58:22Z</time>
      </trkpt>
      <trkpt lat="49.05798" lon="2.10308">
        <ele>9.6</ele>
        <time>2016-02-21T09:58:29Z</time>
      </trkpt>
      <trkpt lat="49.05807" lon="2.10303">
        <ele>9.6</ele>
        <time>2016-02-21T09:58:34Z</time>
      </trkpt>
      <trkpt lat="49.05815" lon="2.10301">
        <ele>9.6</ele>
        <time>2016-02-21T09:58:38Z</time>
      </trkpt>
      <trkpt lat="49.05822" lon="2.103">
        <ele>9.8</ele>
        <time>2016-02-21T09:58:42Z</time>
      </trkpt>
      <trkpt lat="49.05829" lon="2.10299">
        <ele>10.3</ele>
        <time>2016-02-21T09:58:49Z</time>
      </trkpt>
      <trkpt lat="49.05837" lon="2.10295">
        <ele>10.9</ele>
        <time>2016-02-21T09:58:56Z</time>
      </trkpt>
      <trkpt lat="49.05845" lon="2.10289">
        <ele>11.5</ele>
        <time>2016-02-21T09:59:02Z</time>
      </trkpt>
      <trkpt lat="49.05847" lon="2.10282">
        <ele>12.8</ele>
        <time>2016-02-21T09:59:09Z</time>
      </trkpt>
      <trkpt lat="49.05854" lon="2.10279">
        <ele>13.2</ele>
        <time>2016-02-21T09:59:14Z</time>
      </trkpt>
      <trkpt lat="49.05861" lon="2.10273">
        <ele>13.5</ele>
        <time>2016-02-21T09:59:21Z</time>
      </trkpt>
      <trkpt lat="49.05867" lon="2.1027">
        <ele>13.7</ele>
        <time>2016-02-21T09:59:27Z</time>
      </trkpt>
      <trkpt lat="49.05876" lon="2.10268">
        <ele>15</ele>
        <time>2016-02-21T09:59:33Z</time>
      </trkpt>
      <trkpt lat="49.05877" lon="2.10268">
        <ele>16.4</ele>
        <time>2016-02-21T09:59:40Z</time>
      </trkpt>
      <trkpt lat="49.05884" lon="2.10266">
        <ele>19.4</ele>
        <time>2016-02-21T10:02:21Z</time>
      </trkpt>
      <trkpt lat="49.05878" lon="2.10262">
        <ele>21.6</ele>
        <time>2016-02-21T10:05:15Z</time>
      </trkpt>
      <trkpt lat="49.05877" lon="2.10252">
        <ele>21.8</ele>
        <time>2016-02-21T10:05:22Z</time>
      </trkpt>
      <trkpt lat="49.05872" lon="2.10241">
        <ele>22.1</ele>
        <time>2016-02-21T10:05:29Z</time>
      </trkpt>
      <trkpt lat="49.0587" lon="2.10229">
        <ele>22.3</ele>
        <time>2016-02-21T10:05:35Z</time>
      </trkpt>
      <trkpt lat="49.05868" lon="2.10219">
        <ele>22.5</ele>
        <time>2016-02-21T10:05:40Z</time>
      </trkpt>
      <trkpt lat="49.05864" lon="2.1021">
        <ele>22.8</ele>
        <time>2016-02-21T10:05:47Z</time>
      </trkpt>
      <trkpt lat="49.05864" lon="2.102">
        <ele>23.2</ele>
        <time>2016-02-21T10:05:54Z</time>
      </trkpt>
      <trkpt lat="49.0586" lon="2.1019">
        <ele>23.7</ele>
        <time>2016-02-21T10:06:00Z</time>
      </trkpt>
      <trkpt lat="49.05857" lon="2.10179">
        <ele>24.5</ele>
        <time>2016-02-21T10:06:07Z</time>
      </trkpt>
      <trkpt lat="49.05855" lon="2.10168">
        <ele>25.2</ele>
        <time>2016-02-21T10:06:14Z</time>
      </trkpt>
      <trkpt lat="49.05852" lon="2.10156">
        <ele>25.9</ele>
        <time>2016-02-21T10:06:20Z</time>
      </trkpt>
      <trkpt lat="49.05851" lon="2.10145">
        <ele>26.5</ele>
        <time>2016-02-21T10:06:27Z</time>
      </trkpt>
      <trkpt lat="49.05849" lon="2.10133">
        <ele>27.1</ele>
        <time>2016-02-21T10:06:33Z</time>
      </trkpt>
      <trkpt lat="49.05843" lon="2.10124">
        <ele>27.4</ele>
        <time>2016-02-21T10:06:40Z</time>
      </trkpt>
      <trkpt lat="49.05836" lon="2.1012">
        <ele>28.1</ele>
        <time>2016-02-21T10:06:47Z</time>
      </trkpt>
      <trkpt lat="49.05831" lon="2.10113">
        <ele>29.2</ele>
        <time>2016-02-21T10:06:54Z</time>
      </trkpt>
      <trkpt lat="49.05827" lon="2.10108">
        <ele>30.6</ele>
        <time>2016-02-21T10:07:01Z</time>
      </trkpt>
      <trkpt lat="49.05822" lon="2.10101">
        <ele>31.5</ele>
        <time>2016-02-21T10:07:08Z</time>
      </trkpt>
      <trkpt lat="49.05816" lon="2.10095">
        <ele>32.2</ele>
        <time>2016-02-21T10:07:15Z</time>
      </trkpt>
      <trkpt lat="49.05809" lon="2.10091">
        <ele>32.6</ele>
        <time>2016-02-21T10:07:20Z</time>
      </trkpt>
      <trkpt lat="49.05802" lon="2.10085">
        <ele>33.6</ele>
        <time>2016-02-21T10:07:26Z</time>
      </trkpt>
      <trkpt lat="49.05795" lon="2.10083">
        <ele>34.8</ele>
        <time>2016-02-21T10:07:33Z</time>
      </trkpt>
      <trkpt lat="49.05789" lon="2.10081">
        <ele>36.2</ele>
        <time>2016-02-21T10:07:40Z</time>
      </trkpt>
      <trkpt lat="49.05781" lon="2.10075">
        <ele>37.8</ele>
        <time>2016-02-21T10:07:47Z</time>
      </trkpt>
      <trkpt lat="49.05775" lon="2.1007">
        <ele>38.6</ele>
        <time>2016-02-21T10:07:52Z</time>
      </trkpt>
      <trkpt lat="49.05768" lon="2.10066">
        <ele>39.7</ele>
        <time>2016-02-21T10:07:57Z</time>
      </trkpt>
      <trkpt lat="49.05761" lon="2.10064">
        <ele>40.6</ele>
        <time>2016-02-21T10:08:04Z</time>
      </trkpt>
      <trkpt lat="49.05754" lon="2.1006">
        <ele>41.4</ele>
        <time>2016-02-21T10:08:10Z</time>
      </trkpt>
      <trkpt lat="49.05749" lon="2.10057">
        <ele>42.2</ele>
        <time>2016-02-21T10:08:17Z</time>
      </trkpt>
      <trkpt lat="49.05746" lon="2.10057">
        <ele>43.1</ele>
        <time>2016-02-21T10:08:24Z</time>
      </trkpt>
      <trkpt lat="49.05738" lon="2.10056">
        <ele>44.2</ele>
        <time>2016-02-21T10:08:29Z</time>
      </trkpt>
      <trkpt lat="49.05733" lon="2.10052">
        <ele>44.9</ele>
        <time>2016-02-21T10:08:36Z</time>
      </trkpt>
      <trkpt lat="49.05725" lon="2.10047">
        <ele>45.8</ele>
        <time>2016-02-21T10:08:43Z</time>
      </trkpt>
      <trkpt lat="49.0572" lon="2.10043">
        <ele>47.4</ele>
        <time>2016-02-21T10:08:50Z</time>
      </trkpt>
      <trkpt lat="49.05717" lon="2.10039">
        <ele>48.4</ele>
        <time>2016-02-21T10:08:57Z</time>
      </trkpt>
      <trkpt lat="49.05715" lon="2.10045">
        <ele>50.2</ele>
        <time>2016-02-21T10:09:04Z</time>
      </trkpt>
      <trkpt lat="49.05711" lon="2.10033">
        <ele>51.7</ele>
        <time>2016-02-21T10:09:48Z</time>
      </trkpt>
      <trkpt lat="49.05711" lon="2.10022">
        <ele>52</ele>
        <time>2016-02-21T10:09:55Z</time>
      </trkpt>
      <trkpt lat="49.05709" lon="2.10012">
        <ele>52.5</ele>
        <time>2016-02-21T10:10:02Z</time>
      </trkpt>
      <trkpt lat="49.05706" lon="2.10003">
        <ele>52.8</ele>
        <time>2016-02-21T10:10:09Z</time>
      </trkpt>
      <trkpt lat="49.05702" lon="2.09992">
        <ele>53.1</ele>
        <time>2016-02-21T10:10:16Z</time>
      </trkpt>
      <trkpt lat="49.05698" lon="2.09982">
        <ele>53.3</ele>
        <time>2016-02-21T10:10:22Z</time>
      </trkpt>
      <trkpt lat="49.05695" lon="2.09971">
        <ele>53.6</ele>
        <time>2016-02-21T10:10:29Z</time>
      </trkpt>
      <trkpt lat="49.05688" lon="2.09962">
        <ele>54.2</ele>
        <time>2016-02-21T10:10:36Z</time>
      </trkpt>
      <trkpt lat="49.0568" lon="2.09966">
        <ele>54.6</ele>
        <time>2016-02-21T10:10:42Z</time>
      </trkpt>
      <trkpt lat="49.05674" lon="2.09967">
        <ele>55</ele>
        <time>2016-02-21T10:10:49Z</time>
      </trkpt>
      <trkpt lat="49.05666" lon="2.0997">
        <ele>55.4</ele>
        <time>2016-02-21T10:10:56Z</time>
      </trkpt>
      <trkpt lat="49.05658" lon="2.09976">
        <ele>55.9</ele>
        <time>2016-02-21T10:11:01Z</time>
      </trkpt>
      <trkpt lat="49.05651" lon="2.09978">
        <ele>56.3</ele>
        <time>2016-02-21T10:11:07Z</time>
      </trkpt>
      <trkpt lat="49.05644" lon="2.09982">
        <ele>56.8</ele>
        <time>2016-02-21T10:11:14Z</time>
      </trkpt>
      <trkpt lat="49.05636" lon="2.09984">
        <ele>57.8</ele>
        <time>2016-02-21T10:11:20Z</time>
      </trkpt>
      <trkpt lat="49.05628" lon="2.09983">
        <ele>58.7</ele>
        <time>2016-02-21T10:11:27Z</time>
      </trkpt>
      <trkpt lat="49.05621" lon="2.0998">
        <ele>59.1</ele>
        <time>2016-02-21T10:11:32Z</time>
      </trkpt>
      <trkpt lat="49.05614" lon="2.09984">
        <ele>59.6</ele>
        <time>2016-02-21T10:11:39Z</time>
      </trkpt>
      <trkpt lat="49.05607" lon="2.09987">
        <ele>60.4</ele>
        <time>2016-02-21T10:11:46Z</time>
      </trkpt>
      <trkpt lat="49.05601" lon="2.09989">
        <ele>61</ele>
        <time>2016-02-21T10:11:53Z</time>
      </trkpt>
      <trkpt lat="49.05594" lon="2.09992">
        <ele>61.7</ele>
        <time>2016-02-21T10:12:00Z</time>
      </trkpt>
      <trkpt lat="49.05586" lon="2.09993">
        <ele>61.9</ele>
        <time>2016-02-21T10:12:06Z</time>
      </trkpt>
      <trkpt lat="49.05578" lon="2.09995">
        <ele>62.2</ele>
        <time>2016-02-21T10:12:11Z</time>
      </trkpt>
      <trkpt lat="49.0557" lon="2.09999">
        <ele>62.7</ele>
        <time>2016-02-21T10:12:17Z</time>
      </trkpt>
      <trkpt lat="49.05563" lon="2.1">
        <ele>62.9</ele>
        <time>2016-02-21T10:12:24Z</time>
      </trkpt>
      <trkpt lat="49.05557" lon="2.1">
        <ele>63.3</ele>
        <time>2016-02-21T10:12:31Z</time>
      </trkpt>
      <trkpt lat="49.0555" lon="2.1">
        <ele>63.8</ele>
        <time>2016-02-21T10:12:38Z</time>
      </trkpt>
      <trkpt lat="49.05542" lon="2.10001">
        <ele>63.8</ele>
        <time>2016-02-21T10:12:45Z</time>
      </trkpt>
      <trkpt lat="49.05535" lon="2.10004">
        <ele>63.9</ele>
        <time>2016-02-21T10:12:50Z</time>
      </trkpt>
      <trkpt lat="49.05528" lon="2.10006">
        <ele>64</ele>
        <time>2016-02-21T10:12:55Z</time>
      </trkpt>
      <trkpt lat="49.0552" lon="2.10008">
        <ele>64.5</ele>
        <time>2016-02-21T10:13:02Z</time>
      </trkpt>
      <trkpt lat="49.05513" lon="2.1001">
        <ele>64.7</ele>
        <time>2016-02-21T10:13:09Z</time>
      </trkpt>
      <trkpt lat="49.05507" lon="2.10009">
        <ele>65.3</ele>
        <time>2016-02-21T10:13:16Z</time>
      </trkpt>
      <trkpt lat="49.05501" lon="2.10006">
        <ele>65.2</ele>
        <time>2016-02-21T10:13:23Z</time>
      </trkpt>
      <trkpt lat="49.05493" lon="2.1001">
        <ele>65</ele>
        <time>2016-02-21T10:13:28Z</time>
      </trkpt>
      <trkpt lat="49.05486" lon="2.1001">
        <ele>64.8</ele>
        <time>2016-02-21T10:13:34Z</time>
      </trkpt>
      <trkpt lat="49.05478" lon="2.10014">
        <ele>64.7</ele>
        <time>2016-02-21T10:13:40Z</time>
      </trkpt>
      <trkpt lat="49.0547" lon="2.10018">
        <ele>64.4</ele>
        <time>2016-02-21T10:13:45Z</time>
      </trkpt>
      <trkpt lat="49.05464" lon="2.10019">
        <ele>64.1</ele>
        <time>2016-02-21T10:13:52Z</time>
      </trkpt>
      <trkpt lat="49.05456" lon="2.10017">
        <ele>63.7</ele>
        <time>2016-02-21T10:13:59Z</time>
      </trkpt>
      <trkpt lat="49.0545" lon="2.1001">
        <ele>63.2</ele>
        <time>2016-02-21T10:14:06Z</time>
      </trkpt>
      <trkpt lat="49.05446" lon="2.10001">
        <ele>62.9</ele>
        <time>2016-02-21T10:14:13Z</time>
      </trkpt>
      <trkpt lat="49.05441" lon="2.09994">
        <ele>62.7</ele>
        <time>2016-02-21T10:14:20Z</time>
      </trkpt>
      <trkpt lat="49.05433" lon="2.09992">
        <ele>62.6</ele>
        <time>2016-02-21T10:14:27Z</time>
      </trkpt>
      <trkpt lat="49.05426" lon="2.09989">
        <ele>62.7</ele>
        <time>2016-02-21T10:14:34Z</time>
      </trkpt>
      <trkpt lat="49.05418" lon="2.09993">
        <ele>63.8</ele>
        <time>2016-02-21T10:14:41Z</time>
      </trkpt>
      <trkpt lat="49.05411" lon="2.09994">
        <ele>64.6</ele>
        <time>2016-02-21T10:14:46Z</time>
      </trkpt>
      <trkpt lat="49.05405" lon="2.09997">
        <ele>65</ele>
        <time>2016-02-21T10:14:53Z</time>
      </trkpt>
      <trkpt lat="49.05397" lon="2.09999">
        <ele>65.4</ele>
        <time>2016-02-21T10:15:00Z</time>
      </trkpt>
      <trkpt lat="49.0539" lon="2.09995">
        <ele>66.2</ele>
        <time>2016-02-21T10:15:07Z</time>
      </trkpt>
      <trkpt lat="49.05383" lon="2.09996">
        <ele>66.8</ele>
        <time>2016-02-21T10:15:14Z</time>
      </trkpt>
      <trkpt lat="49.05376" lon="2.09997">
        <ele>67.5</ele>
        <time>2016-02-21T10:15:21Z</time>
      </trkpt>
      <trkpt lat="49.05369" lon="2.09992">
        <ele>69.1</ele>
        <time>2016-02-21T10:15:25Z</time>
      </trkpt>
      <trkpt lat="49.05361" lon="2.09991">
        <ele>69.3</ele>
        <time>2016-02-21T10:15:30Z</time>
      </trkpt>
      <trkpt lat="49.05353" lon="2.0999">
        <ele>69.1</ele>
        <time>2016-02-21T10:15:34Z</time>
      </trkpt>
      <trkpt lat="49.05347" lon="2.09993">
        <ele>69.3</ele>
        <time>2016-02-21T10:15:41Z</time>
      </trkpt>
      <trkpt lat="49.0534" lon="2.09996">
        <ele>69.9</ele>
        <time>2016-02-21T10:15:47Z</time>
      </trkpt>
      <trkpt lat="49.05335" lon="2.09999">
        <ele>69.6</ele>
        <time>2016-02-21T10:15:54Z</time>
      </trkpt>
      <trkpt lat="49.05329" lon="2.10005">
        <ele>69.3</ele>
        <time>2016-02-21T10:16:01Z</time>
      </trkpt>
      <trkpt lat="49.05322" lon="2.10006">
        <ele>69</ele>
        <time>2016-02-21T10:16:08Z</time>
      </trkpt>
      <trkpt lat="49.05314" lon="2.1001">
        <ele>68.8</ele>
        <time>2016-02-21T10:16:13Z</time>
      </trkpt>
      <trkpt lat="49.05307" lon="2.10012">
        <ele>68.3</ele>
        <time>2016-02-21T10:16:20Z</time>
      </trkpt>
      <trkpt lat="49.05301" lon="2.10016">
        <ele>67.9</ele>
        <time>2016-02-21T10:16:27Z</time>
      </trkpt>
      <trkpt lat="49.05293" lon="2.10018">
        <ele>67.9</ele>
        <time>2016-02-21T10:16:32Z</time>
      </trkpt>
      <trkpt lat="49.05286" lon="2.10016">
        <ele>67.5</ele>
        <time>2016-02-21T10:16:37Z</time>
      </trkpt>
      <trkpt lat="49.05279" lon="2.1001">
        <ele>67.4</ele>
        <time>2016-02-21T10:16:40Z</time>
      </trkpt>
      <trkpt lat="49.05272" lon="2.10012">
        <ele>67</ele>
        <time>2016-02-21T10:16:47Z</time>
      </trkpt>
      <trkpt lat="49.05265" lon="2.10012">
        <ele>67.1</ele>
        <time>2016-02-21T10:16:53Z</time>
      </trkpt>
      <trkpt lat="49.05257" lon="2.10016">
        <ele>66.9</ele>
        <time>2016-02-21T10:17:00Z</time>
      </trkpt>
      <trkpt lat="49.0525" lon="2.10018">
        <ele>66.5</ele>
        <time>2016-02-21T10:17:07Z</time>
      </trkpt>
      <trkpt lat="49.05244" lon="2.10016">
        <ele>66.4</ele>
        <time>2016-02-21T10:17:14Z</time>
      </trkpt>
      <trkpt lat="49.05238" lon="2.10008">
        <ele>66.3</ele>
        <time>2016-02-21T10:17:19Z</time>
      </trkpt>
      <trkpt lat="49.05234" lon="2.10002">
        <ele>66.3</ele>
        <time>2016-02-21T10:17:26Z</time>
      </trkpt>
      <trkpt lat="49.05229" lon="2.09989">
        <ele>66</ele>
        <time>2016-02-21T10:17:29Z</time>
      </trkpt>
      <trkpt lat="49.05224" lon="2.09981">
        <ele>66</ele>
        <time>2016-02-21T10:17:35Z</time>
      </trkpt>
      <trkpt lat="49.05219" lon="2.09972">
        <ele>65.9</ele>
        <time>2016-02-21T10:17:41Z</time>
      </trkpt>
      <trkpt lat="49.0522" lon="2.09968">
        <ele>65.3</ele>
        <time>2016-02-21T10:17:48Z</time>
      </trkpt>
      <trkpt lat="49.05221" lon="2.09962">
        <ele>64.4</ele>
        <time>2016-02-21T10:17:55Z</time>
      </trkpt>
      <trkpt lat="49.05217" lon="2.09953">
        <ele>64.4</ele>
        <time>2016-02-21T10:18:02Z</time>
      </trkpt>
      <trkpt lat="49.05214" lon="2.09943">
        <ele>64.2</ele>
        <time>2016-02-21T10:18:09Z</time>
      </trkpt>
      <trkpt lat="49.05209" lon="2.09934">
        <ele>63.9</ele>
        <time>2016-02-21T10:18:14Z</time>
      </trkpt>
      <trkpt lat="49.05203" lon="2.09925">
        <ele>63.8</ele>
        <time>2016-02-21T10:18:19Z</time>
      </trkpt>
      <trkpt lat="49.05198" lon="2.09917">
        <ele>63.9</ele>
        <time>2016-02-21T10:18:26Z</time>
      </trkpt>
      <trkpt lat="49.05193" lon="2.09914">
        <ele>63.5</ele>
        <time>2016-02-21T10:18:33Z</time>
      </trkpt>
      <trkpt lat="49.05191" lon="2.09914">
        <ele>63.1</ele>
        <time>2016-02-21T10:18:40Z</time>
      </trkpt>
      <trkpt lat="49.05188" lon="2.09903">
        <ele>62.9</ele>
        <time>2016-02-21T10:19:24Z</time>
      </trkpt>
      <trkpt lat="49.05186" lon="2.09898">
        <ele>62.5</ele>
        <time>2016-02-21T10:19:31Z</time>
      </trkpt>
      <trkpt lat="49.05181" lon="2.09892">
        <ele>61.3</ele>
        <time>2016-02-21T10:19:45Z</time>
      </trkpt>
      <trkpt lat="49.05177" lon="2.09891">
        <ele>60.9</ele>
        <time>2016-02-21T10:19:52Z</time>
      </trkpt>
      <trkpt lat="49.05169" lon="2.0989">
        <ele>60.3</ele>
        <time>2016-02-21T10:20:16Z</time>
      </trkpt>
      <trkpt lat="49.05161" lon="2.09891">
        <ele>60.1</ele>
        <time>2016-02-21T10:20:22Z</time>
      </trkpt>
      <trkpt lat="49.05153" lon="2.09887">
        <ele>59.8</ele>
        <time>2016-02-21T10:20:28Z</time>
      </trkpt>
      <trkpt lat="49.05147" lon="2.09882">
        <ele>59.5</ele>
        <time>2016-02-21T10:20:33Z</time>
      </trkpt>
      <trkpt lat="49.0514" lon="2.09877">
        <ele>59.1</ele>
        <time>2016-02-21T10:20:39Z</time>
      </trkpt>
      <trkpt lat="49.05137" lon="2.09867">
        <ele>58.5</ele>
        <time>2016-02-21T10:20:46Z</time>
      </trkpt>
      <trkpt lat="49.05132" lon="2.0986">
        <ele>58.1</ele>
        <time>2016-02-21T10:20:52Z</time>
      </trkpt>
      <trkpt lat="49.05126" lon="2.09851">
        <ele>57.9</ele>
        <time>2016-02-21T10:20:58Z</time>
      </trkpt>
      <trkpt lat="49.05123" lon="2.09841">
        <ele>57.5</ele>
        <time>2016-02-21T10:21:04Z</time>
      </trkpt>
      <trkpt lat="49.05118" lon="2.09832">
        <ele>57.3</ele>
        <time>2016-02-21T10:21:11Z</time>
      </trkpt>
      <trkpt lat="49.05111" lon="2.09825">
        <ele>57</ele>
        <time>2016-02-21T10:21:18Z</time>
      </trkpt>
      <trkpt lat="49.05109" lon="2.09813">
        <ele>56.8</ele>
        <time>2016-02-21T10:21:24Z</time>
      </trkpt>
      <trkpt lat="49.05112" lon="2.09801">
        <ele>56.5</ele>
        <time>2016-02-21T10:21:27Z</time>
      </trkpt>
      <trkpt lat="49.05111" lon="2.09792">
        <ele>55.8</ele>
        <time>2016-02-21T10:21:34Z</time>
      </trkpt>
      <trkpt lat="49.0511" lon="2.09789">
        <ele>55.5</ele>
        <time>2016-02-21T10:21:41Z</time>
      </trkpt>
      <trkpt lat="49.05107" lon="2.09779">
        <ele>55.7</ele>
        <time>2016-02-21T10:22:01Z</time>
      </trkpt>
      <trkpt lat="49.051" lon="2.09777">
        <ele>56.5</ele>
        <time>2016-02-21T10:22:07Z</time>
      </trkpt>
      <trkpt lat="49.05096" lon="2.09779">
        <ele>57</ele>
        <time>2016-02-21T10:22:14Z</time>
      </trkpt>
      <trkpt lat="49.05096" lon="2.09782">
        <ele>56.9</ele>
        <time>2016-02-21T10:22:21Z</time>
      </trkpt>
      <trkpt lat="49.05081" lon="2.09789">
        <ele>56.8</ele>
        <time>2016-02-21T10:23:31Z</time>
      </trkpt>
      <trkpt lat="49.05084" lon="2.09803">
        <ele>56.4</ele>
        <time>2016-02-21T10:23:33Z</time>
      </trkpt>
      <trkpt lat="49.0508" lon="2.09814">
        <ele>55.8</ele>
        <time>2016-02-21T10:23:40Z</time>
      </trkpt>
      <trkpt lat="49.05076" lon="2.09817">
        <ele>55.3</ele>
        <time>2016-02-21T10:23:47Z</time>
      </trkpt>
      <trkpt lat="49.05073" lon="2.09825">
        <ele>55.1</ele>
        <time>2016-02-21T10:23:54Z</time>
      </trkpt>
      <trkpt lat="49.05075" lon="2.09831">
        <ele>55.1</ele>
        <time>2016-02-21T10:24:01Z</time>
      </trkpt>
      <trkpt lat="49.05072" lon="2.09839">
        <ele>54</ele>
        <time>2016-02-21T10:24:08Z</time>
      </trkpt>
      <trkpt lat="49.0507" lon="2.09842">
        <ele>52.9</ele>
        <time>2016-02-21T10:24:15Z</time>
      </trkpt>
      <trkpt lat="49.05063" lon="2.09842">
        <ele>51.7</ele>
        <time>2016-02-21T10:26:00Z</time>
      </trkpt>
      <trkpt lat="49.05062" lon="2.09848">
        <ele>51.8</ele>
        <time>2016-02-21T10:26:07Z</time>
      </trkpt>
      <trkpt lat="49.05062" lon="2.09859">
        <ele>52</ele>
        <time>2016-02-21T10:26:14Z</time>
      </trkpt>
      <trkpt lat="49.05061" lon="2.09863">
        <ele>52.1</ele>
        <time>2016-02-21T10:26:21Z</time>
      </trkpt>
      <trkpt lat="49.05066" lon="2.09868">
        <ele>52.5</ele>
        <time>2016-02-21T10:26:28Z</time>
      </trkpt>
      <trkpt lat="49.05067" lon="2.09869">
        <ele>52.6</ele>
        <time>2016-02-21T10:26:35Z</time>
      </trkpt>
      <trkpt lat="49.05064" lon="2.09878">
        <ele>52.6</ele>
        <time>2016-02-21T10:26:39Z</time>
      </trkpt>
      <trkpt lat="49.05062" lon="2.0989">
        <ele>52</ele>
        <time>2016-02-21T10:26:43Z</time>
      </trkpt>
      <trkpt lat="49.05058" lon="2.099">
        <ele>51.9</ele>
        <time>2016-02-21T10:26:47Z</time>
      </trkpt>
      <trkpt lat="49.05061" lon="2.09909">
        <ele>51.7</ele>
        <time>2016-02-21T10:26:54Z</time>
      </trkpt>
      <trkpt lat="49.05066" lon="2.09916">
        <ele>51.7</ele>
        <time>2016-02-21T10:27:01Z</time>
      </trkpt>
      <trkpt lat="49.05069" lon="2.09921">
        <ele>51.8</ele>
        <time>2016-02-21T10:27:08Z</time>
      </trkpt>
      <trkpt lat="49.05075" lon="2.09929">
        <ele>51.7</ele>
        <time>2016-02-21T10:27:15Z</time>
      </trkpt>
      <trkpt lat="49.05079" lon="2.0994">
        <ele>51.1</ele>
        <time>2016-02-21T10:27:20Z</time>
      </trkpt>
      <trkpt lat="49.05084" lon="2.0995">
        <ele>50.3</ele>
        <time>2016-02-21T10:27:27Z</time>
      </trkpt>
      <trkpt lat="49.0509" lon="2.09958">
        <ele>50.4</ele>
        <time>2016-02-21T10:27:33Z</time>
      </trkpt>
      <trkpt lat="49.05092" lon="2.0997">
        <ele>50</ele>
        <time>2016-02-21T10:27:39Z</time>
      </trkpt>
      <trkpt lat="49.05093" lon="2.09979">
        <ele>49.5</ele>
        <time>2016-02-21T10:27:46Z</time>
      </trkpt>
      <trkpt lat="49.05094" lon="2.09981">
        <ele>49.2</ele>
        <time>2016-02-21T10:27:53Z</time>
      </trkpt>
      <trkpt lat="49.0509" lon="2.09989">
        <ele>48.5</ele>
        <time>2016-02-21T10:28:00Z</time>
      </trkpt>
      <trkpt lat="49.05088" lon="2.09995">
        <ele>47.7</ele>
        <time>2016-02-21T10:28:07Z</time>
      </trkpt>
      <trkpt lat="49.05089" lon="2.09993">
        <ele>46.9</ele>
        <time>2016-02-21T10:28:14Z</time>
      </trkpt>
      <trkpt lat="49.0509" lon="2.09994">
        <ele>46.7</ele>
        <time>2016-02-21T10:28:21Z</time>
      </trkpt>
      <trkpt lat="49.05095" lon="2.09985">
        <ele>46.3</ele>
        <time>2016-02-21T10:29:40Z</time>
      </trkpt>
      <trkpt lat="49.05098" lon="2.09982">
        <ele>45.7</ele>
        <time>2016-02-21T10:29:47Z</time>
      </trkpt>
      <trkpt lat="49.05106" lon="2.09984">
        <ele>45.8</ele>
        <time>2016-02-21T10:29:53Z</time>
      </trkpt>
      <trkpt lat="49.05111" lon="2.0999">
        <ele>45.7</ele>
        <time>2016-02-21T10:30:00Z</time>
      </trkpt>
      <trkpt lat="49.05113" lon="2.09994">
        <ele>45.7</ele>
        <time>2016-02-21T10:30:07Z</time>
      </trkpt>
      <trkpt lat="49.05121" lon="2.09992">
        <ele>45.4</ele>
        <time>2016-02-21T10:30:14Z</time>
      </trkpt>
      <trkpt lat="49.05124" lon="2.09987">
        <ele>44.9</ele>
        <time>2016-02-21T10:30:21Z</time>
      </trkpt>
      <trkpt lat="49.05127" lon="2.0999">
        <ele>44.8</ele>
        <time>2016-02-21T10:30:28Z</time>
      </trkpt>
      <trkpt lat="49.0513" lon="2.0999">
        <ele>45.1</ele>
        <time>2016-02-21T10:30:35Z</time>
      </trkpt>
      <trkpt lat="49.0513" lon="2.09992">
        <ele>46.2</ele>
        <time>2016-02-21T10:31:02Z</time>
      </trkpt>
      <trkpt lat="49.0513" lon="2.09978">
        <ele>46.9</ele>
        <time>2016-02-21T10:30:34Z</time>
      </trkpt>
      <trkpt lat="49.05131" lon="2.0997">
        <ele>47.2</ele>
        <time>2016-02-21T10:31:47Z</time>
      </trkpt>
      <trkpt lat="49.05131" lon="2.09964">
        <ele>47.1</ele>
        <time>2016-02-21T10:31:54Z</time>
      </trkpt>
      <trkpt lat="49.05124" lon="2.09957">
        <ele>47.1</ele>
        <time>2016-02-21T10:32:15Z</time>
      </trkpt>
      <trkpt lat="49.05121" lon="2.09949">
        <ele>47.1</ele>
        <time>2016-02-21T10:32:22Z</time>
      </trkpt>
      <trkpt lat="49.05117" lon="2.09947">
        <ele>46.9</ele>
        <time>2016-02-21T10:32:29Z</time>
      </trkpt>
      <trkpt lat="49.05117" lon="2.09947">
        <ele>47.1</ele>
        <time>2016-02-21T10:32:36Z</time>
      </trkpt>
      <trkpt lat="49.05117" lon="2.09949">
        <ele>47.4</ele>
        <time>2016-02-21T10:33:06Z</time>
      </trkpt>
      <trkpt lat="49.05103" lon="2.09964">
        <ele>48.2</ele>
        <time>2016-02-21T10:33:01Z</time>
      </trkpt>
      <trkpt lat="49.05101" lon="2.09972">
        <ele>48</ele>
        <time>2016-02-21T10:32:30Z</time>
      </trkpt>
      <trkpt lat="49.051" lon="2.0998">
        <ele>48.1</ele>
        <time>2016-02-21T10:34:48Z</time>
      </trkpt>
      <trkpt lat="49.05095" lon="2.09989">
        <ele>48.4</ele>
        <time>2016-02-21T10:34:55Z</time>
      </trkpt>
      <trkpt lat="49.05093" lon="2.09993">
        <ele>48.3</ele>
        <time>2016-02-21T10:35:42Z</time>
      </trkpt>
      <trkpt lat="49.05089" lon="2.10003">
        <ele>48.2</ele>
        <time>2016-02-21T10:35:47Z</time>
      </trkpt>
      <trkpt lat="49.05085" lon="2.10008">
        <ele>47.6</ele>
        <time>2016-02-21T10:35:54Z</time>
      </trkpt>
      <trkpt lat="49.05081" lon="2.1001">
        <ele>47.4</ele>
        <time>2016-02-21T10:36:01Z</time>
      </trkpt>
      <trkpt lat="49.05075" lon="2.10013">
        <ele>47.1</ele>
        <time>2016-02-21T10:36:08Z</time>
      </trkpt>
      <trkpt lat="49.05072" lon="2.10017">
        <ele>46.7</ele>
        <time>2016-02-21T10:36:15Z</time>
      </trkpt>
      <trkpt lat="49.05072" lon="2.10028">
        <ele>45.9</ele>
        <time>2016-02-21T10:36:22Z</time>
      </trkpt>
      <trkpt lat="49.05068" lon="2.10032">
        <ele>45.3</ele>
        <time>2016-02-21T10:36:29Z</time>
      </trkpt>
      <trkpt lat="49.05064" lon="2.10042">
        <ele>45.1</ele>
        <time>2016-02-21T10:36:36Z</time>
      </trkpt>
      <trkpt lat="49.05062" lon="2.10054">
        <ele>43.9</ele>
        <time>2016-02-21T10:36:43Z</time>
      </trkpt>
      <trkpt lat="49.0506" lon="2.1006">
        <ele>42.5</ele>
        <time>2016-02-21T10:36:50Z</time>
      </trkpt>
      <trkpt lat="49.05057" lon="2.10066">
        <ele>42.2</ele>
        <time>2016-02-21T10:36:57Z</time>
      </trkpt>
      <trkpt lat="49.05057" lon="2.10067">
        <ele>42.1</ele>
        <time>2016-02-21T10:37:04Z</time>
      </trkpt>
      <trkpt lat="49.05059" lon="2.1007">
        <ele>41.6</ele>
        <time>2016-02-21T10:37:11Z</time>
      </trkpt>
      <trkpt lat="49.05054" lon="2.10068">
        <ele>41.2</ele>
        <time>2016-02-21T10:37:36Z</time>
      </trkpt>
      <trkpt lat="49.0505" lon="2.1007">
        <ele>41.4</ele>
        <time>2016-02-21T10:37:43Z</time>
      </trkpt>
      <trkpt lat="49.05046" lon="2.10066">
        <ele>41.4</ele>
        <time>2016-02-21T10:37:50Z</time>
      </trkpt>
      <trkpt lat="49.0504" lon="2.10059">
        <ele>41.3</ele>
        <time>2016-02-21T10:37:56Z</time>
      </trkpt>
      <trkpt lat="49.05035" lon="2.10056">
        <ele>41.3</ele>
        <time>2016-02-21T10:38:03Z</time>
      </trkpt>
      <trkpt lat="49.0503" lon="2.1005">
        <ele>41.3</ele>
        <time>2016-02-21T10:38:10Z</time>
      </trkpt>
      <trkpt lat="49.05028" lon="2.10046">
        <ele>41.5</ele>
        <time>2016-02-21T10:38:17Z</time>
      </trkpt>
      <trkpt lat="49.05027" lon="2.10057">
        <ele>41.8</ele>
        <time>2016-02-21T10:38:52Z</time>
      </trkpt>
      <trkpt lat="49.05023" lon="2.10067">
        <ele>41.9</ele>
        <time>2016-02-21T10:38:58Z</time>
      </trkpt>
      <trkpt lat="49.05018" lon="2.10074">
        <ele>42.1</ele>
        <time>2016-02-21T10:39:05Z</time>
      </trkpt>
      <trkpt lat="49.0501" lon="2.10081">
        <ele>42.1</ele>
        <time>2016-02-21T10:39:12Z</time>
      </trkpt>
      <trkpt lat="49.05003" lon="2.10085">
        <ele>42.1</ele>
        <time>2016-02-21T10:39:18Z</time>
      </trkpt>
      <trkpt lat="49.04996" lon="2.10091">
        <ele>42.2</ele>
        <time>2016-02-21T10:39:25Z</time>
      </trkpt>
      <trkpt lat="49.04989" lon="2.10094">
        <ele>42.3</ele>
        <time>2016-02-21T10:39:31Z</time>
      </trkpt>
      <trkpt lat="49.04981" lon="2.10096">
        <ele>42.3</ele>
        <time>2016-02-21T10:39:37Z</time>
      </trkpt>
      <trkpt lat="49.04973" lon="2.10095">
        <ele>42.3</ele>
        <time>2016-02-21T10:39:42Z</time>
      </trkpt>
      <trkpt lat="49.04966" lon="2.10101">
        <ele>42.4</ele>
        <time>2016-02-21T10:39:49Z</time>
      </trkpt>
      <trkpt lat="49.04958" lon="2.10098">
        <ele>42.4</ele>
        <time>2016-02-21T10:39:56Z</time>
      </trkpt>
      <trkpt lat="49.04952" lon="2.10094">
        <ele>42.5</ele>
        <time>2016-02-21T10:40:03Z</time>
      </trkpt>
      <trkpt lat="49.04944" lon="2.10096">
        <ele>42.4</ele>
        <time>2016-02-21T10:40:09Z</time>
      </trkpt>
      <trkpt lat="49.04937" lon="2.10091">
        <ele>42.3</ele>
        <time>2016-02-21T10:40:14Z</time>
      </trkpt>
      <trkpt lat="49.04929" lon="2.10089">
        <ele>42</ele>
        <time>2016-02-21T10:40:21Z</time>
      </trkpt>
      <trkpt lat="49.04927" lon="2.1009">
        <ele>41.7</ele>
        <time>2016-02-21T10:40:28Z</time>
      </trkpt>
      <trkpt lat="49.04927" lon="2.10089">
        <ele>40.8</ele>
        <time>2016-02-21T10:40:35Z</time>
      </trkpt>
      <trkpt lat="49.04925" lon="2.10084">
        <ele>40.3</ele>
        <time>2016-02-21T10:40:42Z</time>
      </trkpt>
      <trkpt lat="49.04926" lon="2.10074">
        <ele>40.1</ele>
        <time>2016-02-21T10:40:49Z</time>
      </trkpt>
      <trkpt lat="49.04929" lon="2.10063">
        <ele>40</ele>
        <time>2016-02-21T10:40:53Z</time>
      </trkpt>
      <trkpt lat="49.04923" lon="2.10056">
        <ele>40.1</ele>
        <time>2016-02-21T10:40:59Z</time>
      </trkpt>
      <trkpt lat="49.04922" lon="2.10044">
        <ele>40.3</ele>
        <time>2016-02-21T10:41:06Z</time>
      </trkpt>
      <trkpt lat="49.04919" lon="2.10033">
        <ele>40.5</ele>
        <time>2016-02-21T10:41:13Z</time>
      </trkpt>
      <trkpt lat="49.04913" lon="2.10027">
        <ele>40.8</ele>
        <time>2016-02-21T10:41:20Z</time>
      </trkpt>
      <trkpt lat="49.04907" lon="2.10024">
        <ele>40.9</ele>
        <time>2016-02-21T10:41:27Z</time>
      </trkpt>
      <trkpt lat="49.04899" lon="2.10021">
        <ele>40.9</ele>
        <time>2016-02-21T10:41:34Z</time>
      </trkpt>
      <trkpt lat="49.04894" lon="2.10021">
        <ele>41.5</ele>
        <time>2016-02-21T10:41:41Z</time>
      </trkpt>
      <trkpt lat="49.04886" lon="2.10019">
        <ele>41.7</ele>
        <time>2016-02-21T10:41:47Z</time>
      </trkpt>
      <trkpt lat="49.04878" lon="2.1002">
        <ele>41.5</ele>
        <time>2016-02-21T10:41:52Z</time>
      </trkpt>
      <trkpt lat="49.04871" lon="2.10017">
        <ele>41.5</ele>
        <time>2016-02-21T10:41:57Z</time>
      </trkpt>
      <trkpt lat="49.04865" lon="2.1001">
        <ele>42.2</ele>
        <time>2016-02-21T10:42:03Z</time>
      </trkpt>
      <trkpt lat="49.04861" lon="2.10002">
        <ele>43</ele>
        <time>2016-02-21T10:42:10Z</time>
      </trkpt>
      <trkpt lat="49.04854" lon="2.09997">
        <ele>43.3</ele>
        <time>2016-02-21T10:42:17Z</time>
      </trkpt>
      <trkpt lat="49.04848" lon="2.0999">
        <ele>43.9</ele>
        <time>2016-02-21T10:42:24Z</time>
      </trkpt>
      <trkpt lat="49.04842" lon="2.09981">
        <ele>44.3</ele>
        <time>2016-02-21T10:42:31Z</time>
      </trkpt>
      <trkpt lat="49.04835" lon="2.09979">
        <ele>44.6</ele>
        <time>2016-02-21T10:42:38Z</time>
      </trkpt>
      <trkpt lat="49.04827" lon="2.09975">
        <ele>44.8</ele>
        <time>2016-02-21T10:42:45Z</time>
      </trkpt>
      <trkpt lat="49.0482" lon="2.09976">
        <ele>45.9</ele>
        <time>2016-02-21T10:42:52Z</time>
      </trkpt>
      <trkpt lat="49.0482" lon="2.09974">
        <ele>46.6</ele>
        <time>2016-02-21T10:42:59Z</time>
      </trkpt>
      <trkpt lat="49.04823" lon="2.09964">
        <ele>47.2</ele>
        <time>2016-02-21T10:43:06Z</time>
      </trkpt>
      <trkpt lat="49.04826" lon="2.09957">
        <ele>47.4</ele>
        <time>2016-02-21T10:43:13Z</time>
      </trkpt>
      <trkpt lat="49.04826" lon="2.0996">
        <ele>47.7</ele>
        <time>2016-02-21T10:43:20Z</time>
      </trkpt>
      <trkpt lat="49.04825" lon="2.09962">
        <ele>47.7</ele>
        <time>2016-02-21T10:43:27Z</time>
      </trkpt>
      <trkpt lat="49.04827" lon="2.09951">
        <ele>48</ele>
        <time>2016-02-21T10:43:38Z</time>
      </trkpt>
      <trkpt lat="49.0483" lon="2.09943">
        <ele>47.6</ele>
        <time>2016-02-21T10:43:45Z</time>
      </trkpt>
      <trkpt lat="49.04835" lon="2.09933">
        <ele>47.3</ele>
        <time>2016-02-21T10:43:52Z</time>
      </trkpt>
      <trkpt lat="49.04838" lon="2.09923">
        <ele>47.2</ele>
        <time>2016-02-21T10:43:58Z</time>
      </trkpt>
      <trkpt lat="49.04844" lon="2.09919">
        <ele>46.8</ele>
        <time>2016-02-21T10:44:05Z</time>
      </trkpt>
      <trkpt lat="49.04849" lon="2.09919">
        <ele>46.5</ele>
        <time>2016-02-21T10:44:12Z</time>
      </trkpt>
      <trkpt lat="49.04848" lon="2.09921">
        <ele>46.1</ele>
        <time>2016-02-21T10:44:19Z</time>
      </trkpt>
      <trkpt lat="49.04846" lon="2.09922">
        <ele>45.7</ele>
        <time>2016-02-21T10:44:26Z</time>
      </trkpt>
      <trkpt lat="49.0484" lon="2.09928">
        <ele>45.3</ele>
        <time>2016-02-21T10:44:32Z</time>
      </trkpt>
      <trkpt lat="49.04833" lon="2.09936">
        <ele>44.9</ele>
        <time>2016-02-21T10:44:37Z</time>
      </trkpt>
      <trkpt lat="49.04828" lon="2.09944">
        <ele>45.2</ele>
        <time>2016-02-21T10:44:43Z</time>
      </trkpt>
      <trkpt lat="49.04823" lon="2.09955">
        <ele>45.6</ele>
        <time>2016-02-21T10:44:48Z</time>
      </trkpt>
      <trkpt lat="49.0482" lon="2.09965">
        <ele>45.9</ele>
        <time>2016-02-21T10:44:54Z</time>
      </trkpt>
      <trkpt lat="49.04814" lon="2.09974">
        <ele>46</ele>
        <time>2016-02-21T10:44:57Z</time>
      </trkpt>
      <trkpt lat="49.04811" lon="2.0996">
        <ele>45.8</ele>
        <time>2016-02-21T10:44:58Z</time>
      </trkpt>
      <trkpt lat="49.04812" lon="2.0996">
        <ele>46</ele>
        <time>2016-02-21T10:45:05Z</time>
      </trkpt>
      <trkpt lat="49.04811" lon="2.09972">
        <ele>46.2</ele>
        <time>2016-02-21T10:45:11Z</time>
      </trkpt>
      <trkpt lat="49.04812" lon="2.09984">
        <ele>46.2</ele>
        <time>2016-02-21T10:45:16Z</time>
      </trkpt>
      <trkpt lat="49.04814" lon="2.09996">
        <ele>46.3</ele>
        <time>2016-02-21T10:45:19Z</time>
      </trkpt>
      <trkpt lat="49.04816" lon="2.10005">
        <ele>46.1</ele>
        <time>2016-02-21T10:45:26Z</time>
      </trkpt>
      <trkpt lat="49.04823" lon="2.1001">
        <ele>44.9</ele>
        <time>2016-02-21T10:46:21Z</time>
      </trkpt>
      <trkpt lat="49.04823" lon="2.10012">
        <ele>45.3</ele>
        <time>2016-02-21T10:46:28Z</time>
      </trkpt>
      <trkpt lat="49.04823" lon="2.10002">
        <ele>44.4</ele>
        <time>2016-02-21T10:49:52Z</time>
      </trkpt>
      <trkpt lat="49.04816" lon="2.10005">
        <ele>44.4</ele>
        <time>2016-02-21T10:49:55Z</time>
      </trkpt>
      <trkpt lat="49.04809" lon="2.10001">
        <ele>44.2</ele>
        <time>2016-02-21T10:50:02Z</time>
      </trkpt>
      <trkpt lat="49.04803" lon="2.09995">
        <ele>44.1</ele>
        <time>2016-02-21T10:50:09Z</time>
      </trkpt>
      <trkpt lat="49.04804" lon="2.09992">
        <ele>44</ele>
        <time>2016-02-21T10:50:16Z</time>
      </trkpt>
      <trkpt lat="49.04806" lon="2.09992">
        <ele>43.7</ele>
        <time>2016-02-21T10:50:23Z</time>
      </trkpt>
      <trkpt lat="49.04812" lon="2.1">
        <ele>43.7</ele>
        <time>2016-02-21T10:50:30Z</time>
      </trkpt>
      <trkpt lat="49.04816" lon="2.10009">
        <ele>43.5</ele>
        <time>2016-02-21T10:50:34Z</time>
      </trkpt>
      <trkpt lat="49.04823" lon="2.1001">
        <ele>43.3</ele>
        <time>2016-02-21T10:50:41Z</time>
      </trkpt>
      <trkpt lat="49.0483" lon="2.10012">
        <ele>43.2</ele>
        <time>2016-02-21T10:51:19Z</time>
      </trkpt>
      <trkpt lat="49.04836" lon="2.10014">
        <ele>43.1</ele>
        <time>2016-02-21T10:51:26Z</time>
      </trkpt>
      <trkpt lat="49.04831" lon="2.10014">
        <ele>43.2</ele>
        <time>2016-02-21T10:52:15Z</time>
      </trkpt>
      <trkpt lat="49.04825" lon="2.10004">
        <ele>43.1</ele>
        <time>2016-02-21T10:52:21Z</time>
      </trkpt>
      <trkpt lat="49.04819" lon="2.09997">
        <ele>42.9</ele>
        <time>2016-02-21T10:52:26Z</time>
      </trkpt>
      <trkpt lat="49.04811" lon="2.09994">
        <ele>42.8</ele>
        <time>2016-02-21T10:52:31Z</time>
      </trkpt>
      <trkpt lat="49.04804" lon="2.09988">
        <ele>42.6</ele>
        <time>2016-02-21T10:52:38Z</time>
      </trkpt>
      <trkpt lat="49.04797" lon="2.09983">
        <ele>42.3</ele>
        <time>2016-02-21T10:52:44Z</time>
      </trkpt>
      <trkpt lat="49.04791" lon="2.09976">
        <ele>41.9</ele>
        <time>2016-02-21T10:52:48Z</time>
      </trkpt>
      <trkpt lat="49.04784" lon="2.09969">
        <ele>41.6</ele>
        <time>2016-02-21T10:52:53Z</time>
      </trkpt>
      <trkpt lat="49.04782" lon="2.09958">
        <ele>41.3</ele>
        <time>2016-02-21T10:52:58Z</time>
      </trkpt>
      <trkpt lat="49.0478" lon="2.09947">
        <ele>41.2</ele>
        <time>2016-02-21T10:53:03Z</time>
      </trkpt>
      <trkpt lat="49.04777" lon="2.09936">
        <ele>41.2</ele>
        <time>2016-02-21T10:53:08Z</time>
      </trkpt>
      <trkpt lat="49.04775" lon="2.09924">
        <ele>41.2</ele>
        <time>2016-02-21T10:53:13Z</time>
      </trkpt>
      <trkpt lat="49.04778" lon="2.09916">
        <ele>40.5</ele>
        <time>2016-02-21T10:53:20Z</time>
      </trkpt>
      <trkpt lat="49.04786" lon="2.09914">
        <ele>40.5</ele>
        <time>2016-02-21T10:53:25Z</time>
      </trkpt>
      <trkpt lat="49.04794" lon="2.09913">
        <ele>40.1</ele>
        <time>2016-02-21T10:53:32Z</time>
      </trkpt>
      <trkpt lat="49.04798" lon="2.09913">
        <ele>40.7</ele>
        <time>2016-02-21T10:53:39Z</time>
      </trkpt>
      <trkpt lat="49.04804" lon="2.09909">
        <ele>41</ele>
        <time>2016-02-21T10:53:46Z</time>
      </trkpt>
      <trkpt lat="49.04803" lon="2.09909">
        <ele>40.9</ele>
        <time>2016-02-21T10:53:53Z</time>
      </trkpt>
      <trkpt lat="49.04802" lon="2.09908">
        <ele>40.8</ele>
        <time>2016-02-21T10:54:08Z</time>
      </trkpt>
      <trkpt lat="49.04808" lon="2.09905">
        <ele>41.2</ele>
        <time>2016-02-21T10:54:40Z</time>
      </trkpt>
      <trkpt lat="49.04815" lon="2.0991">
        <ele>43.2</ele>
        <time>2016-02-21T10:55:05Z</time>
      </trkpt>
      <trkpt lat="49.04821" lon="2.09909">
        <ele>43.4</ele>
        <time>2016-02-21T10:55:12Z</time>
      </trkpt>
      <trkpt lat="49.04826" lon="2.09907">
        <ele>42.8</ele>
        <time>2016-02-21T10:55:19Z</time>
      </trkpt>
      <trkpt lat="49.04828" lon="2.09905">
        <ele>42.7</ele>
        <time>2016-02-21T10:55:26Z</time>
      </trkpt>
      <trkpt lat="49.04829" lon="2.09903">
        <ele>42.5</ele>
        <time>2016-02-21T10:55:33Z</time>
      </trkpt>
      <trkpt lat="49.04834" lon="2.09906">
        <ele>42.9</ele>
        <time>2016-02-21T10:55:40Z</time>
      </trkpt>
      <trkpt lat="49.04839" lon="2.09913">
        <ele>43.3</ele>
        <time>2016-02-21T10:55:47Z</time>
      </trkpt>
      <trkpt lat="49.04835" lon="2.09923">
        <ele>43.4</ele>
        <time>2016-02-21T10:55:52Z</time>
      </trkpt>
      <trkpt lat="49.04831" lon="2.09933">
        <ele>43.7</ele>
        <time>2016-02-21T10:55:59Z</time>
      </trkpt>
      <trkpt lat="49.04827" lon="2.09943">
        <ele>44.3</ele>
        <time>2016-02-21T10:56:06Z</time>
      </trkpt>
      <trkpt lat="49.04825" lon="2.09956">
        <ele>44.6</ele>
        <time>2016-02-21T10:56:12Z</time>
      </trkpt>
      <trkpt lat="49.04827" lon="2.09967">
        <ele>45.9</ele>
        <time>2016-02-21T10:56:19Z</time>
      </trkpt>
      <trkpt lat="49.04828" lon="2.09979">
        <ele>46.9</ele>
        <time>2016-02-21T10:56:26Z</time>
      </trkpt>
      <trkpt lat="49.04833" lon="2.09987">
        <ele>48.2</ele>
        <time>2016-02-21T10:56:33Z</time>
      </trkpt>
      <trkpt lat="49.04836" lon="2.09986">
        <ele>49.4</ele>
        <time>2016-02-21T10:56:40Z</time>
      </trkpt>
      <trkpt lat="49.0484" lon="2.09992">
        <ele>49.6</ele>
        <time>2016-02-21T10:56:47Z</time>
      </trkpt>
      <trkpt lat="49.04847" lon="2.09997">
        <ele>49.5</ele>
        <time>2016-02-21T10:56:54Z</time>
      </trkpt>
      <trkpt lat="49.04853" lon="2.10001">
        <ele>49.6</ele>
        <time>2016-02-21T10:57:01Z</time>
      </trkpt>
      <trkpt lat="49.0486" lon="2.10005">
        <ele>49.9</ele>
        <time>2016-02-21T10:57:08Z</time>
      </trkpt>
      <trkpt lat="49.04867" lon="2.1001">
        <ele>50.1</ele>
        <time>2016-02-21T10:57:14Z</time>
      </trkpt>
      <trkpt lat="49.04875" lon="2.10013">
        <ele>50.7</ele>
        <time>2016-02-21T10:57:20Z</time>
      </trkpt>
      <trkpt lat="49.04878" lon="2.10018">
        <ele>50.9</ele>
        <time>2016-02-21T10:57:27Z</time>
      </trkpt>
      <trkpt lat="49.04887" lon="2.10024">
        <ele>50.5</ele>
        <time>2016-02-21T10:57:32Z</time>
      </trkpt>
      <trkpt lat="49.04895" lon="2.10024">
        <ele>51.3</ele>
        <time>2016-02-21T10:57:39Z</time>
      </trkpt>
      <trkpt lat="49.04903" lon="2.10022">
        <ele>51.9</ele>
        <time>2016-02-21T10:57:45Z</time>
      </trkpt>
      <trkpt lat="49.04912" lon="2.10022">
        <ele>51.9</ele>
        <time>2016-02-21T10:57:52Z</time>
      </trkpt>
      <trkpt lat="49.04916" lon="2.1003">
        <ele>49.5</ele>
        <time>2016-02-21T10:57:59Z</time>
      </trkpt>
      <trkpt lat="49.04917" lon="2.10041">
        <ele>45</ele>
        <time>2016-02-21T10:58:06Z</time>
      </trkpt>
      <trkpt lat="49.04918" lon="2.1004">
        <ele>43.8</ele>
        <time>2016-02-21T10:58:13Z</time>
      </trkpt>
      <trkpt lat="49.04921" lon="2.10036">
        <ele>42.3</ele>
        <time>2016-02-21T10:58:20Z</time>
      </trkpt>
      <trkpt lat="49.04925" lon="2.1003">
        <ele>41.6</ele>
        <time>2016-02-21T10:58:27Z</time>
      </trkpt>
      <trkpt lat="49.04928" lon="2.10022">
        <ele>41.1</ele>
        <time>2016-02-21T10:58:34Z</time>
      </trkpt>
      <trkpt lat="49.04931" lon="2.10016">
        <ele>40.7</ele>
        <time>2016-02-21T10:58:41Z</time>
      </trkpt>
      <trkpt lat="49.04936" lon="2.10012">
        <ele>40.2</ele>
        <time>2016-02-21T10:58:48Z</time>
      </trkpt>
      <trkpt lat="49.04936" lon="2.10008">
        <ele>39.9</ele>
        <time>2016-02-21T10:58:55Z</time>
      </trkpt>
      <trkpt lat="49.04941" lon="2.10003">
        <ele>39.5</ele>
        <time>2016-02-21T10:59:02Z</time>
      </trkpt>
      <trkpt lat="49.04943" lon="2.0999">
        <ele>39.3</ele>
        <time>2016-02-21T10:59:09Z</time>
      </trkpt>
      <trkpt lat="49.04941" lon="2.0998">
        <ele>38.8</ele>
        <time>2016-02-21T10:59:16Z</time>
      </trkpt>
      <trkpt lat="49.04945" lon="2.0997">
        <ele>38.4</ele>
        <time>2016-02-21T10:59:21Z</time>
      </trkpt>
      <trkpt lat="49.04947" lon="2.09959">
        <ele>38.1</ele>
        <time>2016-02-21T10:59:28Z</time>
      </trkpt>
      <trkpt lat="49.04949" lon="2.09952">
        <ele>37.6</ele>
        <time>2016-02-21T10:59:35Z</time>
      </trkpt>
      <trkpt lat="49.04956" lon="2.09946">
        <ele>37.4</ele>
        <time>2016-02-21T10:59:42Z</time>
      </trkpt>
      <trkpt lat="49.04951" lon="2.09936">
        <ele>36.9</ele>
        <time>2016-02-21T10:59:49Z</time>
      </trkpt>
      <trkpt lat="49.04948" lon="2.09926">
        <ele>36.3</ele>
        <time>2016-02-21T10:59:56Z</time>
      </trkpt>
      <trkpt lat="49.04946" lon="2.09915">
        <ele>35.6</ele>
        <time>2016-02-21T11:00:03Z</time>
      </trkpt>
      <trkpt lat="49.04943" lon="2.09905">
        <ele>35.3</ele>
        <time>2016-02-21T11:00:09Z</time>
      </trkpt>
      <trkpt lat="49.0494" lon="2.09895">
        <ele>35.1</ele>
        <time>2016-02-21T11:00:15Z</time>
      </trkpt>
      <trkpt lat="49.04934" lon="2.09887">
        <ele>34.9</ele>
        <time>2016-02-21T11:00:21Z</time>
      </trkpt>
      <trkpt lat="49.04933" lon="2.09877">
        <ele>34.3</ele>
        <time>2016-02-21T11:00:27Z</time>
      </trkpt>
      <trkpt lat="49.04921" lon="2.09868">
        <ele>34.1</ele>
        <time>2016-02-21T11:00:33Z</time>
      </trkpt>
      <trkpt lat="49.04913" lon="2.09865">
        <ele>33.9</ele>
        <time>2016-02-21T11:00:36Z</time>
      </trkpt>
      <trkpt lat="49.04906" lon="2.09862">
        <ele>33.7</ele>
        <time>2016-02-21T11:00:41Z</time>
      </trkpt>
      <trkpt lat="49.04899" lon="2.09852">
        <ele>33.5</ele>
        <time>2016-02-21T11:00:46Z</time>
      </trkpt>
      <trkpt lat="49.04895" lon="2.09844">
        <ele>33.3</ele>
        <time>2016-02-21T11:00:52Z</time>
      </trkpt>
      <trkpt lat="49.04893" lon="2.09842">
        <ele>32.9</ele>
        <time>2016-02-21T11:00:59Z</time>
      </trkpt>
      <trkpt lat="49.04895" lon="2.09835">
        <ele>32.5</ele>
        <time>2016-02-21T11:01:06Z</time>
      </trkpt>
      <trkpt lat="49.049" lon="2.09826">
        <ele>31.9</ele>
        <time>2016-02-21T11:01:13Z</time>
      </trkpt>
      <trkpt lat="49.04906" lon="2.09819">
        <ele>31.6</ele>
        <time>2016-02-21T11:01:19Z</time>
      </trkpt>
      <trkpt lat="49.0491" lon="2.09809">
        <ele>31.3</ele>
        <time>2016-02-21T11:01:25Z</time>
      </trkpt>
      <trkpt lat="49.04914" lon="2.098">
        <ele>31</ele>
        <time>2016-02-21T11:01:32Z</time>
      </trkpt>
      <trkpt lat="49.04917" lon="2.09792">
        <ele>30.7</ele>
        <time>2016-02-21T11:01:39Z</time>
      </trkpt>
      <trkpt lat="49.04919" lon="2.09789">
        <ele>30.4</ele>
        <time>2016-02-21T11:01:46Z</time>
      </trkpt>
      <trkpt lat="49.04921" lon="2.09801">
        <ele>30.3</ele>
        <time>2016-02-21T11:01:52Z</time>
      </trkpt>
      <trkpt lat="49.04928" lon="2.09808">
        <ele>30.1</ele>
        <time>2016-02-21T11:01:58Z</time>
      </trkpt>
      <trkpt lat="49.04934" lon="2.09812">
        <ele>29.5</ele>
        <time>2016-02-21T11:02:05Z</time>
      </trkpt>
      <trkpt lat="49.04939" lon="2.09814">
        <ele>29.3</ele>
        <time>2016-02-21T11:02:12Z</time>
      </trkpt>
      <trkpt lat="49.04945" lon="2.09818">
        <ele>29.2</ele>
        <time>2016-02-21T11:02:19Z</time>
      </trkpt>
      <trkpt lat="49.04951" lon="2.09815">
        <ele>29.5</ele>
        <time>2016-02-21T11:02:26Z</time>
      </trkpt>
      <trkpt lat="49.04952" lon="2.09817">
        <ele>29.9</ele>
        <time>2016-02-21T11:02:33Z</time>
      </trkpt>
      <trkpt lat="49.0496" lon="2.09814">
        <ele>30.4</ele>
        <time>2016-02-21T11:02:53Z</time>
      </trkpt>
      <trkpt lat="49.04961" lon="2.09819">
        <ele>30.7</ele>
        <time>2016-02-21T11:03:00Z</time>
      </trkpt>
      <trkpt lat="49.04964" lon="2.09819">
        <ele>30.7</ele>
        <time>2016-02-21T11:03:07Z</time>
      </trkpt>
      <trkpt lat="49.0497" lon="2.09824">
        <ele>30.8</ele>
        <time>2016-02-21T11:03:14Z</time>
      </trkpt>
      <trkpt lat="49.04974" lon="2.09833">
        <ele>30.7</ele>
        <time>2016-02-21T11:03:21Z</time>
      </trkpt>
      <trkpt lat="49.0498" lon="2.0984">
        <ele>31</ele>
        <time>2016-02-21T11:03:28Z</time>
      </trkpt>
      <trkpt lat="49.04981" lon="2.0984">
        <ele>31.5</ele>
        <time>2016-02-21T11:03:35Z</time>
      </trkpt>
      <trkpt lat="49.0499" lon="2.09832">
        <ele>32.6</ele>
        <time>2016-02-21T11:04:39Z</time>
      </trkpt>
      <trkpt lat="49.04991" lon="2.09859">
        <ele>32</ele>
        <time>2016-02-21T11:05:46Z</time>
      </trkpt>
      <trkpt lat="49.05004" lon="2.09841">
        <ele>31.9</ele>
        <time>2016-02-21T11:05:48Z</time>
      </trkpt>
      <trkpt lat="49.05009" lon="2.09828">
        <ele>31.7</ele>
        <time>2016-02-21T11:05:51Z</time>
      </trkpt>
      <trkpt lat="49.05017" lon="2.09824">
        <ele>31.8</ele>
        <time>2016-02-21T11:05:58Z</time>
      </trkpt>
      <trkpt lat="49.05024" lon="2.09817">
        <ele>31.9</ele>
        <time>2016-02-21T11:06:04Z</time>
      </trkpt>
      <trkpt lat="49.05029" lon="2.09809">
        <ele>32</ele>
        <time>2016-02-21T11:06:10Z</time>
      </trkpt>
      <trkpt lat="49.05035" lon="2.09802">
        <ele>32.2</ele>
        <time>2016-02-21T11:06:17Z</time>
      </trkpt>
      <trkpt lat="49.05039" lon="2.09795">
        <ele>32.5</ele>
        <time>2016-02-21T11:06:24Z</time>
      </trkpt>
      <trkpt lat="49.05041" lon="2.09797">
        <ele>33.1</ele>
        <time>2016-02-21T11:06:31Z</time>
      </trkpt>
      <trkpt lat="49.05041" lon="2.09785">
        <ele>33.3</ele>
        <time>2016-02-21T11:06:37Z</time>
      </trkpt>
      <trkpt lat="49.05037" lon="2.09774">
        <ele>33.4</ele>
        <time>2016-02-21T11:06:41Z</time>
      </trkpt>
      <trkpt lat="49.05035" lon="2.09766">
        <ele>33.7</ele>
        <time>2016-02-21T11:06:48Z</time>
      </trkpt>
      <trkpt lat="49.05036" lon="2.09758">
        <ele>34.1</ele>
        <time>2016-02-21T11:06:55Z</time>
      </trkpt>
      <trkpt lat="49.05037" lon="2.09754">
        <ele>34.8</ele>
        <time>2016-02-21T11:07:02Z</time>
      </trkpt>
      <trkpt lat="49.05042" lon="2.09746">
        <ele>35.2</ele>
        <time>2016-02-21T11:07:08Z</time>
      </trkpt>
      <trkpt lat="49.05044" lon="2.09736">
        <ele>35.6</ele>
        <time>2016-02-21T11:07:15Z</time>
      </trkpt>
      <trkpt lat="49.05048" lon="2.0973">
        <ele>36.5</ele>
        <time>2016-02-21T11:07:22Z</time>
      </trkpt>
      <trkpt lat="49.05052" lon="2.0972">
        <ele>36.9</ele>
        <time>2016-02-21T11:07:29Z</time>
      </trkpt>
      <trkpt lat="49.05056" lon="2.0971">
        <ele>37.2</ele>
        <time>2016-02-21T11:07:36Z</time>
      </trkpt>
      <trkpt lat="49.05056" lon="2.09702">
        <ele>37</ele>
        <time>2016-02-21T11:07:43Z</time>
      </trkpt>
      <trkpt lat="49.05053" lon="2.09698">
        <ele>36.7</ele>
        <time>2016-02-21T11:07:50Z</time>
      </trkpt>
      <trkpt lat="49.05051" lon="2.097">
        <ele>36.7</ele>
        <time>2016-02-21T11:07:57Z</time>
      </trkpt>
      <trkpt lat="49.05051" lon="2.09689">
        <ele>38.7</ele>
        <time>2016-02-21T11:08:12Z</time>
      </trkpt>
      <trkpt lat="49.05052" lon="2.09689">
        <ele>40.4</ele>
        <time>2016-02-21T11:08:19Z</time>
      </trkpt>
      <trkpt lat="49.05052" lon="2.09689">
        <ele>42</ele>
        <time>2016-02-21T11:10:05Z</time>
      </trkpt>
      <trkpt lat="49.05056" lon="2.09679">
        <ele>42.3</ele>
        <time>2016-02-21T11:10:18Z</time>
      </trkpt>
      <trkpt lat="49.05061" lon="2.09671">
        <ele>42.2</ele>
        <time>2016-02-21T11:10:25Z</time>
      </trkpt>
      <trkpt lat="49.05059" lon="2.09673">
        <ele>42.1</ele>
        <time>2016-02-21T11:10:32Z</time>
      </trkpt>
      <trkpt lat="49.05063" lon="2.09663">
        <ele>42.5</ele>
        <time>2016-02-21T11:10:43Z</time>
      </trkpt>
      <trkpt lat="49.05067" lon="2.0966">
        <ele>42.7</ele>
        <time>2016-02-21T11:10:50Z</time>
      </trkpt>
      <trkpt lat="49.05061" lon="2.09667">
        <ele>45.3</ele>
        <time>2016-02-21T11:12:34Z</time>
      </trkpt>
      <trkpt lat="49.05061" lon="2.09672">
        <ele>45.5</ele>
        <time>2016-02-21T11:12:41Z</time>
      </trkpt>
      <trkpt lat="49.05064" lon="2.09655">
        <ele>46.3</ele>
        <time>2016-02-21T11:14:24Z</time>
      </trkpt>
      <trkpt lat="49.05071" lon="2.09646">
        <ele>48.5</ele>
        <time>2016-02-21T11:16:44Z</time>
      </trkpt>
      <trkpt lat="49.0507" lon="2.09644">
        <ele>48.6</ele>
        <time>2016-02-21T11:16:51Z</time>
      </trkpt>
      <trkpt lat="49.05068" lon="2.09631">
        <ele>48.6</ele>
        <time>2016-02-21T11:16:58Z</time>
      </trkpt>
      <trkpt lat="49.05066" lon="2.0962">
        <ele>48.7</ele>
        <time>2016-02-21T11:17:05Z</time>
      </trkpt>
      <trkpt lat="49.05072" lon="2.09611">
        <ele>48.4</ele>
        <time>2016-02-21T11:17:08Z</time>
      </trkpt>
      <trkpt lat="49.05074" lon="2.096">
        <ele>48.1</ele>
        <time>2016-02-21T11:17:13Z</time>
      </trkpt>
      <trkpt lat="49.05075" lon="2.09587">
        <ele>48</ele>
        <time>2016-02-21T11:17:18Z</time>
      </trkpt>
      <trkpt lat="49.05077" lon="2.09577">
        <ele>48</ele>
        <time>2016-02-21T11:17:22Z</time>
      </trkpt>
      <trkpt lat="49.0508" lon="2.09566">
        <ele>48</ele>
        <time>2016-02-21T11:17:28Z</time>
      </trkpt>
      <trkpt lat="49.05073" lon="2.09557">
        <ele>48.2</ele>
        <time>2016-02-21T11:17:34Z</time>
      </trkpt>
      <trkpt lat="49.05066" lon="2.09552">
        <ele>48.2</ele>
        <time>2016-02-21T11:17:38Z</time>
      </trkpt>
      <trkpt lat="49.05059" lon="2.09547">
        <ele>48.2</ele>
        <time>2016-02-21T11:17:43Z</time>
      </trkpt>
      <trkpt lat="49.05054" lon="2.09538">
        <ele>48.3</ele>
        <time>2016-02-21T11:17:48Z</time>
      </trkpt>
      <trkpt lat="49.05055" lon="2.09533">
        <ele>47.8</ele>
        <time>2016-02-21T11:17:55Z</time>
      </trkpt>
      <trkpt lat="49.05053" lon="2.09532">
        <ele>47.7</ele>
        <time>2016-02-21T11:18:02Z</time>
      </trkpt>
      <trkpt lat="49.05049" lon="2.09537">
        <ele>47.7</ele>
        <time>2016-02-21T11:18:09Z</time>
      </trkpt>
      <trkpt lat="49.05046" lon="2.09546">
        <ele>47.7</ele>
        <time>2016-02-21T11:18:16Z</time>
      </trkpt>
      <trkpt lat="49.05038" lon="2.0955">
        <ele>47.7</ele>
        <time>2016-02-21T11:18:22Z</time>
      </trkpt>
      <trkpt lat="49.05034" lon="2.0955">
        <ele>47.7</ele>
        <time>2016-02-21T11:18:29Z</time>
      </trkpt>
      <trkpt lat="49.05033" lon="2.09555">
        <ele>47.5</ele>
        <time>2016-02-21T11:18:36Z</time>
      </trkpt>
      <trkpt lat="49.05033" lon="2.0956">
        <ele>47.4</ele>
        <time>2016-02-21T11:18:43Z</time>
      </trkpt>
      <trkpt lat="49.05031" lon="2.09559">
        <ele>47.6</ele>
        <time>2016-02-21T11:18:50Z</time>
      </trkpt>
      <trkpt lat="49.05032" lon="2.09557">
        <ele>47.6</ele>
        <time>2016-02-21T11:18:57Z</time>
      </trkpt>
      <trkpt lat="49.05021" lon="2.09557">
        <ele>47.2</ele>
        <time>2016-02-21T11:19:15Z</time>
      </trkpt>
      <trkpt lat="49.05018" lon="2.09557">
        <ele>47.1</ele>
        <time>2016-02-21T11:19:22Z</time>
      </trkpt>
      <trkpt lat="49.05019" lon="2.09544">
        <ele>45</ele>
        <time>2016-02-21T11:19:43Z</time>
      </trkpt>
      <trkpt lat="49.05018" lon="2.09535">
        <ele>44.7</ele>
        <time>2016-02-21T11:19:50Z</time>
      </trkpt>
      <trkpt lat="49.05018" lon="2.09527">
        <ele>44.2</ele>
        <time>2016-02-21T11:19:57Z</time>
      </trkpt>
      <trkpt lat="49.05012" lon="2.09518">
        <ele>43.5</ele>
        <time>2016-02-21T11:20:04Z</time>
      </trkpt>
      <trkpt lat="49.05009" lon="2.09508">
        <ele>42.3</ele>
        <time>2016-02-21T11:20:11Z</time>
      </trkpt>
      <trkpt lat="49.05008" lon="2.09502">
        <ele>41</ele>
        <time>2016-02-21T11:20:18Z</time>
      </trkpt>
      <trkpt lat="49.05005" lon="2.09498">
        <ele>40.6</ele>
        <time>2016-02-21T11:20:25Z</time>
      </trkpt>
      <trkpt lat="49.05002" lon="2.09495">
        <ele>39.8</ele>
        <time>2016-02-21T11:20:32Z</time>
      </trkpt>
      <trkpt lat="49.04997" lon="2.09488">
        <ele>38.4</ele>
        <time>2016-02-21T11:20:39Z</time>
      </trkpt>
      <trkpt lat="49.04996" lon="2.09477">
        <ele>37.8</ele>
        <time>2016-02-21T11:20:45Z</time>
      </trkpt>
      <trkpt lat="49.04999" lon="2.09465">
        <ele>37.1</ele>
        <time>2016-02-21T11:20:52Z</time>
      </trkpt>
      <trkpt lat="49.04996" lon="2.09454">
        <ele>36.6</ele>
        <time>2016-02-21T11:20:59Z</time>
      </trkpt>
      <trkpt lat="49.04997" lon="2.09443">
        <ele>36.3</ele>
        <time>2016-02-21T11:21:05Z</time>
      </trkpt>
      <trkpt lat="49.04997" lon="2.09434">
        <ele>35.8</ele>
        <time>2016-02-21T11:21:12Z</time>
      </trkpt>
      <trkpt lat="49.0499" lon="2.09429">
        <ele>34.7</ele>
        <time>2016-02-21T11:21:19Z</time>
      </trkpt>
      <trkpt lat="49.04982" lon="2.09427">
        <ele>34.1</ele>
        <time>2016-02-21T11:21:24Z</time>
      </trkpt>
      <trkpt lat="49.04979" lon="2.09418">
        <ele>33.4</ele>
        <time>2016-02-21T11:21:31Z</time>
      </trkpt>
      <trkpt lat="49.04973" lon="2.0941">
        <ele>32.7</ele>
        <time>2016-02-21T11:21:37Z</time>
      </trkpt>
      <trkpt lat="49.04973" lon="2.09401">
        <ele>32.1</ele>
        <time>2016-02-21T11:21:44Z</time>
      </trkpt>
      <trkpt lat="49.0497" lon="2.09392">
        <ele>31.6</ele>
        <time>2016-02-21T11:21:51Z</time>
      </trkpt>
      <trkpt lat="49.04961" lon="2.0939">
        <ele>31</ele>
        <time>2016-02-21T11:21:58Z</time>
      </trkpt>
      <trkpt lat="49.04958" lon="2.09384">
        <ele>31.1</ele>
        <time>2016-02-21T11:22:05Z</time>
      </trkpt>
      <trkpt lat="49.0495" lon="2.09382">
        <ele>31.2</ele>
        <time>2016-02-21T11:22:09Z</time>
      </trkpt>
      <trkpt lat="49.04949" lon="2.09371">
        <ele>30.8</ele>
        <time>2016-02-21T11:22:15Z</time>
      </trkpt>
      <trkpt lat="49.04945" lon="2.0936">
        <ele>29.2</ele>
        <time>2016-02-21T11:22:22Z</time>
      </trkpt>
      <trkpt lat="49.04944" lon="2.09353">
        <ele>28.6</ele>
        <time>2016-02-21T11:22:29Z</time>
      </trkpt>
      <trkpt lat="49.04948" lon="2.09343">
        <ele>28.3</ele>
        <time>2016-02-21T11:22:36Z</time>
      </trkpt>
      <trkpt lat="49.04951" lon="2.09333">
        <ele>27.6</ele>
        <time>2016-02-21T11:22:42Z</time>
      </trkpt>
      <trkpt lat="49.04953" lon="2.09325">
        <ele>26.7</ele>
        <time>2016-02-21T11:22:49Z</time>
      </trkpt>
      <trkpt lat="49.04954" lon="2.09313">
        <ele>26.4</ele>
        <time>2016-02-21T11:22:54Z</time>
      </trkpt>
      <trkpt lat="49.04951" lon="2.09303">
        <ele>26.1</ele>
        <time>2016-02-21T11:23:00Z</time>
      </trkpt>
      <trkpt lat="49.04958" lon="2.09299">
        <ele>26</ele>
        <time>2016-02-21T11:23:04Z</time>
      </trkpt>
      <trkpt lat="49.04957" lon="2.09294">
        <ele>26</ele>
        <time>2016-02-21T11:23:11Z</time>
      </trkpt>
      <trkpt lat="49.04953" lon="2.09289">
        <ele>25.9</ele>
        <time>2016-02-21T11:23:18Z</time>
      </trkpt>
      <trkpt lat="49.04951" lon="2.09281">
        <ele>25.3</ele>
        <time>2016-02-21T11:23:25Z</time>
      </trkpt>
      <trkpt lat="49.04952" lon="2.09277">
        <ele>25.2</ele>
        <time>2016-02-21T11:23:32Z</time>
      </trkpt>
      <trkpt lat="49.04956" lon="2.09266">
        <ele>25.4</ele>
        <time>2016-02-21T11:23:38Z</time>
      </trkpt>
      <trkpt lat="49.04961" lon="2.09259">
        <ele>25.3</ele>
        <time>2016-02-21T11:23:45Z</time>
      </trkpt>
      <trkpt lat="49.04967" lon="2.0925">
        <ele>25.6</ele>
        <time>2016-02-21T11:23:52Z</time>
      </trkpt>
      <trkpt lat="49.0497" lon="2.0924">
        <ele>26.2</ele>
        <time>2016-02-21T11:23:59Z</time>
      </trkpt>
      <trkpt lat="49.04966" lon="2.0923">
        <ele>25.3</ele>
        <time>2016-02-21T11:24:05Z</time>
      </trkpt>
      <trkpt lat="49.04963" lon="2.09218">
        <ele>24.9</ele>
        <time>2016-02-21T11:24:11Z</time>
      </trkpt>
      <trkpt lat="49.04973" lon="2.09205">
        <ele>25</ele>
        <time>2016-02-21T11:24:16Z</time>
      </trkpt>
      <trkpt lat="49.04967" lon="2.09198">
        <ele>25.1</ele>
        <time>2016-02-21T11:24:21Z</time>
      </trkpt>
      <trkpt lat="49.0496" lon="2.09199">
        <ele>25.3</ele>
        <time>2016-02-21T11:24:27Z</time>
      </trkpt>
      <trkpt lat="49.04952" lon="2.09194">
        <ele>26</ele>
        <time>2016-02-21T11:24:34Z</time>
      </trkpt>
      <trkpt lat="49.04947" lon="2.09198">
        <ele>26.3</ele>
        <time>2016-02-21T11:24:41Z</time>
      </trkpt>
      <trkpt lat="49.04944" lon="2.09201">
        <ele>26.8</ele>
        <time>2016-02-21T11:24:48Z</time>
      </trkpt>
      <trkpt lat="49.04942" lon="2.09202">
        <ele>27.1</ele>
        <time>2016-02-21T11:24:55Z</time>
      </trkpt>
      <trkpt lat="49.04944" lon="2.09187">
        <ele>27.2</ele>
        <time>2016-02-21T11:25:35Z</time>
      </trkpt>
      <trkpt lat="49.04939" lon="2.09198">
        <ele>27.2</ele>
        <time>2016-02-21T11:26:07Z</time>
      </trkpt>
      <trkpt lat="49.04936" lon="2.09208">
        <ele>27.2</ele>
        <time>2016-02-21T11:26:10Z</time>
      </trkpt>
      <trkpt lat="49.04934" lon="2.09211">
        <ele>27.2</ele>
        <time>2016-02-21T11:26:17Z</time>
      </trkpt>
      <trkpt lat="49.04941" lon="2.09214">
        <ele>27.2</ele>
        <time>2016-02-21T11:26:23Z</time>
      </trkpt>
      <trkpt lat="49.04949" lon="2.09216">
        <ele>27.1</ele>
        <time>2016-02-21T11:26:25Z</time>
      </trkpt>
      <trkpt lat="49.04955" lon="2.0922">
        <ele>27.2</ele>
        <time>2016-02-21T11:26:32Z</time>
      </trkpt>
      <trkpt lat="49.04933" lon="2.09223">
        <ele>20.2</ele>
        <time>2016-02-21T11:27:18Z</time>
      </trkpt>
      <trkpt lat="49.0495" lon="2.0921">
        <ele>27.2</ele>
        <time>2016-02-21T11:27:33Z</time>
      </trkpt>
      <trkpt lat="49.04949" lon="2.09205">
        <ele>26.9</ele>
        <time>2016-02-21T11:27:40Z</time>
      </trkpt>
      <trkpt lat="49.04952" lon="2.09204">
        <ele>27</ele>
        <time>2016-02-21T11:27:47Z</time>
      </trkpt>
      <trkpt lat="49.04947" lon="2.09199">
        <ele>27</ele>
        <time>2016-02-21T11:27:54Z</time>
      </trkpt>
      <trkpt lat="49.04942" lon="2.09199">
        <ele>27</ele>
        <time>2016-02-21T11:28:01Z</time>
      </trkpt>
      <trkpt lat="49.04925" lon="2.09224">
        <ele>26.9</ele>
        <time>2016-02-21T11:28:32Z</time>
      </trkpt>
      <trkpt lat="49.04919" lon="2.09228">
        <ele>26.8</ele>
        <time>2016-02-21T11:28:39Z</time>
      </trkpt>
      <trkpt lat="49.04921" lon="2.09228">
        <ele>26.8</ele>
        <time>2016-02-21T11:28:46Z</time>
      </trkpt>
      <trkpt lat="49.0493" lon="2.09223">
        <ele>27.4</ele>
        <time>2016-02-21T11:31:00Z</time>
      </trkpt>
      <trkpt lat="49.04938" lon="2.09232">
        <ele>27.4</ele>
        <time>2016-02-21T11:31:05Z</time>
      </trkpt>
      <trkpt lat="49.0494" lon="2.09228">
        <ele>27.4</ele>
        <time>2016-02-21T11:31:17Z</time>
      </trkpt>
      <trkpt lat="49.04943" lon="2.09213">
        <ele>27.3</ele>
        <time>2016-02-21T11:31:21Z</time>
      </trkpt>
      <trkpt lat="49.04945" lon="2.09201">
        <ele>27.3</ele>
        <time>2016-02-21T11:31:25Z</time>
      </trkpt>
      <trkpt lat="49.04943" lon="2.09198">
        <ele>27</ele>
        <time>2016-02-21T11:31:32Z</time>
      </trkpt>
      <trkpt lat="49.04938" lon="2.09191">
        <ele>26.5</ele>
        <time>2016-02-21T11:31:20Z</time>
      </trkpt>
      <trkpt lat="49.04936" lon="2.09202">
        <ele>25.9</ele>
        <time>2016-02-21T11:33:13Z</time>
      </trkpt>
      <trkpt lat="49.0493" lon="2.09209">
        <ele>24.6</ele>
        <time>2016-02-21T11:33:20Z</time>
      </trkpt>
      <trkpt lat="49.04926" lon="2.09219">
        <ele>24</ele>
        <time>2016-02-21T11:33:27Z</time>
      </trkpt>
      <trkpt lat="49.04924" lon="2.09227">
        <ele>23.7</ele>
        <time>2016-02-21T11:33:34Z</time>
      </trkpt>
      <trkpt lat="49.04921" lon="2.09237">
        <ele>23</ele>
        <time>2016-02-21T11:33:41Z</time>
      </trkpt>
      <trkpt lat="49.04921" lon="2.09249">
        <ele>22.7</ele>
        <time>2016-02-21T11:33:48Z</time>
      </trkpt>
      <trkpt lat="49.04924" lon="2.0926">
        <ele>22.3</ele>
        <time>2016-02-21T11:33:55Z</time>
      </trkpt>
      <trkpt lat="49.04929" lon="2.09267">
        <ele>21.7</ele>
        <time>2016-02-21T11:34:02Z</time>
      </trkpt>
      <trkpt lat="49.04934" lon="2.09273">
        <ele>21.4</ele>
        <time>2016-02-21T11:34:09Z</time>
      </trkpt>
      <trkpt lat="49.04937" lon="2.09274">
        <ele>21.4</ele>
        <time>2016-02-21T11:34:16Z</time>
      </trkpt>
      <trkpt lat="49.0494" lon="2.09285">
        <ele>21.2</ele>
        <time>2016-02-21T11:34:42Z</time>
      </trkpt>
      <trkpt lat="49.04943" lon="2.0929">
        <ele>20.9</ele>
        <time>2016-02-21T11:34:49Z</time>
      </trkpt>
      <trkpt lat="49.04948" lon="2.09291">
        <ele>21.1</ele>
        <time>2016-02-21T11:34:56Z</time>
      </trkpt>
      <trkpt lat="49.04951" lon="2.09286">
        <ele>21.4</ele>
        <time>2016-02-21T11:35:03Z</time>
      </trkpt>
      <trkpt lat="49.04959" lon="2.09284">
        <ele>21.7</ele>
        <time>2016-02-21T11:35:08Z</time>
      </trkpt>
      <trkpt lat="49.04959" lon="2.09293">
        <ele>21.7</ele>
        <time>2016-02-21T11:35:15Z</time>
      </trkpt>
      <trkpt lat="49.0496" lon="2.09306">
        <ele>21.8</ele>
        <time>2016-02-21T11:35:20Z</time>
      </trkpt>
      <trkpt lat="49.0496" lon="2.09317">
        <ele>21.8</ele>
        <time>2016-02-21T11:35:26Z</time>
      </trkpt>
      <trkpt lat="49.04956" lon="2.09328">
        <ele>22.1</ele>
        <time>2016-02-21T11:35:32Z</time>
      </trkpt>
      <trkpt lat="49.04951" lon="2.09337">
        <ele>22.2</ele>
        <time>2016-02-21T11:35:39Z</time>
      </trkpt>
      <trkpt lat="49.04949" lon="2.09348">
        <ele>22.4</ele>
        <time>2016-02-21T11:35:45Z</time>
      </trkpt>
      <trkpt lat="49.0495" lon="2.09355">
        <ele>22.7</ele>
        <time>2016-02-21T11:35:52Z</time>
      </trkpt>
      <trkpt lat="49.04957" lon="2.09356">
        <ele>23</ele>
        <time>2016-02-21T11:35:59Z</time>
      </trkpt>
      <trkpt lat="49.0496" lon="2.09357">
        <ele>23.2</ele>
        <time>2016-02-21T11:36:06Z</time>
      </trkpt>
      <trkpt lat="49.04964" lon="2.09364">
        <ele>23.3</ele>
        <time>2016-02-21T11:36:13Z</time>
      </trkpt>
      <trkpt lat="49.04972" lon="2.09366">
        <ele>23.6</ele>
        <time>2016-02-21T11:36:20Z</time>
      </trkpt>
      <trkpt lat="49.04978" lon="2.09367">
        <ele>23.9</ele>
        <time>2016-02-21T11:36:27Z</time>
      </trkpt>
      <trkpt lat="49.04982" lon="2.0937">
        <ele>24.4</ele>
        <time>2016-02-21T11:36:34Z</time>
      </trkpt>
      <trkpt lat="49.04988" lon="2.09374">
        <ele>25.2</ele>
        <time>2016-02-21T11:36:41Z</time>
      </trkpt>
      <trkpt lat="49.04988" lon="2.09371">
        <ele>25.9</ele>
        <time>2016-02-21T11:36:48Z</time>
      </trkpt>
      <trkpt lat="49.04989" lon="2.09369">
        <ele>26.1</ele>
        <time>2016-02-21T11:36:55Z</time>
      </trkpt>
      <trkpt lat="49.04993" lon="2.09382">
        <ele>29</ele>
        <time>2016-02-21T11:36:26Z</time>
      </trkpt>
      <trkpt lat="49.04996" lon="2.09394">
        <ele>29.2</ele>
        <time>2016-02-21T11:37:35Z</time>
      </trkpt>
      <trkpt lat="49.04997" lon="2.09407">
        <ele>29.5</ele>
        <time>2016-02-21T11:37:40Z</time>
      </trkpt>
      <trkpt lat="49.05001" lon="2.09418">
        <ele>29.7</ele>
        <time>2016-02-21T11:37:45Z</time>
      </trkpt>
      <trkpt lat="49.05007" lon="2.09424">
        <ele>30.1</ele>
        <time>2016-02-21T11:37:50Z</time>
      </trkpt>
      <trkpt lat="49.05015" lon="2.09428">
        <ele>30.2</ele>
        <time>2016-02-21T11:37:56Z</time>
      </trkpt>
      <trkpt lat="49.0502" lon="2.09436">
        <ele>30.4</ele>
        <time>2016-02-21T11:38:03Z</time>
      </trkpt>
      <trkpt lat="49.05021" lon="2.09437">
        <ele>30.5</ele>
        <time>2016-02-21T11:38:10Z</time>
      </trkpt>
      <trkpt lat="49.05029" lon="2.09434">
        <ele>31.1</ele>
        <time>2016-02-21T11:38:23Z</time>
      </trkpt>
      <trkpt lat="49.05036" lon="2.09423">
        <ele>32.5</ele>
        <time>2016-02-21T11:38:27Z</time>
      </trkpt>
      <trkpt lat="49.05043" lon="2.09418">
        <ele>33.2</ele>
        <time>2016-02-21T11:38:32Z</time>
      </trkpt>
      <trkpt lat="49.05049" lon="2.09412">
        <ele>33.5</ele>
        <time>2016-02-21T11:38:38Z</time>
      </trkpt>
      <trkpt lat="49.05057" lon="2.09411">
        <ele>33.9</ele>
        <time>2016-02-21T11:38:44Z</time>
      </trkpt>
      <trkpt lat="49.05062" lon="2.09409">
        <ele>36.9</ele>
        <time>2016-02-21T11:38:51Z</time>
      </trkpt>
      <trkpt lat="49.05066" lon="2.09402">
        <ele>38.8</ele>
        <time>2016-02-21T11:39:11Z</time>
      </trkpt>
      <trkpt lat="49.05069" lon="2.09396">
        <ele>39.1</ele>
        <time>2016-02-21T11:39:31Z</time>
      </trkpt>
      <trkpt lat="49.05074" lon="2.09391">
        <ele>40.7</ele>
        <time>2016-02-21T11:39:57Z</time>
      </trkpt>
      <trkpt lat="49.05073" lon="2.09383">
        <ele>41</ele>
        <time>2016-02-21T11:40:14Z</time>
      </trkpt>
      <trkpt lat="49.05071" lon="2.09373">
        <ele>41.5</ele>
        <time>2016-02-21T11:40:47Z</time>
      </trkpt>
      <trkpt lat="49.0507" lon="2.09373">
        <ele>41.6</ele>
        <time>2016-02-21T11:40:54Z</time>
      </trkpt>
      <trkpt lat="49.05058" lon="2.09381">
        <ele>42</ele>
        <time>2016-02-21T11:42:41Z</time>
      </trkpt>
      <trkpt lat="49.05053" lon="2.09377">
        <ele>42.3</ele>
        <time>2016-02-21T11:42:48Z</time>
      </trkpt>
      <trkpt lat="49.05054" lon="2.09377">
        <ele>42.6</ele>
        <time>2016-02-21T11:42:55Z</time>
      </trkpt>
      <trkpt lat="49.05057" lon="2.09377">
        <ele>43.4</ele>
        <time>2016-02-21T11:42:53Z</time>
      </trkpt>
      <trkpt lat="49.05068" lon="2.09375">
        <ele>43</ele>
        <time>2016-02-21T11:45:55Z</time>
      </trkpt>
      <trkpt lat="49.05063" lon="2.0938">
        <ele>44</ele>
        <time>2016-02-21T11:46:54Z</time>
      </trkpt>
      <trkpt lat="49.05058" lon="2.09385">
        <ele>43.5</ele>
        <time>2016-02-21T11:47:39Z</time>
      </trkpt>
      <trkpt lat="49.05063" lon="2.09375">
        <ele>43.6</ele>
        <time>2016-02-21T11:47:21Z</time>
      </trkpt>
      <trkpt lat="49.05068" lon="2.09367">
        <ele>43.2</ele>
        <time>2016-02-21T11:48:33Z</time>
      </trkpt>
      <trkpt lat="49.05069" lon="2.09366">
        <ele>43</ele>
        <time>2016-02-21T11:48:40Z</time>
      </trkpt>
      <trkpt lat="49.05062" lon="2.09376">
        <ele>43.5</ele>
        <time>2016-02-21T11:55:21Z</time>
      </trkpt>
      <trkpt lat="49.05063" lon="2.0938">
        <ele>43.4</ele>
        <time>2016-02-21T11:55:28Z</time>
      </trkpt>
      <trkpt lat="49.05064" lon="2.09388">
        <ele>41.8</ele>
        <time>2016-02-21T12:17:56Z</time>
      </trkpt>
      <trkpt lat="49.05066" lon="2.09398">
        <ele>41.9</ele>
        <time>2016-02-21T12:18:03Z</time>
      </trkpt>
      <trkpt lat="49.05068" lon="2.09407">
        <ele>42</ele>
        <time>2016-02-21T12:18:10Z</time>
      </trkpt>
      <trkpt lat="49.05072" lon="2.09418">
        <ele>42</ele>
        <time>2016-02-21T12:18:17Z</time>
      </trkpt>
      <trkpt lat="49.05073" lon="2.09426">
        <ele>42.1</ele>
        <time>2016-02-21T12:18:24Z</time>
      </trkpt>
      <trkpt lat="49.05075" lon="2.0943">
        <ele>42.2</ele>
        <time>2016-02-21T12:18:31Z</time>
      </trkpt>
      <trkpt lat="49.05077" lon="2.09436">
        <ele>42.3</ele>
        <time>2016-02-21T12:18:38Z</time>
      </trkpt>
      <trkpt lat="49.05082" lon="2.09443">
        <ele>42.1</ele>
        <time>2016-02-21T12:18:45Z</time>
      </trkpt>
      <trkpt lat="49.05087" lon="2.09454">
        <ele>42</ele>
        <time>2016-02-21T12:18:51Z</time>
      </trkpt>
      <trkpt lat="49.05091" lon="2.09466">
        <ele>42</ele>
        <time>2016-02-21T12:18:57Z</time>
      </trkpt>
      <trkpt lat="49.05093" lon="2.09475">
        <ele>42.2</ele>
        <time>2016-02-21T12:19:04Z</time>
      </trkpt>
      <trkpt lat="49.05097" lon="2.09483">
        <ele>42.3</ele>
        <time>2016-02-21T12:19:10Z</time>
      </trkpt>
      <trkpt lat="49.05103" lon="2.09492">
        <ele>42.4</ele>
        <time>2016-02-21T12:19:17Z</time>
      </trkpt>
      <trkpt lat="49.05109" lon="2.095">
        <ele>42.2</ele>
        <time>2016-02-21T12:19:22Z</time>
      </trkpt>
      <trkpt lat="49.05111" lon="2.09507">
        <ele>42.1</ele>
        <time>2016-02-21T12:19:29Z</time>
      </trkpt>
      <trkpt lat="49.05117" lon="2.09517">
        <ele>42.6</ele>
        <time>2016-02-21T12:19:36Z</time>
      </trkpt>
      <trkpt lat="49.0512" lon="2.09526">
        <ele>42.7</ele>
        <time>2016-02-21T12:19:42Z</time>
      </trkpt>
      <trkpt lat="49.05124" lon="2.09537">
        <ele>42.2</ele>
        <time>2016-02-21T12:19:49Z</time>
      </trkpt>
      <trkpt lat="49.05128" lon="2.09545">
        <ele>41.7</ele>
        <time>2016-02-21T12:19:55Z</time>
      </trkpt>
      <trkpt lat="49.05133" lon="2.09554">
        <ele>41.1</ele>
        <time>2016-02-21T12:20:02Z</time>
      </trkpt>
      <trkpt lat="49.05137" lon="2.09565">
        <ele>40.5</ele>
        <time>2016-02-21T12:20:09Z</time>
      </trkpt>
      <trkpt lat="49.05142" lon="2.09572">
        <ele>40.6</ele>
        <time>2016-02-21T12:20:16Z</time>
      </trkpt>
      <trkpt lat="49.05146" lon="2.09581">
        <ele>40.8</ele>
        <time>2016-02-21T12:20:23Z</time>
      </trkpt>
      <trkpt lat="49.05152" lon="2.09588">
        <ele>40.7</ele>
        <time>2016-02-21T12:20:28Z</time>
      </trkpt>
      <trkpt lat="49.05155" lon="2.09599">
        <ele>41</ele>
        <time>2016-02-21T12:20:35Z</time>
      </trkpt>
      <trkpt lat="49.05158" lon="2.09607">
        <ele>40.8</ele>
        <time>2016-02-21T12:20:42Z</time>
      </trkpt>
      <trkpt lat="49.05162" lon="2.09616">
        <ele>40.7</ele>
        <time>2016-02-21T12:20:49Z</time>
      </trkpt>
      <trkpt lat="49.05162" lon="2.09626">
        <ele>41.2</ele>
        <time>2016-02-21T12:20:56Z</time>
      </trkpt>
      <trkpt lat="49.05165" lon="2.09637">
        <ele>41</ele>
        <time>2016-02-21T12:21:02Z</time>
      </trkpt>
      <trkpt lat="49.05169" lon="2.09647">
        <ele>41.1</ele>
        <time>2016-02-21T12:21:09Z</time>
      </trkpt>
      <trkpt lat="49.05172" lon="2.09654">
        <ele>41.1</ele>
        <time>2016-02-21T12:21:16Z</time>
      </trkpt>
      <trkpt lat="49.05176" lon="2.09664">
        <ele>41.3</ele>
        <time>2016-02-21T12:21:23Z</time>
      </trkpt>
      <trkpt lat="49.05182" lon="2.09666">
        <ele>42.1</ele>
        <time>2016-02-21T12:21:30Z</time>
      </trkpt>
      <trkpt lat="49.05189" lon="2.09665">
        <ele>42.7</ele>
        <time>2016-02-21T12:21:37Z</time>
      </trkpt>
      <trkpt lat="49.05194" lon="2.09657">
        <ele>42.2</ele>
        <time>2016-02-21T12:21:44Z</time>
      </trkpt>
      <trkpt lat="49.05197" lon="2.09651">
        <ele>41.8</ele>
        <time>2016-02-21T12:21:51Z</time>
      </trkpt>
      <trkpt lat="49.05203" lon="2.09644">
        <ele>41.2</ele>
        <time>2016-02-21T12:21:58Z</time>
      </trkpt>
      <trkpt lat="49.05205" lon="2.09633">
        <ele>40.9</ele>
        <time>2016-02-21T12:22:05Z</time>
      </trkpt>
      <trkpt lat="49.05206" lon="2.09623">
        <ele>40.8</ele>
        <time>2016-02-21T12:22:12Z</time>
      </trkpt>
      <trkpt lat="49.05208" lon="2.09613">
        <ele>40.7</ele>
        <time>2016-02-21T12:22:19Z</time>
      </trkpt>
      <trkpt lat="49.05212" lon="2.09604">
        <ele>40.6</ele>
        <time>2016-02-21T12:22:26Z</time>
      </trkpt>
      <trkpt lat="49.0522" lon="2.096">
        <ele>41.4</ele>
        <time>2016-02-21T12:22:30Z</time>
      </trkpt>
      <trkpt lat="49.05224" lon="2.09595">
        <ele>41.4</ele>
        <time>2016-02-21T12:22:37Z</time>
      </trkpt>
      <trkpt lat="49.0523" lon="2.09589">
        <ele>41.4</ele>
        <time>2016-02-21T12:22:43Z</time>
      </trkpt>
      <trkpt lat="49.05237" lon="2.09584">
        <ele>41.4</ele>
        <time>2016-02-21T12:22:48Z</time>
      </trkpt>
      <trkpt lat="49.05242" lon="2.09574">
        <ele>41.9</ele>
        <time>2016-02-21T12:22:52Z</time>
      </trkpt>
      <trkpt lat="49.05248" lon="2.09571">
        <ele>42</ele>
        <time>2016-02-21T12:22:57Z</time>
      </trkpt>
      <trkpt lat="49.05255" lon="2.09563">
        <ele>42.2</ele>
        <time>2016-02-21T12:23:04Z</time>
      </trkpt>
      <trkpt lat="49.05257" lon="2.09556">
        <ele>42.8</ele>
        <time>2016-02-21T12:23:11Z</time>
      </trkpt>
      <trkpt lat="49.05259" lon="2.09554">
        <ele>43.4</ele>
        <time>2016-02-21T12:23:18Z</time>
      </trkpt>
      <trkpt lat="49.05264" lon="2.09546">
        <ele>43.6</ele>
        <time>2016-02-21T12:23:25Z</time>
      </trkpt>
      <trkpt lat="49.0527" lon="2.09537">
        <ele>43.8</ele>
        <time>2016-02-21T12:23:32Z</time>
      </trkpt>
      <trkpt lat="49.05276" lon="2.09528">
        <ele>43.9</ele>
        <time>2016-02-21T12:23:38Z</time>
      </trkpt>
      <trkpt lat="49.0528" lon="2.0952">
        <ele>44.1</ele>
        <time>2016-02-21T12:23:45Z</time>
      </trkpt>
      <trkpt lat="49.05286" lon="2.09512">
        <ele>44.2</ele>
        <time>2016-02-21T12:23:52Z</time>
      </trkpt>
      <trkpt lat="49.05293" lon="2.09508">
        <ele>44.9</ele>
        <time>2016-02-21T12:23:58Z</time>
      </trkpt>
      <trkpt lat="49.053" lon="2.09507">
        <ele>45.5</ele>
        <time>2016-02-21T12:24:05Z</time>
      </trkpt>
      <trkpt lat="49.05307" lon="2.09511">
        <ele>46</ele>
        <time>2016-02-21T12:24:12Z</time>
      </trkpt>
      <trkpt lat="49.05312" lon="2.0952">
        <ele>46.7</ele>
        <time>2016-02-21T12:24:18Z</time>
      </trkpt>
      <trkpt lat="49.05316" lon="2.0953">
        <ele>47.2</ele>
        <time>2016-02-21T12:24:24Z</time>
      </trkpt>
      <trkpt lat="49.05321" lon="2.09535">
        <ele>47.4</ele>
        <time>2016-02-21T12:24:31Z</time>
      </trkpt>
      <trkpt lat="49.05323" lon="2.09547">
        <ele>47.8</ele>
        <time>2016-02-21T12:24:36Z</time>
      </trkpt>
      <trkpt lat="49.05334" lon="2.09553">
        <ele>49.1</ele>
        <time>2016-02-21T12:24:43Z</time>
      </trkpt>
      <trkpt lat="49.05338" lon="2.09563">
        <ele>49.7</ele>
        <time>2016-02-21T12:24:48Z</time>
      </trkpt>
      <trkpt lat="49.05343" lon="2.09572">
        <ele>50.6</ele>
        <time>2016-02-21T12:24:52Z</time>
      </trkpt>
      <trkpt lat="49.05345" lon="2.09583">
        <ele>51.1</ele>
        <time>2016-02-21T12:24:57Z</time>
      </trkpt>
      <trkpt lat="49.05346" lon="2.09585">
        <ele>51.7</ele>
        <time>2016-02-21T12:25:04Z</time>
      </trkpt>
      <trkpt lat="49.05348" lon="2.09596">
        <ele>52.1</ele>
        <time>2016-02-21T12:25:11Z</time>
      </trkpt>
      <trkpt lat="49.05353" lon="2.09603">
        <ele>52.3</ele>
        <time>2016-02-21T12:25:18Z</time>
      </trkpt>
      <trkpt lat="49.05355" lon="2.09615">
        <ele>52.9</ele>
        <time>2016-02-21T12:25:24Z</time>
      </trkpt>
      <trkpt lat="49.05359" lon="2.09625">
        <ele>53.2</ele>
        <time>2016-02-21T12:25:31Z</time>
      </trkpt>
      <trkpt lat="49.05362" lon="2.09635">
        <ele>53.5</ele>
        <time>2016-02-21T12:25:38Z</time>
      </trkpt>
      <trkpt lat="49.05363" lon="2.09644">
        <ele>53.9</ele>
        <time>2016-02-21T12:25:45Z</time>
      </trkpt>
      <trkpt lat="49.05367" lon="2.09655">
        <ele>54.1</ele>
        <time>2016-02-21T12:25:50Z</time>
      </trkpt>
      <trkpt lat="49.05366" lon="2.09666">
        <ele>54.5</ele>
        <time>2016-02-21T12:25:54Z</time>
      </trkpt>
      <trkpt lat="49.05369" lon="2.09677">
        <ele>55.1</ele>
        <time>2016-02-21T12:26:00Z</time>
      </trkpt>
      <trkpt lat="49.05374" lon="2.09686">
        <ele>55.3</ele>
        <time>2016-02-21T12:26:05Z</time>
      </trkpt>
      <trkpt lat="49.05379" lon="2.09695">
        <ele>55.4</ele>
        <time>2016-02-21T12:26:10Z</time>
      </trkpt>
      <trkpt lat="49.05383" lon="2.09705">
        <ele>55.5</ele>
        <time>2016-02-21T12:26:16Z</time>
      </trkpt>
      <trkpt lat="49.05386" lon="2.09714">
        <ele>56.3</ele>
        <time>2016-02-21T12:26:23Z</time>
      </trkpt>
      <trkpt lat="49.05393" lon="2.09721">
        <ele>56.4</ele>
        <time>2016-02-21T12:26:30Z</time>
      </trkpt>
      <trkpt lat="49.054" lon="2.09725">
        <ele>57.2</ele>
        <time>2016-02-21T12:26:34Z</time>
      </trkpt>
      <trkpt lat="49.05403" lon="2.09729">
        <ele>57.3</ele>
        <time>2016-02-21T12:26:41Z</time>
      </trkpt>
      <trkpt lat="49.05405" lon="2.09735">
        <ele>57.3</ele>
        <time>2016-02-21T12:26:48Z</time>
      </trkpt>
      <trkpt lat="49.0541" lon="2.0974">
        <ele>57.3</ele>
        <time>2016-02-21T12:26:55Z</time>
      </trkpt>
      <trkpt lat="49.05417" lon="2.09741">
        <ele>56.9</ele>
        <time>2016-02-21T12:27:02Z</time>
      </trkpt>
      <trkpt lat="49.05423" lon="2.09742">
        <ele>57.2</ele>
        <time>2016-02-21T12:27:09Z</time>
      </trkpt>
      <trkpt lat="49.0543" lon="2.09741">
        <ele>57.7</ele>
        <time>2016-02-21T12:27:15Z</time>
      </trkpt>
      <trkpt lat="49.05438" lon="2.0974">
        <ele>58</ele>
        <time>2016-02-21T12:27:21Z</time>
      </trkpt>
      <trkpt lat="49.05445" lon="2.09745">
        <ele>59</ele>
        <time>2016-02-21T12:27:28Z</time>
      </trkpt>
      <trkpt lat="49.05452" lon="2.09742">
        <ele>60.5</ele>
        <time>2016-02-21T12:27:33Z</time>
      </trkpt>
      <trkpt lat="49.0546" lon="2.09739">
        <ele>60.4</ele>
        <time>2016-02-21T12:27:39Z</time>
      </trkpt>
      <trkpt lat="49.05466" lon="2.09739">
        <ele>60.4</ele>
        <time>2016-02-21T12:27:46Z</time>
      </trkpt>
      <trkpt lat="49.05473" lon="2.09741">
        <ele>61.2</ele>
        <time>2016-02-21T12:27:53Z</time>
      </trkpt>
      <trkpt lat="49.05481" lon="2.09742">
        <ele>62.8</ele>
        <time>2016-02-21T12:28:00Z</time>
      </trkpt>
      <trkpt lat="49.05489" lon="2.09744">
        <ele>63.5</ele>
        <time>2016-02-21T12:28:06Z</time>
      </trkpt>
      <trkpt lat="49.05496" lon="2.09746">
        <ele>64.1</ele>
        <time>2016-02-21T12:28:13Z</time>
      </trkpt>
      <trkpt lat="49.05505" lon="2.09747">
        <ele>64.7</ele>
        <time>2016-02-21T12:28:19Z</time>
      </trkpt>
      <trkpt lat="49.05512" lon="2.0975">
        <ele>65</ele>
        <time>2016-02-21T12:28:25Z</time>
      </trkpt>
      <trkpt lat="49.0552" lon="2.0975">
        <ele>66.2</ele>
        <time>2016-02-21T12:28:31Z</time>
      </trkpt>
      <trkpt lat="49.05528" lon="2.09752">
        <ele>66.4</ele>
        <time>2016-02-21T12:28:37Z</time>
      </trkpt>
      <trkpt lat="49.05536" lon="2.09758">
        <ele>66.9</ele>
        <time>2016-02-21T12:28:43Z</time>
      </trkpt>
      <trkpt lat="49.05543" lon="2.09764">
        <ele>67.1</ele>
        <time>2016-02-21T12:28:49Z</time>
      </trkpt>
      <trkpt lat="49.0555" lon="2.09767">
        <ele>67.2</ele>
        <time>2016-02-21T12:28:56Z</time>
      </trkpt>
      <trkpt lat="49.05557" lon="2.0977">
        <ele>67.2</ele>
        <time>2016-02-21T12:29:02Z</time>
      </trkpt>
      <trkpt lat="49.05565" lon="2.09772">
        <ele>67.1</ele>
        <time>2016-02-21T12:29:07Z</time>
      </trkpt>
      <trkpt lat="49.05572" lon="2.09777">
        <ele>68</ele>
        <time>2016-02-21T12:29:13Z</time>
      </trkpt>
      <trkpt lat="49.0558" lon="2.0978">
        <ele>68.5</ele>
        <time>2016-02-21T12:29:20Z</time>
      </trkpt>
      <trkpt lat="49.05587" lon="2.09784">
        <ele>69.1</ele>
        <time>2016-02-21T12:29:27Z</time>
      </trkpt>
      <trkpt lat="49.05594" lon="2.09786">
        <ele>68.4</ele>
        <time>2016-02-21T12:29:31Z</time>
      </trkpt>
      <trkpt lat="49.05602" lon="2.09788">
        <ele>67.4</ele>
        <time>2016-02-21T12:29:37Z</time>
      </trkpt>
      <trkpt lat="49.0561" lon="2.09791">
        <ele>67</ele>
        <time>2016-02-21T12:29:42Z</time>
      </trkpt>
      <trkpt lat="49.05617" lon="2.09793">
        <ele>67.6</ele>
        <time>2016-02-21T12:29:48Z</time>
      </trkpt>
      <trkpt lat="49.05624" lon="2.098">
        <ele>67.2</ele>
        <time>2016-02-21T12:29:55Z</time>
      </trkpt>
      <trkpt lat="49.05632" lon="2.09805">
        <ele>66.5</ele>
        <time>2016-02-21T12:30:02Z</time>
      </trkpt>
      <trkpt lat="49.05639" lon="2.09806">
        <ele>65.4</ele>
        <time>2016-02-21T12:30:09Z</time>
      </trkpt>
      <trkpt lat="49.05646" lon="2.09808">
        <ele>64.5</ele>
        <time>2016-02-21T12:30:16Z</time>
      </trkpt>
      <trkpt lat="49.05655" lon="2.09808">
        <ele>65.2</ele>
        <time>2016-02-21T12:30:23Z</time>
      </trkpt>
      <trkpt lat="49.05663" lon="2.0981">
        <ele>66.2</ele>
        <time>2016-02-21T12:30:29Z</time>
      </trkpt>
      <trkpt lat="49.0567" lon="2.09815">
        <ele>66.2</ele>
        <time>2016-02-21T12:30:35Z</time>
      </trkpt>
      <trkpt lat="49.05677" lon="2.0982">
        <ele>67.1</ele>
        <time>2016-02-21T12:30:42Z</time>
      </trkpt>
      <trkpt lat="49.05683" lon="2.09822">
        <ele>69.1</ele>
        <time>2016-02-21T12:30:49Z</time>
      </trkpt>
      <trkpt lat="49.0569" lon="2.09824">
        <ele>68.6</ele>
        <time>2016-02-21T12:30:56Z</time>
      </trkpt>
      <trkpt lat="49.05697" lon="2.09829">
        <ele>69.6</ele>
        <time>2016-02-21T12:31:03Z</time>
      </trkpt>
      <trkpt lat="49.05704" lon="2.09832">
        <ele>69.6</ele>
        <time>2016-02-21T12:31:07Z</time>
      </trkpt>
      <trkpt lat="49.05711" lon="2.09835">
        <ele>69.6</ele>
        <time>2016-02-21T12:31:14Z</time>
      </trkpt>
      <trkpt lat="49.05719" lon="2.09839">
        <ele>69.4</ele>
        <time>2016-02-21T12:31:19Z</time>
      </trkpt>
      <trkpt lat="49.05727" lon="2.09843">
        <ele>69.2</ele>
        <time>2016-02-21T12:31:25Z</time>
      </trkpt>
      <trkpt lat="49.05733" lon="2.09848">
        <ele>69.4</ele>
        <time>2016-02-21T12:31:32Z</time>
      </trkpt>
      <trkpt lat="49.05741" lon="2.09849">
        <ele>69.1</ele>
        <time>2016-02-21T12:31:38Z</time>
      </trkpt>
      <trkpt lat="49.0575" lon="2.09854">
        <ele>69.4</ele>
        <time>2016-02-21T12:31:45Z</time>
      </trkpt>
      <trkpt lat="49.05756" lon="2.09857">
        <ele>69.8</ele>
        <time>2016-02-21T12:31:50Z</time>
      </trkpt>
      <trkpt lat="49.05763" lon="2.09858">
        <ele>69.1</ele>
        <time>2016-02-21T12:31:57Z</time>
      </trkpt>
      <trkpt lat="49.0577" lon="2.0986">
        <ele>68.9</ele>
        <time>2016-02-21T12:32:02Z</time>
      </trkpt>
      <trkpt lat="49.05778" lon="2.09863">
        <ele>67.8</ele>
        <time>2016-02-21T12:32:07Z</time>
      </trkpt>
      <trkpt lat="49.05786" lon="2.09863">
        <ele>67.5</ele>
        <time>2016-02-21T12:32:14Z</time>
      </trkpt>
      <trkpt lat="49.05794" lon="2.09862">
        <ele>66.6</ele>
        <time>2016-02-21T12:32:20Z</time>
      </trkpt>
      <trkpt lat="49.05803" lon="2.09861">
        <ele>65.5</ele>
        <time>2016-02-21T12:32:27Z</time>
      </trkpt>
      <trkpt lat="49.0581" lon="2.09862">
        <ele>64.7</ele>
        <time>2016-02-21T12:32:33Z</time>
      </trkpt>
      <trkpt lat="49.05816" lon="2.09862">
        <ele>64.9</ele>
        <time>2016-02-21T12:32:40Z</time>
      </trkpt>
      <trkpt lat="49.05825" lon="2.0986">
        <ele>64</ele>
        <time>2016-02-21T12:32:46Z</time>
      </trkpt>
      <trkpt lat="49.05832" lon="2.09859">
        <ele>63.2</ele>
        <time>2016-02-21T12:32:51Z</time>
      </trkpt>
      <trkpt lat="49.05841" lon="2.09857">
        <ele>60.2</ele>
        <time>2016-02-21T12:32:58Z</time>
      </trkpt>
      <trkpt lat="49.05845" lon="2.09857">
        <ele>60</ele>
        <time>2016-02-21T12:33:05Z</time>
      </trkpt>
      <trkpt lat="49.05853" lon="2.09857">
        <ele>59.5</ele>
        <time>2016-02-21T12:33:10Z</time>
      </trkpt>
      <trkpt lat="49.0586" lon="2.09861">
        <ele>59.1</ele>
        <time>2016-02-21T12:33:14Z</time>
      </trkpt>
      <trkpt lat="49.05868" lon="2.09862">
        <ele>58.5</ele>
        <time>2016-02-21T12:33:18Z</time>
      </trkpt>
      <trkpt lat="49.05876" lon="2.09862">
        <ele>58.9</ele>
        <time>2016-02-21T12:33:24Z</time>
      </trkpt>
      <trkpt lat="49.05882" lon="2.09862">
        <ele>62.6</ele>
        <time>2016-02-21T12:33:31Z</time>
      </trkpt>
      <trkpt lat="49.0589" lon="2.09863">
        <ele>65.2</ele>
        <time>2016-02-21T12:33:37Z</time>
      </trkpt>
      <trkpt lat="49.05897" lon="2.09863">
        <ele>67.4</ele>
        <time>2016-02-21T12:33:44Z</time>
      </trkpt>
      <trkpt lat="49.05905" lon="2.09863">
        <ele>68.6</ele>
        <time>2016-02-21T12:33:50Z</time>
      </trkpt>
      <trkpt lat="49.05912" lon="2.09863">
        <ele>65.5</ele>
        <time>2016-02-21T12:33:57Z</time>
      </trkpt>
      <trkpt lat="49.0592" lon="2.09865">
        <ele>65.1</ele>
        <time>2016-02-21T12:34:04Z</time>
      </trkpt>
      <trkpt lat="49.05927" lon="2.09865">
        <ele>67.4</ele>
        <time>2016-02-21T12:34:10Z</time>
      </trkpt>
      <trkpt lat="49.05929" lon="2.09865">
        <ele>68.1</ele>
        <time>2016-02-21T12:34:17Z</time>
      </trkpt>
      <trkpt lat="49.05937" lon="2.09856">
        <ele>66.9</ele>
        <time>2016-02-21T12:34:37Z</time>
      </trkpt>
      <trkpt lat="49.05944" lon="2.09855">
        <ele>66.3</ele>
        <time>2016-02-21T12:34:41Z</time>
      </trkpt>
      <trkpt lat="49.05952" lon="2.09858">
        <ele>65.9</ele>
        <time>2016-02-21T12:34:46Z</time>
      </trkpt>
      <trkpt lat="49.05958" lon="2.0986">
        <ele>66.8</ele>
        <time>2016-02-21T12:34:53Z</time>
      </trkpt>
      <trkpt lat="49.05966" lon="2.09861">
        <ele>66.4</ele>
        <time>2016-02-21T12:35:00Z</time>
      </trkpt>
      <trkpt lat="49.05973" lon="2.0986">
        <ele>66.4</ele>
        <time>2016-02-21T12:35:07Z</time>
      </trkpt>
      <trkpt lat="49.05982" lon="2.09859">
        <ele>67.4</ele>
        <time>2016-02-21T12:35:13Z</time>
      </trkpt>
      <trkpt lat="49.0599" lon="2.0986">
        <ele>68</ele>
        <time>2016-02-21T12:35:18Z</time>
      </trkpt>
      <trkpt lat="49.05997" lon="2.09856">
        <ele>69</ele>
        <time>2016-02-21T12:35:24Z</time>
      </trkpt>
      <trkpt lat="49.06004" lon="2.09855">
        <ele>68.3</ele>
        <time>2016-02-21T12:35:31Z</time>
      </trkpt>
      <trkpt lat="49.06012" lon="2.09855">
        <ele>68.3</ele>
        <time>2016-02-21T12:35:38Z</time>
      </trkpt>
      <trkpt lat="49.06019" lon="2.09855">
        <ele>68.5</ele>
        <time>2016-02-21T12:35:43Z</time>
      </trkpt>
      <trkpt lat="49.06027" lon="2.09852">
        <ele>68.4</ele>
        <time>2016-02-21T12:35:49Z</time>
      </trkpt>
      <trkpt lat="49.06034" lon="2.09858">
        <ele>69</ele>
        <time>2016-02-21T12:35:54Z</time>
      </trkpt>
      <trkpt lat="49.06041" lon="2.0986">
        <ele>66.9</ele>
        <time>2016-02-21T12:36:00Z</time>
      </trkpt>
      <trkpt lat="49.06048" lon="2.09864">
        <ele>65</ele>
        <time>2016-02-21T12:36:07Z</time>
      </trkpt>
      <trkpt lat="49.06055" lon="2.09865">
        <ele>65.3</ele>
        <time>2016-02-21T12:36:13Z</time>
      </trkpt>
      <trkpt lat="49.06063" lon="2.0987">
        <ele>65.3</ele>
        <time>2016-02-21T12:36:20Z</time>
      </trkpt>
      <trkpt lat="49.0607" lon="2.09874">
        <ele>65.1</ele>
        <time>2016-02-21T12:36:25Z</time>
      </trkpt>
      <trkpt lat="49.06078" lon="2.09873">
        <ele>64.5</ele>
        <time>2016-02-21T12:36:32Z</time>
      </trkpt>
      <trkpt lat="49.06086" lon="2.09874">
        <ele>64.5</ele>
        <time>2016-02-21T12:36:38Z</time>
      </trkpt>
      <trkpt lat="49.06094" lon="2.09875">
        <ele>63.6</ele>
        <time>2016-02-21T12:36:45Z</time>
      </trkpt>
      <trkpt lat="49.06103" lon="2.09875">
        <ele>62.9</ele>
        <time>2016-02-21T12:36:51Z</time>
      </trkpt>
      <trkpt lat="49.0611" lon="2.09876">
        <ele>62</ele>
        <time>2016-02-21T12:36:57Z</time>
      </trkpt>
      <trkpt lat="49.06118" lon="2.09878">
        <ele>62</ele>
        <time>2016-02-21T12:37:04Z</time>
      </trkpt>
      <trkpt lat="49.06126" lon="2.09881">
        <ele>61.8</ele>
        <time>2016-02-21T12:37:10Z</time>
      </trkpt>
      <trkpt lat="49.06134" lon="2.0988">
        <ele>61.9</ele>
        <time>2016-02-21T12:37:17Z</time>
      </trkpt>
      <trkpt lat="49.06143" lon="2.09878">
        <ele>62.1</ele>
        <time>2016-02-21T12:37:23Z</time>
      </trkpt>
      <trkpt lat="49.0615" lon="2.09881">
        <ele>62.7</ele>
        <time>2016-02-21T12:37:30Z</time>
      </trkpt>
      <trkpt lat="49.06159" lon="2.09882">
        <ele>62.5</ele>
        <time>2016-02-21T12:37:37Z</time>
      </trkpt>
      <trkpt lat="49.06166" lon="2.09879">
        <ele>61.4</ele>
        <time>2016-02-21T12:37:43Z</time>
      </trkpt>
      <trkpt lat="49.06173" lon="2.09878">
        <ele>61.5</ele>
        <time>2016-02-21T12:37:48Z</time>
      </trkpt>
      <trkpt lat="49.0618" lon="2.09877">
        <ele>61.8</ele>
        <time>2016-02-21T12:37:55Z</time>
      </trkpt>
      <trkpt lat="49.06188" lon="2.09876">
        <ele>62.3</ele>
        <time>2016-02-21T12:38:02Z</time>
      </trkpt>
      <trkpt lat="49.06197" lon="2.09878">
        <ele>62.6</ele>
        <time>2016-02-21T12:38:09Z</time>
      </trkpt>
      <trkpt lat="49.06205" lon="2.09878">
        <ele>61.9</ele>
        <time>2016-02-21T12:38:15Z</time>
      </trkpt>
      <trkpt lat="49.06212" lon="2.0988">
        <ele>62.6</ele>
        <time>2016-02-21T12:38:22Z</time>
      </trkpt>
      <trkpt lat="49.0622" lon="2.09881">
        <ele>62.3</ele>
        <time>2016-02-21T12:38:28Z</time>
      </trkpt>
      <trkpt lat="49.06229" lon="2.09882">
        <ele>62.3</ele>
        <time>2016-02-21T12:38:34Z</time>
      </trkpt>
      <trkpt lat="49.06237" lon="2.09882">
        <ele>61.8</ele>
        <time>2016-02-21T12:38:41Z</time>
      </trkpt>
      <trkpt lat="49.06245" lon="2.09883">
        <ele>60.1</ele>
        <time>2016-02-21T12:38:46Z</time>
      </trkpt>
      <trkpt lat="49.06253" lon="2.09885">
        <ele>59</ele>
        <time>2016-02-21T12:38:53Z</time>
      </trkpt>
      <trkpt lat="49.06261" lon="2.09884">
        <ele>58</ele>
        <time>2016-02-21T12:38:58Z</time>
      </trkpt>
      <trkpt lat="49.06269" lon="2.09884">
        <ele>57.5</ele>
        <time>2016-02-21T12:39:04Z</time>
      </trkpt>
      <trkpt lat="49.06277" lon="2.09886">
        <ele>55.8</ele>
        <time>2016-02-21T12:39:10Z</time>
      </trkpt>
      <trkpt lat="49.06285" lon="2.09883">
        <ele>54.6</ele>
        <time>2016-02-21T12:39:17Z</time>
      </trkpt>
      <trkpt lat="49.06292" lon="2.09882">
        <ele>54</ele>
        <time>2016-02-21T12:39:22Z</time>
      </trkpt>
      <trkpt lat="49.06299" lon="2.09884">
        <ele>53.6</ele>
        <time>2016-02-21T12:39:26Z</time>
      </trkpt>
      <trkpt lat="49.06306" lon="2.09881">
        <ele>53.6</ele>
        <time>2016-02-21T12:39:33Z</time>
      </trkpt>
      <trkpt lat="49.06313" lon="2.0988">
        <ele>52.8</ele>
        <time>2016-02-21T12:39:38Z</time>
      </trkpt>
      <trkpt lat="49.06321" lon="2.09877">
        <ele>52.9</ele>
        <time>2016-02-21T12:39:44Z</time>
      </trkpt>
      <trkpt lat="49.06328" lon="2.09877">
        <ele>52.6</ele>
        <time>2016-02-21T12:39:50Z</time>
      </trkpt>
      <trkpt lat="49.06336" lon="2.09878">
        <ele>53.8</ele>
        <time>2016-02-21T12:39:57Z</time>
      </trkpt>
      <trkpt lat="49.06344" lon="2.09882">
        <ele>56.2</ele>
        <time>2016-02-21T12:40:02Z</time>
      </trkpt>
      <trkpt lat="49.06351" lon="2.09888">
        <ele>57</ele>
        <time>2016-02-21T12:40:08Z</time>
      </trkpt>
      <trkpt lat="49.06359" lon="2.09888">
        <ele>56.9</ele>
        <time>2016-02-21T12:40:13Z</time>
      </trkpt>
      <trkpt lat="49.06366" lon="2.09889">
        <ele>58.5</ele>
        <time>2016-02-21T12:40:19Z</time>
      </trkpt>
      <trkpt lat="49.06373" lon="2.09889">
        <ele>58.8</ele>
        <time>2016-02-21T12:40:24Z</time>
      </trkpt>
      <trkpt lat="49.06381" lon="2.09893">
        <ele>63.5</ele>
        <time>2016-02-21T12:40:31Z</time>
      </trkpt>
      <trkpt lat="49.06388" lon="2.09895">
        <ele>65.6</ele>
        <time>2016-02-21T12:40:38Z</time>
      </trkpt>
      <trkpt lat="49.06396" lon="2.09896">
        <ele>67.4</ele>
        <time>2016-02-21T12:40:45Z</time>
      </trkpt>
      <trkpt lat="49.06404" lon="2.09898">
        <ele>67.8</ele>
        <time>2016-02-21T12:40:50Z</time>
      </trkpt>
      <trkpt lat="49.06412" lon="2.09898">
        <ele>68.5</ele>
        <time>2016-02-21T12:40:56Z</time>
      </trkpt>
      <trkpt lat="49.06419" lon="2.09898">
        <ele>67.1</ele>
        <time>2016-02-21T12:41:02Z</time>
      </trkpt>
      <trkpt lat="49.06427" lon="2.09895">
        <ele>65.7</ele>
        <time>2016-02-21T12:41:08Z</time>
      </trkpt>
      <trkpt lat="49.06435" lon="2.09893">
        <ele>65.1</ele>
        <time>2016-02-21T12:41:15Z</time>
      </trkpt>
      <trkpt lat="49.06443" lon="2.09892">
        <ele>64.9</ele>
        <time>2016-02-21T12:41:21Z</time>
      </trkpt>
      <trkpt lat="49.06451" lon="2.09892">
        <ele>65</ele>
        <time>2016-02-21T12:41:27Z</time>
      </trkpt>
      <trkpt lat="49.06459" lon="2.0989">
        <ele>64.3</ele>
        <time>2016-02-21T12:41:33Z</time>
      </trkpt>
      <trkpt lat="49.06465" lon="2.09892">
        <ele>64</ele>
        <time>2016-02-21T12:41:40Z</time>
      </trkpt>
      <trkpt lat="49.06473" lon="2.09891">
        <ele>64.3</ele>
        <time>2016-02-21T12:41:45Z</time>
      </trkpt>
      <trkpt lat="49.0648" lon="2.09891">
        <ele>63.4</ele>
        <time>2016-02-21T12:41:51Z</time>
      </trkpt>
      <trkpt lat="49.06488" lon="2.0989">
        <ele>62.7</ele>
        <time>2016-02-21T12:41:56Z</time>
      </trkpt>
      <trkpt lat="49.06496" lon="2.0989">
        <ele>65.1</ele>
        <time>2016-02-21T12:42:03Z</time>
      </trkpt>
      <trkpt lat="49.06504" lon="2.0989">
        <ele>64.9</ele>
        <time>2016-02-21T12:42:08Z</time>
      </trkpt>
      <trkpt lat="49.0651" lon="2.09889">
        <ele>66.9</ele>
        <time>2016-02-21T12:42:15Z</time>
      </trkpt>
      <trkpt lat="49.06518" lon="2.09889">
        <ele>68.5</ele>
        <time>2016-02-21T12:42:22Z</time>
      </trkpt>
      <trkpt lat="49.06527" lon="2.09888">
        <ele>69.2</ele>
        <time>2016-02-21T12:42:29Z</time>
      </trkpt>
      <trkpt lat="49.06534" lon="2.09888">
        <ele>68.7</ele>
        <time>2016-02-21T12:42:34Z</time>
      </trkpt>
      <trkpt lat="49.06542" lon="2.09887">
        <ele>69</ele>
        <time>2016-02-21T12:42:38Z</time>
      </trkpt>
      <trkpt lat="49.06549" lon="2.09885">
        <ele>68.9</ele>
        <time>2016-02-21T12:42:44Z</time>
      </trkpt>
      <trkpt lat="49.06558" lon="2.09885">
        <ele>70.7</ele>
        <time>2016-02-21T12:42:50Z</time>
      </trkpt>
      <trkpt lat="49.06566" lon="2.09886">
        <ele>71.4</ele>
        <time>2016-02-21T12:42:56Z</time>
      </trkpt>
      <trkpt lat="49.06574" lon="2.09886">
        <ele>70.3</ele>
        <time>2016-02-21T12:43:01Z</time>
      </trkpt>
      <trkpt lat="49.0658" lon="2.09884">
        <ele>68.6</ele>
        <time>2016-02-21T12:43:08Z</time>
      </trkpt>
      <trkpt lat="49.06588" lon="2.09883">
        <ele>68.4</ele>
        <time>2016-02-21T12:43:14Z</time>
      </trkpt>
      <trkpt lat="49.06596" lon="2.09882">
        <ele>68</ele>
        <time>2016-02-21T12:43:21Z</time>
      </trkpt>
      <trkpt lat="49.06603" lon="2.09882">
        <ele>67.6</ele>
        <time>2016-02-21T12:43:26Z</time>
      </trkpt>
      <trkpt lat="49.06611" lon="2.09882">
        <ele>68.7</ele>
        <time>2016-02-21T12:43:32Z</time>
      </trkpt>
      <trkpt lat="49.06618" lon="2.09879">
        <ele>70.2</ele>
        <time>2016-02-21T12:43:38Z</time>
      </trkpt>
      <trkpt lat="49.06627" lon="2.09878">
        <ele>69.4</ele>
        <time>2016-02-21T12:43:44Z</time>
      </trkpt>
      <trkpt lat="49.06634" lon="2.0988">
        <ele>68.8</ele>
        <time>2016-02-21T12:43:50Z</time>
      </trkpt>
      <trkpt lat="49.06642" lon="2.09878">
        <ele>69.5</ele>
        <time>2016-02-21T12:43:56Z</time>
      </trkpt>
      <trkpt lat="49.06651" lon="2.09876">
        <ele>69.5</ele>
        <time>2016-02-21T12:44:03Z</time>
      </trkpt>
      <trkpt lat="49.0666" lon="2.09876">
        <ele>66.9</ele>
        <time>2016-02-21T12:44:10Z</time>
      </trkpt>
      <trkpt lat="49.06667" lon="2.09875">
        <ele>63.6</ele>
        <time>2016-02-21T12:44:15Z</time>
      </trkpt>
      <trkpt lat="49.06674" lon="2.09873">
        <ele>63.3</ele>
        <time>2016-02-21T12:44:22Z</time>
      </trkpt>
      <trkpt lat="49.0668" lon="2.09872">
        <ele>66.9</ele>
        <time>2016-02-21T12:44:29Z</time>
      </trkpt>
      <trkpt lat="49.06687" lon="2.09874">
        <ele>66.2</ele>
        <time>2016-02-21T12:44:35Z</time>
      </trkpt>
      <trkpt lat="49.06695" lon="2.09873">
        <ele>65.4</ele>
        <time>2016-02-21T12:44:42Z</time>
      </trkpt>
      <trkpt lat="49.06703" lon="2.09872">
        <ele>64.1</ele>
        <time>2016-02-21T12:44:47Z</time>
      </trkpt>
      <trkpt lat="49.0671" lon="2.09873">
        <ele>65</ele>
        <time>2016-02-21T12:44:54Z</time>
      </trkpt>
      <trkpt lat="49.06718" lon="2.0987">
        <ele>64.9</ele>
        <time>2016-02-21T12:45:00Z</time>
      </trkpt>
      <trkpt lat="49.06725" lon="2.09868">
        <ele>64.4</ele>
        <time>2016-02-21T12:45:07Z</time>
      </trkpt>
      <trkpt lat="49.06733" lon="2.09867">
        <ele>65.7</ele>
        <time>2016-02-21T12:45:14Z</time>
      </trkpt>
      <trkpt lat="49.06737" lon="2.09868">
        <ele>66.9</ele>
        <time>2016-02-21T12:45:21Z</time>
      </trkpt>
      <trkpt lat="49.06743" lon="2.09872">
        <ele>69.4</ele>
        <time>2016-02-21T12:45:43Z</time>
      </trkpt>
      <trkpt lat="49.06749" lon="2.09872">
        <ele>69.1</ele>
        <time>2016-02-21T12:45:50Z</time>
      </trkpt>
      <trkpt lat="49.0675" lon="2.0987">
        <ele>68.6</ele>
        <time>2016-02-21T12:45:57Z</time>
      </trkpt>
      <trkpt lat="49.06757" lon="2.09865">
        <ele>66.4</ele>
        <time>2016-02-21T12:47:53Z</time>
      </trkpt>
      <trkpt lat="49.06764" lon="2.09863">
        <ele>66</ele>
        <time>2016-02-21T12:47:59Z</time>
      </trkpt>
      <trkpt lat="49.06771" lon="2.0986">
        <ele>65.4</ele>
        <time>2016-02-21T12:48:06Z</time>
      </trkpt>
      <trkpt lat="49.06774" lon="2.09858">
        <ele>65.1</ele>
        <time>2016-02-21T12:48:13Z</time>
      </trkpt>
      <trkpt lat="49.06779" lon="2.09857">
        <ele>64.5</ele>
        <time>2016-02-21T12:48:20Z</time>
      </trkpt>
      <trkpt lat="49.06784" lon="2.09857">
        <ele>64.2</ele>
        <time>2016-02-21T12:48:27Z</time>
      </trkpt>
      <trkpt lat="49.0679" lon="2.09855">
        <ele>63.9</ele>
        <time>2016-02-21T12:48:34Z</time>
      </trkpt>
      <trkpt lat="49.06796" lon="2.09852">
        <ele>63.6</ele>
        <time>2016-02-21T12:48:41Z</time>
      </trkpt>
      <trkpt lat="49.06804" lon="2.09847">
        <ele>62.8</ele>
        <time>2016-02-21T12:48:47Z</time>
      </trkpt>
      <trkpt lat="49.06812" lon="2.09843">
        <ele>62.2</ele>
        <time>2016-02-21T12:48:53Z</time>
      </trkpt>
      <trkpt lat="49.06817" lon="2.09842">
        <ele>61.7</ele>
        <time>2016-02-21T12:49:00Z</time>
      </trkpt>
      <trkpt lat="49.06826" lon="2.09843">
        <ele>61.1</ele>
        <time>2016-02-21T12:49:06Z</time>
      </trkpt>
      <trkpt lat="49.06832" lon="2.09843">
        <ele>60.3</ele>
        <time>2016-02-21T12:49:13Z</time>
      </trkpt>
      <trkpt lat="49.06838" lon="2.09844">
        <ele>59.5</ele>
        <time>2016-02-21T12:49:20Z</time>
      </trkpt>
      <trkpt lat="49.06844" lon="2.09846">
        <ele>58.5</ele>
        <time>2016-02-21T12:49:27Z</time>
      </trkpt>
      <trkpt lat="49.06851" lon="2.09851">
        <ele>57.4</ele>
        <time>2016-02-21T12:49:32Z</time>
      </trkpt>
      <trkpt lat="49.06858" lon="2.09857">
        <ele>56.4</ele>
        <time>2016-02-21T12:49:37Z</time>
      </trkpt>
      <trkpt lat="49.06864" lon="2.09862">
        <ele>55.5</ele>
        <time>2016-02-21T12:49:43Z</time>
      </trkpt>
      <trkpt lat="49.06869" lon="2.09869">
        <ele>54.6</ele>
        <time>2016-02-21T12:49:50Z</time>
      </trkpt>
      <trkpt lat="49.06875" lon="2.09875">
        <ele>53.1</ele>
        <time>2016-02-21T12:49:57Z</time>
      </trkpt>
      <trkpt lat="49.06879" lon="2.09878">
        <ele>51.6</ele>
        <time>2016-02-21T12:50:04Z</time>
      </trkpt>
      <trkpt lat="49.06884" lon="2.09881">
        <ele>50.9</ele>
        <time>2016-02-21T12:50:11Z</time>
      </trkpt>
      <trkpt lat="49.06889" lon="2.09886">
        <ele>49.7</ele>
        <time>2016-02-21T12:50:18Z</time>
      </trkpt>
      <trkpt lat="49.06897" lon="2.0989">
        <ele>48.7</ele>
        <time>2016-02-21T12:50:24Z</time>
      </trkpt>
      <trkpt lat="49.06902" lon="2.09893">
        <ele>48.1</ele>
        <time>2016-02-21T12:50:31Z</time>
      </trkpt>
      <trkpt lat="49.06907" lon="2.09894">
        <ele>47.1</ele>
        <time>2016-02-21T12:50:38Z</time>
      </trkpt>
      <trkpt lat="49.06911" lon="2.09895">
        <ele>46.5</ele>
        <time>2016-02-21T12:50:45Z</time>
      </trkpt>
      <trkpt lat="49.06917" lon="2.09895">
        <ele>45.9</ele>
        <time>2016-02-21T12:50:52Z</time>
      </trkpt>
      <trkpt lat="49.06924" lon="2.09896">
        <ele>45</ele>
        <time>2016-02-21T12:50:57Z</time>
      </trkpt>
      <trkpt lat="49.06933" lon="2.099">
        <ele>44.1</ele>
        <time>2016-02-21T12:51:01Z</time>
      </trkpt>
      <trkpt lat="49.06938" lon="2.09903">
        <ele>42.6</ele>
        <time>2016-02-21T12:51:08Z</time>
      </trkpt>
      <trkpt lat="49.06946" lon="2.09908">
        <ele>41.2</ele>
        <time>2016-02-21T12:51:15Z</time>
      </trkpt>
      <trkpt lat="49.06955" lon="2.09905">
        <ele>40.2</ele>
        <time>2016-02-21T12:51:22Z</time>
      </trkpt>
      <trkpt lat="49.06961" lon="2.09902">
        <ele>39.1</ele>
        <time>2016-02-21T12:51:29Z</time>
      </trkpt>
      <trkpt lat="49.06965" lon="2.09899">
        <ele>38.2</ele>
        <time>2016-02-21T12:51:36Z</time>
      </trkpt>
      <trkpt lat="49.06971" lon="2.09895">
        <ele>37.5</ele>
        <time>2016-02-21T12:51:44Z</time>
      </trkpt>
      <trkpt lat="49.06976" lon="2.0989">
        <ele>36.4</ele>
        <time>2016-02-21T12:51:50Z</time>
      </trkpt>
      <trkpt lat="49.06984" lon="2.09886">
        <ele>36.1</ele>
        <time>2016-02-21T12:51:54Z</time>
      </trkpt>
      <trkpt lat="49.06994" lon="2.09882">
        <ele>35.8</ele>
        <time>2016-02-21T12:52:01Z</time>
      </trkpt>
      <trkpt lat="49.07" lon="2.09887">
        <ele>34.7</ele>
        <time>2016-02-21T12:52:07Z</time>
      </trkpt>
      <trkpt lat="49.07006" lon="2.09893">
        <ele>33.8</ele>
        <time>2016-02-21T12:52:14Z</time>
      </trkpt>
      <trkpt lat="49.07009" lon="2.09895">
        <ele>33</ele>
        <time>2016-02-21T12:52:21Z</time>
      </trkpt>
      <trkpt lat="49.07013" lon="2.09894">
        <ele>32</ele>
        <time>2016-02-21T12:52:28Z</time>
      </trkpt>
      <trkpt lat="49.07019" lon="2.09885">
        <ele>31.2</ele>
        <time>2016-02-21T12:52:34Z</time>
      </trkpt>
      <trkpt lat="49.07024" lon="2.09878">
        <ele>30.1</ele>
        <time>2016-02-21T12:52:41Z</time>
      </trkpt>
      <trkpt lat="49.07031" lon="2.0987">
        <ele>29.7</ele>
        <time>2016-02-21T12:52:47Z</time>
      </trkpt>
      <trkpt lat="49.07035" lon="2.09863">
        <ele>29.3</ele>
        <time>2016-02-21T12:52:54Z</time>
      </trkpt>
      <trkpt lat="49.0704" lon="2.09853">
        <ele>28.6</ele>
        <time>2016-02-21T12:53:01Z</time>
      </trkpt>
      <trkpt lat="49.07044" lon="2.09847">
        <ele>27.7</ele>
        <time>2016-02-21T12:53:08Z</time>
      </trkpt>
      <trkpt lat="49.0705" lon="2.09843">
        <ele>26.8</ele>
        <time>2016-02-21T12:53:15Z</time>
      </trkpt>
      <trkpt lat="49.07057" lon="2.09842">
        <ele>26.1</ele>
        <time>2016-02-21T12:53:21Z</time>
      </trkpt>
      <trkpt lat="49.07065" lon="2.0984">
        <ele>25.8</ele>
        <time>2016-02-21T12:53:27Z</time>
      </trkpt>
      <trkpt lat="49.07071" lon="2.09836">
        <ele>25.3</ele>
        <time>2016-02-21T12:53:34Z</time>
      </trkpt>
      <trkpt lat="49.07076" lon="2.09836">
        <ele>24.8</ele>
        <time>2016-02-21T12:53:41Z</time>
      </trkpt>
      <trkpt lat="49.07086" lon="2.09831">
        <ele>24.6</ele>
        <time>2016-02-21T12:53:48Z</time>
      </trkpt>
      <trkpt lat="49.07093" lon="2.09826">
        <ele>24.5</ele>
        <time>2016-02-21T12:53:53Z</time>
      </trkpt>
      <trkpt lat="49.07101" lon="2.09815">
        <ele>24.1</ele>
        <time>2016-02-21T12:53:58Z</time>
      </trkpt>
      <trkpt lat="49.07107" lon="2.09807">
        <ele>23.9</ele>
        <time>2016-02-21T12:54:02Z</time>
      </trkpt>
      <trkpt lat="49.07112" lon="2.09799">
        <ele>23.5</ele>
        <time>2016-02-21T12:54:08Z</time>
      </trkpt>
      <trkpt lat="49.07115" lon="2.09788">
        <ele>22.8</ele>
        <time>2016-02-21T12:54:15Z</time>
      </trkpt>
      <trkpt lat="49.07117" lon="2.09777">
        <ele>22.3</ele>
        <time>2016-02-21T12:54:21Z</time>
      </trkpt>
      <trkpt lat="49.07117" lon="2.09765">
        <ele>21.9</ele>
        <time>2016-02-21T12:54:25Z</time>
      </trkpt>
      <trkpt lat="49.07117" lon="2.09754">
        <ele>21.6</ele>
        <time>2016-02-21T12:54:31Z</time>
      </trkpt>
      <trkpt lat="49.0712" lon="2.09743">
        <ele>21.1</ele>
        <time>2016-02-21T12:54:36Z</time>
      </trkpt>
      <trkpt lat="49.07121" lon="2.09731">
        <ele>20.5</ele>
        <time>2016-02-21T12:54:43Z</time>
      </trkpt>
      <trkpt lat="49.07124" lon="2.0972">
        <ele>20.3</ele>
        <time>2016-02-21T12:54:49Z</time>
      </trkpt>
      <trkpt lat="49.07128" lon="2.09712">
        <ele>20.3</ele>
        <time>2016-02-21T12:54:56Z</time>
      </trkpt>
      <trkpt lat="49.07134" lon="2.09702">
        <ele>20.1</ele>
        <time>2016-02-21T12:55:02Z</time>
      </trkpt>
      <trkpt lat="49.07138" lon="2.09692">
        <ele>19.5</ele>
        <time>2016-02-21T12:55:07Z</time>
      </trkpt>
      <trkpt lat="49.07142" lon="2.09682">
        <ele>18.7</ele>
        <time>2016-02-21T12:55:14Z</time>
      </trkpt>
      <trkpt lat="49.07146" lon="2.0967">
        <ele>18.3</ele>
        <time>2016-02-21T12:55:22Z</time>
      </trkpt>
      <trkpt lat="49.07152" lon="2.09662">
        <ele>18</ele>
        <time>2016-02-21T12:55:28Z</time>
      </trkpt>
      <trkpt lat="49.07154" lon="2.09651">
        <ele>17.8</ele>
        <time>2016-02-21T12:55:35Z</time>
      </trkpt>
      <trkpt lat="49.07159" lon="2.09644">
        <ele>17.7</ele>
        <time>2016-02-21T12:55:41Z</time>
      </trkpt>
      <trkpt lat="49.07164" lon="2.09635">
        <ele>17.5</ele>
        <time>2016-02-21T12:55:47Z</time>
      </trkpt>
      <trkpt lat="49.07172" lon="2.0963">
        <ele>17.4</ele>
        <time>2016-02-21T12:55:53Z</time>
      </trkpt>
      <trkpt lat="49.07177" lon="2.09624">
        <ele>17.3</ele>
        <time>2016-02-21T12:56:00Z</time>
      </trkpt>
      <trkpt lat="49.07182" lon="2.09618">
        <ele>17.3</ele>
        <time>2016-02-21T12:56:07Z</time>
      </trkpt>
      <trkpt lat="49.07187" lon="2.09611">
        <ele>17.2</ele>
        <time>2016-02-21T12:56:14Z</time>
      </trkpt>
      <trkpt lat="49.07192" lon="2.09605">
        <ele>17</ele>
        <time>2016-02-21T12:56:21Z</time>
      </trkpt>
      <trkpt lat="49.07199" lon="2.09598">
        <ele>17.2</ele>
        <time>2016-02-21T12:56:26Z</time>
      </trkpt>
      <trkpt lat="49.07205" lon="2.09591">
        <ele>17.3</ele>
        <time>2016-02-21T12:56:32Z</time>
      </trkpt>
      <trkpt lat="49.0721" lon="2.09582">
        <ele>17.1</ele>
        <time>2016-02-21T12:56:38Z</time>
      </trkpt>
      <trkpt lat="49.07214" lon="2.09574">
        <ele>17.1</ele>
        <time>2016-02-21T12:56:44Z</time>
      </trkpt>
      <trkpt lat="49.07221" lon="2.09568">
        <ele>17</ele>
        <time>2016-02-21T12:56:48Z</time>
      </trkpt>
      <trkpt lat="49.07226" lon="2.0956">
        <ele>17</ele>
        <time>2016-02-21T12:56:52Z</time>
      </trkpt>
      <trkpt lat="49.07233" lon="2.0955">
        <ele>16.8</ele>
        <time>2016-02-21T12:56:58Z</time>
      </trkpt>
      <trkpt lat="49.07239" lon="2.09543">
        <ele>16.7</ele>
        <time>2016-02-21T12:57:04Z</time>
      </trkpt>
      <trkpt lat="49.07245" lon="2.09537">
        <ele>16.8</ele>
        <time>2016-02-21T12:57:11Z</time>
      </trkpt>
      <trkpt lat="49.07249" lon="2.09528">
        <ele>16.6</ele>
        <time>2016-02-21T12:57:16Z</time>
      </trkpt>
      <trkpt lat="49.07251" lon="2.09516">
        <ele>16.5</ele>
        <time>2016-02-21T12:57:22Z</time>
      </trkpt>
      <trkpt lat="49.07256" lon="2.09508">
        <ele>16.7</ele>
        <time>2016-02-21T12:57:26Z</time>
      </trkpt>
      <trkpt lat="49.07258" lon="2.09496">
        <ele>16.7</ele>
        <time>2016-02-21T12:57:31Z</time>
      </trkpt>
      <trkpt lat="49.07261" lon="2.09486">
        <ele>16.7</ele>
        <time>2016-02-21T12:57:38Z</time>
      </trkpt>
      <trkpt lat="49.07265" lon="2.09476">
        <ele>16.5</ele>
        <time>2016-02-21T12:57:44Z</time>
      </trkpt>
      <trkpt lat="49.07269" lon="2.09464">
        <ele>16.5</ele>
        <time>2016-02-21T12:57:50Z</time>
      </trkpt>
      <trkpt lat="49.0727" lon="2.09452">
        <ele>16.5</ele>
        <time>2016-02-21T12:57:55Z</time>
      </trkpt>
      <trkpt lat="49.07272" lon="2.09441">
        <ele>16.6</ele>
        <time>2016-02-21T12:58:02Z</time>
      </trkpt>
      <trkpt lat="49.07274" lon="2.09428">
        <ele>16.6</ele>
        <time>2016-02-21T12:58:09Z</time>
      </trkpt>
      <trkpt lat="49.07275" lon="2.09417">
        <ele>16.2</ele>
        <time>2016-02-21T12:58:15Z</time>
      </trkpt>
      <trkpt lat="49.07274" lon="2.09405">
        <ele>16.7</ele>
        <time>2016-02-21T12:58:21Z</time>
      </trkpt>
      <trkpt lat="49.0727" lon="2.09394">
        <ele>17.1</ele>
        <time>2016-02-21T12:58:28Z</time>
      </trkpt>
      <trkpt lat="49.07267" lon="2.09384">
        <ele>17.5</ele>
        <time>2016-02-21T12:58:35Z</time>
      </trkpt>
      <trkpt lat="49.07266" lon="2.09373">
        <ele>17.7</ele>
        <time>2016-02-21T12:58:42Z</time>
      </trkpt>
      <trkpt lat="49.07267" lon="2.09362">
        <ele>17.8</ele>
        <time>2016-02-21T12:58:49Z</time>
      </trkpt>
      <trkpt lat="49.07269" lon="2.0935">
        <ele>17.9</ele>
        <time>2016-02-21T12:58:55Z</time>
      </trkpt>
      <trkpt lat="49.07273" lon="2.0934">
        <ele>17.7</ele>
        <time>2016-02-21T12:59:02Z</time>
      </trkpt>
      <trkpt lat="49.07278" lon="2.09331">
        <ele>17.9</ele>
        <time>2016-02-21T12:59:07Z</time>
      </trkpt>
      <trkpt lat="49.07282" lon="2.09321">
        <ele>18.2</ele>
        <time>2016-02-21T12:59:14Z</time>
      </trkpt>
      <trkpt lat="49.07285" lon="2.09311">
        <ele>18.2</ele>
        <time>2016-02-21T12:59:20Z</time>
      </trkpt>
      <trkpt lat="49.07289" lon="2.09299">
        <ele>18.3</ele>
        <time>2016-02-21T12:59:27Z</time>
      </trkpt>
      <trkpt lat="49.07294" lon="2.09286">
        <ele>18.1</ele>
        <time>2016-02-21T12:59:32Z</time>
      </trkpt>
      <trkpt lat="49.07299" lon="2.09278">
        <ele>18</ele>
        <time>2016-02-21T12:59:37Z</time>
      </trkpt>
      <trkpt lat="49.07305" lon="2.09271">
        <ele>17.6</ele>
        <time>2016-02-21T12:59:44Z</time>
      </trkpt>
      <trkpt lat="49.0731" lon="2.09265">
        <ele>17.4</ele>
        <time>2016-02-21T12:59:51Z</time>
      </trkpt>
      <trkpt lat="49.07314" lon="2.09261">
        <ele>17.4</ele>
        <time>2016-02-21T12:59:58Z</time>
      </trkpt>
      <trkpt lat="49.0732" lon="2.09256">
        <ele>17.5</ele>
        <time>2016-02-21T13:00:05Z</time>
      </trkpt>
      <trkpt lat="49.07326" lon="2.09247">
        <ele>17.8</ele>
        <time>2016-02-21T13:00:09Z</time>
      </trkpt>
      <trkpt lat="49.07332" lon="2.0924">
        <ele>17.9</ele>
        <time>2016-02-21T13:00:13Z</time>
      </trkpt>
      <trkpt lat="49.07337" lon="2.09232">
        <ele>18</ele>
        <time>2016-02-21T13:00:18Z</time>
      </trkpt>
      <trkpt lat="49.07339" lon="2.09222">
        <ele>18.3</ele>
        <time>2016-02-21T13:00:24Z</time>
      </trkpt>
      <trkpt lat="49.07339" lon="2.0921">
        <ele>18.6</ele>
        <time>2016-02-21T13:00:29Z</time>
      </trkpt>
      <trkpt lat="49.07338" lon="2.09197">
        <ele>18.9</ele>
        <time>2016-02-21T13:00:35Z</time>
      </trkpt>
      <trkpt lat="49.07338" lon="2.09185">
        <ele>19.4</ele>
        <time>2016-02-21T13:00:42Z</time>
      </trkpt>
      <trkpt lat="49.07342" lon="2.09176">
        <ele>19.6</ele>
        <time>2016-02-21T13:00:49Z</time>
      </trkpt>
      <trkpt lat="49.07346" lon="2.09165">
        <ele>19.6</ele>
        <time>2016-02-21T13:00:56Z</time>
      </trkpt>
      <trkpt lat="49.07347" lon="2.09156">
        <ele>19.5</ele>
        <time>2016-02-21T13:01:03Z</time>
      </trkpt>
      <trkpt lat="49.07354" lon="2.09149">
        <ele>19.3</ele>
        <time>2016-02-21T13:01:09Z</time>
      </trkpt>
      <trkpt lat="49.07361" lon="2.09144">
        <ele>19.3</ele>
        <time>2016-02-21T13:01:14Z</time>
      </trkpt>
      <trkpt lat="49.07365" lon="2.09134">
        <ele>20.8</ele>
        <time>2016-02-21T13:01:21Z</time>
      </trkpt>
      <trkpt lat="49.07371" lon="2.09126">
        <ele>21.8</ele>
        <time>2016-02-21T13:01:27Z</time>
      </trkpt>
      <trkpt lat="49.07376" lon="2.09124">
        <ele>22.5</ele>
        <time>2016-02-21T13:01:34Z</time>
      </trkpt>
      <trkpt lat="49.07383" lon="2.09129">
        <ele>23.5</ele>
        <time>2016-02-21T13:01:47Z</time>
      </trkpt>
      <trkpt lat="49.0739" lon="2.09131">
        <ele>24.5</ele>
        <time>2016-02-21T13:01:54Z</time>
      </trkpt>
      <trkpt lat="49.07395" lon="2.09124">
        <ele>25.2</ele>
        <time>2016-02-21T13:02:01Z</time>
      </trkpt>
      <trkpt lat="49.074" lon="2.09115">
        <ele>26</ele>
        <time>2016-02-21T13:02:07Z</time>
      </trkpt>
      <trkpt lat="49.07404" lon="2.09105">
        <ele>27.1</ele>
        <time>2016-02-21T13:02:14Z</time>
      </trkpt>
      <trkpt lat="49.07408" lon="2.09095">
        <ele>27.9</ele>
        <time>2016-02-21T13:02:21Z</time>
      </trkpt>
      <trkpt lat="49.07411" lon="2.09087">
        <ele>27.9</ele>
        <time>2016-02-21T13:02:28Z</time>
      </trkpt>
      <trkpt lat="49.07415" lon="2.0908">
        <ele>27.9</ele>
        <time>2016-02-21T13:02:35Z</time>
      </trkpt>
      <trkpt lat="49.07419" lon="2.09078">
        <ele>28</ele>
        <time>2016-02-21T13:02:42Z</time>
      </trkpt>
      <trkpt lat="49.07425" lon="2.09071">
        <ele>28</ele>
        <time>2016-02-21T13:02:46Z</time>
      </trkpt>
      <trkpt lat="49.07432" lon="2.09063">
        <ele>28.4</ele>
        <time>2016-02-21T13:02:52Z</time>
      </trkpt>
      <trkpt lat="49.07439" lon="2.09055">
        <ele>28.8</ele>
        <time>2016-02-21T13:02:58Z</time>
      </trkpt>
      <trkpt lat="49.07445" lon="2.09048">
        <ele>29.1</ele>
        <time>2016-02-21T13:03:04Z</time>
      </trkpt>
      <trkpt lat="49.07451" lon="2.0904">
        <ele>29.2</ele>
        <time>2016-02-21T13:03:10Z</time>
      </trkpt>
      <trkpt lat="49.07455" lon="2.09033">
        <ele>29.7</ele>
        <time>2016-02-21T13:03:17Z</time>
      </trkpt>
      <trkpt lat="49.07462" lon="2.09029">
        <ele>30.2</ele>
        <time>2016-02-21T13:03:23Z</time>
      </trkpt>
      <trkpt lat="49.07465" lon="2.09017">
        <ele>30.5</ele>
        <time>2016-02-21T13:03:29Z</time>
      </trkpt>
      <trkpt lat="49.0747" lon="2.09009">
        <ele>30.5</ele>
        <time>2016-02-21T13:03:34Z</time>
      </trkpt>
      <trkpt lat="49.07475" lon="2.08999">
        <ele>30.7</ele>
        <time>2016-02-21T13:03:41Z</time>
      </trkpt>
      <trkpt lat="49.07479" lon="2.0899">
        <ele>31</ele>
        <time>2016-02-21T13:03:48Z</time>
      </trkpt>
      <trkpt lat="49.07482" lon="2.08978">
        <ele>31.2</ele>
        <time>2016-02-21T13:03:54Z</time>
      </trkpt>
      <trkpt lat="49.07485" lon="2.08969">
        <ele>31.7</ele>
        <time>2016-02-21T13:04:01Z</time>
      </trkpt>
      <trkpt lat="49.07489" lon="2.08958">
        <ele>32.3</ele>
        <time>2016-02-21T13:04:08Z</time>
      </trkpt>
      <trkpt lat="49.07491" lon="2.08947">
        <ele>32.7</ele>
        <time>2016-02-21T13:04:13Z</time>
      </trkpt>
      <trkpt lat="49.07496" lon="2.08938">
        <ele>33.4</ele>
        <time>2016-02-21T13:04:19Z</time>
      </trkpt>
      <trkpt lat="49.07501" lon="2.08931">
        <ele>34</ele>
        <time>2016-02-21T13:04:24Z</time>
      </trkpt>
      <trkpt lat="49.07508" lon="2.08925">
        <ele>34.5</ele>
        <time>2016-02-21T13:04:31Z</time>
      </trkpt>
      <trkpt lat="49.07514" lon="2.08917">
        <ele>35.3</ele>
        <time>2016-02-21T13:04:38Z</time>
      </trkpt>
      <trkpt lat="49.07522" lon="2.0891">
        <ele>35.8</ele>
        <time>2016-02-21T13:04:43Z</time>
      </trkpt>
      <trkpt lat="49.07527" lon="2.089">
        <ele>37.1</ele>
        <time>2016-02-21T13:04:50Z</time>
      </trkpt>
      <trkpt lat="49.07533" lon="2.08891">
        <ele>37.8</ele>
        <time>2016-02-21T13:04:55Z</time>
      </trkpt>
      <trkpt lat="49.07539" lon="2.08885">
        <ele>38.4</ele>
        <time>2016-02-21T13:05:01Z</time>
      </trkpt>
      <trkpt lat="49.07543" lon="2.08873">
        <ele>38.8</ele>
        <time>2016-02-21T13:05:07Z</time>
      </trkpt>
      <trkpt lat="49.07547" lon="2.08866">
        <ele>39.5</ele>
        <time>2016-02-21T13:05:14Z</time>
      </trkpt>
      <trkpt lat="49.07554" lon="2.08862">
        <ele>39.9</ele>
        <time>2016-02-21T13:05:19Z</time>
      </trkpt>
      <trkpt lat="49.07559" lon="2.08852">
        <ele>40.5</ele>
        <time>2016-02-21T13:05:26Z</time>
      </trkpt>
      <trkpt lat="49.07566" lon="2.08846">
        <ele>40.7</ele>
        <time>2016-02-21T13:05:32Z</time>
      </trkpt>
      <trkpt lat="49.07572" lon="2.0884">
        <ele>40.7</ele>
        <time>2016-02-21T13:05:39Z</time>
      </trkpt>
      <trkpt lat="49.07575" lon="2.08839">
        <ele>41.1</ele>
        <time>2016-02-21T13:05:46Z</time>
      </trkpt>
      <trkpt lat="49.07582" lon="2.08832">
        <ele>41.8</ele>
        <time>2016-02-21T13:05:53Z</time>
      </trkpt>
      <trkpt lat="49.07588" lon="2.08828">
        <ele>42</ele>
        <time>2016-02-21T13:06:00Z</time>
      </trkpt>
      <trkpt lat="49.07595" lon="2.08825">
        <ele>42.3</ele>
        <time>2016-02-21T13:06:05Z</time>
      </trkpt>
      <trkpt lat="49.07603" lon="2.08822">
        <ele>42.8</ele>
        <time>2016-02-21T13:06:11Z</time>
      </trkpt>
      <trkpt lat="49.07611" lon="2.08819">
        <ele>42.3</ele>
        <time>2016-02-21T13:06:18Z</time>
      </trkpt>
      <trkpt lat="49.07619" lon="2.08816">
        <ele>41.8</ele>
        <time>2016-02-21T13:06:22Z</time>
      </trkpt>
      <trkpt lat="49.07628" lon="2.08814">
        <ele>40.9</ele>
        <time>2016-02-21T13:06:26Z</time>
      </trkpt>
      <trkpt lat="49.07635" lon="2.08811">
        <ele>40.3</ele>
        <time>2016-02-21T13:06:33Z</time>
      </trkpt>
      <trkpt lat="49.07643" lon="2.08806">
        <ele>40.7</ele>
        <time>2016-02-21T13:06:40Z</time>
      </trkpt>
      <trkpt lat="49.0765" lon="2.08802">
        <ele>40.6</ele>
        <time>2016-02-21T13:06:47Z</time>
      </trkpt>
      <trkpt lat="49.07657" lon="2.08801">
        <ele>41</ele>
        <time>2016-02-21T13:06:54Z</time>
      </trkpt>
      <trkpt lat="49.07663" lon="2.08797">
        <ele>40.6</ele>
        <time>2016-02-21T13:07:01Z</time>
      </trkpt>
      <trkpt lat="49.07664" lon="2.08796">
        <ele>40.7</ele>
        <time>2016-02-21T13:07:08Z</time>
      </trkpt>
      <trkpt lat="49.07671" lon="2.08797">
        <ele>41.4</ele>
        <time>2016-02-21T13:07:25Z</time>
      </trkpt>
      <trkpt lat="49.07676" lon="2.08797">
        <ele>42.5</ele>
        <time>2016-02-21T13:07:32Z</time>
      </trkpt>
      <trkpt lat="49.0768" lon="2.08793">
        <ele>42.6</ele>
        <time>2016-02-21T13:07:39Z</time>
      </trkpt>
      <trkpt lat="49.07687" lon="2.08786">
        <ele>41.4</ele>
        <time>2016-02-21T13:08:05Z</time>
      </trkpt>
      <trkpt lat="49.07697" lon="2.08784">
        <ele>41.1</ele>
        <time>2016-02-21T13:08:09Z</time>
      </trkpt>
      <trkpt lat="49.07704" lon="2.08783">
        <ele>41.5</ele>
        <time>2016-02-21T13:08:16Z</time>
      </trkpt>
      <trkpt lat="49.07711" lon="2.08779">
        <ele>41.7</ele>
        <time>2016-02-21T13:08:23Z</time>
      </trkpt>
      <trkpt lat="49.07718" lon="2.08775">
        <ele>41.9</ele>
        <time>2016-02-21T13:08:30Z</time>
      </trkpt>
      <trkpt lat="49.07725" lon="2.08769">
        <ele>41.6</ele>
        <time>2016-02-21T13:08:36Z</time>
      </trkpt>
      <trkpt lat="49.0773" lon="2.08763">
        <ele>41.4</ele>
        <time>2016-02-21T13:08:43Z</time>
      </trkpt>
      <trkpt lat="49.07732" lon="2.08756">
        <ele>41.4</ele>
        <time>2016-02-21T13:08:50Z</time>
      </trkpt>
      <trkpt lat="49.07736" lon="2.08747">
        <ele>41.7</ele>
        <time>2016-02-21T13:08:57Z</time>
      </trkpt>
      <trkpt lat="49.07741" lon="2.08737">
        <ele>41.8</ele>
        <time>2016-02-21T13:09:03Z</time>
      </trkpt>
      <trkpt lat="49.07744" lon="2.08725">
        <ele>41.9</ele>
        <time>2016-02-21T13:09:10Z</time>
      </trkpt>
      <trkpt lat="49.07748" lon="2.08715">
        <ele>42.3</ele>
        <time>2016-02-21T13:09:15Z</time>
      </trkpt>
      <trkpt lat="49.07754" lon="2.08707">
        <ele>42.6</ele>
        <time>2016-02-21T13:09:21Z</time>
      </trkpt>
      <trkpt lat="49.07757" lon="2.087">
        <ele>42.5</ele>
        <time>2016-02-21T13:09:28Z</time>
      </trkpt>
      <trkpt lat="49.07761" lon="2.08694">
        <ele>42.6</ele>
        <time>2016-02-21T13:09:35Z</time>
      </trkpt>
      <trkpt lat="49.07766" lon="2.08688">
        <ele>42.6</ele>
        <time>2016-02-21T13:09:42Z</time>
      </trkpt>
      <trkpt lat="49.07772" lon="2.08679">
        <ele>42.8</ele>
        <time>2016-02-21T13:09:49Z</time>
      </trkpt>
      <trkpt lat="49.0778" lon="2.08675">
        <ele>42.4</ele>
        <time>2016-02-21T13:09:55Z</time>
      </trkpt>
      <trkpt lat="49.07787" lon="2.08666">
        <ele>42.5</ele>
        <time>2016-02-21T13:10:01Z</time>
      </trkpt>
      <trkpt lat="49.07793" lon="2.08659">
        <ele>43</ele>
        <time>2016-02-21T13:10:08Z</time>
      </trkpt>
      <trkpt lat="49.07799" lon="2.08651">
        <ele>43.2</ele>
        <time>2016-02-21T13:10:14Z</time>
      </trkpt>
      <trkpt lat="49.078" lon="2.08644">
        <ele>42.9</ele>
        <time>2016-02-21T13:10:21Z</time>
      </trkpt>
      <trkpt lat="49.07803" lon="2.08638">
        <ele>42.5</ele>
        <time>2016-02-21T13:10:28Z</time>
      </trkpt>
      <trkpt lat="49.07802" lon="2.08637">
        <ele>42.4</ele>
        <time>2016-02-21T13:10:35Z</time>
      </trkpt>
      <trkpt lat="49.07804" lon="2.08635">
        <ele>42.8</ele>
        <time>2016-02-21T13:11:02Z</time>
      </trkpt>
      <trkpt lat="49.07811" lon="2.08633">
        <ele>44.2</ele>
        <time>2016-02-21T13:11:33Z</time>
      </trkpt>
      <trkpt lat="49.07819" lon="2.08629">
        <ele>44.5</ele>
        <time>2016-02-21T13:11:46Z</time>
      </trkpt>
      <trkpt lat="49.07825" lon="2.08631">
        <ele>44.6</ele>
        <time>2016-02-21T13:11:53Z</time>
      </trkpt>
      <trkpt lat="49.07826" lon="2.08628">
        <ele>45.1</ele>
        <time>2016-02-21T13:12:00Z</time>
      </trkpt>
      <trkpt lat="49.07823" lon="2.0863">
        <ele>46</ele>
        <time>2016-02-21T13:12:21Z</time>
      </trkpt>
      <trkpt lat="49.0783" lon="2.08624">
        <ele>46.3</ele>
        <time>2016-02-21T13:12:07Z</time>
      </trkpt>
      <trkpt lat="49.07836" lon="2.08623">
        <ele>46.8</ele>
        <time>2016-02-21T13:13:19Z</time>
      </trkpt>
      <trkpt lat="49.07844" lon="2.08622">
        <ele>47.1</ele>
        <time>2016-02-21T13:13:24Z</time>
      </trkpt>
      <trkpt lat="49.07851" lon="2.08621">
        <ele>47.1</ele>
        <time>2016-02-21T13:13:29Z</time>
      </trkpt>
      <trkpt lat="49.07858" lon="2.08616">
        <ele>46.9</ele>
        <time>2016-02-21T13:13:36Z</time>
      </trkpt>
      <trkpt lat="49.07861" lon="2.08615">
        <ele>46.7</ele>
        <time>2016-02-21T13:13:43Z</time>
      </trkpt>
      <trkpt lat="49.07868" lon="2.08613">
        <ele>46.9</ele>
        <time>2016-02-21T13:13:50Z</time>
      </trkpt>
      <trkpt lat="49.07877" lon="2.08614">
        <ele>48</ele>
        <time>2016-02-21T13:13:57Z</time>
      </trkpt>
      <trkpt lat="49.07884" lon="2.08615">
        <ele>48.5</ele>
        <time>2016-02-21T13:14:01Z</time>
      </trkpt>
      <trkpt lat="49.07892" lon="2.08616">
        <ele>48.9</ele>
        <time>2016-02-21T13:14:05Z</time>
      </trkpt>
      <trkpt lat="49.079" lon="2.08616">
        <ele>49.4</ele>
        <time>2016-02-21T13:14:10Z</time>
      </trkpt>
      <trkpt lat="49.07906" lon="2.08617">
        <ele>49.8</ele>
        <time>2016-02-21T13:14:17Z</time>
      </trkpt>
      <trkpt lat="49.07914" lon="2.08619">
        <ele>51.1</ele>
        <time>2016-02-21T13:14:24Z</time>
      </trkpt>
      <trkpt lat="49.07922" lon="2.0862">
        <ele>51.8</ele>
        <time>2016-02-21T13:14:30Z</time>
      </trkpt>
      <trkpt lat="49.07929" lon="2.08622">
        <ele>52.1</ele>
        <time>2016-02-21T13:14:35Z</time>
      </trkpt>
      <trkpt lat="49.07936" lon="2.08626">
        <ele>53.3</ele>
        <time>2016-02-21T13:14:40Z</time>
      </trkpt>
      <trkpt lat="49.07944" lon="2.08629">
        <ele>54.8</ele>
        <time>2016-02-21T13:14:46Z</time>
      </trkpt>
      <trkpt lat="49.07952" lon="2.08631">
        <ele>56.1</ele>
        <time>2016-02-21T13:14:53Z</time>
      </trkpt>
      <trkpt lat="49.07958" lon="2.08634">
        <ele>56.5</ele>
        <time>2016-02-21T13:15:00Z</time>
      </trkpt>
      <trkpt lat="49.07965" lon="2.08635">
        <ele>56.5</ele>
        <time>2016-02-21T13:15:05Z</time>
      </trkpt>
      <trkpt lat="49.07973" lon="2.08637">
        <ele>57.5</ele>
        <time>2016-02-21T13:15:10Z</time>
      </trkpt>
      <trkpt lat="49.0798" lon="2.08639">
        <ele>58.7</ele>
        <time>2016-02-21T13:15:16Z</time>
      </trkpt>
      <trkpt lat="49.07988" lon="2.08642">
        <ele>59.7</ele>
        <time>2016-02-21T13:15:21Z</time>
      </trkpt>
      <trkpt lat="49.07995" lon="2.08645">
        <ele>61.3</ele>
        <time>2016-02-21T13:15:27Z</time>
      </trkpt>
      <trkpt lat="49.08003" lon="2.08646">
        <ele>62.3</ele>
        <time>2016-02-21T13:15:34Z</time>
      </trkpt>
      <trkpt lat="49.08011" lon="2.08648">
        <ele>61.3</ele>
        <time>2016-02-21T13:15:41Z</time>
      </trkpt>
      <trkpt lat="49.08019" lon="2.08651">
        <ele>61.1</ele>
        <time>2016-02-21T13:15:46Z</time>
      </trkpt>
      <trkpt lat="49.08027" lon="2.08652">
        <ele>62.5</ele>
        <time>2016-02-21T13:15:53Z</time>
      </trkpt>
      <trkpt lat="49.08034" lon="2.08653">
        <ele>63.1</ele>
        <time>2016-02-21T13:15:58Z</time>
      </trkpt>
      <trkpt lat="49.08042" lon="2.08656">
        <ele>63.3</ele>
        <time>2016-02-21T13:16:04Z</time>
      </trkpt>
      <trkpt lat="49.08049" lon="2.08659">
        <ele>63</ele>
        <time>2016-02-21T13:16:10Z</time>
      </trkpt>
      <trkpt lat="49.08056" lon="2.08657">
        <ele>62.6</ele>
        <time>2016-02-21T13:16:16Z</time>
      </trkpt>
      <trkpt lat="49.08065" lon="2.08656">
        <ele>61.4</ele>
        <time>2016-02-21T13:16:21Z</time>
      </trkpt>
      <trkpt lat="49.08073" lon="2.08652">
        <ele>60.5</ele>
        <time>2016-02-21T13:16:25Z</time>
      </trkpt>
      <trkpt lat="49.08079" lon="2.08649">
        <ele>59.9</ele>
        <time>2016-02-21T13:16:32Z</time>
      </trkpt>
      <trkpt lat="49.08086" lon="2.08642">
        <ele>58</ele>
        <time>2016-02-21T13:16:39Z</time>
      </trkpt>
      <trkpt lat="49.08089" lon="2.08638">
        <ele>56.7</ele>
        <time>2016-02-21T13:16:46Z</time>
      </trkpt>
      <trkpt lat="49.08093" lon="2.08638">
        <ele>54.2</ele>
        <time>2016-02-21T13:17:26Z</time>
      </trkpt>
      <trkpt lat="49.08098" lon="2.08629">
        <ele>53.3</ele>
        <time>2016-02-21T13:17:33Z</time>
      </trkpt>
      <trkpt lat="49.08103" lon="2.08621">
        <ele>52.9</ele>
        <time>2016-02-21T13:17:40Z</time>
      </trkpt>
      <trkpt lat="49.08109" lon="2.08613">
        <ele>52.4</ele>
        <time>2016-02-21T13:17:47Z</time>
      </trkpt>
      <trkpt lat="49.08115" lon="2.08604">
        <ele>52.4</ele>
        <time>2016-02-21T13:17:52Z</time>
      </trkpt>
      <trkpt lat="49.08122" lon="2.086">
        <ele>52.6</ele>
        <time>2016-02-21T13:17:58Z</time>
      </trkpt>
      <trkpt lat="49.08129" lon="2.08593">
        <ele>52.2</ele>
        <time>2016-02-21T13:18:05Z</time>
      </trkpt>
      <trkpt lat="49.08134" lon="2.08586">
        <ele>52.1</ele>
        <time>2016-02-21T13:18:12Z</time>
      </trkpt>
      <trkpt lat="49.08142" lon="2.08579">
        <ele>52.6</ele>
        <time>2016-02-21T13:18:19Z</time>
      </trkpt>
      <trkpt lat="49.08152" lon="2.08575">
        <ele>52.3</ele>
        <time>2016-02-21T13:18:26Z</time>
      </trkpt>
      <trkpt lat="49.0816" lon="2.0857">
        <ele>52.2</ele>
        <time>2016-02-21T13:18:30Z</time>
      </trkpt>
      <trkpt lat="49.08167" lon="2.08566">
        <ele>52.3</ele>
        <time>2016-02-21T13:18:37Z</time>
      </trkpt>
      <trkpt lat="49.08174" lon="2.0856">
        <ele>52.6</ele>
        <time>2016-02-21T13:18:42Z</time>
      </trkpt>
      <trkpt lat="49.08181" lon="2.08555">
        <ele>52.5</ele>
        <time>2016-02-21T13:18:48Z</time>
      </trkpt>
      <trkpt lat="49.08187" lon="2.08547">
        <ele>51.8</ele>
        <time>2016-02-21T13:18:54Z</time>
      </trkpt>
      <trkpt lat="49.08192" lon="2.08539">
        <ele>51.8</ele>
        <time>2016-02-21T13:18:59Z</time>
      </trkpt>
      <trkpt lat="49.08196" lon="2.0853">
        <ele>51.8</ele>
        <time>2016-02-21T13:19:05Z</time>
      </trkpt>
      <trkpt lat="49.08203" lon="2.08521">
        <ele>51.5</ele>
        <time>2016-02-21T13:19:12Z</time>
      </trkpt>
      <trkpt lat="49.08209" lon="2.08515">
        <ele>51.2</ele>
        <time>2016-02-21T13:19:18Z</time>
      </trkpt>
      <trkpt lat="49.08217" lon="2.08509">
        <ele>50.9</ele>
        <time>2016-02-21T13:19:24Z</time>
      </trkpt>
      <trkpt lat="49.08224" lon="2.08503">
        <ele>51.5</ele>
        <time>2016-02-21T13:19:30Z</time>
      </trkpt>
      <trkpt lat="49.08231" lon="2.08497">
        <ele>51.6</ele>
        <time>2016-02-21T13:19:37Z</time>
      </trkpt>
      <trkpt lat="49.08238" lon="2.08492">
        <ele>50.9</ele>
        <time>2016-02-21T13:19:44Z</time>
      </trkpt>
      <trkpt lat="49.08245" lon="2.08488">
        <ele>50.1</ele>
        <time>2016-02-21T13:19:51Z</time>
      </trkpt>
      <trkpt lat="49.08252" lon="2.08484">
        <ele>50.1</ele>
        <time>2016-02-21T13:19:57Z</time>
      </trkpt>
      <trkpt lat="49.08258" lon="2.08477">
        <ele>50.1</ele>
        <time>2016-02-21T13:20:02Z</time>
      </trkpt>
      <trkpt lat="49.08265" lon="2.08469">
        <ele>49.8</ele>
        <time>2016-02-21T13:20:08Z</time>
      </trkpt>
      <trkpt lat="49.08271" lon="2.08464">
        <ele>49.7</ele>
        <time>2016-02-21T13:20:14Z</time>
      </trkpt>
      <trkpt lat="49.08279" lon="2.08458">
        <ele>49.3</ele>
        <time>2016-02-21T13:20:19Z</time>
      </trkpt>
      <trkpt lat="49.08285" lon="2.08452">
        <ele>49.5</ele>
        <time>2016-02-21T13:20:25Z</time>
      </trkpt>
      <trkpt lat="49.08291" lon="2.08445">
        <ele>49.8</ele>
        <time>2016-02-21T13:20:31Z</time>
      </trkpt>
      <trkpt lat="49.08298" lon="2.08441">
        <ele>50.2</ele>
        <time>2016-02-21T13:20:37Z</time>
      </trkpt>
      <trkpt lat="49.08305" lon="2.08435">
        <ele>50.9</ele>
        <time>2016-02-21T13:20:44Z</time>
      </trkpt>
      <trkpt lat="49.08312" lon="2.0843">
        <ele>51.4</ele>
        <time>2016-02-21T13:20:50Z</time>
      </trkpt>
      <trkpt lat="49.08316" lon="2.08425">
        <ele>52.1</ele>
        <time>2016-02-21T13:20:57Z</time>
      </trkpt>
      <trkpt lat="49.08321" lon="2.08416">
        <ele>52.5</ele>
        <time>2016-02-21T13:21:03Z</time>
      </trkpt>
      <trkpt lat="49.08329" lon="2.08413">
        <ele>53</ele>
        <time>2016-02-21T13:21:07Z</time>
      </trkpt>
      <trkpt lat="49.08335" lon="2.08407">
        <ele>53.2</ele>
        <time>2016-02-21T13:21:12Z</time>
      </trkpt>
      <trkpt lat="49.08343" lon="2.08402">
        <ele>53.4</ele>
        <time>2016-02-21T13:21:17Z</time>
      </trkpt>
      <trkpt lat="49.0835" lon="2.08396">
        <ele>53.4</ele>
        <time>2016-02-21T13:21:24Z</time>
      </trkpt>
      <trkpt lat="49.08357" lon="2.08389">
        <ele>53.1</ele>
        <time>2016-02-21T13:21:30Z</time>
      </trkpt>
      <trkpt lat="49.08364" lon="2.08385">
        <ele>53</ele>
        <time>2016-02-21T13:21:36Z</time>
      </trkpt>
      <trkpt lat="49.08371" lon="2.08383">
        <ele>53.1</ele>
        <time>2016-02-21T13:21:41Z</time>
      </trkpt>
      <trkpt lat="49.08379" lon="2.08381">
        <ele>52.9</ele>
        <time>2016-02-21T13:21:48Z</time>
      </trkpt>
      <trkpt lat="49.08387" lon="2.08378">
        <ele>53.4</ele>
        <time>2016-02-21T13:21:55Z</time>
      </trkpt>
      <trkpt lat="49.08395" lon="2.08378">
        <ele>53.4</ele>
        <time>2016-02-21T13:21:59Z</time>
      </trkpt>
      <trkpt lat="49.08402" lon="2.08373">
        <ele>53.4</ele>
        <time>2016-02-21T13:22:06Z</time>
      </trkpt>
      <trkpt lat="49.0841" lon="2.08372">
        <ele>53.3</ele>
        <time>2016-02-21T13:22:11Z</time>
      </trkpt>
      <trkpt lat="49.08415" lon="2.08373">
        <ele>53.5</ele>
        <time>2016-02-21T13:22:18Z</time>
      </trkpt>
      <trkpt lat="49.08422" lon="2.08376">
        <ele>53.6</ele>
        <time>2016-02-21T13:22:25Z</time>
      </trkpt>
      <trkpt lat="49.08426" lon="2.08386">
        <ele>54.4</ele>
        <time>2016-02-21T13:22:31Z</time>
      </trkpt>
      <trkpt lat="49.08424" lon="2.08398">
        <ele>55</ele>
        <time>2016-02-21T13:22:38Z</time>
      </trkpt>
      <trkpt lat="49.0842" lon="2.08408">
        <ele>54.8</ele>
        <time>2016-02-21T13:22:45Z</time>
      </trkpt>
      <trkpt lat="49.08425" lon="2.08416">
        <ele>53.1</ele>
        <time>2016-02-21T13:22:52Z</time>
      </trkpt>
      <trkpt lat="49.08433" lon="2.08417">
        <ele>53.1</ele>
        <time>2016-02-21T13:22:58Z</time>
      </trkpt>
      <trkpt lat="49.0844" lon="2.08413">
        <ele>52.8</ele>
        <time>2016-02-21T13:23:05Z</time>
      </trkpt>
      <trkpt lat="49.08446" lon="2.08416">
        <ele>53</ele>
        <time>2016-02-21T13:23:12Z</time>
      </trkpt>
      <trkpt lat="49.08453" lon="2.08409">
        <ele>53.8</ele>
        <time>2016-02-21T13:23:18Z</time>
      </trkpt>
      <trkpt lat="49.08459" lon="2.08405">
        <ele>53.7</ele>
        <time>2016-02-21T13:23:25Z</time>
      </trkpt>
      <trkpt lat="49.08467" lon="2.08403">
        <ele>53.9</ele>
        <time>2016-02-21T13:23:32Z</time>
      </trkpt>
      <trkpt lat="49.08475" lon="2.08399">
        <ele>53.6</ele>
        <time>2016-02-21T13:23:39Z</time>
      </trkpt>
      <trkpt lat="49.08483" lon="2.08396">
        <ele>52.5</ele>
        <time>2016-02-21T13:23:46Z</time>
      </trkpt>
      <trkpt lat="49.0849" lon="2.08395">
        <ele>52.7</ele>
        <time>2016-02-21T13:23:50Z</time>
      </trkpt>
      <trkpt lat="49.08498" lon="2.08393">
        <ele>53.2</ele>
        <time>2016-02-21T13:23:56Z</time>
      </trkpt>
      <trkpt lat="49.08505" lon="2.08391">
        <ele>52.5</ele>
        <time>2016-02-21T13:24:03Z</time>
      </trkpt>
      <trkpt lat="49.08512" lon="2.08389">
        <ele>52</ele>
        <time>2016-02-21T13:24:10Z</time>
      </trkpt>
      <trkpt lat="49.08519" lon="2.08384">
        <ele>51.4</ele>
        <time>2016-02-21T13:24:17Z</time>
      </trkpt>
      <trkpt lat="49.08527" lon="2.08383">
        <ele>50.8</ele>
        <time>2016-02-21T13:24:23Z</time>
      </trkpt>
      <trkpt lat="49.08533" lon="2.08379">
        <ele>49.6</ele>
        <time>2016-02-21T13:24:30Z</time>
      </trkpt>
      <trkpt lat="49.08539" lon="2.08377">
        <ele>50.5</ele>
        <time>2016-02-21T13:24:37Z</time>
      </trkpt>
      <trkpt lat="49.08547" lon="2.08375">
        <ele>50.9</ele>
        <time>2016-02-21T13:24:41Z</time>
      </trkpt>
      <trkpt lat="49.08555" lon="2.08371">
        <ele>51.5</ele>
        <time>2016-02-21T13:24:47Z</time>
      </trkpt>
      <trkpt lat="49.08563" lon="2.08372">
        <ele>52.2</ele>
        <time>2016-02-21T13:24:53Z</time>
      </trkpt>
      <trkpt lat="49.08571" lon="2.08374">
        <ele>52.9</ele>
        <time>2016-02-21T13:25:00Z</time>
      </trkpt>
      <trkpt lat="49.08578" lon="2.08377">
        <ele>53.5</ele>
        <time>2016-02-21T13:25:05Z</time>
      </trkpt>
      <trkpt lat="49.08586" lon="2.08377">
        <ele>54.4</ele>
        <time>2016-02-21T13:25:11Z</time>
      </trkpt>
      <trkpt lat="49.08594" lon="2.0838">
        <ele>55.9</ele>
        <time>2016-02-21T13:25:18Z</time>
      </trkpt>
      <trkpt lat="49.08601" lon="2.08383">
        <ele>56.8</ele>
        <time>2016-02-21T13:25:23Z</time>
      </trkpt>
      <trkpt lat="49.08609" lon="2.08385">
        <ele>57.3</ele>
        <time>2016-02-21T13:25:29Z</time>
      </trkpt>
      <trkpt lat="49.08616" lon="2.08386">
        <ele>58.9</ele>
        <time>2016-02-21T13:25:36Z</time>
      </trkpt>
      <trkpt lat="49.08625" lon="2.08388">
        <ele>60.8</ele>
        <time>2016-02-21T13:25:43Z</time>
      </trkpt>
      <trkpt lat="49.08633" lon="2.08391">
        <ele>61.2</ele>
        <time>2016-02-21T13:25:49Z</time>
      </trkpt>
      <trkpt lat="49.0864" lon="2.08396">
        <ele>61.9</ele>
        <time>2016-02-21T13:25:54Z</time>
      </trkpt>
      <trkpt lat="49.08648" lon="2.08398">
        <ele>62.1</ele>
        <time>2016-02-21T13:26:00Z</time>
      </trkpt>
      <trkpt lat="49.08656" lon="2.08401">
        <ele>62</ele>
        <time>2016-02-21T13:26:06Z</time>
      </trkpt>
      <trkpt lat="49.08663" lon="2.08403">
        <ele>61.8</ele>
        <time>2016-02-21T13:26:12Z</time>
      </trkpt>
      <trkpt lat="49.08671" lon="2.08404">
        <ele>62.1</ele>
        <time>2016-02-21T13:26:18Z</time>
      </trkpt>
      <trkpt lat="49.0868" lon="2.08403">
        <ele>62.7</ele>
        <time>2016-02-21T13:26:24Z</time>
      </trkpt>
      <trkpt lat="49.08687" lon="2.08405">
        <ele>62.9</ele>
        <time>2016-02-21T13:26:29Z</time>
      </trkpt>
      <trkpt lat="49.08694" lon="2.08407">
        <ele>64.1</ele>
        <time>2016-02-21T13:26:35Z</time>
      </trkpt>
      <trkpt lat="49.08702" lon="2.08411">
        <ele>64.6</ele>
        <time>2016-02-21T13:26:42Z</time>
      </trkpt>
      <trkpt lat="49.0871" lon="2.08415">
        <ele>64.7</ele>
        <time>2016-02-21T13:26:48Z</time>
      </trkpt>
      <trkpt lat="49.08717" lon="2.08418">
        <ele>65.4</ele>
        <time>2016-02-21T13:26:55Z</time>
      </trkpt>
      <trkpt lat="49.08724" lon="2.08422">
        <ele>66.2</ele>
        <time>2016-02-21T13:27:01Z</time>
      </trkpt>
      <trkpt lat="49.08732" lon="2.08426">
        <ele>67.4</ele>
        <time>2016-02-21T13:27:08Z</time>
      </trkpt>
      <trkpt lat="49.0874" lon="2.08428">
        <ele>68.3</ele>
        <time>2016-02-21T13:27:13Z</time>
      </trkpt>
      <trkpt lat="49.08748" lon="2.08431">
        <ele>68.3</ele>
        <time>2016-02-21T13:27:20Z</time>
      </trkpt>
      <trkpt lat="49.08755" lon="2.08437">
        <ele>68.4</ele>
        <time>2016-02-21T13:27:25Z</time>
      </trkpt>
      <trkpt lat="49.08763" lon="2.08443">
        <ele>68.1</ele>
        <time>2016-02-21T13:27:31Z</time>
      </trkpt>
      <trkpt lat="49.08771" lon="2.08446">
        <ele>68.2</ele>
        <time>2016-02-21T13:27:36Z</time>
      </trkpt>
      <trkpt lat="49.08777" lon="2.08451">
        <ele>68.7</ele>
        <time>2016-02-21T13:27:43Z</time>
      </trkpt>
      <trkpt lat="49.08785" lon="2.08456">
        <ele>69.3</ele>
        <time>2016-02-21T13:27:49Z</time>
      </trkpt>
      <trkpt lat="49.08793" lon="2.08461">
        <ele>69.8</ele>
        <time>2016-02-21T13:27:56Z</time>
      </trkpt>
      <trkpt lat="49.08801" lon="2.08467">
        <ele>70</ele>
        <time>2016-02-21T13:28:01Z</time>
      </trkpt>
      <trkpt lat="49.08806" lon="2.08472">
        <ele>69.8</ele>
        <time>2016-02-21T13:28:08Z</time>
      </trkpt>
      <trkpt lat="49.08813" lon="2.08479">
        <ele>70.7</ele>
        <time>2016-02-21T13:28:13Z</time>
      </trkpt>
      <trkpt lat="49.0882" lon="2.08487">
        <ele>71.5</ele>
        <time>2016-02-21T13:28:18Z</time>
      </trkpt>
      <trkpt lat="49.08825" lon="2.08496">
        <ele>72.4</ele>
        <time>2016-02-21T13:28:24Z</time>
      </trkpt>
      <trkpt lat="49.08832" lon="2.08501">
        <ele>73.1</ele>
        <time>2016-02-21T13:28:30Z</time>
      </trkpt>
      <trkpt lat="49.08838" lon="2.08509">
        <ele>73.6</ele>
        <time>2016-02-21T13:28:36Z</time>
      </trkpt>
      <trkpt lat="49.08844" lon="2.08516">
        <ele>74.1</ele>
        <time>2016-02-21T13:28:42Z</time>
      </trkpt>
      <trkpt lat="49.08849" lon="2.08525">
        <ele>74.9</ele>
        <time>2016-02-21T13:28:49Z</time>
      </trkpt>
      <trkpt lat="49.08855" lon="2.08533">
        <ele>75.7</ele>
        <time>2016-02-21T13:28:56Z</time>
      </trkpt>
      <trkpt lat="49.08862" lon="2.08539">
        <ele>76.4</ele>
        <time>2016-02-21T13:29:03Z</time>
      </trkpt>
      <trkpt lat="49.08867" lon="2.08546">
        <ele>76.6</ele>
        <time>2016-02-21T13:29:10Z</time>
      </trkpt>
      <trkpt lat="49.08874" lon="2.08553">
        <ele>77.2</ele>
        <time>2016-02-21T13:29:17Z</time>
      </trkpt>
      <trkpt lat="49.08877" lon="2.08561">
        <ele>77.6</ele>
        <time>2016-02-21T13:29:24Z</time>
      </trkpt>
      <trkpt lat="49.08881" lon="2.08568">
        <ele>78</ele>
        <time>2016-02-21T13:29:31Z</time>
      </trkpt>
      <trkpt lat="49.08888" lon="2.08576">
        <ele>78.7</ele>
        <time>2016-02-21T13:29:38Z</time>
      </trkpt>
      <trkpt lat="49.08894" lon="2.08581">
        <ele>79.7</ele>
        <time>2016-02-21T13:29:45Z</time>
      </trkpt>
      <trkpt lat="49.08899" lon="2.08587">
        <ele>80.4</ele>
        <time>2016-02-21T13:29:52Z</time>
      </trkpt>
      <trkpt lat="49.08903" lon="2.08593">
        <ele>80.9</ele>
        <time>2016-02-21T13:29:59Z</time>
      </trkpt>
      <trkpt lat="49.08908" lon="2.08601">
        <ele>81.2</ele>
        <time>2016-02-21T13:30:05Z</time>
      </trkpt>
      <trkpt lat="49.08915" lon="2.08608">
        <ele>82</ele>
        <time>2016-02-21T13:30:10Z</time>
      </trkpt>
      <trkpt lat="49.08921" lon="2.08615">
        <ele>83.1</ele>
        <time>2016-02-21T13:30:17Z</time>
      </trkpt>
      <trkpt lat="49.08928" lon="2.08623">
        <ele>84.4</ele>
        <time>2016-02-21T13:30:23Z</time>
      </trkpt>
      <trkpt lat="49.08935" lon="2.08631">
        <ele>84.7</ele>
        <time>2016-02-21T13:30:29Z</time>
      </trkpt>
      <trkpt lat="49.08939" lon="2.0864">
        <ele>85</ele>
        <time>2016-02-21T13:30:36Z</time>
      </trkpt>
      <trkpt lat="49.08943" lon="2.08647">
        <ele>85.3</ele>
        <time>2016-02-21T13:30:43Z</time>
      </trkpt>
      <trkpt lat="49.08948" lon="2.08656">
        <ele>86.2</ele>
        <time>2016-02-21T13:30:50Z</time>
      </trkpt>
      <trkpt lat="49.08951" lon="2.08662">
        <ele>86.8</ele>
        <time>2016-02-21T13:30:57Z</time>
      </trkpt>
      <trkpt lat="49.08956" lon="2.0867">
        <ele>87.1</ele>
        <time>2016-02-21T13:31:04Z</time>
      </trkpt>
      <trkpt lat="49.0896" lon="2.0868">
        <ele>87.4</ele>
        <time>2016-02-21T13:31:10Z</time>
      </trkpt>
      <trkpt lat="49.08966" lon="2.08689">
        <ele>87.5</ele>
        <time>2016-02-21T13:31:16Z</time>
      </trkpt>
      <trkpt lat="49.0897" lon="2.08697">
        <ele>86.8</ele>
        <time>2016-02-21T13:31:20Z</time>
      </trkpt>
      <trkpt lat="49.08974" lon="2.08709">
        <ele>86.7</ele>
        <time>2016-02-21T13:31:24Z</time>
      </trkpt>
      <trkpt lat="49.08979" lon="2.0872">
        <ele>86.9</ele>
        <time>2016-02-21T13:31:29Z</time>
      </trkpt>
      <trkpt lat="49.08983" lon="2.0873">
        <ele>86.4</ele>
        <time>2016-02-21T13:31:35Z</time>
      </trkpt>
      <trkpt lat="49.08988" lon="2.08739">
        <ele>86.3</ele>
        <time>2016-02-21T13:31:42Z</time>
      </trkpt>
      <trkpt lat="49.08992" lon="2.08748">
        <ele>85.9</ele>
        <time>2016-02-21T13:31:48Z</time>
      </trkpt>
      <trkpt lat="49.08995" lon="2.08754">
        <ele>85.5</ele>
        <time>2016-02-21T13:31:55Z</time>
      </trkpt>
      <trkpt lat="49.08996" lon="2.08755">
        <ele>81.9</ele>
        <time>2016-02-21T13:33:03Z</time>
      </trkpt>
      <trkpt lat="49.08998" lon="2.08763">
        <ele>80.1</ele>
        <time>2016-02-21T13:36:07Z</time>
      </trkpt>
      <trkpt lat="49.09002" lon="2.08773">
        <ele>79.4</ele>
        <time>2016-02-21T13:36:14Z</time>
      </trkpt>
      <trkpt lat="49.09006" lon="2.08784">
        <ele>78.7</ele>
        <time>2016-02-21T13:36:20Z</time>
      </trkpt>
      <trkpt lat="49.09008" lon="2.08795">
        <ele>78.2</ele>
        <time>2016-02-21T13:36:26Z</time>
      </trkpt>
      <trkpt lat="49.0901" lon="2.08806">
        <ele>77.9</ele>
        <time>2016-02-21T13:36:32Z</time>
      </trkpt>
      <trkpt lat="49.09013" lon="2.08817">
        <ele>77.5</ele>
        <time>2016-02-21T13:36:38Z</time>
      </trkpt>
      <trkpt lat="49.09015" lon="2.08827">
        <ele>77.1</ele>
        <time>2016-02-21T13:36:45Z</time>
      </trkpt>
      <trkpt lat="49.09019" lon="2.08837">
        <ele>77</ele>
        <time>2016-02-21T13:36:50Z</time>
      </trkpt>
      <trkpt lat="49.09022" lon="2.08848">
        <ele>76.5</ele>
        <time>2016-02-21T13:36:56Z</time>
      </trkpt>
      <trkpt lat="49.09025" lon="2.08859">
        <ele>76.1</ele>
        <time>2016-02-21T13:37:03Z</time>
      </trkpt>
      <trkpt lat="49.09028" lon="2.08872">
        <ele>75.5</ele>
        <time>2016-02-21T13:37:10Z</time>
      </trkpt>
      <trkpt lat="49.09032" lon="2.08882">
        <ele>75.3</ele>
        <time>2016-02-21T13:37:16Z</time>
      </trkpt>
      <trkpt lat="49.09035" lon="2.08894">
        <ele>75.1</ele>
        <time>2016-02-21T13:37:23Z</time>
      </trkpt>
      <trkpt lat="49.09037" lon="2.08905">
        <ele>74.8</ele>
        <time>2016-02-21T13:37:29Z</time>
      </trkpt>
      <trkpt lat="49.09041" lon="2.08916">
        <ele>74.3</ele>
        <time>2016-02-21T13:37:35Z</time>
      </trkpt>
      <trkpt lat="49.09043" lon="2.08926">
        <ele>74.3</ele>
        <time>2016-02-21T13:37:42Z</time>
      </trkpt>
      <trkpt lat="49.09044" lon="2.08939">
        <ele>74.3</ele>
        <time>2016-02-21T13:37:48Z</time>
      </trkpt>
      <trkpt lat="49.09046" lon="2.08951">
        <ele>74.1</ele>
        <time>2016-02-21T13:37:55Z</time>
      </trkpt>
      <trkpt lat="49.09049" lon="2.08962">
        <ele>73.5</ele>
        <time>2016-02-21T13:38:00Z</time>
      </trkpt>
      <trkpt lat="49.09051" lon="2.08973">
        <ele>72.6</ele>
        <time>2016-02-21T13:38:07Z</time>
      </trkpt>
      <trkpt lat="49.09053" lon="2.08984">
        <ele>72.6</ele>
        <time>2016-02-21T13:38:13Z</time>
      </trkpt>
      <trkpt lat="49.09059" lon="2.08993">
        <ele>72.1</ele>
        <time>2016-02-21T13:38:19Z</time>
      </trkpt>
      <trkpt lat="49.09062" lon="2.09004">
        <ele>72.1</ele>
        <time>2016-02-21T13:38:25Z</time>
      </trkpt>
      <trkpt lat="49.09067" lon="2.09015">
        <ele>71.4</ele>
        <time>2016-02-21T13:38:32Z</time>
      </trkpt>
      <trkpt lat="49.09073" lon="2.09023">
        <ele>71.3</ele>
        <time>2016-02-21T13:38:38Z</time>
      </trkpt>
      <trkpt lat="49.09079" lon="2.09029">
        <ele>71.5</ele>
        <time>2016-02-21T13:38:43Z</time>
      </trkpt>
      <trkpt lat="49.09087" lon="2.09034">
        <ele>71.9</ele>
        <time>2016-02-21T13:38:49Z</time>
      </trkpt>
      <trkpt lat="49.09093" lon="2.09041">
        <ele>72.3</ele>
        <time>2016-02-21T13:38:55Z</time>
      </trkpt>
      <trkpt lat="49.09099" lon="2.09049">
        <ele>72.5</ele>
        <time>2016-02-21T13:39:01Z</time>
      </trkpt>
      <trkpt lat="49.09104" lon="2.09056">
        <ele>73</ele>
        <time>2016-02-21T13:39:08Z</time>
      </trkpt>
      <trkpt lat="49.0911" lon="2.09063">
        <ele>73.5</ele>
        <time>2016-02-21T13:39:13Z</time>
      </trkpt>
      <trkpt lat="49.09118" lon="2.09067">
        <ele>74.1</ele>
        <time>2016-02-21T13:39:18Z</time>
      </trkpt>
      <trkpt lat="49.09124" lon="2.09072">
        <ele>74.2</ele>
        <time>2016-02-21T13:39:23Z</time>
      </trkpt>
      <trkpt lat="49.09131" lon="2.09079">
        <ele>74.4</ele>
        <time>2016-02-21T13:39:28Z</time>
      </trkpt>
      <trkpt lat="49.09136" lon="2.09086">
        <ele>74.6</ele>
        <time>2016-02-21T13:39:34Z</time>
      </trkpt>
      <trkpt lat="49.09143" lon="2.09091">
        <ele>75</ele>
        <time>2016-02-21T13:39:39Z</time>
      </trkpt>
      <trkpt lat="49.09151" lon="2.09097">
        <ele>75.5</ele>
        <time>2016-02-21T13:39:46Z</time>
      </trkpt>
      <trkpt lat="49.09158" lon="2.09103">
        <ele>75.8</ele>
        <time>2016-02-21T13:39:51Z</time>
      </trkpt>
      <trkpt lat="49.09163" lon="2.09112">
        <ele>76.6</ele>
        <time>2016-02-21T13:39:57Z</time>
      </trkpt>
      <trkpt lat="49.09171" lon="2.0912">
        <ele>77.1</ele>
        <time>2016-02-21T13:40:03Z</time>
      </trkpt>
      <trkpt lat="49.09177" lon="2.09124">
        <ele>78</ele>
        <time>2016-02-21T13:40:10Z</time>
      </trkpt>
      <trkpt lat="49.09181" lon="2.09129">
        <ele>79.3</ele>
        <time>2016-02-21T13:40:17Z</time>
      </trkpt>
      <trkpt lat="49.09184" lon="2.09131">
        <ele>79.7</ele>
        <time>2016-02-21T13:40:24Z</time>
      </trkpt>
      <trkpt lat="49.0919" lon="2.09136">
        <ele>80.6</ele>
        <time>2016-02-21T13:40:31Z</time>
      </trkpt>
      <trkpt lat="49.09196" lon="2.09142">
        <ele>80.7</ele>
        <time>2016-02-21T13:40:37Z</time>
      </trkpt>
      <trkpt lat="49.09202" lon="2.09151">
        <ele>80.9</ele>
        <time>2016-02-21T13:40:43Z</time>
      </trkpt>
      <trkpt lat="49.09208" lon="2.09157">
        <ele>80.7</ele>
        <time>2016-02-21T13:40:50Z</time>
      </trkpt>
      <trkpt lat="49.09215" lon="2.09163">
        <ele>80.8</ele>
        <time>2016-02-21T13:40:55Z</time>
      </trkpt>
      <trkpt lat="49.09223" lon="2.09168">
        <ele>80.7</ele>
        <time>2016-02-21T13:41:02Z</time>
      </trkpt>
      <trkpt lat="49.0923" lon="2.09173">
        <ele>80.5</ele>
        <time>2016-02-21T13:41:08Z</time>
      </trkpt>
      <trkpt lat="49.09236" lon="2.09181">
        <ele>80.9</ele>
        <time>2016-02-21T13:41:14Z</time>
      </trkpt>
      <trkpt lat="49.09242" lon="2.09188">
        <ele>80.7</ele>
        <time>2016-02-21T13:41:21Z</time>
      </trkpt>
      <trkpt lat="49.09248" lon="2.09195">
        <ele>80.8</ele>
        <time>2016-02-21T13:41:27Z</time>
      </trkpt>
      <trkpt lat="49.09255" lon="2.092">
        <ele>81.2</ele>
        <time>2016-02-21T13:41:32Z</time>
      </trkpt>
      <trkpt lat="49.09261" lon="2.09207">
        <ele>81.3</ele>
        <time>2016-02-21T13:41:39Z</time>
      </trkpt>
      <trkpt lat="49.09267" lon="2.09214">
        <ele>81.4</ele>
        <time>2016-02-21T13:41:44Z</time>
      </trkpt>
      <trkpt lat="49.09274" lon="2.0922">
        <ele>81.2</ele>
        <time>2016-02-21T13:41:51Z</time>
      </trkpt>
      <trkpt lat="49.0928" lon="2.09226">
        <ele>81.5</ele>
        <time>2016-02-21T13:41:57Z</time>
      </trkpt>
      <trkpt lat="49.09285" lon="2.09236">
        <ele>81.9</ele>
        <time>2016-02-21T13:42:04Z</time>
      </trkpt>
      <trkpt lat="49.09291" lon="2.09244">
        <ele>81.9</ele>
        <time>2016-02-21T13:42:09Z</time>
      </trkpt>
      <trkpt lat="49.09298" lon="2.09249">
        <ele>81.9</ele>
        <time>2016-02-21T13:42:16Z</time>
      </trkpt>
      <trkpt lat="49.09304" lon="2.09256">
        <ele>82</ele>
        <time>2016-02-21T13:42:23Z</time>
      </trkpt>
      <trkpt lat="49.0931" lon="2.09264">
        <ele>82</ele>
        <time>2016-02-21T13:42:29Z</time>
      </trkpt>
      <trkpt lat="49.09316" lon="2.09272">
        <ele>82.1</ele>
        <time>2016-02-21T13:42:35Z</time>
      </trkpt>
      <trkpt lat="49.0932" lon="2.09279">
        <ele>82.6</ele>
        <time>2016-02-21T13:42:42Z</time>
      </trkpt>
      <trkpt lat="49.09328" lon="2.09285">
        <ele>82.8</ele>
        <time>2016-02-21T13:42:48Z</time>
      </trkpt>
      <trkpt lat="49.09335" lon="2.0929">
        <ele>83.2</ele>
        <time>2016-02-21T13:42:54Z</time>
      </trkpt>
      <trkpt lat="49.09341" lon="2.09296">
        <ele>83.9</ele>
        <time>2016-02-21T13:43:00Z</time>
      </trkpt>
      <trkpt lat="49.09347" lon="2.09303">
        <ele>84.4</ele>
        <time>2016-02-21T13:43:05Z</time>
      </trkpt>
      <trkpt lat="49.09349" lon="2.09311">
        <ele>85.1</ele>
        <time>2016-02-21T13:43:12Z</time>
      </trkpt>
      <trkpt lat="49.09353" lon="2.09314">
        <ele>85.6</ele>
        <time>2016-02-21T13:43:19Z</time>
      </trkpt>
      <trkpt lat="49.09359" lon="2.09322">
        <ele>86.1</ele>
        <time>2016-02-21T13:43:24Z</time>
      </trkpt>
      <trkpt lat="49.09365" lon="2.0933">
        <ele>86.5</ele>
        <time>2016-02-21T13:43:29Z</time>
      </trkpt>
      <trkpt lat="49.0937" lon="2.09339">
        <ele>87.2</ele>
        <time>2016-02-21T13:43:36Z</time>
      </trkpt>
      <trkpt lat="49.09376" lon="2.09344">
        <ele>87.6</ele>
        <time>2016-02-21T13:43:41Z</time>
      </trkpt>
      <trkpt lat="49.09383" lon="2.09349">
        <ele>88.1</ele>
        <time>2016-02-21T13:43:46Z</time>
      </trkpt>
      <trkpt lat="49.0939" lon="2.09355">
        <ele>88.5</ele>
        <time>2016-02-21T13:43:51Z</time>
      </trkpt>
      <trkpt lat="49.09396" lon="2.09362">
        <ele>89.1</ele>
        <time>2016-02-21T13:43:58Z</time>
      </trkpt>
      <trkpt lat="49.09399" lon="2.09373">
        <ele>89.8</ele>
        <time>2016-02-21T13:44:05Z</time>
      </trkpt>
      <trkpt lat="49.09399" lon="2.09372">
        <ele>90.2</ele>
        <time>2016-02-21T13:44:12Z</time>
      </trkpt>
      <trkpt lat="49.09405" lon="2.09379">
        <ele>90.9</ele>
        <time>2016-02-21T13:44:43Z</time>
      </trkpt>
      <trkpt lat="49.09409" lon="2.09388">
        <ele>90.8</ele>
        <time>2016-02-21T13:44:50Z</time>
      </trkpt>
      <trkpt lat="49.09416" lon="2.09395">
        <ele>90.8</ele>
        <time>2016-02-21T13:44:54Z</time>
      </trkpt>
      <trkpt lat="49.0942" lon="2.09405">
        <ele>90.9</ele>
        <time>2016-02-21T13:44:58Z</time>
      </trkpt>
      <trkpt lat="49.09425" lon="2.09414">
        <ele>90.8</ele>
        <time>2016-02-21T13:45:04Z</time>
      </trkpt>
      <trkpt lat="49.09431" lon="2.0942">
        <ele>91.1</ele>
        <time>2016-02-21T13:45:10Z</time>
      </trkpt>
      <trkpt lat="49.09438" lon="2.09429">
        <ele>91.9</ele>
        <time>2016-02-21T13:45:17Z</time>
      </trkpt>
      <trkpt lat="49.09443" lon="2.09437">
        <ele>91.4</ele>
        <time>2016-02-21T13:45:22Z</time>
      </trkpt>
      <trkpt lat="49.0945" lon="2.09443">
        <ele>91.8</ele>
        <time>2016-02-21T13:45:27Z</time>
      </trkpt>
      <trkpt lat="49.09453" lon="2.09455">
        <ele>90.8</ele>
        <time>2016-02-21T13:45:34Z</time>
      </trkpt>
      <trkpt lat="49.09454" lon="2.09467">
        <ele>91.2</ele>
        <time>2016-02-21T13:45:39Z</time>
      </trkpt>
      <trkpt lat="49.09455" lon="2.09479">
        <ele>91.5</ele>
        <time>2016-02-21T13:45:46Z</time>
      </trkpt>
      <trkpt lat="49.0946" lon="2.09485">
        <ele>92</ele>
        <time>2016-02-21T13:45:53Z</time>
      </trkpt>
      <trkpt lat="49.09466" lon="2.09491">
        <ele>92.6</ele>
        <time>2016-02-21T13:46:00Z</time>
      </trkpt>
      <trkpt lat="49.09473" lon="2.09497">
        <ele>92.8</ele>
        <time>2016-02-21T13:46:07Z</time>
      </trkpt>
      <trkpt lat="49.09482" lon="2.09496">
        <ele>92.8</ele>
        <time>2016-02-21T13:46:12Z</time>
      </trkpt>
      <trkpt lat="49.09485" lon="2.095">
        <ele>93</ele>
        <time>2016-02-21T13:46:19Z</time>
      </trkpt>
      <trkpt lat="49.09492" lon="2.09502">
        <ele>92.5</ele>
        <time>2016-02-21T13:46:26Z</time>
      </trkpt>
      <trkpt lat="49.09497" lon="2.0951">
        <ele>92.6</ele>
        <time>2016-02-21T13:46:33Z</time>
      </trkpt>
      <trkpt lat="49.09496" lon="2.09517">
        <ele>92.3</ele>
        <time>2016-02-21T13:46:40Z</time>
      </trkpt>
      <trkpt lat="49.09495" lon="2.09517">
        <ele>91.9</ele>
        <time>2016-02-21T13:46:47Z</time>
      </trkpt>
      <trkpt lat="49.09488" lon="2.09518">
        <ele>91.8</ele>
        <time>2016-02-21T13:49:12Z</time>
      </trkpt>
      <trkpt lat="49.09493" lon="2.09528">
        <ele>92.1</ele>
        <time>2016-02-21T13:50:56Z</time>
      </trkpt>
      <trkpt lat="49.09498" lon="2.09538">
        <ele>92.4</ele>
        <time>2016-02-21T13:51:01Z</time>
      </trkpt>
      <trkpt lat="49.09497" lon="2.09549">
        <ele>92.6</ele>
        <time>2016-02-21T13:51:07Z</time>
      </trkpt>
      <trkpt lat="49.09495" lon="2.09561">
        <ele>92.7</ele>
        <time>2016-02-21T13:51:14Z</time>
      </trkpt>
      <trkpt lat="49.09495" lon="2.0957">
        <ele>93</ele>
        <time>2016-02-21T13:51:21Z</time>
      </trkpt>
      <trkpt lat="49.09494" lon="2.09579">
        <ele>93.2</ele>
        <time>2016-02-21T13:51:28Z</time>
      </trkpt>
      <trkpt lat="49.09492" lon="2.09591">
        <ele>93.5</ele>
        <time>2016-02-21T13:51:35Z</time>
      </trkpt>
      <trkpt lat="49.09492" lon="2.09602">
        <ele>93.7</ele>
        <time>2016-02-21T13:51:42Z</time>
      </trkpt>
      <trkpt lat="49.09492" lon="2.09613">
        <ele>94.1</ele>
        <time>2016-02-21T13:51:49Z</time>
      </trkpt>
      <trkpt lat="49.09492" lon="2.09624">
        <ele>94.2</ele>
        <time>2016-02-21T13:51:56Z</time>
      </trkpt>
      <trkpt lat="49.09491" lon="2.09636">
        <ele>94.4</ele>
        <time>2016-02-21T13:52:03Z</time>
      </trkpt>
      <trkpt lat="49.09491" lon="2.09646">
        <ele>94.4</ele>
        <time>2016-02-21T13:52:10Z</time>
      </trkpt>
      <trkpt lat="49.09493" lon="2.09657">
        <ele>94.5</ele>
        <time>2016-02-21T13:52:16Z</time>
      </trkpt>
      <trkpt lat="49.09494" lon="2.09669">
        <ele>94.5</ele>
        <time>2016-02-21T13:52:23Z</time>
      </trkpt>
      <trkpt lat="49.09494" lon="2.09678">
        <ele>94.5</ele>
        <time>2016-02-21T13:52:30Z</time>
      </trkpt>
      <trkpt lat="49.09495" lon="2.09685">
        <ele>94.6</ele>
        <time>2016-02-21T13:52:37Z</time>
      </trkpt>
      <trkpt lat="49.09496" lon="2.09697">
        <ele>94.8</ele>
        <time>2016-02-21T13:52:42Z</time>
      </trkpt>
      <trkpt lat="49.09498" lon="2.09707">
        <ele>95</ele>
        <time>2016-02-21T13:52:47Z</time>
      </trkpt>
      <trkpt lat="49.09499" lon="2.09719">
        <ele>95.1</ele>
        <time>2016-02-21T13:52:53Z</time>
      </trkpt>
      <trkpt lat="49.09502" lon="2.0973">
        <ele>95.7</ele>
        <time>2016-02-21T13:52:59Z</time>
      </trkpt>
      <trkpt lat="49.09506" lon="2.09741">
        <ele>95.9</ele>
        <time>2016-02-21T13:53:04Z</time>
      </trkpt>
      <trkpt lat="49.09508" lon="2.09752">
        <ele>96</ele>
        <time>2016-02-21T13:53:10Z</time>
      </trkpt>
      <trkpt lat="49.09513" lon="2.09761">
        <ele>96.1</ele>
        <time>2016-02-21T13:53:16Z</time>
      </trkpt>
      <trkpt lat="49.09516" lon="2.09771">
        <ele>95.4</ele>
        <time>2016-02-21T13:53:23Z</time>
      </trkpt>
      <trkpt lat="49.0951" lon="2.09779">
        <ele>95.3</ele>
        <time>2016-02-21T13:53:29Z</time>
      </trkpt>
      <trkpt lat="49.09503" lon="2.09784">
        <ele>95.4</ele>
        <time>2016-02-21T13:53:35Z</time>
      </trkpt>
      <trkpt lat="49.09496" lon="2.09788">
        <ele>96</ele>
        <time>2016-02-21T13:53:41Z</time>
      </trkpt>
      <trkpt lat="49.09489" lon="2.09796">
        <ele>96.8</ele>
        <time>2016-02-21T13:53:45Z</time>
      </trkpt>
      <trkpt lat="49.09483" lon="2.09803">
        <ele>97.8</ele>
        <time>2016-02-21T13:53:51Z</time>
      </trkpt>
      <trkpt lat="49.09475" lon="2.09807">
        <ele>98.6</ele>
        <time>2016-02-21T13:53:57Z</time>
      </trkpt>
      <trkpt lat="49.09468" lon="2.09812">
        <ele>99.1</ele>
        <time>2016-02-21T13:54:03Z</time>
      </trkpt>
      <trkpt lat="49.09461" lon="2.09816">
        <ele>99.5</ele>
        <time>2016-02-21T13:54:09Z</time>
      </trkpt>
      <trkpt lat="49.09454" lon="2.09823">
        <ele>100</ele>
        <time>2016-02-21T13:54:15Z</time>
      </trkpt>
      <trkpt lat="49.09446" lon="2.09825">
        <ele>100.7</ele>
        <time>2016-02-21T13:54:21Z</time>
      </trkpt>
      <trkpt lat="49.09438" lon="2.09828">
        <ele>101.6</ele>
        <time>2016-02-21T13:54:28Z</time>
      </trkpt>
      <trkpt lat="49.09431" lon="2.09833">
        <ele>101.8</ele>
        <time>2016-02-21T13:54:33Z</time>
      </trkpt>
      <trkpt lat="49.09423" lon="2.09838">
        <ele>102.6</ele>
        <time>2016-02-21T13:54:40Z</time>
      </trkpt>
      <trkpt lat="49.09416" lon="2.09841">
        <ele>103.2</ele>
        <time>2016-02-21T13:54:45Z</time>
      </trkpt>
      <trkpt lat="49.09409" lon="2.09844">
        <ele>103.2</ele>
        <time>2016-02-21T13:54:51Z</time>
      </trkpt>
      <trkpt lat="49.09402" lon="2.09848">
        <ele>103.5</ele>
        <time>2016-02-21T13:54:57Z</time>
      </trkpt>
      <trkpt lat="49.094" lon="2.09848">
        <ele>103.6</ele>
        <time>2016-02-21T13:55:04Z</time>
      </trkpt>
      <trkpt lat="49.09393" lon="2.09851">
        <ele>103.4</ele>
        <time>2016-02-21T13:55:17Z</time>
      </trkpt>
      <trkpt lat="49.09389" lon="2.09852">
        <ele>102.9</ele>
        <time>2016-02-21T13:55:24Z</time>
      </trkpt>
      <trkpt lat="49.09384" lon="2.09851">
        <ele>102.1</ele>
        <time>2016-02-21T13:55:41Z</time>
      </trkpt>
      <trkpt lat="49.09381" lon="2.09852">
        <ele>101.4</ele>
        <time>2016-02-21T13:55:48Z</time>
      </trkpt>
      <trkpt lat="49.09376" lon="2.09855">
        <ele>100.5</ele>
        <time>2016-02-21T13:56:54Z</time>
      </trkpt>
      <trkpt lat="49.09369" lon="2.09859">
        <ele>100.4</ele>
        <time>2016-02-21T13:57:00Z</time>
      </trkpt>
      <trkpt lat="49.09361" lon="2.0986">
        <ele>100.4</ele>
        <time>2016-02-21T13:57:06Z</time>
      </trkpt>
      <trkpt lat="49.09354" lon="2.09862">
        <ele>99.9</ele>
        <time>2016-02-21T13:57:13Z</time>
      </trkpt>
      <trkpt lat="49.09346" lon="2.09863">
        <ele>99.6</ele>
        <time>2016-02-21T13:57:20Z</time>
      </trkpt>
      <trkpt lat="49.09339" lon="2.09865">
        <ele>99.4</ele>
        <time>2016-02-21T13:57:26Z</time>
      </trkpt>
      <trkpt lat="49.09331" lon="2.09866">
        <ele>99</ele>
        <time>2016-02-21T13:57:33Z</time>
      </trkpt>
      <trkpt lat="49.09324" lon="2.09867">
        <ele>98.8</ele>
        <time>2016-02-21T13:57:39Z</time>
      </trkpt>
      <trkpt lat="49.09316" lon="2.09868">
        <ele>98.7</ele>
        <time>2016-02-21T13:57:45Z</time>
      </trkpt>
      <trkpt lat="49.09308" lon="2.09869">
        <ele>98.6</ele>
        <time>2016-02-21T13:57:51Z</time>
      </trkpt>
      <trkpt lat="49.093" lon="2.09873">
        <ele>98.6</ele>
        <time>2016-02-21T13:57:58Z</time>
      </trkpt>
      <trkpt lat="49.09293" lon="2.09877">
        <ele>98.4</ele>
        <time>2016-02-21T13:58:05Z</time>
      </trkpt>
      <trkpt lat="49.09285" lon="2.09877">
        <ele>98</ele>
        <time>2016-02-21T13:58:12Z</time>
      </trkpt>
      <trkpt lat="49.09278" lon="2.09878">
        <ele>98.1</ele>
        <time>2016-02-21T13:58:19Z</time>
      </trkpt>
      <trkpt lat="49.09271" lon="2.09879">
        <ele>98.1</ele>
        <time>2016-02-21T13:58:26Z</time>
      </trkpt>
      <trkpt lat="49.09264" lon="2.09882">
        <ele>98.5</ele>
        <time>2016-02-21T13:58:31Z</time>
      </trkpt>
      <trkpt lat="49.09256" lon="2.09887">
        <ele>98.9</ele>
        <time>2016-02-21T13:58:38Z</time>
      </trkpt>
      <trkpt lat="49.09249" lon="2.09889">
        <ele>98.9</ele>
        <time>2016-02-21T13:58:44Z</time>
      </trkpt>
      <trkpt lat="49.09242" lon="2.09893">
        <ele>98.8</ele>
        <time>2016-02-21T13:58:50Z</time>
      </trkpt>
      <trkpt lat="49.09235" lon="2.09894">
        <ele>98.1</ele>
        <time>2016-02-21T13:58:57Z</time>
      </trkpt>
      <trkpt lat="49.09228" lon="2.09896">
        <ele>97.9</ele>
        <time>2016-02-21T13:59:03Z</time>
      </trkpt>
      <trkpt lat="49.09219" lon="2.09896">
        <ele>97.7</ele>
        <time>2016-02-21T13:59:09Z</time>
      </trkpt>
      <trkpt lat="49.09212" lon="2.09901">
        <ele>97.6</ele>
        <time>2016-02-21T13:59:15Z</time>
      </trkpt>
      <trkpt lat="49.09205" lon="2.09902">
        <ele>97.6</ele>
        <time>2016-02-21T13:59:21Z</time>
      </trkpt>
      <trkpt lat="49.09197" lon="2.09905">
        <ele>97.7</ele>
        <time>2016-02-21T13:59:27Z</time>
      </trkpt>
      <trkpt lat="49.09189" lon="2.09908">
        <ele>97.9</ele>
        <time>2016-02-21T13:59:33Z</time>
      </trkpt>
      <trkpt lat="49.09181" lon="2.0991">
        <ele>98.1</ele>
        <time>2016-02-21T13:59:41Z</time>
      </trkpt>
      <trkpt lat="49.09174" lon="2.09908">
        <ele>98.6</ele>
        <time>2016-02-21T13:59:48Z</time>
      </trkpt>
      <trkpt lat="49.09166" lon="2.09909">
        <ele>98.6</ele>
        <time>2016-02-21T13:59:55Z</time>
      </trkpt>
      <trkpt lat="49.09158" lon="2.09912">
        <ele>98.7</ele>
        <time>2016-02-21T14:00:02Z</time>
      </trkpt>
      <trkpt lat="49.09151" lon="2.09913">
        <ele>99</ele>
        <time>2016-02-21T14:00:08Z</time>
      </trkpt>
      <trkpt lat="49.09145" lon="2.09912">
        <ele>99.6</ele>
        <time>2016-02-21T14:00:15Z</time>
      </trkpt>
      <trkpt lat="49.09137" lon="2.09914">
        <ele>100.2</ele>
        <time>2016-02-21T14:00:21Z</time>
      </trkpt>
      <trkpt lat="49.09129" lon="2.09919">
        <ele>100.4</ele>
        <time>2016-02-21T14:00:25Z</time>
      </trkpt>
      <trkpt lat="49.09122" lon="2.09923">
        <ele>100.9</ele>
        <time>2016-02-21T14:00:30Z</time>
      </trkpt>
      <trkpt lat="49.09115" lon="2.09924">
        <ele>101.6</ele>
        <time>2016-02-21T14:00:37Z</time>
      </trkpt>
      <trkpt lat="49.09107" lon="2.09927">
        <ele>101.5</ele>
        <time>2016-02-21T14:00:44Z</time>
      </trkpt>
      <trkpt lat="49.09099" lon="2.09932">
        <ele>101.5</ele>
        <time>2016-02-21T14:00:49Z</time>
      </trkpt>
      <trkpt lat="49.09091" lon="2.09936">
        <ele>101.3</ele>
        <time>2016-02-21T14:00:56Z</time>
      </trkpt>
      <trkpt lat="49.09084" lon="2.09941">
        <ele>100.9</ele>
        <time>2016-02-21T14:01:01Z</time>
      </trkpt>
      <trkpt lat="49.09079" lon="2.09948">
        <ele>99.4</ele>
        <time>2016-02-21T14:01:08Z</time>
      </trkpt>
      <trkpt lat="49.09072" lon="2.09952">
        <ele>99.2</ele>
        <time>2016-02-21T14:01:13Z</time>
      </trkpt>
      <trkpt lat="49.09066" lon="2.09958">
        <ele>98.6</ele>
        <time>2016-02-21T14:01:19Z</time>
      </trkpt>
      <trkpt lat="49.09059" lon="2.09965">
        <ele>98.3</ele>
        <time>2016-02-21T14:01:25Z</time>
      </trkpt>
      <trkpt lat="49.09052" lon="2.09971">
        <ele>97.6</ele>
        <time>2016-02-21T14:01:32Z</time>
      </trkpt>
      <trkpt lat="49.09044" lon="2.09978">
        <ele>97.3</ele>
        <time>2016-02-21T14:01:39Z</time>
      </trkpt>
      <trkpt lat="49.09037" lon="2.09984">
        <ele>96.8</ele>
        <time>2016-02-21T14:01:46Z</time>
      </trkpt>
      <trkpt lat="49.09032" lon="2.09991">
        <ele>96.7</ele>
        <time>2016-02-21T14:01:52Z</time>
      </trkpt>
      <trkpt lat="49.09025" lon="2.09997">
        <ele>96.5</ele>
        <time>2016-02-21T14:01:59Z</time>
      </trkpt>
      <trkpt lat="49.09018" lon="2.10003">
        <ele>96.2</ele>
        <time>2016-02-21T14:02:04Z</time>
      </trkpt>
      <trkpt lat="49.09012" lon="2.10011">
        <ele>95.6</ele>
        <time>2016-02-21T14:02:11Z</time>
      </trkpt>
      <trkpt lat="49.09006" lon="2.10017">
        <ele>95</ele>
        <time>2016-02-21T14:02:17Z</time>
      </trkpt>
      <trkpt lat="49.08998" lon="2.10024">
        <ele>94.8</ele>
        <time>2016-02-21T14:02:23Z</time>
      </trkpt>
      <trkpt lat="49.08991" lon="2.1003">
        <ele>94.7</ele>
        <time>2016-02-21T14:02:29Z</time>
      </trkpt>
      <trkpt lat="49.08985" lon="2.10036">
        <ele>94.9</ele>
        <time>2016-02-21T14:02:35Z</time>
      </trkpt>
      <trkpt lat="49.08979" lon="2.10041">
        <ele>95.1</ele>
        <time>2016-02-21T14:02:41Z</time>
      </trkpt>
      <trkpt lat="49.08972" lon="2.10047">
        <ele>95.3</ele>
        <time>2016-02-21T14:02:48Z</time>
      </trkpt>
      <trkpt lat="49.08965" lon="2.10049">
        <ele>95.2</ele>
        <time>2016-02-21T14:02:54Z</time>
      </trkpt>
      <trkpt lat="49.08958" lon="2.10054">
        <ele>95.2</ele>
        <time>2016-02-21T14:03:00Z</time>
      </trkpt>
      <trkpt lat="49.08952" lon="2.10062">
        <ele>95.4</ele>
        <time>2016-02-21T14:03:06Z</time>
      </trkpt>
      <trkpt lat="49.08946" lon="2.10067">
        <ele>95.6</ele>
        <time>2016-02-21T14:03:13Z</time>
      </trkpt>
      <trkpt lat="49.08944" lon="2.10078">
        <ele>95.8</ele>
        <time>2016-02-21T14:03:20Z</time>
      </trkpt>
      <trkpt lat="49.08943" lon="2.10087">
        <ele>96.2</ele>
        <time>2016-02-21T14:03:27Z</time>
      </trkpt>
      <trkpt lat="49.08944" lon="2.10099">
        <ele>96.6</ele>
        <time>2016-02-21T14:03:34Z</time>
      </trkpt>
      <trkpt lat="49.08948" lon="2.1011">
        <ele>96.7</ele>
        <time>2016-02-21T14:03:41Z</time>
      </trkpt>
      <trkpt lat="49.0895" lon="2.1012">
        <ele>97</ele>
        <time>2016-02-21T14:03:48Z</time>
      </trkpt>
      <trkpt lat="49.08953" lon="2.1013">
        <ele>97.3</ele>
        <time>2016-02-21T14:03:54Z</time>
      </trkpt>
      <trkpt lat="49.08956" lon="2.10141">
        <ele>97.5</ele>
        <time>2016-02-21T14:04:00Z</time>
      </trkpt>
      <trkpt lat="49.08958" lon="2.10153">
        <ele>97.8</ele>
        <time>2016-02-21T14:04:07Z</time>
      </trkpt>
      <trkpt lat="49.08961" lon="2.10163">
        <ele>97.8</ele>
        <time>2016-02-21T14:04:13Z</time>
      </trkpt>
      <trkpt lat="49.08965" lon="2.10172">
        <ele>97.9</ele>
        <time>2016-02-21T14:04:20Z</time>
      </trkpt>
      <trkpt lat="49.08968" lon="2.10183">
        <ele>97.9</ele>
        <time>2016-02-21T14:04:27Z</time>
      </trkpt>
      <trkpt lat="49.08971" lon="2.10194">
        <ele>98.3</ele>
        <time>2016-02-21T14:04:34Z</time>
      </trkpt>
      <trkpt lat="49.08975" lon="2.10205">
        <ele>98.7</ele>
        <time>2016-02-21T14:04:40Z</time>
      </trkpt>
      <trkpt lat="49.08977" lon="2.10217">
        <ele>99.1</ele>
        <time>2016-02-21T14:04:46Z</time>
      </trkpt>
      <trkpt lat="49.0898" lon="2.10229">
        <ele>99.6</ele>
        <time>2016-02-21T14:04:53Z</time>
      </trkpt>
      <trkpt lat="49.08984" lon="2.1024">
        <ele>100</ele>
        <time>2016-02-21T14:04:59Z</time>
      </trkpt>
      <trkpt lat="49.08989" lon="2.10249">
        <ele>100.2</ele>
        <time>2016-02-21T14:05:04Z</time>
      </trkpt>
      <trkpt lat="49.08991" lon="2.1026">
        <ele>100.8</ele>
        <time>2016-02-21T14:05:11Z</time>
      </trkpt>
      <trkpt lat="49.08994" lon="2.10272">
        <ele>100.7</ele>
        <time>2016-02-21T14:05:18Z</time>
      </trkpt>
      <trkpt lat="49.08995" lon="2.10283">
        <ele>100.3</ele>
        <time>2016-02-21T14:05:24Z</time>
      </trkpt>
      <trkpt lat="49.08997" lon="2.10295">
        <ele>100.1</ele>
        <time>2016-02-21T14:05:29Z</time>
      </trkpt>
      <trkpt lat="49.08999" lon="2.10306">
        <ele>100.3</ele>
        <time>2016-02-21T14:05:36Z</time>
      </trkpt>
      <trkpt lat="49.09003" lon="2.10317">
        <ele>100.2</ele>
        <time>2016-02-21T14:05:42Z</time>
      </trkpt>
      <trkpt lat="49.09006" lon="2.10327">
        <ele>99.7</ele>
        <time>2016-02-21T14:05:49Z</time>
      </trkpt>
      <trkpt lat="49.09011" lon="2.10335">
        <ele>99.1</ele>
        <time>2016-02-21T14:05:56Z</time>
      </trkpt>
      <trkpt lat="49.09013" lon="2.10348">
        <ele>98.7</ele>
        <time>2016-02-21T14:06:02Z</time>
      </trkpt>
      <trkpt lat="49.09015" lon="2.10357">
        <ele>98.5</ele>
        <time>2016-02-21T14:06:09Z</time>
      </trkpt>
      <trkpt lat="49.09018" lon="2.10366">
        <ele>98.2</ele>
        <time>2016-02-21T14:06:16Z</time>
      </trkpt>
      <trkpt lat="49.09021" lon="2.10376">
        <ele>98</ele>
        <time>2016-02-21T14:06:22Z</time>
      </trkpt>
      <trkpt lat="49.09022" lon="2.10386">
        <ele>97.5</ele>
        <time>2016-02-21T14:06:29Z</time>
      </trkpt>
      <trkpt lat="49.09025" lon="2.10396">
        <ele>97</ele>
        <time>2016-02-21T14:06:36Z</time>
      </trkpt>
      <trkpt lat="49.09028" lon="2.10407">
        <ele>96.6</ele>
        <time>2016-02-21T14:06:43Z</time>
      </trkpt>
      <trkpt lat="49.09031" lon="2.10419">
        <ele>96.2</ele>
        <time>2016-02-21T14:06:50Z</time>
      </trkpt>
      <trkpt lat="49.09035" lon="2.10431">
        <ele>95.7</ele>
        <time>2016-02-21T14:06:56Z</time>
      </trkpt>
      <trkpt lat="49.09036" lon="2.10443">
        <ele>94.7</ele>
        <time>2016-02-21T14:07:02Z</time>
      </trkpt>
      <trkpt lat="49.09039" lon="2.10454">
        <ele>94.2</ele>
        <time>2016-02-21T14:07:07Z</time>
      </trkpt>
      <trkpt lat="49.09041" lon="2.10465">
        <ele>93.6</ele>
        <time>2016-02-21T14:07:14Z</time>
      </trkpt>
      <trkpt lat="49.09045" lon="2.10476">
        <ele>93.2</ele>
        <time>2016-02-21T14:07:20Z</time>
      </trkpt>
      <trkpt lat="49.09048" lon="2.10486">
        <ele>93.2</ele>
        <time>2016-02-21T14:07:26Z</time>
      </trkpt>
      <trkpt lat="49.0905" lon="2.10497">
        <ele>93.2</ele>
        <time>2016-02-21T14:07:33Z</time>
      </trkpt>
      <trkpt lat="49.09052" lon="2.10508">
        <ele>93</ele>
        <time>2016-02-21T14:07:38Z</time>
      </trkpt>
      <trkpt lat="49.09055" lon="2.10519">
        <ele>92.7</ele>
        <time>2016-02-21T14:07:44Z</time>
      </trkpt>
      <trkpt lat="49.09058" lon="2.10529">
        <ele>92.6</ele>
        <time>2016-02-21T14:07:49Z</time>
      </trkpt>
      <trkpt lat="49.09063" lon="2.10541">
        <ele>92.7</ele>
        <time>2016-02-21T14:07:56Z</time>
      </trkpt>
      <trkpt lat="49.09066" lon="2.10551">
        <ele>92.4</ele>
        <time>2016-02-21T14:08:01Z</time>
      </trkpt>
      <trkpt lat="49.09068" lon="2.10561">
        <ele>92.2</ele>
        <time>2016-02-21T14:08:07Z</time>
      </trkpt>
      <trkpt lat="49.09071" lon="2.10572">
        <ele>92</ele>
        <time>2016-02-21T14:08:12Z</time>
      </trkpt>
      <trkpt lat="49.09074" lon="2.10583">
        <ele>91.9</ele>
        <time>2016-02-21T14:08:19Z</time>
      </trkpt>
      <trkpt lat="49.09077" lon="2.10594">
        <ele>91.9</ele>
        <time>2016-02-21T14:08:24Z</time>
      </trkpt>
      <trkpt lat="49.09079" lon="2.10604">
        <ele>92.2</ele>
        <time>2016-02-21T14:08:30Z</time>
      </trkpt>
      <trkpt lat="49.09082" lon="2.10615">
        <ele>92.2</ele>
        <time>2016-02-21T14:08:36Z</time>
      </trkpt>
      <trkpt lat="49.09084" lon="2.10627">
        <ele>92</ele>
        <time>2016-02-21T14:08:42Z</time>
      </trkpt>
      <trkpt lat="49.09087" lon="2.10638">
        <ele>91.5</ele>
        <time>2016-02-21T14:08:48Z</time>
      </trkpt>
      <trkpt lat="49.09088" lon="2.10649">
        <ele>91.2</ele>
        <time>2016-02-21T14:08:53Z</time>
      </trkpt>
      <trkpt lat="49.09091" lon="2.10659">
        <ele>90.9</ele>
        <time>2016-02-21T14:09:00Z</time>
      </trkpt>
      <trkpt lat="49.09095" lon="2.1067">
        <ele>90.7</ele>
        <time>2016-02-21T14:09:06Z</time>
      </trkpt>
      <trkpt lat="49.09098" lon="2.10682">
        <ele>91.1</ele>
        <time>2016-02-21T14:09:13Z</time>
      </trkpt>
      <trkpt lat="49.09101" lon="2.10694">
        <ele>91.1</ele>
        <time>2016-02-21T14:09:20Z</time>
      </trkpt>
      <trkpt lat="49.09105" lon="2.10705">
        <ele>91.1</ele>
        <time>2016-02-21T14:09:25Z</time>
      </trkpt>
      <trkpt lat="49.09108" lon="2.10716">
        <ele>90.9</ele>
        <time>2016-02-21T14:09:32Z</time>
      </trkpt>
      <trkpt lat="49.0911" lon="2.10727">
        <ele>90.9</ele>
        <time>2016-02-21T14:09:38Z</time>
      </trkpt>
      <trkpt lat="49.09112" lon="2.10739">
        <ele>90.9</ele>
        <time>2016-02-21T14:09:44Z</time>
      </trkpt>
      <trkpt lat="49.09114" lon="2.10749">
        <ele>90.5</ele>
        <time>2016-02-21T14:09:50Z</time>
      </trkpt>
      <trkpt lat="49.09117" lon="2.10759">
        <ele>90.2</ele>
        <time>2016-02-21T14:09:56Z</time>
      </trkpt>
      <trkpt lat="49.09122" lon="2.10769">
        <ele>90.1</ele>
        <time>2016-02-21T14:10:01Z</time>
      </trkpt>
      <trkpt lat="49.09126" lon="2.1078">
        <ele>89.5</ele>
        <time>2016-02-21T14:10:08Z</time>
      </trkpt>
      <trkpt lat="49.09129" lon="2.10791">
        <ele>89.2</ele>
        <time>2016-02-21T14:10:15Z</time>
      </trkpt>
      <trkpt lat="49.09132" lon="2.10801">
        <ele>89</ele>
        <time>2016-02-21T14:10:21Z</time>
      </trkpt>
      <trkpt lat="49.09133" lon="2.10812">
        <ele>88.8</ele>
        <time>2016-02-21T14:10:28Z</time>
      </trkpt>
      <trkpt lat="49.09136" lon="2.10824">
        <ele>88.9</ele>
        <time>2016-02-21T14:10:34Z</time>
      </trkpt>
      <trkpt lat="49.09138" lon="2.10834">
        <ele>88.9</ele>
        <time>2016-02-21T14:10:40Z</time>
      </trkpt>
      <trkpt lat="49.09141" lon="2.10846">
        <ele>89.3</ele>
        <time>2016-02-21T14:10:46Z</time>
      </trkpt>
      <trkpt lat="49.09145" lon="2.10856">
        <ele>89</ele>
        <time>2016-02-21T14:10:53Z</time>
      </trkpt>
      <trkpt lat="49.09149" lon="2.10868">
        <ele>88.8</ele>
        <time>2016-02-21T14:11:00Z</time>
      </trkpt>
      <trkpt lat="49.09151" lon="2.1088">
        <ele>88.4</ele>
        <time>2016-02-21T14:11:06Z</time>
      </trkpt>
      <trkpt lat="49.09154" lon="2.10891">
        <ele>88.2</ele>
        <time>2016-02-21T14:11:12Z</time>
      </trkpt>
      <trkpt lat="49.09156" lon="2.10901">
        <ele>88.1</ele>
        <time>2016-02-21T14:11:17Z</time>
      </trkpt>
      <trkpt lat="49.09158" lon="2.10913">
        <ele>88.3</ele>
        <time>2016-02-21T14:11:24Z</time>
      </trkpt>
      <trkpt lat="49.09162" lon="2.10924">
        <ele>88.5</ele>
        <time>2016-02-21T14:11:30Z</time>
      </trkpt>
      <trkpt lat="49.09164" lon="2.10935">
        <ele>88.5</ele>
        <time>2016-02-21T14:11:36Z</time>
      </trkpt>
      <trkpt lat="49.09167" lon="2.10945">
        <ele>88.2</ele>
        <time>2016-02-21T14:11:42Z</time>
      </trkpt>
      <trkpt lat="49.0917" lon="2.10957">
        <ele>87.8</ele>
        <time>2016-02-21T14:11:49Z</time>
      </trkpt>
      <trkpt lat="49.09173" lon="2.10969">
        <ele>87.7</ele>
        <time>2016-02-21T14:11:55Z</time>
      </trkpt>
      <trkpt lat="49.09177" lon="2.1098">
        <ele>87.5</ele>
        <time>2016-02-21T14:12:02Z</time>
      </trkpt>
      <trkpt lat="49.09181" lon="2.1099">
        <ele>87.4</ele>
        <time>2016-02-21T14:12:08Z</time>
      </trkpt>
      <trkpt lat="49.09184" lon="2.11">
        <ele>87.2</ele>
        <time>2016-02-21T14:12:15Z</time>
      </trkpt>
      <trkpt lat="49.09187" lon="2.11012">
        <ele>87.2</ele>
        <time>2016-02-21T14:12:21Z</time>
      </trkpt>
      <trkpt lat="49.0919" lon="2.11022">
        <ele>87</ele>
        <time>2016-02-21T14:12:27Z</time>
      </trkpt>
      <trkpt lat="49.09194" lon="2.11033">
        <ele>87.2</ele>
        <time>2016-02-21T14:12:33Z</time>
      </trkpt>
      <trkpt lat="49.09198" lon="2.11044">
        <ele>87.7</ele>
        <time>2016-02-21T14:12:39Z</time>
      </trkpt>
      <trkpt lat="49.09201" lon="2.11055">
        <ele>87.6</ele>
        <time>2016-02-21T14:12:46Z</time>
      </trkpt>
      <trkpt lat="49.09202" lon="2.11066">
        <ele>87.6</ele>
        <time>2016-02-21T14:12:53Z</time>
      </trkpt>
      <trkpt lat="49.09205" lon="2.11077">
        <ele>88.8</ele>
        <time>2016-02-21T14:13:00Z</time>
      </trkpt>
      <trkpt lat="49.09208" lon="2.11087">
        <ele>89.3</ele>
        <time>2016-02-21T14:13:06Z</time>
      </trkpt>
      <trkpt lat="49.09212" lon="2.11097">
        <ele>89.7</ele>
        <time>2016-02-21T14:13:11Z</time>
      </trkpt>
      <trkpt lat="49.09215" lon="2.11107">
        <ele>90</ele>
        <time>2016-02-21T14:13:17Z</time>
      </trkpt>
      <trkpt lat="49.09217" lon="2.11118">
        <ele>90.2</ele>
        <time>2016-02-21T14:13:23Z</time>
      </trkpt>
      <trkpt lat="49.09219" lon="2.1113">
        <ele>90.5</ele>
        <time>2016-02-21T14:13:29Z</time>
      </trkpt>
      <trkpt lat="49.09221" lon="2.11141">
        <ele>90.4</ele>
        <time>2016-02-21T14:13:35Z</time>
      </trkpt>
      <trkpt lat="49.09224" lon="2.11151">
        <ele>90.8</ele>
        <time>2016-02-21T14:13:42Z</time>
      </trkpt>
      <trkpt lat="49.09226" lon="2.11161">
        <ele>91.1</ele>
        <time>2016-02-21T14:13:48Z</time>
      </trkpt>
      <trkpt lat="49.09228" lon="2.11173">
        <ele>90.9</ele>
        <time>2016-02-21T14:13:53Z</time>
      </trkpt>
      <trkpt lat="49.09232" lon="2.11185">
        <ele>90.9</ele>
        <time>2016-02-21T14:14:00Z</time>
      </trkpt>
      <trkpt lat="49.09233" lon="2.11196">
        <ele>90.9</ele>
        <time>2016-02-21T14:14:06Z</time>
      </trkpt>
      <trkpt lat="49.09239" lon="2.11204">
        <ele>90.9</ele>
        <time>2016-02-21T14:14:12Z</time>
      </trkpt>
      <trkpt lat="49.09242" lon="2.11214">
        <ele>90.8</ele>
        <time>2016-02-21T14:14:17Z</time>
      </trkpt>
      <trkpt lat="49.09245" lon="2.11226">
        <ele>90.3</ele>
        <time>2016-02-21T14:14:24Z</time>
      </trkpt>
      <trkpt lat="49.09248" lon="2.11236">
        <ele>89.6</ele>
        <time>2016-02-21T14:14:30Z</time>
      </trkpt>
      <trkpt lat="49.09252" lon="2.11248">
        <ele>89.1</ele>
        <time>2016-02-21T14:14:37Z</time>
      </trkpt>
      <trkpt lat="49.09255" lon="2.11259">
        <ele>88.1</ele>
        <time>2016-02-21T14:14:44Z</time>
      </trkpt>
      <trkpt lat="49.09257" lon="2.11271">
        <ele>87.6</ele>
        <time>2016-02-21T14:14:50Z</time>
      </trkpt>
      <trkpt lat="49.0926" lon="2.11281">
        <ele>87.4</ele>
        <time>2016-02-21T14:14:56Z</time>
      </trkpt>
      <trkpt lat="49.09263" lon="2.1129">
        <ele>87.2</ele>
        <time>2016-02-21T14:15:03Z</time>
      </trkpt>
      <trkpt lat="49.09265" lon="2.11298">
        <ele>87.2</ele>
        <time>2016-02-21T14:15:25Z</time>
      </trkpt>
      <trkpt lat="49.09265" lon="2.11301">
        <ele>87.2</ele>
        <time>2016-02-21T14:15:14Z</time>
      </trkpt>
      <trkpt lat="49.09262" lon="2.11303">
        <ele>87.6</ele>
        <time>2016-02-21T14:17:23Z</time>
      </trkpt>
      <trkpt lat="49.09258" lon="2.11299">
        <ele>87.3</ele>
        <time>2016-02-21T14:17:30Z</time>
      </trkpt>
      <trkpt lat="49.09257" lon="2.1131">
        <ele>87.3</ele>
        <time>2016-02-21T14:18:03Z</time>
      </trkpt>
      <trkpt lat="49.09254" lon="2.11322">
        <ele>87.5</ele>
        <time>2016-02-21T14:18:07Z</time>
      </trkpt>
      <trkpt lat="49.09249" lon="2.11333">
        <ele>87.5</ele>
        <time>2016-02-21T14:18:10Z</time>
      </trkpt>
      <trkpt lat="49.09245" lon="2.11344">
        <ele>87.5</ele>
        <time>2016-02-21T14:18:13Z</time>
      </trkpt>
      <trkpt lat="49.0924" lon="2.11353">
        <ele>87.7</ele>
        <time>2016-02-21T14:18:16Z</time>
      </trkpt>
      <trkpt lat="49.09235" lon="2.11364">
        <ele>87.8</ele>
        <time>2016-02-21T14:18:19Z</time>
      </trkpt>
      <trkpt lat="49.09231" lon="2.11375">
        <ele>87.5</ele>
        <time>2016-02-21T14:18:22Z</time>
      </trkpt>
      <trkpt lat="49.09227" lon="2.11386">
        <ele>87.6</ele>
        <time>2016-02-21T14:18:25Z</time>
      </trkpt>
      <trkpt lat="49.09223" lon="2.11396">
        <ele>87.9</ele>
        <time>2016-02-21T14:18:28Z</time>
      </trkpt>
      <trkpt lat="49.09219" lon="2.11407">
        <ele>87.7</ele>
        <time>2016-02-21T14:18:31Z</time>
      </trkpt>
      <trkpt lat="49.09216" lon="2.11418">
        <ele>87.9</ele>
        <time>2016-02-21T14:18:34Z</time>
      </trkpt>
      <trkpt lat="49.09212" lon="2.1143">
        <ele>88.3</ele>
        <time>2016-02-21T14:18:38Z</time>
      </trkpt>
      <trkpt lat="49.0921" lon="2.11441">
        <ele>89</ele>
        <time>2016-02-21T14:18:42Z</time>
      </trkpt>
      <trkpt lat="49.09205" lon="2.11452">
        <ele>90.2</ele>
        <time>2016-02-21T14:18:47Z</time>
      </trkpt>
      <trkpt lat="49.09202" lon="2.11461">
        <ele>90.8</ele>
        <time>2016-02-21T14:18:54Z</time>
      </trkpt>
      <trkpt lat="49.09198" lon="2.11472">
        <ele>91.6</ele>
        <time>2016-02-21T14:19:00Z</time>
      </trkpt>
      <trkpt lat="49.09194" lon="2.11482">
        <ele>92.3</ele>
        <time>2016-02-21T14:19:05Z</time>
      </trkpt>
      <trkpt lat="49.0919" lon="2.11492">
        <ele>93</ele>
        <time>2016-02-21T14:19:12Z</time>
      </trkpt>
      <trkpt lat="49.09186" lon="2.11502">
        <ele>94</ele>
        <time>2016-02-21T14:19:18Z</time>
      </trkpt>
      <trkpt lat="49.09181" lon="2.11513">
        <ele>94.5</ele>
        <time>2016-02-21T14:19:25Z</time>
      </trkpt>
      <trkpt lat="49.09178" lon="2.11523">
        <ele>94.8</ele>
        <time>2016-02-21T14:19:30Z</time>
      </trkpt>
      <trkpt lat="49.09173" lon="2.11533">
        <ele>95.4</ele>
        <time>2016-02-21T14:19:35Z</time>
      </trkpt>
      <trkpt lat="49.0917" lon="2.11544">
        <ele>96.1</ele>
        <time>2016-02-21T14:19:42Z</time>
      </trkpt>
      <trkpt lat="49.09167" lon="2.11555">
        <ele>96.7</ele>
        <time>2016-02-21T14:19:48Z</time>
      </trkpt>
      <trkpt lat="49.09161" lon="2.11564">
        <ele>97.4</ele>
        <time>2016-02-21T14:19:55Z</time>
      </trkpt>
      <trkpt lat="49.09157" lon="2.11575">
        <ele>97.7</ele>
        <time>2016-02-21T14:20:01Z</time>
      </trkpt>
      <trkpt lat="49.09153" lon="2.11585">
        <ele>98.3</ele>
        <time>2016-02-21T14:20:08Z</time>
      </trkpt>
      <trkpt lat="49.09148" lon="2.11596">
        <ele>98.6</ele>
        <time>2016-02-21T14:20:14Z</time>
      </trkpt>
      <trkpt lat="49.09144" lon="2.11607">
        <ele>98.4</ele>
        <time>2016-02-21T14:20:21Z</time>
      </trkpt>
      <trkpt lat="49.09141" lon="2.11619">
        <ele>98.3</ele>
        <time>2016-02-21T14:20:26Z</time>
      </trkpt>
      <trkpt lat="49.09137" lon="2.11631">
        <ele>97.6</ele>
        <time>2016-02-21T14:20:33Z</time>
      </trkpt>
      <trkpt lat="49.09133" lon="2.11642">
        <ele>97</ele>
        <time>2016-02-21T14:20:39Z</time>
      </trkpt>
      <trkpt lat="49.0913" lon="2.1165">
        <ele>96.8</ele>
        <time>2016-02-21T14:20:46Z</time>
      </trkpt>
      <trkpt lat="49.09126" lon="2.11661">
        <ele>96.7</ele>
        <time>2016-02-21T14:20:52Z</time>
      </trkpt>
      <trkpt lat="49.09122" lon="2.11671">
        <ele>97</ele>
        <time>2016-02-21T14:20:58Z</time>
      </trkpt>
      <trkpt lat="49.09119" lon="2.11681">
        <ele>96.8</ele>
        <time>2016-02-21T14:21:03Z</time>
      </trkpt>
      <trkpt lat="49.09114" lon="2.1169">
        <ele>96.4</ele>
        <time>2016-02-21T14:21:09Z</time>
      </trkpt>
      <trkpt lat="49.0911" lon="2.11699">
        <ele>96</ele>
        <time>2016-02-21T14:21:14Z</time>
      </trkpt>
      <trkpt lat="49.09106" lon="2.11708">
        <ele>95.9</ele>
        <time>2016-02-21T14:21:20Z</time>
      </trkpt>
      <trkpt lat="49.09101" lon="2.11719">
        <ele>95.6</ele>
        <time>2016-02-21T14:21:26Z</time>
      </trkpt>
      <trkpt lat="49.09096" lon="2.11727">
        <ele>95.5</ele>
        <time>2016-02-21T14:21:33Z</time>
      </trkpt>
      <trkpt lat="49.09092" lon="2.11738">
        <ele>95.3</ele>
        <time>2016-02-21T14:21:40Z</time>
      </trkpt>
      <trkpt lat="49.09089" lon="2.11749">
        <ele>94.5</ele>
        <time>2016-02-21T14:21:46Z</time>
      </trkpt>
      <trkpt lat="49.09086" lon="2.1176">
        <ele>93.5</ele>
        <time>2016-02-21T14:21:52Z</time>
      </trkpt>
      <trkpt lat="49.09081" lon="2.1177">
        <ele>92.9</ele>
        <time>2016-02-21T14:21:58Z</time>
      </trkpt>
      <trkpt lat="49.09076" lon="2.11779">
        <ele>92.7</ele>
        <time>2016-02-21T14:22:05Z</time>
      </trkpt>
      <trkpt lat="49.09071" lon="2.11788">
        <ele>92.4</ele>
        <time>2016-02-21T14:22:10Z</time>
      </trkpt>
      <trkpt lat="49.09067" lon="2.11798">
        <ele>91.9</ele>
        <time>2016-02-21T14:22:17Z</time>
      </trkpt>
      <trkpt lat="49.09064" lon="2.11809">
        <ele>92</ele>
        <time>2016-02-21T14:22:22Z</time>
      </trkpt>
      <trkpt lat="49.0906" lon="2.11819">
        <ele>91.9</ele>
        <time>2016-02-21T14:22:28Z</time>
      </trkpt>
      <trkpt lat="49.09056" lon="2.11827">
        <ele>91.2</ele>
        <time>2016-02-21T14:22:35Z</time>
      </trkpt>
      <trkpt lat="49.09052" lon="2.11838">
        <ele>90.7</ele>
        <time>2016-02-21T14:22:41Z</time>
      </trkpt>
      <trkpt lat="49.09048" lon="2.11849">
        <ele>90.1</ele>
        <time>2016-02-21T14:22:48Z</time>
      </trkpt>
      <trkpt lat="49.09044" lon="2.11859">
        <ele>89.9</ele>
        <time>2016-02-21T14:22:54Z</time>
      </trkpt>
      <trkpt lat="49.0904" lon="2.11869">
        <ele>90.2</ele>
        <time>2016-02-21T14:23:01Z</time>
      </trkpt>
      <trkpt lat="49.09034" lon="2.11878">
        <ele>90.1</ele>
        <time>2016-02-21T14:23:07Z</time>
      </trkpt>
      <trkpt lat="49.09029" lon="2.11888">
        <ele>90.1</ele>
        <time>2016-02-21T14:23:14Z</time>
      </trkpt>
      <trkpt lat="49.09024" lon="2.11897">
        <ele>89.9</ele>
        <time>2016-02-21T14:23:21Z</time>
      </trkpt>
      <trkpt lat="49.09019" lon="2.11905">
        <ele>89.3</ele>
        <time>2016-02-21T14:23:28Z</time>
      </trkpt>
      <trkpt lat="49.09015" lon="2.11917">
        <ele>88.9</ele>
        <time>2016-02-21T14:23:34Z</time>
      </trkpt>
      <trkpt lat="49.09011" lon="2.11925">
        <ele>88.8</ele>
        <time>2016-02-21T14:23:40Z</time>
      </trkpt>
      <trkpt lat="49.09006" lon="2.11936">
        <ele>89.1</ele>
        <time>2016-02-21T14:23:46Z</time>
      </trkpt>
      <trkpt lat="49.09004" lon="2.11948">
        <ele>89.1</ele>
        <time>2016-02-21T14:23:52Z</time>
      </trkpt>
      <trkpt lat="49.08999" lon="2.11957">
        <ele>88.8</ele>
        <time>2016-02-21T14:23:58Z</time>
      </trkpt>
      <trkpt lat="49.08995" lon="2.11967">
        <ele>88.9</ele>
        <time>2016-02-21T14:24:04Z</time>
      </trkpt>
      <trkpt lat="49.08991" lon="2.11977">
        <ele>88.3</ele>
        <time>2016-02-21T14:24:10Z</time>
      </trkpt>
      <trkpt lat="49.08986" lon="2.11986">
        <ele>87.8</ele>
        <time>2016-02-21T14:24:16Z</time>
      </trkpt>
      <trkpt lat="49.08982" lon="2.11997">
        <ele>87.2</ele>
        <time>2016-02-21T14:24:22Z</time>
      </trkpt>
      <trkpt lat="49.08979" lon="2.12008">
        <ele>86.8</ele>
        <time>2016-02-21T14:24:28Z</time>
      </trkpt>
      <trkpt lat="49.08974" lon="2.12017">
        <ele>86.5</ele>
        <time>2016-02-21T14:24:34Z</time>
      </trkpt>
      <trkpt lat="49.0897" lon="2.12028">
        <ele>86.1</ele>
        <time>2016-02-21T14:24:40Z</time>
      </trkpt>
      <trkpt lat="49.08964" lon="2.12036">
        <ele>86.2</ele>
        <time>2016-02-21T14:24:46Z</time>
      </trkpt>
      <trkpt lat="49.08959" lon="2.12044">
        <ele>86.2</ele>
        <time>2016-02-21T14:24:51Z</time>
      </trkpt>
      <trkpt lat="49.08955" lon="2.12052">
        <ele>86.5</ele>
        <time>2016-02-21T14:24:57Z</time>
      </trkpt>
      <trkpt lat="49.08951" lon="2.12062">
        <ele>87.2</ele>
        <time>2016-02-21T14:25:03Z</time>
      </trkpt>
      <trkpt lat="49.08946" lon="2.12074">
        <ele>87.3</ele>
        <time>2016-02-21T14:25:08Z</time>
      </trkpt>
      <trkpt lat="49.08943" lon="2.12084">
        <ele>87.4</ele>
        <time>2016-02-21T14:25:14Z</time>
      </trkpt>
      <trkpt lat="49.08939" lon="2.12095">
        <ele>87.5</ele>
        <time>2016-02-21T14:25:20Z</time>
      </trkpt>
      <trkpt lat="49.08934" lon="2.12103">
        <ele>88</ele>
        <time>2016-02-21T14:25:27Z</time>
      </trkpt>
      <trkpt lat="49.08928" lon="2.12112">
        <ele>88.4</ele>
        <time>2016-02-21T14:25:34Z</time>
      </trkpt>
      <trkpt lat="49.08923" lon="2.12122">
        <ele>88.4</ele>
        <time>2016-02-21T14:25:40Z</time>
      </trkpt>
      <trkpt lat="49.0892" lon="2.12132">
        <ele>88.7</ele>
        <time>2016-02-21T14:25:46Z</time>
      </trkpt>
      <trkpt lat="49.08915" lon="2.12143">
        <ele>88.9</ele>
        <time>2016-02-21T14:25:52Z</time>
      </trkpt>
      <trkpt lat="49.0891" lon="2.12153">
        <ele>89.2</ele>
        <time>2016-02-21T14:25:58Z</time>
      </trkpt>
      <trkpt lat="49.08906" lon="2.12162">
        <ele>89.2</ele>
        <time>2016-02-21T14:26:04Z</time>
      </trkpt>
      <trkpt lat="49.08901" lon="2.12172">
        <ele>89.8</ele>
        <time>2016-02-21T14:26:10Z</time>
      </trkpt>
      <trkpt lat="49.08895" lon="2.12174">
        <ele>89.5</ele>
        <time>2016-02-21T14:26:17Z</time>
      </trkpt>
      <trkpt lat="49.08889" lon="2.12168">
        <ele>89.3</ele>
        <time>2016-02-21T14:26:24Z</time>
      </trkpt>
      <trkpt lat="49.08883" lon="2.1216">
        <ele>89</ele>
        <time>2016-02-21T14:26:30Z</time>
      </trkpt>
      <trkpt lat="49.08877" lon="2.12154">
        <ele>88.6</ele>
        <time>2016-02-21T14:26:36Z</time>
      </trkpt>
      <trkpt lat="49.0887" lon="2.12147">
        <ele>88.6</ele>
        <time>2016-02-21T14:26:42Z</time>
      </trkpt>
      <trkpt lat="49.08864" lon="2.12138">
        <ele>88.7</ele>
        <time>2016-02-21T14:26:48Z</time>
      </trkpt>
      <trkpt lat="49.08858" lon="2.12129">
        <ele>89</ele>
        <time>2016-02-21T14:26:53Z</time>
      </trkpt>
      <trkpt lat="49.08853" lon="2.12124">
        <ele>89.8</ele>
        <time>2016-02-21T14:27:00Z</time>
      </trkpt>
      <trkpt lat="49.08847" lon="2.12116">
        <ele>90.1</ele>
        <time>2016-02-21T14:27:05Z</time>
      </trkpt>
      <trkpt lat="49.08839" lon="2.12111">
        <ele>89.9</ele>
        <time>2016-02-21T14:27:12Z</time>
      </trkpt>
      <trkpt lat="49.08833" lon="2.12108">
        <ele>89.7</ele>
        <time>2016-02-21T14:27:19Z</time>
      </trkpt>
      <trkpt lat="49.08826" lon="2.12102">
        <ele>89.6</ele>
        <time>2016-02-21T14:27:26Z</time>
      </trkpt>
      <trkpt lat="49.0882" lon="2.12097">
        <ele>89.4</ele>
        <time>2016-02-21T14:27:32Z</time>
      </trkpt>
      <trkpt lat="49.08814" lon="2.1209">
        <ele>89.3</ele>
        <time>2016-02-21T14:27:37Z</time>
      </trkpt>
      <trkpt lat="49.08808" lon="2.12081">
        <ele>89.1</ele>
        <time>2016-02-21T14:27:44Z</time>
      </trkpt>
      <trkpt lat="49.08802" lon="2.12073">
        <ele>89.1</ele>
        <time>2016-02-21T14:27:49Z</time>
      </trkpt>
      <trkpt lat="49.08796" lon="2.12067">
        <ele>88.9</ele>
        <time>2016-02-21T14:27:56Z</time>
      </trkpt>
      <trkpt lat="49.0879" lon="2.12058">
        <ele>89</ele>
        <time>2016-02-21T14:28:02Z</time>
      </trkpt>
      <trkpt lat="49.08784" lon="2.12052">
        <ele>89.8</ele>
        <time>2016-02-21T14:28:09Z</time>
      </trkpt>
      <trkpt lat="49.08778" lon="2.12044">
        <ele>89.9</ele>
        <time>2016-02-21T14:28:14Z</time>
      </trkpt>
      <trkpt lat="49.08771" lon="2.12037">
        <ele>90.1</ele>
        <time>2016-02-21T14:28:21Z</time>
      </trkpt>
      <trkpt lat="49.08768" lon="2.12032">
        <ele>90.6</ele>
        <time>2016-02-21T14:28:28Z</time>
      </trkpt>
      <trkpt lat="49.08762" lon="2.12024">
        <ele>90.9</ele>
        <time>2016-02-21T14:29:31Z</time>
      </trkpt>
      <trkpt lat="49.08755" lon="2.12017">
        <ele>91</ele>
        <time>2016-02-21T14:29:38Z</time>
      </trkpt>
      <trkpt lat="49.08749" lon="2.1201">
        <ele>90.6</ele>
        <time>2016-02-21T14:29:43Z</time>
      </trkpt>
      <trkpt lat="49.08744" lon="2.12002">
        <ele>90.3</ele>
        <time>2016-02-21T14:29:50Z</time>
      </trkpt>
      <trkpt lat="49.08738" lon="2.11995">
        <ele>90.2</ele>
        <time>2016-02-21T14:29:56Z</time>
      </trkpt>
      <trkpt lat="49.08731" lon="2.11987">
        <ele>90</ele>
        <time>2016-02-21T14:30:02Z</time>
      </trkpt>
      <trkpt lat="49.08725" lon="2.11981">
        <ele>89.9</ele>
        <time>2016-02-21T14:30:08Z</time>
      </trkpt>
      <trkpt lat="49.08719" lon="2.11971">
        <ele>89.5</ele>
        <time>2016-02-21T14:30:15Z</time>
      </trkpt>
      <trkpt lat="49.08714" lon="2.1196">
        <ele>89.5</ele>
        <time>2016-02-21T14:30:21Z</time>
      </trkpt>
      <trkpt lat="49.08709" lon="2.1195">
        <ele>89.2</ele>
        <time>2016-02-21T14:30:27Z</time>
      </trkpt>
      <trkpt lat="49.08704" lon="2.11941">
        <ele>89</ele>
        <time>2016-02-21T14:30:32Z</time>
      </trkpt>
      <trkpt lat="49.08699" lon="2.11932">
        <ele>88.8</ele>
        <time>2016-02-21T14:30:38Z</time>
      </trkpt>
      <trkpt lat="49.08695" lon="2.11923">
        <ele>89.1</ele>
        <time>2016-02-21T14:30:43Z</time>
      </trkpt>
      <trkpt lat="49.0869" lon="2.11913">
        <ele>90</ele>
        <time>2016-02-21T14:30:49Z</time>
      </trkpt>
      <trkpt lat="49.08687" lon="2.11901">
        <ele>90.9</ele>
        <time>2016-02-21T14:30:55Z</time>
      </trkpt>
      <trkpt lat="49.08681" lon="2.11892">
        <ele>91.5</ele>
        <time>2016-02-21T14:31:02Z</time>
      </trkpt>
      <trkpt lat="49.08678" lon="2.11884">
        <ele>91.7</ele>
        <time>2016-02-21T14:31:09Z</time>
      </trkpt>
      <trkpt lat="49.08673" lon="2.11876">
        <ele>91.8</ele>
        <time>2016-02-21T14:31:14Z</time>
      </trkpt>
      <trkpt lat="49.08669" lon="2.11866">
        <ele>92.1</ele>
        <time>2016-02-21T14:31:21Z</time>
      </trkpt>
      <trkpt lat="49.08664" lon="2.11855">
        <ele>91.8</ele>
        <time>2016-02-21T14:31:27Z</time>
      </trkpt>
      <trkpt lat="49.08658" lon="2.11846">
        <ele>92.1</ele>
        <time>2016-02-21T14:31:34Z</time>
      </trkpt>
      <trkpt lat="49.08654" lon="2.11837">
        <ele>92.7</ele>
        <time>2016-02-21T14:31:40Z</time>
      </trkpt>
      <trkpt lat="49.08648" lon="2.11827">
        <ele>93.1</ele>
        <time>2016-02-21T14:31:46Z</time>
      </trkpt>
      <trkpt lat="49.08643" lon="2.11817">
        <ele>92.6</ele>
        <time>2016-02-21T14:31:53Z</time>
      </trkpt>
      <trkpt lat="49.08638" lon="2.11808">
        <ele>92.7</ele>
        <time>2016-02-21T14:31:58Z</time>
      </trkpt>
      <trkpt lat="49.08633" lon="2.11799">
        <ele>92.6</ele>
        <time>2016-02-21T14:32:05Z</time>
      </trkpt>
      <trkpt lat="49.08628" lon="2.11789">
        <ele>92.7</ele>
        <time>2016-02-21T14:32:11Z</time>
      </trkpt>
      <trkpt lat="49.08622" lon="2.11781">
        <ele>92.9</ele>
        <time>2016-02-21T14:32:18Z</time>
      </trkpt>
      <trkpt lat="49.08617" lon="2.1177">
        <ele>93.3</ele>
        <time>2016-02-21T14:32:25Z</time>
      </trkpt>
      <trkpt lat="49.08611" lon="2.11764">
        <ele>93.2</ele>
        <time>2016-02-21T14:32:30Z</time>
      </trkpt>
      <trkpt lat="49.08606" lon="2.11757">
        <ele>93.3</ele>
        <time>2016-02-21T14:32:37Z</time>
      </trkpt>
      <trkpt lat="49.08601" lon="2.11747">
        <ele>93</ele>
        <time>2016-02-21T14:32:44Z</time>
      </trkpt>
      <trkpt lat="49.08597" lon="2.11739">
        <ele>92.9</ele>
        <time>2016-02-21T14:32:51Z</time>
      </trkpt>
      <trkpt lat="49.08592" lon="2.11732">
        <ele>93.2</ele>
        <time>2016-02-21T14:32:58Z</time>
      </trkpt>
      <trkpt lat="49.08587" lon="2.11727">
        <ele>93</ele>
        <time>2016-02-21T14:33:05Z</time>
      </trkpt>
      <trkpt lat="49.08581" lon="2.11719">
        <ele>93.1</ele>
        <time>2016-02-21T14:33:10Z</time>
      </trkpt>
      <trkpt lat="49.08576" lon="2.11709">
        <ele>93.3</ele>
        <time>2016-02-21T14:33:16Z</time>
      </trkpt>
      <trkpt lat="49.08571" lon="2.117">
        <ele>93.1</ele>
        <time>2016-02-21T14:33:21Z</time>
      </trkpt>
      <trkpt lat="49.08565" lon="2.11692">
        <ele>92.4</ele>
        <time>2016-02-21T14:33:28Z</time>
      </trkpt>
      <trkpt lat="49.0856" lon="2.11683">
        <ele>92.5</ele>
        <time>2016-02-21T14:33:33Z</time>
      </trkpt>
      <trkpt lat="49.08554" lon="2.11674">
        <ele>92.7</ele>
        <time>2016-02-21T14:33:40Z</time>
      </trkpt>
      <trkpt lat="49.08548" lon="2.11668">
        <ele>92.6</ele>
        <time>2016-02-21T14:33:45Z</time>
      </trkpt>
      <trkpt lat="49.08544" lon="2.11657">
        <ele>92.5</ele>
        <time>2016-02-21T14:33:52Z</time>
      </trkpt>
      <trkpt lat="49.08539" lon="2.11648">
        <ele>92.5</ele>
        <time>2016-02-21T14:33:57Z</time>
      </trkpt>
      <trkpt lat="49.08534" lon="2.11639">
        <ele>92.3</ele>
        <time>2016-02-21T14:34:04Z</time>
      </trkpt>
      <trkpt lat="49.08529" lon="2.11631">
        <ele>92.1</ele>
        <time>2016-02-21T14:34:10Z</time>
      </trkpt>
      <trkpt lat="49.08524" lon="2.1162">
        <ele>91.7</ele>
        <time>2016-02-21T14:34:17Z</time>
      </trkpt>
      <trkpt lat="49.08519" lon="2.11611">
        <ele>91.5</ele>
        <time>2016-02-21T14:34:22Z</time>
      </trkpt>
      <trkpt lat="49.08513" lon="2.11601">
        <ele>91.9</ele>
        <time>2016-02-21T14:34:29Z</time>
      </trkpt>
      <trkpt lat="49.08507" lon="2.11593">
        <ele>92.4</ele>
        <time>2016-02-21T14:34:34Z</time>
      </trkpt>
      <trkpt lat="49.08502" lon="2.11585">
        <ele>93.1</ele>
        <time>2016-02-21T14:34:41Z</time>
      </trkpt>
      <trkpt lat="49.08499" lon="2.11577">
        <ele>93.1</ele>
        <time>2016-02-21T14:34:48Z</time>
      </trkpt>
      <trkpt lat="49.08494" lon="2.11567">
        <ele>92.6</ele>
        <time>2016-02-21T14:34:54Z</time>
      </trkpt>
      <trkpt lat="49.08489" lon="2.11558">
        <ele>92.4</ele>
        <time>2016-02-21T14:34:59Z</time>
      </trkpt>
      <trkpt lat="49.08484" lon="2.1155">
        <ele>92.2</ele>
        <time>2016-02-21T14:35:06Z</time>
      </trkpt>
      <trkpt lat="49.0848" lon="2.11541">
        <ele>91.6</ele>
        <time>2016-02-21T14:35:12Z</time>
      </trkpt>
      <trkpt lat="49.08476" lon="2.11533">
        <ele>90.9</ele>
        <time>2016-02-21T14:35:19Z</time>
      </trkpt>
      <trkpt lat="49.08469" lon="2.11528">
        <ele>90.4</ele>
        <time>2016-02-21T14:35:25Z</time>
      </trkpt>
      <trkpt lat="49.08462" lon="2.11526">
        <ele>89.8</ele>
        <time>2016-02-21T14:35:32Z</time>
      </trkpt>
      <trkpt lat="49.08454" lon="2.11523">
        <ele>89.3</ele>
        <time>2016-02-21T14:35:39Z</time>
      </trkpt>
      <trkpt lat="49.08446" lon="2.11523">
        <ele>89</ele>
        <time>2016-02-21T14:35:45Z</time>
      </trkpt>
      <trkpt lat="49.08439" lon="2.1152">
        <ele>88.7</ele>
        <time>2016-02-21T14:35:51Z</time>
      </trkpt>
      <trkpt lat="49.08431" lon="2.11518">
        <ele>88.9</ele>
        <time>2016-02-21T14:35:58Z</time>
      </trkpt>
      <trkpt lat="49.08424" lon="2.11514">
        <ele>88.5</ele>
        <time>2016-02-21T14:36:04Z</time>
      </trkpt>
      <trkpt lat="49.08416" lon="2.11511">
        <ele>88.5</ele>
        <time>2016-02-21T14:36:10Z</time>
      </trkpt>
      <trkpt lat="49.08409" lon="2.11509">
        <ele>88.2</ele>
        <time>2016-02-21T14:36:16Z</time>
      </trkpt>
      <trkpt lat="49.08403" lon="2.11503">
        <ele>87.6</ele>
        <time>2016-02-21T14:36:21Z</time>
      </trkpt>
      <trkpt lat="49.08395" lon="2.11501">
        <ele>86.6</ele>
        <time>2016-02-21T14:36:27Z</time>
      </trkpt>
      <trkpt lat="49.08388" lon="2.11498">
        <ele>86.1</ele>
        <time>2016-02-21T14:36:32Z</time>
      </trkpt>
      <trkpt lat="49.08381" lon="2.11493">
        <ele>85.9</ele>
        <time>2016-02-21T14:36:39Z</time>
      </trkpt>
      <trkpt lat="49.08373" lon="2.1149">
        <ele>85.3</ele>
        <time>2016-02-21T14:36:46Z</time>
      </trkpt>
      <trkpt lat="49.08367" lon="2.11487">
        <ele>84.7</ele>
        <time>2016-02-21T14:36:53Z</time>
      </trkpt>
      <trkpt lat="49.08359" lon="2.11482">
        <ele>84.2</ele>
        <time>2016-02-21T14:37:00Z</time>
      </trkpt>
      <trkpt lat="49.08351" lon="2.11479">
        <ele>83.6</ele>
        <time>2016-02-21T14:37:06Z</time>
      </trkpt>
      <trkpt lat="49.08343" lon="2.11475">
        <ele>83.1</ele>
        <time>2016-02-21T14:37:12Z</time>
      </trkpt>
      <trkpt lat="49.08336" lon="2.11475">
        <ele>82.7</ele>
        <time>2016-02-21T14:37:17Z</time>
      </trkpt>
      <trkpt lat="49.08329" lon="2.1147">
        <ele>82.5</ele>
        <time>2016-02-21T14:37:24Z</time>
      </trkpt>
      <trkpt lat="49.08321" lon="2.11465">
        <ele>82.1</ele>
        <time>2016-02-21T14:37:30Z</time>
      </trkpt>
      <trkpt lat="49.08314" lon="2.1146">
        <ele>81.6</ele>
        <time>2016-02-21T14:37:37Z</time>
      </trkpt>
      <trkpt lat="49.08307" lon="2.11455">
        <ele>81.2</ele>
        <time>2016-02-21T14:37:43Z</time>
      </trkpt>
      <trkpt lat="49.08301" lon="2.11449">
        <ele>81</ele>
        <time>2016-02-21T14:37:48Z</time>
      </trkpt>
      <trkpt lat="49.08293" lon="2.11446">
        <ele>80.6</ele>
        <time>2016-02-21T14:37:53Z</time>
      </trkpt>
      <trkpt lat="49.08285" lon="2.11441">
        <ele>79.9</ele>
        <time>2016-02-21T14:38:00Z</time>
      </trkpt>
      <trkpt lat="49.08277" lon="2.11439">
        <ele>79.2</ele>
        <time>2016-02-21T14:38:06Z</time>
      </trkpt>
      <trkpt lat="49.08269" lon="2.11435">
        <ele>79</ele>
        <time>2016-02-21T14:38:13Z</time>
      </trkpt>
      <trkpt lat="49.08262" lon="2.11433">
        <ele>78.5</ele>
        <time>2016-02-21T14:38:19Z</time>
      </trkpt>
      <trkpt lat="49.08255" lon="2.11429">
        <ele>78.1</ele>
        <time>2016-02-21T14:38:25Z</time>
      </trkpt>
      <trkpt lat="49.08248" lon="2.11424">
        <ele>77.8</ele>
        <time>2016-02-21T14:38:31Z</time>
      </trkpt>
      <trkpt lat="49.08241" lon="2.11421">
        <ele>77.5</ele>
        <time>2016-02-21T14:38:37Z</time>
      </trkpt>
      <trkpt lat="49.08234" lon="2.11418">
        <ele>77.2</ele>
        <time>2016-02-21T14:38:43Z</time>
      </trkpt>
      <trkpt lat="49.08227" lon="2.11412">
        <ele>76.9</ele>
        <time>2016-02-21T14:38:49Z</time>
      </trkpt>
      <trkpt lat="49.0822" lon="2.11409">
        <ele>76.8</ele>
        <time>2016-02-21T14:38:55Z</time>
      </trkpt>
      <trkpt lat="49.08212" lon="2.11406">
        <ele>77</ele>
        <time>2016-02-21T14:39:00Z</time>
      </trkpt>
      <trkpt lat="49.08204" lon="2.11404">
        <ele>76.9</ele>
        <time>2016-02-21T14:39:05Z</time>
      </trkpt>
      <trkpt lat="49.08197" lon="2.11402">
        <ele>78.2</ele>
        <time>2016-02-21T14:39:12Z</time>
      </trkpt>
      <trkpt lat="49.0819" lon="2.11398">
        <ele>79.1</ele>
        <time>2016-02-21T14:39:19Z</time>
      </trkpt>
      <trkpt lat="49.08183" lon="2.11391">
        <ele>79.7</ele>
        <time>2016-02-21T14:39:24Z</time>
      </trkpt>
      <trkpt lat="49.08176" lon="2.11387">
        <ele>80.3</ele>
        <time>2016-02-21T14:39:31Z</time>
      </trkpt>
      <trkpt lat="49.08168" lon="2.11385">
        <ele>80.9</ele>
        <time>2016-02-21T14:39:37Z</time>
      </trkpt>
      <trkpt lat="49.0816" lon="2.11381">
        <ele>81.8</ele>
        <time>2016-02-21T14:39:44Z</time>
      </trkpt>
      <trkpt lat="49.08152" lon="2.11377">
        <ele>82.6</ele>
        <time>2016-02-21T14:39:51Z</time>
      </trkpt>
      <trkpt lat="49.08145" lon="2.11373">
        <ele>83.2</ele>
        <time>2016-02-21T14:39:57Z</time>
      </trkpt>
      <trkpt lat="49.08137" lon="2.11367">
        <ele>83.7</ele>
        <time>2016-02-21T14:40:03Z</time>
      </trkpt>
      <trkpt lat="49.08129" lon="2.11367">
        <ele>84.7</ele>
        <time>2016-02-21T14:40:10Z</time>
      </trkpt>
      <trkpt lat="49.08121" lon="2.11367">
        <ele>84.9</ele>
        <time>2016-02-21T14:40:16Z</time>
      </trkpt>
      <trkpt lat="49.08113" lon="2.11365">
        <ele>84.9</ele>
        <time>2016-02-21T14:40:22Z</time>
      </trkpt>
      <trkpt lat="49.08106" lon="2.11364">
        <ele>84.2</ele>
        <time>2016-02-21T14:40:29Z</time>
      </trkpt>
      <trkpt lat="49.08098" lon="2.11361">
        <ele>83.6</ele>
        <time>2016-02-21T14:40:35Z</time>
      </trkpt>
      <trkpt lat="49.0809" lon="2.11358">
        <ele>82.9</ele>
        <time>2016-02-21T14:40:41Z</time>
      </trkpt>
      <trkpt lat="49.08083" lon="2.11355">
        <ele>82.3</ele>
        <time>2016-02-21T14:40:47Z</time>
      </trkpt>
      <trkpt lat="49.08076" lon="2.1135">
        <ele>82.2</ele>
        <time>2016-02-21T14:40:52Z</time>
      </trkpt>
      <trkpt lat="49.08068" lon="2.11349">
        <ele>82.1</ele>
        <time>2016-02-21T14:40:57Z</time>
      </trkpt>
      <trkpt lat="49.08061" lon="2.11346">
        <ele>82.1</ele>
        <time>2016-02-21T14:41:04Z</time>
      </trkpt>
      <trkpt lat="49.08053" lon="2.11343">
        <ele>81.6</ele>
        <time>2016-02-21T14:41:11Z</time>
      </trkpt>
      <trkpt lat="49.08046" lon="2.11339">
        <ele>81.2</ele>
        <time>2016-02-21T14:41:16Z</time>
      </trkpt>
      <trkpt lat="49.08039" lon="2.11337">
        <ele>80.8</ele>
        <time>2016-02-21T14:41:22Z</time>
      </trkpt>
      <trkpt lat="49.08031" lon="2.11336">
        <ele>80.2</ele>
        <time>2016-02-21T14:41:28Z</time>
      </trkpt>
      <trkpt lat="49.08024" lon="2.11333">
        <ele>80.5</ele>
        <time>2016-02-21T14:41:34Z</time>
      </trkpt>
      <trkpt lat="49.08016" lon="2.1133">
        <ele>80.6</ele>
        <time>2016-02-21T14:41:40Z</time>
      </trkpt>
      <trkpt lat="49.08009" lon="2.11329">
        <ele>79.9</ele>
        <time>2016-02-21T14:41:47Z</time>
      </trkpt>
      <trkpt lat="49.08002" lon="2.11327">
        <ele>79.7</ele>
        <time>2016-02-21T14:41:52Z</time>
      </trkpt>
      <trkpt lat="49.07995" lon="2.11326">
        <ele>79.9</ele>
        <time>2016-02-21T14:41:59Z</time>
      </trkpt>
      <trkpt lat="49.07987" lon="2.11322">
        <ele>79.6</ele>
        <time>2016-02-21T14:42:04Z</time>
      </trkpt>
      <trkpt lat="49.07979" lon="2.1132">
        <ele>79.6</ele>
        <time>2016-02-21T14:42:09Z</time>
      </trkpt>
      <trkpt lat="49.07971" lon="2.11319">
        <ele>79.2</ele>
        <time>2016-02-21T14:42:16Z</time>
      </trkpt>
      <trkpt lat="49.07964" lon="2.11319">
        <ele>79.1</ele>
        <time>2016-02-21T14:42:22Z</time>
      </trkpt>
      <trkpt lat="49.07956" lon="2.11315">
        <ele>78.8</ele>
        <time>2016-02-21T14:42:29Z</time>
      </trkpt>
      <trkpt lat="49.07948" lon="2.11313">
        <ele>78.7</ele>
        <time>2016-02-21T14:42:34Z</time>
      </trkpt>
      <trkpt lat="49.07941" lon="2.11309">
        <ele>78.7</ele>
        <time>2016-02-21T14:42:41Z</time>
      </trkpt>
      <trkpt lat="49.07934" lon="2.11306">
        <ele>78.9</ele>
        <time>2016-02-21T14:42:46Z</time>
      </trkpt>
      <trkpt lat="49.07926" lon="2.11304">
        <ele>79.4</ele>
        <time>2016-02-21T14:42:52Z</time>
      </trkpt>
      <trkpt lat="49.07919" lon="2.11303">
        <ele>79.6</ele>
        <time>2016-02-21T14:42:57Z</time>
      </trkpt>
      <trkpt lat="49.07912" lon="2.11303">
        <ele>80</ele>
        <time>2016-02-21T14:43:04Z</time>
      </trkpt>
      <trkpt lat="49.07904" lon="2.11304">
        <ele>79.8</ele>
        <time>2016-02-21T14:43:10Z</time>
      </trkpt>
      <trkpt lat="49.07897" lon="2.11304">
        <ele>79.6</ele>
        <time>2016-02-21T14:43:17Z</time>
      </trkpt>
      <trkpt lat="49.07889" lon="2.11304">
        <ele>80</ele>
        <time>2016-02-21T14:43:22Z</time>
      </trkpt>
      <trkpt lat="49.07881" lon="2.11304">
        <ele>80.6</ele>
        <time>2016-02-21T14:43:29Z</time>
      </trkpt>
      <trkpt lat="49.07873" lon="2.11307">
        <ele>81.1</ele>
        <time>2016-02-21T14:43:35Z</time>
      </trkpt>
      <trkpt lat="49.07865" lon="2.11308">
        <ele>81.4</ele>
        <time>2016-02-21T14:43:41Z</time>
      </trkpt>
      <trkpt lat="49.07857" lon="2.11309">
        <ele>81.7</ele>
        <time>2016-02-21T14:43:48Z</time>
      </trkpt>
      <trkpt lat="49.07851" lon="2.1131">
        <ele>81.4</ele>
        <time>2016-02-21T14:43:55Z</time>
      </trkpt>
      <trkpt lat="49.0785" lon="2.11312">
        <ele>81.1</ele>
        <time>2016-02-21T14:44:02Z</time>
      </trkpt>
      <trkpt lat="49.07847" lon="2.11315">
        <ele>82</ele>
        <time>2016-02-21T14:44:17Z</time>
      </trkpt>
      <trkpt lat="49.0785" lon="2.11314">
        <ele>82.5</ele>
        <time>2016-02-21T14:44:27Z</time>
      </trkpt>
      <trkpt lat="49.07843" lon="2.11306">
        <ele>83.3</ele>
        <time>2016-02-21T14:45:40Z</time>
      </trkpt>
      <trkpt lat="49.07841" lon="2.11295">
        <ele>83.9</ele>
        <time>2016-02-21T14:45:47Z</time>
      </trkpt>
      <trkpt lat="49.07837" lon="2.11286">
        <ele>84.6</ele>
        <time>2016-02-21T14:45:53Z</time>
      </trkpt>
      <trkpt lat="49.07833" lon="2.11276">
        <ele>85</ele>
        <time>2016-02-21T14:45:59Z</time>
      </trkpt>
      <trkpt lat="49.07829" lon="2.11265">
        <ele>85.4</ele>
        <time>2016-02-21T14:46:06Z</time>
      </trkpt>
      <trkpt lat="49.07826" lon="2.11256">
        <ele>85.9</ele>
        <time>2016-02-21T14:46:13Z</time>
      </trkpt>
      <trkpt lat="49.07823" lon="2.11245">
        <ele>86.4</ele>
        <time>2016-02-21T14:46:19Z</time>
      </trkpt>
      <trkpt lat="49.07819" lon="2.11234">
        <ele>87.3</ele>
        <time>2016-02-21T14:46:25Z</time>
      </trkpt>
      <trkpt lat="49.07815" lon="2.11224">
        <ele>88.4</ele>
        <time>2016-02-21T14:46:31Z</time>
      </trkpt>
      <trkpt lat="49.07811" lon="2.11213">
        <ele>89.6</ele>
        <time>2016-02-21T14:46:38Z</time>
      </trkpt>
      <trkpt lat="49.07807" lon="2.11203">
        <ele>90.2</ele>
        <time>2016-02-21T14:46:44Z</time>
      </trkpt>
      <trkpt lat="49.07804" lon="2.11192">
        <ele>90.8</ele>
        <time>2016-02-21T14:46:50Z</time>
      </trkpt>
      <trkpt lat="49.078" lon="2.1118">
        <ele>92.2</ele>
        <time>2016-02-21T14:46:57Z</time>
      </trkpt>
      <trkpt lat="49.07797" lon="2.1117">
        <ele>92.3</ele>
        <time>2016-02-21T14:47:04Z</time>
      </trkpt>
      <trkpt lat="49.07792" lon="2.1116">
        <ele>93.2</ele>
        <time>2016-02-21T14:47:11Z</time>
      </trkpt>
      <trkpt lat="49.07787" lon="2.11151">
        <ele>93.9</ele>
        <time>2016-02-21T14:47:16Z</time>
      </trkpt>
      <trkpt lat="49.07786" lon="2.1114">
        <ele>94.1</ele>
        <time>2016-02-21T14:47:21Z</time>
      </trkpt>
      <trkpt lat="49.07784" lon="2.11129">
        <ele>94.2</ele>
        <time>2016-02-21T14:47:28Z</time>
      </trkpt>
      <trkpt lat="49.07781" lon="2.11117">
        <ele>94.6</ele>
        <time>2016-02-21T14:47:34Z</time>
      </trkpt>
      <trkpt lat="49.07778" lon="2.11107">
        <ele>95</ele>
        <time>2016-02-21T14:47:41Z</time>
      </trkpt>
      <trkpt lat="49.07774" lon="2.11097">
        <ele>95.4</ele>
        <time>2016-02-21T14:47:48Z</time>
      </trkpt>
      <trkpt lat="49.07769" lon="2.11086">
        <ele>95.7</ele>
        <time>2016-02-21T14:47:54Z</time>
      </trkpt>
      <trkpt lat="49.07766" lon="2.11075">
        <ele>96.1</ele>
        <time>2016-02-21T14:48:00Z</time>
      </trkpt>
      <trkpt lat="49.07762" lon="2.11066">
        <ele>96.5</ele>
        <time>2016-02-21T14:48:05Z</time>
      </trkpt>
      <trkpt lat="49.07757" lon="2.11058">
        <ele>97.2</ele>
        <time>2016-02-21T14:48:12Z</time>
      </trkpt>
      <trkpt lat="49.07753" lon="2.11047">
        <ele>97.6</ele>
        <time>2016-02-21T14:48:19Z</time>
      </trkpt>
      <trkpt lat="49.0775" lon="2.11036">
        <ele>98</ele>
        <time>2016-02-21T14:48:24Z</time>
      </trkpt>
      <trkpt lat="49.07746" lon="2.11026">
        <ele>98.7</ele>
        <time>2016-02-21T14:48:30Z</time>
      </trkpt>
      <trkpt lat="49.07744" lon="2.11015">
        <ele>98.5</ele>
        <time>2016-02-21T14:48:37Z</time>
      </trkpt>
      <trkpt lat="49.07741" lon="2.11005">
        <ele>99.3</ele>
        <time>2016-02-21T14:48:44Z</time>
      </trkpt>
      <trkpt lat="49.07741" lon="2.10993">
        <ele>99.5</ele>
        <time>2016-02-21T14:48:49Z</time>
      </trkpt>
      <trkpt lat="49.07741" lon="2.10981">
        <ele>99.5</ele>
        <time>2016-02-21T14:48:55Z</time>
      </trkpt>
      <trkpt lat="49.07743" lon="2.1097">
        <ele>100.3</ele>
        <time>2016-02-21T14:49:02Z</time>
      </trkpt>
      <trkpt lat="49.07748" lon="2.1096">
        <ele>101.5</ele>
        <time>2016-02-21T14:49:07Z</time>
      </trkpt>
      <trkpt lat="49.07748" lon="2.10948">
        <ele>101.2</ele>
        <time>2016-02-21T14:49:14Z</time>
      </trkpt>
      <trkpt lat="49.0775" lon="2.10935">
        <ele>101.4</ele>
        <time>2016-02-21T14:49:20Z</time>
      </trkpt>
      <trkpt lat="49.07748" lon="2.10922">
        <ele>101.7</ele>
        <time>2016-02-21T14:49:26Z</time>
      </trkpt>
      <trkpt lat="49.07749" lon="2.1091">
        <ele>101.6</ele>
        <time>2016-02-21T14:49:31Z</time>
      </trkpt>
      <trkpt lat="49.07747" lon="2.10899">
        <ele>101.6</ele>
        <time>2016-02-21T14:49:38Z</time>
      </trkpt>
      <trkpt lat="49.07751" lon="2.10894">
        <ele>101.1</ele>
        <time>2016-02-21T14:49:45Z</time>
      </trkpt>
      <trkpt lat="49.07748" lon="2.10883">
        <ele>101.2</ele>
        <time>2016-02-21T14:49:52Z</time>
      </trkpt>
      <trkpt lat="49.07747" lon="2.1087">
        <ele>101.2</ele>
        <time>2016-02-21T14:49:58Z</time>
      </trkpt>
      <trkpt lat="49.07747" lon="2.10858">
        <ele>101.7</ele>
        <time>2016-02-21T14:50:03Z</time>
      </trkpt>
      <trkpt lat="49.07748" lon="2.10847">
        <ele>101.7</ele>
        <time>2016-02-21T14:50:09Z</time>
      </trkpt>
      <trkpt lat="49.07746" lon="2.10835">
        <ele>101.4</ele>
        <time>2016-02-21T14:50:15Z</time>
      </trkpt>
      <trkpt lat="49.07748" lon="2.10824">
        <ele>101.3</ele>
        <time>2016-02-21T14:50:21Z</time>
      </trkpt>
      <trkpt lat="49.07751" lon="2.10812">
        <ele>100.7</ele>
        <time>2016-02-21T14:50:27Z</time>
      </trkpt>
      <trkpt lat="49.07753" lon="2.10802">
        <ele>100.1</ele>
        <time>2016-02-21T14:50:33Z</time>
      </trkpt>
      <trkpt lat="49.07753" lon="2.10789">
        <ele>99.1</ele>
        <time>2016-02-21T14:50:40Z</time>
      </trkpt>
      <trkpt lat="49.07756" lon="2.10777">
        <ele>98.8</ele>
        <time>2016-02-21T14:50:47Z</time>
      </trkpt>
      <trkpt lat="49.07757" lon="2.10767">
        <ele>98.3</ele>
        <time>2016-02-21T14:50:54Z</time>
      </trkpt>
      <trkpt lat="49.07759" lon="2.10756">
        <ele>97.2</ele>
        <time>2016-02-21T14:51:01Z</time>
      </trkpt>
      <trkpt lat="49.07759" lon="2.10744">
        <ele>96.5</ele>
        <time>2016-02-21T14:51:07Z</time>
      </trkpt>
      <trkpt lat="49.07762" lon="2.10732">
        <ele>96.5</ele>
        <time>2016-02-21T14:51:13Z</time>
      </trkpt>
      <trkpt lat="49.07764" lon="2.10721">
        <ele>96.1</ele>
        <time>2016-02-21T14:51:20Z</time>
      </trkpt>
      <trkpt lat="49.07763" lon="2.10709">
        <ele>95.4</ele>
        <time>2016-02-21T14:51:26Z</time>
      </trkpt>
      <trkpt lat="49.07766" lon="2.10704">
        <ele>94.8</ele>
        <time>2016-02-21T14:51:33Z</time>
      </trkpt>
      <trkpt lat="49.07765" lon="2.10699">
        <ele>95</ele>
        <time>2016-02-21T14:51:40Z</time>
      </trkpt>
      <trkpt lat="49.07759" lon="2.10693">
        <ele>94.9</ele>
        <time>2016-02-21T14:51:47Z</time>
      </trkpt>
      <trkpt lat="49.07753" lon="2.10685">
        <ele>94.6</ele>
        <time>2016-02-21T14:51:54Z</time>
      </trkpt>
      <trkpt lat="49.07745" lon="2.10679">
        <ele>94.3</ele>
        <time>2016-02-21T14:52:00Z</time>
      </trkpt>
      <trkpt lat="49.07738" lon="2.10675">
        <ele>94.2</ele>
        <time>2016-02-21T14:52:04Z</time>
      </trkpt>
      <trkpt lat="49.07731" lon="2.10673">
        <ele>93.7</ele>
        <time>2016-02-21T14:52:10Z</time>
      </trkpt>
      <trkpt lat="49.07724" lon="2.10667">
        <ele>93.3</ele>
        <time>2016-02-21T14:52:16Z</time>
      </trkpt>
      <trkpt lat="49.07718" lon="2.10658">
        <ele>93</ele>
        <time>2016-02-21T14:52:22Z</time>
      </trkpt>
      <trkpt lat="49.07713" lon="2.10649">
        <ele>92.9</ele>
        <time>2016-02-21T14:52:28Z</time>
      </trkpt>
      <trkpt lat="49.07709" lon="2.10638">
        <ele>92.9</ele>
        <time>2016-02-21T14:52:33Z</time>
      </trkpt>
      <trkpt lat="49.07704" lon="2.1063">
        <ele>92.7</ele>
        <time>2016-02-21T14:52:38Z</time>
      </trkpt>
      <trkpt lat="49.07697" lon="2.10627">
        <ele>92.9</ele>
        <time>2016-02-21T14:52:42Z</time>
      </trkpt>
      <trkpt lat="49.0769" lon="2.10622">
        <ele>92.9</ele>
        <time>2016-02-21T14:52:47Z</time>
      </trkpt>
      <trkpt lat="49.07681" lon="2.10618">
        <ele>93</ele>
        <time>2016-02-21T14:52:53Z</time>
      </trkpt>
      <trkpt lat="49.07675" lon="2.10613">
        <ele>93</ele>
        <time>2016-02-21T14:52:58Z</time>
      </trkpt>
      <trkpt lat="49.07675" lon="2.10604">
        <ele>92.1</ele>
        <time>2016-02-21T14:53:05Z</time>
      </trkpt>
      <trkpt lat="49.0767" lon="2.10594">
        <ele>91.8</ele>
        <time>2016-02-21T14:53:12Z</time>
      </trkpt>
      <trkpt lat="49.07663" lon="2.10586">
        <ele>91.4</ele>
        <time>2016-02-21T14:53:17Z</time>
      </trkpt>
      <trkpt lat="49.07658" lon="2.10577">
        <ele>91.4</ele>
        <time>2016-02-21T14:53:24Z</time>
      </trkpt>
      <trkpt lat="49.07651" lon="2.10568">
        <ele>91.6</ele>
        <time>2016-02-21T14:53:31Z</time>
      </trkpt>
      <trkpt lat="49.07649" lon="2.10556">
        <ele>91.6</ele>
        <time>2016-02-21T14:53:38Z</time>
      </trkpt>
      <trkpt lat="49.07648" lon="2.10555">
        <ele>91.5</ele>
        <time>2016-02-21T14:53:45Z</time>
      </trkpt>
      <trkpt lat="49.07633" lon="2.10565">
        <ele>89.6</ele>
        <time>2016-02-21T14:54:17Z</time>
      </trkpt>
      <trkpt lat="49.07631" lon="2.10564">
        <ele>88.7</ele>
        <time>2016-02-21T14:54:24Z</time>
      </trkpt>
    </trkseg>
  </trk>
</gpx>